# Wetter Temperatur Luftdruck Luftfeuchtigkeit Sichtweite Windgeschwindigkeit Windrichtung Zeit
1 Dust 27 1009 54 4000 0.41 212 09:40 14.07.2020
2 Dust 27 1009 54 4000 2.08 314 09:22 14.07.2020
3 Dust 25 1009 61 4000 2.08 314 08:57 14.07.2020
4 Dust 25 1009 61 4000 2.08 314 08:37 14.07.2020
5 Dust 25 1009 61 4000 3.79 314 08:18 14.07.2020
6 Haze 23 1009 69 4000 3.79 314 07:42 14.07.2020
7 Haze 23 1009 69 4000 4.65 312 07:19 14.07.2020
8 Haze 21 1008 73 4000 4.65 312 06:50 14.07.2020
9 Dust 18 1008 77 4000 1.5 180 06:25 14.07.2020
10 Dust 18 1008 77 4000 1.5 180 05:49 14.07.2020
11 Clear 19 1007 77 6000 5.05 321 04:39 14.07.2020
12 Clear 19 1007 77 6000 5.27 321 03:54 14.07.2020
13 Clear 19 1007 77 6000 5.35 323 03:19 14.07.2020
14 Clear 23 1007 64 6000 3.1 30 02:27 14.07.2020
15 Clear 24 1007 57 6000 4.1 320 01:41 14.07.2020
16 Clear 24 1007 57 6000 4.1 320 01:21 14.07.2020
17 Clear 23 1007 60 6000 4.1 320 00:41 14.07.2020
18 Clear 23 1007 60 6000 4.1 320 00:21 14.07.2020
19 Clear 23 1007 57 6000 4.1 320 23:38 13.07.2020
20 Clear 23 1007 57 6000 4.1 320 23:19 13.07.2020
21 Clear 23 1007 57 6000 4.1 320 23:19 13.07.2020
22 Clear 24 1007 64 6000 5.1 310 22:57 13.07.2020
23 Clear 24 1007 64 6000 5.1 310 22:39 13.07.2020
24 Clear 24 1007 64 6000 5.1 310 22:19 13.07.2020
25 Clear 25 1007 61 6000 4.6 300 21:54 13.07.2020
26 Clear 25 1007 61 6000 4.6 300 21:36 13.07.2020
27 Clear 25 1007 61 6000 4.6 300 21:18 13.07.2020
28 Clear 25 1007 61 6000 4.6 300 21:18 13.07.2020
29 Clear 26 1007 57 7000 2.1 250 20:54 13.07.2020
30 Clear 26 1007 57 7000 2.1 250 20:36 13.07.2020
31 Clear 26 1007 57 7000 2.1 250 20:18 13.07.2020
32 Clear 27 1007 51 7000 4.1 280 19:42 13.07.2020
33 Clear 27 1007 51 7000 4.1 280 19:23 13.07.2020
34 Clear 29 1006 42 8000 3.6 290 18:57 13.07.2020
35 Clear 29 1006 42 8000 3.6 290 18:38 13.07.2020
36 Clear 29 1006 42 8000 3.6 290 18:38 13.07.2020
37 Clear 29 1006 42 8000 3.6 290 18:19 13.07.2020
38 Clear 31 1006 38 8000 6.2 270 17:55 13.07.2020
39 Clear 31 1006 38 8000 6.2 270 17:37 13.07.2020
40 Clear 31 1006 38 8000 6.2 270 17:18 13.07.2020
41 Clouds 31 1006 38 8000 6.2 270 16:42 13.07.2020
42 Clouds 31 1006 38 8000 6.2 270 16:42 13.07.2020
43 Clouds 31 1006 38 8000 6.2 270 16:21 13.07.2020
44 Clouds 32 1006 35 7000 6.7 270 15:59 13.07.2020
45 Clouds 32 1006 35 7000 6.7 270 15:39 13.07.2020
46 Clouds 32 1006 35 7000 6.7 270 15:20 13.07.2020
47 Clouds 31 1006 40 6000 5.1 280 14:58 13.07.2020
48 Clouds 31 1006 40 6000 5.1 280 14:39 13.07.2020
49 Clouds 31 1006 40 6000 5.1 280 14:20 13.07.2020
50 Clear 31 1006 38 8000 5.1 260 13:56 13.07.2020
51 Clear 31 1006 38 8000 5.1 260 13:37 13.07.2020
52 Clear 31 1006 38 8000 5.1 260 13:19 13.07.2020
53 Clear 30 1006 35 8000 5.1 240 12:43 13.07.2020
54 Clear 30 1006 35 8000 5.1 240 12:22 13.07.2020
55 Clear 29 1007 37 8000 6.2 220 11:58 13.07.2020
56 Clear 29 1007 37 8000 6.2 220 11:38 13.07.2020
57 Clear 29 1007 37 8000 6.2 220 11:19 13.07.2020
58 Clear 29 1007 37 8000 4.1 350 10:38 13.07.2020
59 Clear 29 1007 37 8000 4.1 350 10:20 13.07.2020
60 Clear 28 1007 35 8000 7.74 315 09:43 13.07.2020
61 Clear 28 1007 35 8000 7.87 314 09:25 13.07.2020
62 Clear 26 1007 36 8000 2.1 100 08:53 13.07.2020
63 Clear 26 1007 36 8000 2.1 100 08:34 13.07.2020
64 Clear 24 1007 33 6000 2.1 100 07:44 13.07.2020
65 Clear 24 1007 33 6000 2.1 100 07:20 13.07.2020
66 Clear 22 1007 38 6000 3.6 240 06:44 13.07.2020
67 Clear 22 1007 38 6000 3.6 240 06:22 13.07.2020
68 Clear 21 1007 40 10000 3.1 290 04:43 13.07.2020
69 Clear 23 1008 43 10000 4.1 290 01:57 13.07.2020
70 Clear 23 1008 43 10000 4.1 290 01:31 13.07.2020
71 Clear 23 1008 43 10000 4.1 290 01:31 13.07.2020
72 Clear 23 1009 41 8000 6.2 280 00:59 13.07.2020
73 Clear 23 1009 41 8000 6.2 280 00:28 13.07.2020
74 Clear 24 1009 41 8000 6.2 280 23:59 12.07.2020
75 Clear 24 1009 41 8000 6.2 280 23:40 12.07.2020
76 Clear 24 1009 41 8000 6.2 280 23:22 12.07.2020
77 Clear 24 1009 50 8000 6.2 280 22:55 12.07.2020
78 Clear 24 1009 50 8000 6.2 280 22:36 12.07.2020
79 Clear 24 1009 50 8000 6.2 280 22:36 12.07.2020
80 Clear 24 1009 50 8000 6.2 280 22:18 12.07.2020
81 Clear 25 1009 47 8000 6.2 280 21:42 12.07.2020
82 Clear 25 1009 47 8000 6.2 280 21:20 12.07.2020
83 Clear 25 1009 44 8000 5.1 280 20:59 12.07.2020
84 Clear 25 1009 44 8000 5.1 280 20:41 12.07.2020
85 Clear 25 1009 44 8000 5.1 280 20:20 12.07.2020
86 Clear 21 1009 59 7000 6.2 300 19:59 12.07.2020
87 Clear 21 1009 59 7000 6.2 300 19:39 12.07.2020
88 Clear 21 1009 59 7000 6.2 300 19:20 12.07.2020
89 Clear 28 1009 32 7000 7.7 290 18:54 12.07.2020
90 Clear 28 1009 32 7000 7.7 290 18:36 12.07.2020
91 Clear 28 1009 32 7000 7.7 290 18:18 12.07.2020
92 Clear 30 1008 35 6000 7.7 310 17:38 12.07.2020
93 Clear 30 1008 35 6000 7.7 310 17:20 12.07.2020
94 Clouds 31 1008 33 6000 7.7 280 16:48 12.07.2020
95 Clouds 31 1008 33 6000 7.7 280 16:22 12.07.2020
96 Clouds 31 1009 33 6000 7.2 290 15:51 12.07.2020
97 Clouds 31 1009 33 6000 7.2 290 15:31 12.07.2020
98 Clouds 31 1009 33 6000 7.2 290 15:31 12.07.2020
99 Clouds 31 1009 33 6000 6.7 300 14:58 12.07.2020
100 Clouds 31 1009 33 6000 6.7 300 14:40 12.07.2020
101 Clouds 31 1009 33 6000 6.7 300 14:22 12.07.2020
102 Clouds 32 1009 29 7000 8.2 310 13:40 12.07.2020
103 Clouds 32 1009 29 7000 8.2 310 13:21 12.07.2020
104 Clouds 31 1009 29 10000 4.1 250 12:57 12.07.2020
105 Clouds 31 1009 29 10000 4.1 250 12:39 12.07.2020
106 Clouds 31 1009 29 10000 4.1 250 12:19 12.07.2020
107 Clouds 30 1009 29 10000 4.1 250 11:55 12.07.2020
108 Clouds 30 1009 29 10000 4.1 250 11:36 12.07.2020
109 Clouds 29 1009 29 10000 4.1 250 11:18 12.07.2020
110 Clear 29 1009 37 7000 4.1 250 10:41 12.07.2020
111 Clear 29 1009 37 7000 4.1 250 10:19 12.07.2020
112 Clear 28 1009 37 7000 7.2 320 09:43 12.07.2020
113 Clear 28 1009 37 7000 7.2 320 09:22 12.07.2020
114 Clouds 27 1009 42 7000 4.1 320 08:57 12.07.2020
115 Clouds 27 1009 42 7000 4.1 320 08:38 12.07.2020
116 Clouds 27 1009 42 7000 4.1 320 08:19 12.07.2020
117 Clouds 25 1009 50 7000 4.1 340 07:47 12.07.2020
118 Clouds 25 1009 50 7000 4.1 340 07:28 12.07.2020
119 Clouds 22 1009 56 8000 2.1 250 06:53 12.07.2020
120 Clouds 22 1009 56 8000 2.1 250 06:22 12.07.2020
121 Clear 21 1009 46 8000 2.1 270 05:59 12.07.2020
122 Clear 22 1009 41 8000 3.1 300 04:58 12.07.2020
123 Clear 22 1009 41 8000 3.1 300 04:29 12.07.2020
124 Clear 22 1009 41 8000 5.1 290 03:45 12.07.2020
125 Clear 22 1009 41 8000 5.1 290 03:24 12.07.2020
126 Clear 24 1009 41 8000 4.1 280 02:26 12.07.2020
127 Clear 23 1010 53 8000 3.1 280 01:29 12.07.2020
128 Clear 23 1010 57 8000 3.1 300 00:39 12.07.2020
129 Clear 23 1010 57 8000 3.1 300 00:21 12.07.2020
130 Clear 23 1011 57 8000 4.1 310 23:41 11.07.2020
131 Clear 23 1011 57 8000 4.1 310 23:22 11.07.2020
132 Clear 24 1011 57 8000 3.6 300 23:00 11.07.2020
133 Clear 24 1011 57 8000 3.6 300 22:41 11.07.2020
134 Clear 24 1011 57 8000 3.6 300 22:23 11.07.2020
135 Clear 24 1011 64 8000 4.1 310 21:57 11.07.2020
136 Clear 24 1011 64 8000 4.1 310 21:38 11.07.2020
137 Clear 24 1011 64 8000 4.1 310 21:19 11.07.2020
138 Clear 25 1011 65 8000 4.1 300 20:55 11.07.2020
139 Clear 25 1011 65 8000 4.1 300 20:37 11.07.2020
140 Clear 25 1011 65 8000 4.1 300 20:18 11.07.2020
141 Clouds 32 1011 34 6000 6.2 280 19:48 11.07.2020
142 Clouds 32 1011 34 6000 6.2 280 19:29 11.07.2020
143 Clouds 28 1011 54 6000 6.2 280 18:58 11.07.2020
144 Clouds 28 1011 54 6000 6.2 280 18:39 11.07.2020
145 Clouds 28 1011 54 6000 6.2 280 18:21 11.07.2020
146 Clouds 30 1011 42 6000 7.2 280 17:57 11.07.2020
147 Clouds 30 1011 42 6000 7.2 280 17:38 11.07.2020
148 Clouds 30 1011 42 6000 7.2 280 17:19 11.07.2020
149 Clear 31 1011 37 6000 5.1 300 16:56 11.07.2020
150 Clear 31 1011 37 6000 5.1 300 16:37 11.07.2020
151 Clear 31 1011 37 6000 5.1 300 16:18 11.07.2020
152 Clear 31 1011 38 6000 5.1 300 15:42 11.07.2020
153 Clear 31 1011 38 6000 5.1 300 15:42 11.07.2020
154 Clear 31 1011 38 6000 5.1 300 15:21 11.07.2020
155 Clear 32 1011 38 6000 6.2 300 14:59 11.07.2020
156 Clear 32 1011 38 6000 6.2 300 14:40 11.07.2020
157 Clear 32 1011 38 6000 6.2 300 14:22 11.07.2020
158 Clouds 32 1011 31 6000 6.7 300 13:44 11.07.2020
159 Clouds 32 1011 31 6000 6.7 300 13:23 11.07.2020
160 Clear 31 1011 33 7000 6.7 300 12:59 11.07.2020
161 Clear 31 1011 33 7000 6.7 300 12:41 11.07.2020
162 Clear 31 1011 33 7000 6.7 300 12:23 11.07.2020
163 Clear 30 1011 33 7000 5.1 310 11:57 11.07.2020
164 Clear 30 1011 33 7000 5.1 310 11:39 11.07.2020
165 Clear 30 1011 33 7000 5.1 310 11:19 11.07.2020
166 Clear 29 1011 37 7000 5.1 310 10:45 11.07.2020
167 Clear 29 1011 37 7000 5.1 310 10:26 11.07.2020
168 Clear 28 1011 39 7000 4.1 320 09:56 11.07.2020
169 Clear 28 1011 39 7000 4.1 320 09:37 11.07.2020
170 Clear 28 1011 39 7000 4.1 320 09:18 11.07.2020
171 Clear 26 1011 44 7000 4.1 300 08:38 11.07.2020
172 Clear 26 1011 44 7000 4.1 300 08:19 11.07.2020
173 Clear 24 1012 50 7000 1.5 280 07:46 11.07.2020
174 Clear 24 1012 50 7000 1.5 280 07:27 11.07.2020
175 Clear 24 1012 50 7000 1.5 280 07:27 11.07.2020
176 Clear 21 1012 56 7000 2.1 270 06:59 11.07.2020
177 Clear 21 1012 56 7000 2.1 270 06:23 11.07.2020
178 Clear 20 1011 53 7000 2.6 240 05:46 11.07.2020
179 Clear 20 1011 53 7000 2.6 240 05:46 11.07.2020
180 Clear 21 1011 68 6000 1.5 260 04:59 11.07.2020
181 Clear 21 1011 68 6000 1.5 260 04:39 11.07.2020
182 Clear 21 1011 68 6000 1.5 260 04:19 11.07.2020
183 Clear 22 1011 49 7000 5.54 326 02:52 11.07.2020
184 Clear 22 1011 53 7000 4.74 319 01:56 11.07.2020
185 Clear 22 1011 53 7000 6.51 319 01:21 11.07.2020
186 Clear 23 1012 49 7000 6.51 319 00:55 11.07.2020
187 Clear 23 1012 49 7000 6.51 319 00:36 11.07.2020
188 Clear 23 1012 49 7000 7.03 320 00:18 11.07.2020
189 Clear 23 1012 60 6000 3.6 320 23:44 10.07.2020
190 Clear 23 1012 60 6000 3.6 320 23:26 10.07.2020
191 Clear 24 1012 64 6000 2.1 310 22:50 10.07.2020
192 Clear 24 1012 64 6000 2.1 310 22:25 10.07.2020
193 Clear 24 1012 64 6000 2.6 340 21:59 10.07.2020
194 Clear 24 1012 64 6000 2.6 340 21:38 10.07.2020
195 Clear 24 1012 64 6000 2.6 340 21:20 10.07.2020
196 Clear 25 1011 61 6000 3.6 330 20:55 10.07.2020
197 Clear 25 1011 61 6000 3.6 330 20:36 10.07.2020
198 Clear 25 1011 61 6000 3.6 330 20:18 10.07.2020
199 Clear 26 1011 57 6000 3.1 310 19:54 10.07.2020
200 Clear 26 1011 57 6000 3.1 310 19:36 10.07.2020
201 Clear 26 1011 57 6000 3.1 310 19:18 10.07.2020
202 Clear 29 1011 51 6000 7.2 310 18:38 10.07.2020
203 Clear 29 1011 51 6000 7.2 310 18:19 10.07.2020
204 Clear 31 1010 38 8000 2.1 310 17:55 10.07.2020
205 Clear 31 1010 38 8000 2.1 310 17:37 10.07.2020
206 Clear 31 1010 38 8000 2.1 310 17:18 10.07.2020
207 Clear 32 1010 33 8000 1.5 300 16:41 10.07.2020
208 Clear 32 1010 33 8000 1.5 300 16:20 10.07.2020
209 Clear 32 1011 31 8000 2.1 290 15:44 10.07.2020
210 Clear 32 1011 31 8000 2.1 290 15:22 10.07.2020
211 Clear 31 1011 29 7000 4.1 280 14:55 10.07.2020
212 Clear 31 1011 29 7000 4.1 280 14:37 10.07.2020
213 Clear 31 1011 29 7000 4.1 280 14:18 10.07.2020
214 Clear 32 1010 27 6000 5.1 270 13:56 10.07.2020
215 Clear 32 1010 27 6000 5.1 270 13:37 10.07.2020
216 Clear 32 1010 27 6000 5.1 270 13:19 10.07.2020
217 Clear 30 1010 33 6000 4.1 280 12:43 10.07.2020
218 Clear 30 1010 33 6000 4.1 280 12:24 10.07.2020
219 Clear 30 1011 33 7000 4.1 290 11:59 10.07.2020
220 Clear 30 1011 33 7000 4.1 290 11:38 10.07.2020
221 Clear 30 1011 33 7000 4.1 290 11:19 10.07.2020
222 Clear 29 1011 32 7000 4.6 280 10:55 10.07.2020
223 Clear 29 1011 32 7000 4.6 280 10:36 10.07.2020
224 Clear 27 1011 39 7000 3.6 270 10:18 10.07.2020
225 Clear 27 1011 39 7000 3.6 270 09:38 10.07.2020
226 Clear 27 1011 39 7000 3.6 270 09:19 10.07.2020
227 Clear 25 1011 47 6000 3.6 310 08:57 10.07.2020
228 Clear 25 1011 47 6000 3.6 310 08:39 10.07.2020
229 Clear 25 1011 47 6000 3.6 310 08:21 10.07.2020
230 Clear 23 1010 46 8000 4.73 311 07:42 10.07.2020
231 Clear 21 1010 60 8000 5.18 310 07:22 10.07.2020
232 Clear 21 1010 60 8000 5.18 310 06:51 10.07.2020
233 Clear 20 1010 60 8000 5.33 308 06:24 10.07.2020
234 Clear 18 1010 60 8000 5.15 311 05:19 10.07.2020
235 Clear 20 1010 60 7000 5.59 309 03:39 10.07.2020
236 Clear 21 1010 64 7000 5.12 302 02:53 10.07.2020
237 Clear 20 1010 72 7000 4.72 305 01:53 10.07.2020
238 Clear 21 1010 68 7000 2.1 340 00:49 10.07.2020
239 Clear 21 1010 68 7000 2.1 340 00:21 10.07.2020
240 Clear 22 1011 68 7000 2.1 340 23:55 09.07.2020
241 Clear 22 1011 68 7000 2.1 340 23:36 09.07.2020
242 Clear 22 1011 68 7000 2.1 340 23:18 09.07.2020
243 Clear 23 1011 64 8000 2.6 310 22:55 09.07.2020
244 Clear 23 1011 64 8000 2.6 310 22:36 09.07.2020
245 Clear 23 1011 64 8000 2.6 310 22:18 09.07.2020
246 Clear 23 1011 64 10000 4.6 290 21:39 09.07.2020
247 Clear 24 1011 64 10000 4.6 290 21:19 09.07.2020
248 Clear 24 1011 64 10000 4.6 330 20:58 09.07.2020
249 Clear 24 1011 64 10000 4.6 330 20:39 09.07.2020
250 Clear 24 1011 64 10000 4.6 330 20:21 09.07.2020
251 Clouds 25 1011 60 8000 5.1 340 19:43 09.07.2020
252 Clouds 26 1011 60 8000 5.1 340 19:21 09.07.2020
253 Clouds 27 1010 51 8000 5.1 350 18:56 09.07.2020
254 Clouds 27 1010 51 8000 5.1 350 18:38 09.07.2020
255 Clouds 27 1010 51 8000 5.1 350 18:18 09.07.2020
256 Clouds 28 1010 45 8000 6.2 280 17:42 09.07.2020
257 Clouds 28 1010 45 8000 6.2 280 17:22 09.07.2020
258 Clouds 29 1010 39 8000 5.1 280 16:56 09.07.2020
259 Clouds 29 1010 39 8000 5.1 280 16:38 09.07.2020
260 Clouds 29 1010 39 8000 5.1 280 16:19 09.07.2020
261 Clouds 29 1010 37 8000 5.7 240 15:57 09.07.2020
262 Clouds 29 1010 37 8000 5.7 240 15:37 09.07.2020
263 Clouds 29 1010 37 8000 5.7 240 15:18 09.07.2020
264 Clouds 29 1011 37 7000 5.1 260 14:57 09.07.2020
265 Clouds 29 1011 37 7000 5.1 260 14:39 09.07.2020
266 Clouds 29 1011 37 7000 5.1 260 14:20 09.07.2020
267 Clouds 29 1010 25 7000 3.1 260 13:56 09.07.2020
268 Clouds 29 1010 25 7000 3.1 260 13:38 09.07.2020
269 Clouds 29 1010 25 7000 3.1 260 13:18 09.07.2020
270 Clouds 29 1011 35 7000 2.6 280 12:41 09.07.2020
271 Clouds 29 1011 35 7000 2.6 280 12:23 09.07.2020
272 Clouds 28 1011 37 7000 2.6 280 11:57 09.07.2020
273 Clouds 28 1011 37 7000 2.6 280 11:38 09.07.2020
274 Clouds 28 1011 37 7000 2.6 280 11:18 09.07.2020
275 Clear 27 1011 36 7000 3.6 280 10:55 09.07.2020
276 Clear 27 1011 36 7000 3.6 280 10:37 09.07.2020
277 Clear 27 1011 36 7000 3.6 280 10:19 09.07.2020
278 Clear 25 1011 44 7000 4.1 260 09:42 09.07.2020
279 Clear 25 1011 44 7000 4.1 260 09:22 09.07.2020
280 Clear 23 1011 53 7000 2.1 190 08:49 09.07.2020
281 Clear 23 1011 49 7000 3.1 260 08:26 09.07.2020
282 Clear 23 1011 49 7000 3.1 260 07:56 09.07.2020
283 Clear 22 1011 49 7000 3.1 260 07:37 09.07.2020
284 Clear 21 1011 49 7000 3.1 260 07:19 09.07.2020
285 Clear 20 1011 52 6000 2.6 230 06:20 09.07.2020
286 Haze 19 1011 52 5000 2.1 240 05:53 09.07.2020
287 Clear 19 1011 64 10000 4.28 312 04:29 09.07.2020
288 Clear 19 1011 64 10000 4.82 317 03:19 09.07.2020
289 Clear 19 1011 64 10000 4.82 317 03:19 09.07.2020
290 Clear 21 1012 60 10000 2.1 280 01:56 09.07.2020
291 Clear 21 1012 60 7000 2.1 310 00:59 09.07.2020
292 Clear 21 1012 60 7000 2.1 310 00:41 09.07.2020
293 Clear 21 1012 60 7000 2.1 310 00:22 09.07.2020
294 Clear 22 1012 60 7000 1.5 320 23:43 08.07.2020
295 Clear 22 1012 60 7000 1.5 320 23:25 08.07.2020
296 Clear 22 1012 60 7000 12.3 310 22:56 08.07.2020
297 Clear 22 1012 60 7000 12.3 310 22:38 08.07.2020
298 Clear 23 1012 60 7000 2.6 300 22:20 08.07.2020
299 Clear 23 1012 60 7000 2.6 300 21:56 08.07.2020
300 Clear 23 1012 60 7000 2.6 300 21:37 08.07.2020
301 Clear 23 1012 60 7000 2.6 300 21:37 08.07.2020
302 Clear 23 1012 60 7000 2.6 300 21:19 08.07.2020
303 Clouds 23 1012 64 7000 6.2 290 20:42 08.07.2020
304 Clouds 23 1012 64 7000 6.2 290 20:24 08.07.2020
305 Clouds 26 1012 50 7000 6.2 290 19:58 08.07.2020
306 Clouds 26 1012 50 7000 6.2 290 19:39 08.07.2020
307 Clouds 26 1012 50 7000 6.2 290 19:21 08.07.2020
308 Haze 28 1011 42 5000 6.2 290 18:55 08.07.2020
309 Haze 28 1011 42 5000 6.2 290 18:36 08.07.2020
310 Haze 28 1011 42 5000 6.2 290 18:18 08.07.2020
311 Haze 29 1011 37 5000 7.2 290 17:54 08.07.2020
312 Haze 29 1011 37 5000 7.2 290 17:36 08.07.2020
313 Haze 29 1011 37 5000 7.2 290 17:18 08.07.2020
314 Dust 30 1011 37 5000 7.7 300 16:38 08.07.2020
315 Dust 30 1011 37 5000 7.7 300 16:20 08.07.2020
316 Clouds 31 1011 35 6000 9.3 290 15:58 08.07.2020
317 Clouds 31 1011 35 6000 9.3 290 15:39 08.07.2020
318 Clouds 31 1011 35 6000 9.3 290 15:19 08.07.2020
319 Clouds 31 1011 37 6000 5.1 280 14:48 08.07.2020
320 Clouds 31 1011 37 6000 5.1 280 14:29 08.07.2020
321 Clear 30 1011 33 8000 7.2 290 13:58 08.07.2020
322 Clear 30 1011 33 8000 7.2 290 13:40 08.07.2020
323 Clear 30 1011 33 8000 7.2 290 13:22 08.07.2020
324 Clear 30 1012 33 8000 7.2 280 12:44 08.07.2020
325 Clear 30 1012 33 8000 7.2 280 12:21 08.07.2020
326 Clear 30 1011 25 10000 6.2 320 11:57 08.07.2020
327 Clear 30 1011 25 10000 6.2 320 11:38 08.07.2020
328 Clear 30 1011 25 10000 6.2 320 11:20 08.07.2020
329 Clear 29 1011 26 10000 6.2 320 10:45 08.07.2020
330 Clear 29 1011 26 10000 6.2 320 10:45 08.07.2020
331 Clear 29 1011 26 10000 6.2 320 10:26 08.07.2020
332 Clear 28 1011 32 10000 5.1 300 09:59 08.07.2020
333 Clear 28 1011 32 10000 5.1 300 09:40 08.07.2020
334 Clear 27 1011 36 10000 5.1 320 09:20 08.07.2020
335 Clear 26 1011 36 10000 5.1 320 08:42 08.07.2020
336 Clear 26 1011 36 10000 5.1 320 08:24 08.07.2020
337 Clear 24 1009 33 10000 4.1 300 07:47 08.07.2020
338 Clear 24 1009 33 10000 4.1 300 07:23 08.07.2020
339 Clear 22 1009 38 10000 3.1 300 06:55 08.07.2020
340 Clear 22 1009 38 10000 3.1 300 06:35 08.07.2020
341 Clear 21 1009 40 10000 2.1 290 05:55 08.07.2020
342 Clear 21 1009 40 10000 2.1 290 05:20 08.07.2020
343 Clear 19 1010 52 10000 4.1 300 04:32 08.07.2020
344 Clear 20 1010 49 10000 4.1 300 02:42 08.07.2020
345 Clear 23 1010 46 10000 3.1 310 01:46 08.07.2020
346 Clear 22 1010 46 10000 3.1 310 01:23 08.07.2020
347 Clear 22 1010 38 10000 4.1 310 00:28 08.07.2020
348 Clear 22 1010 43 10000 4.6 300 23:59 07.07.2020
349 Clear 22 1010 43 10000 4.6 300 23:40 07.07.2020
350 Clear 22 1010 43 10000 4.6 300 23:19 07.07.2020
351 Clear 23 1010 47 10000 4.6 300 22:43 07.07.2020
352 Clear 23 1010 47 10000 4.6 300 22:23 07.07.2020
353 Clear 24 1009 47 7000 3.6 310 21:59 07.07.2020
354 Clear 24 1009 47 7000 3.6 310 21:40 07.07.2020
355 Clear 24 1009 47 7000 3.6 310 21:21 07.07.2020
356 Clear 24 1009 47 7000 3.6 290 20:57 07.07.2020
357 Clear 24 1009 47 7000 3.6 290 20:39 07.07.2020
358 Clear 24 1009 47 7000 3.6 290 20:21 07.07.2020
359 Clear 26 1009 41 7000 4.6 320 19:41 07.07.2020
360 Clear 26 1009 41 7000 4.6 320 19:21 07.07.2020
361 Clear 28 1008 36 7000 7.2 280 18:59 07.07.2020
362 Clear 28 1008 36 7000 7.2 280 18:40 07.07.2020
363 Clear 28 1008 36 7000 7.2 280 18:22 07.07.2020
364 Clear 29 1008 35 7000 8.2 290 17:58 07.07.2020
365 Clear 29 1008 35 7000 8.2 290 17:39 07.07.2020
366 Clear 29 1008 35 7000 8.2 290 17:21 07.07.2020
367 Clear 30 1008 30 7000 8.2 290 16:58 07.07.2020
368 Clear 30 1008 30 7000 8.2 290 16:40 07.07.2020
369 Clear 30 1008 30 7000 8.2 290 16:20 07.07.2020
370 Clear 31 1008 29 7000 8.7 270 15:42 07.07.2020
371 Clear 31 1008 29 7000 8.7 270 15:21 07.07.2020
372 Clear 31 1008 29 7000 6.2 290 14:56 07.07.2020
373 Clear 31 1008 29 7000 6.2 290 14:38 07.07.2020
374 Clear 31 1008 29 7000 6.2 290 14:19 07.07.2020
375 Clear 32 1008 25 7000 7.2 290 13:40 07.07.2020
376 Clear 32 1008 25 7000 7.2 290 13:19 07.07.2020
377 Clouds 31 1008 19 7000 3.1 250 12:41 07.07.2020
378 Clouds 31 1008 19 7000 3.1 250 12:22 07.07.2020
379 Clouds 31 1008 19 7000 3.1 250 12:22 07.07.2020
380 Clouds 30 1008 20 7000 5.1 290 11:58 07.07.2020
381 Clouds 30 1008 20 7000 5.1 290 11:40 07.07.2020
382 Clouds 29 1008 20 7000 5.1 290 11:20 07.07.2020
383 Clouds 28 1007 30 7000 4.1 310 10:57 07.07.2020
384 Clouds 27 1007 30 7000 4.1 310 10:37 07.07.2020
385 Clouds 27 1007 30 7000 4.1 310 10:18 07.07.2020
386 Haze 27 1007 39 5000 4.1 250 09:41 07.07.2020
387 Haze 27 1007 39 5000 4.1 250 09:21 07.07.2020
388 Haze 25 1007 53 5000 8.2 270 08:42 07.07.2020
389 Haze 25 1007 53 5000 8.2 270 08:24 07.07.2020
390 Haze 23 1007 56 5000 4.6 280 07:47 07.07.2020
391 Haze 23 1007 56 5000 4.6 280 07:25 07.07.2020
392 Haze 21 1007 64 5000 4.1 270 06:50 07.07.2020
393 Haze 21 1007 64 5000 4.1 270 06:50 07.07.2020
394 Haze 21 1007 64 5000 4.1 270 06:31 07.07.2020
395 Haze 21 1006 68 5000 2.1 310 05:54 07.07.2020
396 Haze 21 1006 68 5000 2.1 310 05:23 07.07.2020
397 Clear 19 1006 63 6000 3.1 280 04:42 07.07.2020
398 Clear 20 1006 56 6000 2.1 310 03:41 07.07.2020
399 Clear 21 1006 43 6000 3.6 290 02:28 07.07.2020
400 Clear 22 1006 40 7000 3.1 290 01:28 07.07.2020
401 Clear 22 1006 40 7000 3.1 270 00:56 07.07.2020
402 Clear 22 1006 40 7000 3.1 270 00:38 07.07.2020
403 Clear 22 1006 40 7000 3.1 270 00:19 07.07.2020
404 Clear 23 1006 38 7000 3.1 260 23:42 06.07.2020
405 Clear 23 1006 38 7000 3.1 260 23:23 06.07.2020
406 Clear 23 1017 50 7000 4.1 270 22:56 06.07.2020
407 Clear 23 1017 50 7000 4.1 270 22:38 06.07.2020
408 Clear 23 1017 50 7000 4.1 270 22:18 06.07.2020
409 Clear 25 1006 47 7000 4.6 290 21:56 06.07.2020
410 Clear 25 1006 47 7000 4.6 290 21:36 06.07.2020
411 Clear 25 1006 47 7000 4.6 290 21:18 06.07.2020
412 Clear 25 1005 47 7000 5.1 260 20:40 06.07.2020
413 Clear 25 1005 47 7000 5.1 260 20:20 06.07.2020
414 Haze 27 1005 42 5000 6.2 290 19:58 06.07.2020
415 Haze 27 1005 42 5000 6.2 290 19:40 06.07.2020
416 Haze 27 1005 42 5000 6.2 290 19:22 06.07.2020
417 Haze 28 1005 45 5000 6.2 270 18:57 06.07.2020
418 Haze 28 1005 45 5000 6.2 270 18:39 06.07.2020
419 Haze 28 1005 45 5000 6.2 270 18:21 06.07.2020
420 Dust 30 1005 40 5000 8.2 290 17:54 06.07.2020
421 Dust 30 1005 40 5000 8.2 290 17:36 06.07.2020
422 Dust 30 1005 40 5000 8.2 290 17:18 06.07.2020
423 Clear 31 1004 43 6000 8.2 270 16:42 06.07.2020
424 Clear 31 1004 43 6000 8.2 270 16:22 06.07.2020
425 Clear 31 1005 40 6000 8.2 280 15:45 06.07.2020
426 Clear 31 1005 40 6000 8.2 280 15:27 06.07.2020
427 Dust 31 1005 40 5000 8.2 270 14:58 06.07.2020
428 Dust 31 1005 40 5000 8.2 270 14:40 06.07.2020
429 Dust 31 1005 40 5000 8.2 270 14:22 06.07.2020
430 Haze 31 1005 38 5000 5.1 260 13:59 06.07.2020
431 Haze 31 1005 38 5000 5.1 260 13:40 06.07.2020
432 Haze 31 1005 38 5000 5.1 260 13:20 06.07.2020
433 Haze 29 1005 48 5000 3.6 260 12:44 06.07.2020
434 Haze 29 1005 48 5000 3.6 260 12:20 06.07.2020
435 Haze 28 1005 51 5000 5.1 250 11:59 06.07.2020
436 Haze 28 1005 51 5000 5.1 250 11:40 06.07.2020
437 Haze 28 1005 51 5000 5.1 250 11:22 06.07.2020
438 Haze 27 1006 54 4000 5.1 260 10:58 06.07.2020
439 Haze 27 1006 54 4000 5.1 260 10:58 06.07.2020
440 Haze 27 1006 54 4000 5.1 260 10:40 06.07.2020
441 Haze 27 1006 54 4000 5.1 260 10:19 06.07.2020
442 Haze 25 1005 65 4000 5.1 250 09:54 06.07.2020
443 Haze 25 1005 65 4000 5.1 250 09:36 06.07.2020
444 Haze 25 1005 65 4000 5.1 250 09:18 06.07.2020
445 Haze 24 1005 61 5000 5.1 250 08:40 06.07.2020
446 Haze 24 1005 69 4000 4.1 250 08:22 06.07.2020
447 Haze 23 1005 69 4000 6.2 250 07:48 06.07.2020
448 Haze 23 1005 69 4000 6.2 250 07:29 06.07.2020
449 Haze 21 1005 77 4000 7.2 250 06:55 06.07.2020
450 Haze 21 1005 77 4000 7.2 250 06:37 06.07.2020
451 Haze 20 1005 77 4000 7.2 250 05:53 06.07.2020
452 Haze 20 1005 68 5000 6.2 250 05:27 06.07.2020
453 Clear 21 1005 64 8000 3.1 260 03:58 06.07.2020
454 Clear 22 1005 50 10000 3.1 260 02:41 06.07.2020
455 Clear 23 1005 50 10000 3.1 260 01:55 06.07.2020
456 Clear 23 1006 41 10000 5.1 270 00:51 06.07.2020
457 Clear 23 1006 41 10000 5.1 270 00:25 06.07.2020
458 Clouds 24 1006 39 10000 3.1 260 23:58 05.07.2020
459 Clouds 24 1006 39 10000 3.1 260 23:39 05.07.2020
460 Clouds 24 1006 39 10000 3.1 260 23:21 05.07.2020
461 Clouds 25 1006 39 6000 5.1 260 22:57 05.07.2020
462 Clouds 25 1006 39 6000 5.1 260 22:37 05.07.2020
463 Clouds 25 1006 39 6000 5.1 260 22:18 05.07.2020
464 Clouds 25 1006 39 6000 5.1 260 21:41 05.07.2020
465 Clouds 25 1006 39 6000 5.1 260 21:19 05.07.2020
466 Clear 26 1005 36 6000 5.1 260 20:59 05.07.2020
467 Clear 26 1005 36 6000 5.1 260 20:41 05.07.2020
468 Clear 26 1005 36 6000 5.1 260 20:22 05.07.2020
469 Clear 27 1005 42 6000 6.2 270 19:58 05.07.2020
470 Clear 27 1005 42 6000 6.2 270 19:40 05.07.2020
471 Clear 27 1005 42 6000 6.2 270 19:19 05.07.2020
472 Clear 29 1005 37 6000 6.2 270 18:55 05.07.2020
473 Clear 29 1005 37 6000 6.2 270 18:36 05.07.2020
474 Clear 29 1005 37 6000 6.2 270 18:18 05.07.2020
475 Clear 30 1005 35 6000 6.2 270 17:42 05.07.2020
476 Clear 30 1005 35 6000 6.2 270 17:42 05.07.2020
477 Clear 30 1005 35 6000 6.2 270 17:19 05.07.2020
478 Clear 30 1006 37 6000 6.2 270 16:46 05.07.2020
479 Clear 30 1006 37 6000 6.2 270 16:26 05.07.2020
480 Clear 31 1006 35 6000 6.2 270 15:59 05.07.2020
481 Clear 31 1006 35 6000 6.2 270 15:40 05.07.2020
482 Clear 31 1006 35 6000 6.2 270 15:40 05.07.2020
483 Clear 31 1006 35 6000 6.2 270 15:20 05.07.2020
484 Clear 31 1006 38 6000 6.2 270 14:55 05.07.2020
485 Clear 31 1006 38 6000 6.2 270 14:36 05.07.2020
486 Clear 31 1006 38 6000 6.2 270 14:18 05.07.2020
487 Clear 31 1006 33 6000 5.1 250 13:40 05.07.2020
488 Clear 31 1006 33 6000 5.1 250 13:22 05.07.2020
489 Clear 31 1007 31 6000 5.1 250 12:45 05.07.2020
490 Clear 31 1007 31 6000 5.1 250 12:21 05.07.2020
491 Clear 30 1007 30 7000 5.1 260 11:56 05.07.2020
492 Clear 30 1007 30 7000 5.1 260 11:38 05.07.2020
493 Clear 29 1007 30 7000 5.1 260 11:19 05.07.2020
494 Clear 29 1007 33 7000 5.1 260 10:55 05.07.2020
495 Clear 29 1007 33 7000 5.1 260 10:37 05.07.2020
496 Clear 29 1007 33 7000 5.1 260 10:18 05.07.2020
497 Clear 28 1007 35 7000 5.1 260 09:41 05.07.2020
498 Clear 28 1007 35 7000 5.1 260 09:20 05.07.2020
499 Clear 26 1007 44 7000 3.6 240 08:57 05.07.2020
500 Clear 26 1007 44 7000 3.6 240 08:38 05.07.2020
501 Clear 26 1007 44 7000 3.6 240 08:18 05.07.2020
502 Clear 25 1007 39 7000 2.6 250 07:40 05.07.2020
503 Clear 25 1007 39 7000 2.6 250 07:22 05.07.2020
504 Clear 24 1007 36 8000 2.1 250 06:45 05.07.2020
505 Clear 23 1007 36 8000 2.1 250 04:27 05.07.2020
506 Clear 23 1007 36 8000 1.5 200 03:19 05.07.2020
507 Clear 24 1008 36 8000 3.6 240 02:41 05.07.2020
508 Clear 24 1008 36 8000 3.6 240 02:41 05.07.2020
509 Clear 23 1008 36 8000 3.1 280 01:59 05.07.2020
510 Clear 23 1008 36 8000 3.1 280 01:28 05.07.2020
511 Clear 23 1009 36 8000 2.1 280 00:53 05.07.2020
512 Clear 23 1009 36 8000 2.1 280 00:31 05.07.2020
513 Clear 25 1009 33 8000 4.6 270 23:58 04.07.2020
514 Clear 25 1009 33 8000 4.6 270 23:40 04.07.2020
515 Clear 25 1009 33 8000 4.6 270 23:22 04.07.2020
516 Clear 25 1010 36 7000 3.1 270 22:43 04.07.2020
517 Clear 25 1010 36 7000 3.1 270 22:25 04.07.2020
518 Clear 26 1009 34 7000 6.2 260 21:59 04.07.2020
519 Clear 26 1009 34 7000 6.2 260 21:40 04.07.2020
520 Clear 26 1009 36 7000 6.2 270 21:22 04.07.2020
521 Clear 26 1009 36 7000 6.2 270 20:54 04.07.2020
522 Clear 26 1009 36 7000 6.2 270 20:36 04.07.2020
523 Clear 26 1009 36 7000 6.2 270 20:18 04.07.2020
524 Clear 28 1009 34 6000 7.2 270 19:41 04.07.2020
525 Clear 29 1009 34 6000 7.2 270 19:21 04.07.2020
526 Clear 29 1009 34 6000 7.2 270 18:55 04.07.2020
527 Clear 30 1009 30 6000 7.2 270 18:37 04.07.2020
528 Clear 31 1009 31 6000 7.2 270 18:18 04.07.2020
529 Clear 31 1009 31 6000 7.2 270 17:42 04.07.2020
530 Clear 31 1009 31 6000 7.2 270 17:22 04.07.2020
531 Clear 33 1009 27 6000 6.2 270 16:57 04.07.2020
532 Clear 33 1009 27 6000 6.2 270 16:37 04.07.2020
533 Clear 33 1009 27 6000 6.2 270 16:19 04.07.2020
534 Clear 33 1009 27 6000 5.1 300 15:46 04.07.2020
535 Clear 33 1009 27 6000 5.1 300 15:27 04.07.2020
536 Clear 34 1010 27 6000 5.1 300 14:59 04.07.2020
537 Clear 34 1010 27 6000 5.1 300 14:37 04.07.2020
538 Clear 34 1010 27 6000 5.1 300 14:19 04.07.2020
539 Clear 34 1010 21 6000 6.7 310 13:58 04.07.2020
540 Clear 34 1010 21 6000 6.7 310 13:39 04.07.2020
541 Clear 34 1010 21 6000 6.7 310 13:18 04.07.2020
542 Clear 33 1010 19 7000 6.7 300 12:42 04.07.2020
543 Clear 33 1010 19 7000 6.7 300 12:21 04.07.2020
544 Clear 32 1010 16 8000 5.1 300 11:56 04.07.2020
545 Clear 32 1010 16 8000 5.1 300 11:37 04.07.2020
546 Clear 32 1010 16 8000 5.1 300 11:19 04.07.2020
547 Clear 32 1009 13 8000 3.1 310 10:41 04.07.2020
548 Clear 32 1009 13 8000 3.1 310 10:22 04.07.2020
549 Clear 30 1010 19 8000 3.6 280 09:59 04.07.2020
550 Clear 30 1010 19 8000 3.6 280 09:38 04.07.2020
551 Clear 30 1010 19 8000 3.6 280 09:20 04.07.2020
552 Clear 29 1010 23 8000 4.1 230 08:48 04.07.2020
553 Clear 29 1010 23 8000 4.1 230 08:30 04.07.2020
554 Clear 27 1011 32 7000 1.5 240 07:50 04.07.2020
555 Clear 27 1011 32 7000 1.5 240 07:31 04.07.2020
556 Clear 24 1010 36 7000 1.5 240 06:56 04.07.2020
557 Clear 24 1010 36 7000 1.5 240 06:23 04.07.2020
558 Clear 21 1010 40 7000 3.1 250 05:36 04.07.2020
559 Clear 22 1010 40 7000 1.5 270 04:55 04.07.2020
560 Clear 23 1010 49 7000 6.47 317 03:19 04.07.2020
561 Clear 24 1010 31 7000 6.47 317 02:35 04.07.2020
562 Clear 24 1009 33 7000 5.92 315 01:37 04.07.2020
563 Clear 24 1010 31 7000 5.33 308 00:47 04.07.2020
564 Clear 24 1010 31 7000 6.46 303 00:29 04.07.2020
565 Clear 24 1010 31 7000 6.46 303 23:41 03.07.2020
566 Clear 24 1010 31 7000 5.91 312 23:19 03.07.2020
567 Clear 27 1010 28 7000 5.91 312 22:59 03.07.2020
568 Clear 27 1010 28 7000 5.91 312 22:39 03.07.2020
569 Clear 27 1010 28 7000 5.91 312 22:39 03.07.2020
570 Clear 27 1010 28 7000 8.16 324 22:21 03.07.2020
571 Clear 28 1010 26 7000 8.16 324 21:56 03.07.2020
572 Clear 28 1010 26 7000 8.16 324 21:37 03.07.2020
573 Clear 28 1010 26 7000 9.14 323 21:18 03.07.2020
574 Clear 28 1010 26 7000 9.14 323 21:18 03.07.2020
575 Haze 29 1009 37 5000 9.14 323 20:42 03.07.2020
576 Haze 29 1009 37 5000 9.27 329 20:24 03.07.2020
577 Clear 29 1004 23 0 9.27 329 19:42 03.07.2020
578 Clear 32 1008 29 6000 4.6 310 19:22 03.07.2020
579 Clear 32 1008 29 6000 4.6 310 18:59 03.07.2020
580 Clear 32 1008 29 6000 4.6 310 18:41 03.07.2020
581 Clear 32 1008 29 6000 4.6 310 18:22 03.07.2020
582 Clear 35 1008 16 7000 3.6 300 17:46 03.07.2020
583 Clear 35 1008 16 7000 3.6 300 17:23 03.07.2020
584 Clear 36 1008 11 7000 2.6 280 16:59 03.07.2020
585 Clear 36 1008 11 7000 2.6 280 16:39 03.07.2020
586 Clear 36 1008 11 7000 2.6 280 16:20 03.07.2020
587 Clear 36 1009 11 7000 3.1 300 15:42 03.07.2020
588 Clear 36 1009 11 7000 3.1 300 15:22 03.07.2020
589 Clear 36 1009 14 6000 2.1 290 14:55 03.07.2020
590 Clear 36 1009 14 6000 2.1 290 14:37 03.07.2020
591 Clear 36 1009 14 6000 2.1 290 14:18 03.07.2020
592 Clear 36 1009 13 6000 3.1 310 13:41 03.07.2020
593 Clear 36 1009 13 6000 3.1 310 13:23 03.07.2020
594 Clear 36 1009 12 8000 2.1 150 12:45 03.07.2020
595 Clear 36 1009 12 8000 2.1 150 12:23 03.07.2020
596 Clear 33 1010 15 8000 2.1 350 11:58 03.07.2020
597 Clear 33 1010 15 8000 2.1 350 11:40 03.07.2020
598 Clear 33 1010 15 8000 2.1 350 11:21 03.07.2020
599 Clear 32 1010 21 7000 2.1 10 10:55 03.07.2020
600 Clear 32 1010 21 7000 2.1 10 10:36 03.07.2020
601 Clear 32 1010 21 7000 2.1 10 10:18 03.07.2020
602 Clear 30 1010 25 6000 1.5 70 09:40 03.07.2020
603 Clear 30 1010 25 6000 1.5 70 09:22 03.07.2020
604 Haze 27 1010 32 4000 1.5 20 08:58 03.07.2020
605 Haze 27 1010 32 4000 1.5 20 08:38 03.07.2020
606 Haze 27 1010 32 4000 1.5 20 08:18 03.07.2020
607 Clear 24 1009 41 6000 1.5 20 07:47 03.07.2020
608 Clear 24 1009 41 6000 1.5 20 07:23 03.07.2020
609 Clear 21 1009 53 6000 1.5 260 06:40 03.07.2020
610 Haze 20 1008 53 5000 1.5 280 05:56 03.07.2020
611 Clear 21 1008 53 7000 3.1 240 04:35 03.07.2020
612 Clear 21 1008 46 8000 4.31 305 02:57 03.07.2020
613 Clear 22 1008 46 8000 4.31 305 02:36 03.07.2020
614 Clear 22 1008 50 8000 3.97 301 01:54 03.07.2020
615 Clear 22 1008 50 8000 4.67 300 01:23 03.07.2020
616 Clear 23 1008 50 7000 2.1 270 00:44 03.07.2020
617 Clear 23 1008 47 7000 2.1 330 00:20 03.07.2020
618 Clear 24 1008 47 7000 2.1 330 23:43 02.07.2020
619 Clear 25 1008 47 7000 2.1 330 23:20 02.07.2020
620 Clear 25 1009 53 7000 2.1 320 22:57 02.07.2020
621 Clear 25 1009 53 7000 2.1 320 22:39 02.07.2020
622 Clear 25 1009 53 7000 2.1 320 22:20 02.07.2020
623 Clear 25 1009 53 7000 2.1 320 22:20 02.07.2020
624 Clear 26 1009 54 6000 3.1 270 21:54 02.07.2020
625 Clear 26 1009 54 6000 3.1 270 21:36 02.07.2020
626 Clear 26 1009 54 6000 3.1 270 21:36 02.07.2020
627 Clear 26 1009 54 6000 3.1 270 21:18 02.07.2020
628 Clear 27 1009 54 6000 4.6 250 20:42 02.07.2020
629 Clear 27 1009 54 6000 4.6 250 20:21 02.07.2020
630 Haze 28 1008 51 5000 2.1 300 19:57 02.07.2020
631 Haze 28 1008 51 5000 2.1 300 19:38 02.07.2020
632 Haze 28 1008 51 5000 2.1 300 19:20 02.07.2020
633 Haze 31 1008 43 5000 2.1 300 18:57 02.07.2020
634 Haze 31 1008 43 5000 2.1 300 18:38 02.07.2020
635 Haze 31 1008 43 5000 2.1 300 18:20 02.07.2020
636 Haze 33 1007 22 5000 4.6 260 17:40 02.07.2020
637 Haze 33 1007 22 5000 4.6 260 17:20 02.07.2020
638 Haze 33 1007 22 5000 4.6 260 17:20 02.07.2020
639 Clear 34 1007 20 6000 2.1 270 16:56 02.07.2020
640 Clear 34 1007 20 6000 2.1 270 16:56 02.07.2020
641 Clear 34 1007 20 6000 2.1 270 16:38 02.07.2020
642 Clear 34 1007 20 6000 2.1 270 16:19 02.07.2020
643 Clear 33 1008 18 6000 2.6 260 15:55 02.07.2020
644 Clear 33 1008 18 6000 2.6 260 15:36 02.07.2020
645 Clear 33 1008 18 6000 2.6 260 15:18 02.07.2020
646 Clear 33 1008 24 6000 4.1 260 14:43 02.07.2020
647 Clear 33 1008 24 6000 4.1 260 14:20 02.07.2020
648 Haze 34 1008 20 5000 2.6 220 13:56 02.07.2020
649 Haze 34 1008 20 5000 2.6 220 13:37 02.07.2020
650 Haze 34 1008 20 5000 2.6 220 13:18 02.07.2020
651 Haze 33 1008 17 5000 1.5 160 12:41 02.07.2020
652 Haze 33 1008 17 5000 1.5 160 12:22 02.07.2020
653 Haze 33 1008 17 5000 1.5 160 12:22 02.07.2020
654 Haze 32 1009 19 5000 3.6 180 11:55 02.07.2020
655 Haze 32 1009 19 5000 3.6 180 11:37 02.07.2020
656 Haze 32 1009 19 5000 3.6 180 11:19 02.07.2020
657 Dust 30 1009 27 3000 2.6 40 10:42 02.07.2020
658 Dust 30 1009 27 3000 2.6 40 10:23 02.07.2020
659 Dust 27 1008 34 3500 1.5 280 09:44 02.07.2020
660 Dust 27 1008 34 3500 1.5 280 09:23 02.07.2020
661 Clear 25 1009 39 7000 1.5 280 08:59 02.07.2020
662 Clear 25 1009 39 7000 1.5 280 08:40 02.07.2020
663 Clear 25 1009 39 7000 1.5 280 08:20 02.07.2020
664 Clear 23 1008 40 7000 2.1 250 07:42 02.07.2020
665 Clear 21 1008 40 7000 2.1 250 07:22 02.07.2020
666 Clear 19 1008 46 7000 3.1 250 06:50 02.07.2020
667 Clear 19 1008 46 7000 3.1 250 06:27 02.07.2020
668 Clear 18 1008 49 7000 2.6 250 05:50 02.07.2020
669 Clear 18 1008 42 8000 1 100 04:58 02.07.2020
670 Clear 18 1008 42 8000 1.5 240 03:34 02.07.2020
671 Clear 20 1008 28 8000 1.5 230 01:53 02.07.2020
672 Clear 21 1008 28 8000 2.1 240 00:45 02.07.2020
673 Clear 21 1008 28 8000 2.1 240 00:21 02.07.2020
674 Clear 22 1009 29 8000 4.1 250 23:45 01.07.2020
675 Clear 22 1009 29 8000 4.1 250 23:26 01.07.2020
676 Haze 20 1009 37 5000 6.2 270 22:55 01.07.2020
677 Clear 22 1009 29 8000 4.1 280 22:37 01.07.2020
678 Clear 22 1009 29 8000 4.1 280 22:19 01.07.2020
679 Haze 21 1008 46 5000 6.2 260 21:58 01.07.2020
680 Clear 24 1009 27 7000 4.6 270 21:39 01.07.2020
681 Clear 24 1009 27 7000 4.6 270 21:20 01.07.2020
682 Clear 26 1009 27 7000 4.6 270 20:54 01.07.2020
683 Clear 26 1009 27 7000 4.6 270 20:36 01.07.2020
684 Clear 26 1009 27 7000 4.6 270 20:18 01.07.2020
685 Clear 26 1009 36 7000 4.6 290 19:42 01.07.2020
686 Clear 26 1009 36 7000 4.6 290 19:23 01.07.2020
687 Clear 28 1008 37 6000 5.7 300 18:59 01.07.2020
688 Clear 28 1008 37 6000 5.7 300 18:40 01.07.2020
689 Clear 28 1008 37 6000 5.7 300 18:21 01.07.2020
690 Clear 30 1008 30 6000 6.2 300 17:55 01.07.2020
691 Clear 30 1008 30 6000 6.2 300 17:37 01.07.2020
692 Clear 30 1008 30 6000 6.2 300 17:18 01.07.2020
693 Clear 31 1008 22 6000 6.2 300 16:43 01.07.2020
694 Clear 31 1008 22 6000 6.2 300 16:24 01.07.2020
695 Clear 32 1008 24 6000 6.7 300 15:43 01.07.2020
696 Clear 32 1008 24 6000 6.7 300 15:25 01.07.2020
697 Clear 31 1009 25 8000 6.2 290 14:59 01.07.2020
698 Clear 31 1009 25 8000 6.2 290 14:41 01.07.2020
699 Clear 31 1009 25 8000 6.2 290 14:20 01.07.2020
700 Clear 32 1009 18 8000 6.2 310 13:56 01.07.2020
701 Clear 32 1009 18 8000 6.2 310 13:37 01.07.2020
702 Clear 32 1009 18 8000 6.2 310 13:19 01.07.2020
703 Clear 31 1009 16 10000 6.2 320 12:54 01.07.2020
704 Clear 31 1009 16 10000 6.2 320 12:36 01.07.2020
705 Clear 31 1009 16 10000 6.2 320 12:18 01.07.2020
706 Clear 31 1009 16 10000 6.7 310 11:40 01.07.2020
707 Clear 31 1009 16 10000 6.7 310 11:21 01.07.2020
708 Clear 29 1010 17 10000 5.1 310 10:57 01.07.2020
709 Clear 29 1010 17 10000 5.1 310 10:57 01.07.2020
710 Clear 29 1010 17 10000 5.1 310 10:39 01.07.2020
711 Clear 29 1010 17 10000 5.1 310 10:20 01.07.2020
712 Clear 28 1009 21 8000 2.6 270 09:39 01.07.2020
713 Clear 28 1009 21 8000 2.6 270 09:20 01.07.2020
714 Clear 26 1010 26 8000 2.6 240 08:59 01.07.2020
715 Clear 26 1010 26 8000 2.6 240 08:40 01.07.2020
716 Clear 26 1010 26 8000 2.6 240 08:20 01.07.2020
717 Clear 24 1009 29 6000 3.6 270 07:43 01.07.2020
718 Clear 22 1009 29 6000 3.6 270 07:25 01.07.2020
719 Haze 21 1009 30 5000 2.1 270 06:59 01.07.2020
720 Haze 21 1009 30 5000 2.1 270 06:40 01.07.2020
721 Haze 21 1009 30 5000 2.1 270 06:20 01.07.2020
722 Clear 21 1008 57 10000 1.5 290 04:30 01.07.2020
723 Clear 20 1008 58 10000 2.1 270 03:44 01.07.2020
724 Clear 20 1008 58 10000 2.1 270 03:26 01.07.2020
725 Clear 20 1009 58 10000 2.1 110 02:33 01.07.2020
726 Clear 22 1008 61 10000 3.1 300 01:25 01.07.2020
727 Clear 23 1008 31 10000 5.8 325 00:38 01.07.2020
728 Clear 23 1008 31 10000 6.3 325 00:20 01.07.2020
729 Clear 23 1008 25 10000 5.7 290 23:40 30.06.2020
730 Clear 23 1008 25 10000 5.7 290 23:21 30.06.2020
731 Clear 24 1008 41 8000 7.7 270 22:43 30.06.2020
732 Clear 24 1008 41 8000 7.7 270 22:20 30.06.2020
733 Clear 24 1008 44 8000 8.2 290 21:55 30.06.2020
734 Clear 24 1008 44 8000 8.2 290 21:37 30.06.2020
735 Clear 24 1008 44 8000 8.2 290 21:19 30.06.2020
736 Clear 24 1008 41 6000 5.7 280 20:43 30.06.2020
737 Clear 24 1008 41 6000 5.7 280 20:21 30.06.2020
738 Haze 25 1008 47 5000 1 290 19:55 30.06.2020
739 Haze 25 1008 47 5000 1 290 19:36 30.06.2020
740 Haze 25 1008 47 5000 1 290 19:18 30.06.2020
741 Dust 27 1008 44 5000 8.7 270 18:42 30.06.2020
742 Dust 27 1008 44 5000 8.7 270 18:20 30.06.2020
743 Dust 29 1008 39 5000 9.3 270 17:57 30.06.2020
744 Dust 29 1008 39 5000 9.3 270 17:37 30.06.2020
745 Dust 29 1008 39 5000 9.3 270 17:18 30.06.2020
746 Dust 30 1008 35 5000 7.2 280 16:41 30.06.2020
747 Dust 30 1008 35 5000 7.2 280 16:23 30.06.2020
748 Dust 30 1008 35 5000 7.2 280 15:57 30.06.2020
749 Dust 30 1008 35 5000 7.2 280 15:39 30.06.2020
750 Dust 30 1008 35 5000 7.2 280 15:20 30.06.2020
751 Haze 29 1008 37 5000 7.2 270 14:47 30.06.2020
752 Haze 29 1008 37 5000 7.2 270 14:22 30.06.2020
753 Clouds 29 1008 37 6000 7.2 270 13:59 30.06.2020
754 Clouds 29 1008 37 6000 7.2 270 13:39 30.06.2020
755 Clouds 29 1008 37 6000 7.2 270 13:20 30.06.2020
756 Clear 28 1009 37 6000 6.7 260 12:57 30.06.2020
757 Clear 28 1009 37 6000 6.7 260 12:39 30.06.2020
758 Clear 28 1009 37 6000 6.7 260 12:20 30.06.2020
759 Clear 28 1009 30 8000 6.7 260 11:57 30.06.2020
760 Clear 28 1009 30 8000 6.7 260 11:38 30.06.2020
761 Clear 28 1009 30 8000 6.7 260 11:19 30.06.2020
762 Clear 28 1009 26 8000 3.1 250 10:56 30.06.2020
763 Haze 32 1011 24 5000 5.7 280 16:38 28.06.2020
764 Haze 32 1011 24 5000 5.7 280 16:19 28.06.2020
765 Haze 32 1011 24 5000 5.7 300 15:56 28.06.2020
766 Haze 32 1011 24 5000 5.7 300 15:37 28.06.2020
767 Haze 32 1011 24 5000 5.7 300 15:18 28.06.2020
768 Haze 32 1011 24 5000 5.7 300 14:43 28.06.2020
769 Haze 32 1011 24 5000 5.7 300 14:24 28.06.2020
770 Haze 32 1011 24 5000 6.2 310 13:55 28.06.2020
771 Haze 32 1011 24 5000 6.2 310 13:36 28.06.2020
772 Haze 32 1011 24 5000 6.2 310 13:18 28.06.2020
773 Clear 31 1011 30 7000 6.7 300 12:55 28.06.2020
774 Clear 31 1011 30 7000 6.7 300 12:36 28.06.2020
775 Clear 31 1011 30 7000 6.7 300 12:18 28.06.2020
776 Clear 31 1012 20 7000 7.2 340 11:43 28.06.2020
777 Clear 31 1012 20 7000 7.2 340 11:21 28.06.2020
778 Clear 30 1012 23 8000 6.2 300 10:59 28.06.2020
779 Clear 30 1012 23 8000 6.2 300 10:41 28.06.2020
780 Clear 30 1012 23 8000 6.2 300 10:41 28.06.2020
781 Clear 30 1012 23 8000 6.2 300 10:22 28.06.2020
782 Clear 28 1012 30 8000 5.7 330 09:42 28.06.2020
783 Clear 28 1012 30 8000 5.7 330 09:23 28.06.2020
784 Clear 28 1012 26 8000 5.1 320 08:58 28.06.2020
785 Clear 28 1012 26 8000 5.1 320 08:40 28.06.2020
786 Clear 28 1012 26 8000 5.1 320 08:21 28.06.2020
787 Clear 25 1012 34 8000 2.1 330 07:39 28.06.2020
788 Clear 22 1011 41 10000 2.1 330 06:58 28.06.2020
789 Clear 21 1011 41 10000 2.1 330 06:32 28.06.2020
790 Clear 20 1011 43 10000 2.1 330 05:54 28.06.2020
791 Clear 20 1011 43 10000 2.1 330 05:24 28.06.2020
792 Clear 21 1011 40 10000 2.1 320 03:18 28.06.2020
793 Clear 21 1011 40 10000 2.1 320 02:23 28.06.2020
794 Clear 21 1011 40 10000 5.44 319 01:46 28.06.2020
795 Clear 21 1011 40 10000 5.56 314 01:22 28.06.2020
796 Clear 21 1011 40 10000 5.56 314 01:22 28.06.2020
797 Clear 22 1011 41 10000 1 310 00:42 28.06.2020
798 Clear 22 1011 41 10000 1 310 00:21 28.06.2020
799 Clear 23 1011 41 10000 2.1 300 23:40 27.06.2020
800 Clear 23 1011 41 10000 2.1 300 23:21 27.06.2020
801 Clear 24 1011 38 8000 2.1 310 22:56 27.06.2020
802 Clear 24 1011 38 8000 2.1 310 22:38 27.06.2020
803 Clear 24 1011 38 8000 2.1 310 22:19 27.06.2020
804 Clear 24 1011 50 7000 3.1 300 21:42 27.06.2020
805 Clear 24 1011 50 7000 3.1 300 21:20 27.06.2020
806 Clear 27 1011 42 7000 3.6 290 20:56 27.06.2020
807 Clear 27 1011 42 7000 3.6 290 20:37 27.06.2020
808 Clear 27 1011 42 7000 3.6 290 20:18 27.06.2020
809 Clear 28 1011 37 6000 4.6 290 19:54 27.06.2020
810 Clear 28 1011 37 6000 4.6 290 19:36 27.06.2020
811 Clear 28 1011 37 6000 4.6 290 19:18 27.06.2020
812 Clear 30 1011 27 6000 4.6 290 18:42 27.06.2020
813 Clear 30 1011 27 6000 4.6 290 18:21 27.06.2020
814 Clear 31 1011 29 6000 4.6 290 17:54 27.06.2020
815 Clear 31 1011 29 6000 4.6 290 17:36 27.06.2020
816 Clear 31 1011 29 6000 4.6 290 17:18 27.06.2020
817 Haze 31 1011 33 5000 5.1 280 16:41 27.06.2020
818 Haze 31 1011 33 5000 5.1 280 16:23 27.06.2020
819 Clear 32 1011 27 6000 5.1 280 15:46 27.06.2020
820 Clear 32 1011 27 6000 5.1 280 15:24 27.06.2020
821 Clear 32 1011 19 6000 5.1 290 14:59 27.06.2020
822 Clear 32 1011 19 6000 5.1 290 14:40 27.06.2020
823 Clear 32 1011 19 6000 5.1 290 14:21 27.06.2020
824 Clear 32 1012 19 7000 5.1 280 13:55 27.06.2020
825 Clear 32 1012 19 7000 5.1 280 13:37 27.06.2020
826 Clear 32 1012 19 7000 5.1 280 13:19 27.06.2020
827 Clear 32 1012 22 8000 3.1 300 12:41 27.06.2020
828 Clear 32 1012 22 8000 3.1 300 12:22 27.06.2020
829 Clear 31 1012 23 8000 5.7 290 11:59 27.06.2020
830 Clear 31 1012 23 8000 5.7 290 11:40 27.06.2020
831 Clear 31 1012 23 8000 5.7 290 11:22 27.06.2020
832 Clear 31 1013 25 10000 5.1 310 10:55 27.06.2020
833 Clear 31 1013 25 10000 5.1 310 10:37 27.06.2020
834 Clear 31 1013 25 10000 5.1 310 10:18 27.06.2020
835 Clear 29 1012 28 10000 3.1 310 09:40 27.06.2020
836 Clear 29 1012 28 10000 3.1 310 09:21 27.06.2020
837 Clear 26 1012 32 10000 2.1 320 08:44 27.06.2020
838 Clear 26 1012 32 10000 2.1 320 08:23 27.06.2020
839 Clear 20 1012 40 8000 6.3 311 07:50 27.06.2020
840 Clear 21 1012 40 8000 6.3 311 07:30 27.06.2020
841 Clear 19 1012 52 8000 5.06 309 06:55 27.06.2020
842 Clear 18 1012 52 8000 5.06 309 06:34 27.06.2020
843 Clear 19 1012 45 10000 4.04 314 05:33 27.06.2020
844 Clear 19 1011 43 10000 2.94 302 04:19 27.06.2020
845 Clear 21 1011 43 10000 2.94 302 03:51 27.06.2020
846 Clear 23 1011 40 10000 2.66 292 02:47 27.06.2020
847 Clear 23 1011 40 10000 2.07 305 02:27 27.06.2020
848 Clear 22 1011 46 10000 2.07 305 01:40 27.06.2020
849 Clear 23 1011 41 10000 3.37 316 00:52 27.06.2020
850 Clear 23 1011 41 10000 3.32 303 23:58 26.06.2020
851 Clear 23 1011 41 10000 3.32 303 23:40 26.06.2020
852 Clear 23 1011 41 10000 5.32 319 23:21 26.06.2020
853 Clear 23 1012 41 10000 5.32 319 22:55 26.06.2020
854 Clear 24 1012 41 10000 5.32 319 22:36 26.06.2020
855 Clear 24 1012 41 10000 6.41 328 22:18 26.06.2020
856 Clear 25 1012 41 10000 6.41 328 21:56 26.06.2020
857 Clear 25 1012 41 10000 5.12 319 21:36 26.06.2020
858 Clear 25 1012 41 10000 6.36 323 21:18 26.06.2020
859 Clear 26 1011 39 10000 6.36 323 20:42 26.06.2020
860 Clear 26 1011 39 10000 5.86 321 20:19 26.06.2020
861 Clear 28 1011 25 7000 4.1 270 19:42 26.06.2020
862 Clear 28 1011 25 7000 4.1 270 19:23 26.06.2020
863 Clear 30 1011 20 7000 3.1 270 18:54 26.06.2020
864 Clear 30 1011 20 7000 3.1 270 18:36 26.06.2020
865 Clear 30 1011 20 7000 3.1 270 18:18 26.06.2020
866 Clear 32 1011 21 7000 4.1 270 17:43 26.06.2020
867 Clear 32 1011 21 7000 4.1 270 17:23 26.06.2020
868 Clear 32 1011 21 7000 3.1 270 16:47 26.06.2020
869 Clear 33 1011 19 7000 3.1 270 16:25 26.06.2020
870 Clear 33 1011 19 7000 3.1 270 15:55 26.06.2020
871 Clear 33 1011 19 7000 3.1 270 15:37 26.06.2020
872 Clear 33 1011 19 7000 3.1 270 15:18 26.06.2020
873 Clear 33 1011 19 7000 3.1 270 14:55 26.06.2020
874 Clear 32 1012 33 6000 3.1 320 14:37 26.06.2020
875 Clear 32 1012 33 6000 3.1 320 14:19 26.06.2020
876 Clear 31 1012 33 6000 3.1 320 13:43 26.06.2020
877 Clear 31 1012 33 6000 3.1 320 13:18 26.06.2020
878 Clear 31 1012 33 6000 3.1 320 13:18 26.06.2020
879 Clear 31 1012 33 6000 3.1 350 12:41 26.06.2020
880 Clear 31 1012 33 6000 3.1 350 12:23 26.06.2020
881 Clear 29 1012 39 6000 1 360 11:59 26.06.2020
882 Clear 29 1012 39 6000 1 360 11:40 26.06.2020
883 Clear 29 1012 39 6000 1 360 11:22 26.06.2020
884 Clear 28 1013 39 6000 1.5 320 10:58 26.06.2020
885 Clear 28 1013 39 6000 1.5 320 10:58 26.06.2020
886 Clear 28 1013 39 6000 1.5 320 10:58 26.06.2020
887 Clear 28 1013 39 6000 1.5 320 10:39 26.06.2020
888 Clear 28 1013 39 6000 1.5 320 10:19 26.06.2020
889 Haze 24 1013 57 5000 1 300 09:54 26.06.2020
890 Haze 24 1013 57 5000 1 300 09:36 26.06.2020
891 Haze 24 1013 57 5000 1 300 09:18 26.06.2020
892 Haze 22 1013 64 5000 1 90 08:43 26.06.2020
893 Haze 22 1013 64 5000 1 90 08:25 26.06.2020
894 Haze 19 1013 73 4000 1 340 07:45 26.06.2020
895 Haze 19 1013 73 4000 1 340 07:23 26.06.2020
896 Haze 18 1012 72 4000 5.06 313 06:48 26.06.2020
897 Haze 18 1012 72 4000 5.06 313 06:29 26.06.2020
898 Mist 15 1013 87 3500 1 90 05:52 26.06.2020
899 Clear 17 1013 82 7000 1 360 04:55 26.06.2020
900 Clear 19 1013 77 8000 3.1 240 02:29 26.06.2020
901 Clear 16 1013 82 8000 1 320 01:26 26.06.2020
902 Clear 19 1013 82 8000 1 220 00:46 26.06.2020
903 Clear 19 1013 82 8000 1 220 00:27 26.06.2020
904 Clear 20 1013 77 8000 1 80 23:47 25.06.2020
905 Clear 20 1013 77 8000 1 80 23:22 25.06.2020
906 Clear 21 1013 64 8000 2.1 250 22:58 25.06.2020
907 Clear 21 1013 64 8000 2.1 250 22:39 25.06.2020
908 Clear 21 1013 64 8000 2.1 250 22:20 25.06.2020
909 Clear 22 1013 56 8000 4.1 260 21:57 25.06.2020
910 Clear 22 1013 56 8000 4.1 260 21:39 25.06.2020
911 Clear 22 1013 56 8000 4.1 260 21:20 25.06.2020
912 Clear 24 1013 47 8000 4.6 260 20:57 25.06.2020
913 Clear 24 1013 47 8000 4.6 260 20:37 25.06.2020
914 Clear 24 1013 47 8000 4.6 260 20:19 25.06.2020
915 Clear 25 1013 47 6000 3.6 280 19:41 25.06.2020
916 Haze 27 1012 44 5000 4.6 300 19:20 25.06.2020
917 Haze 27 1012 44 5000 4.6 300 19:00 25.06.2020
918 Haze 27 1012 44 5000 4.6 300 18:59 25.06.2020
919 Haze 27 1012 44 5000 4.6 300 18:39 25.06.2020
920 Haze 27 1012 44 5000 4.6 300 18:20 25.06.2020
921 Haze 29 1012 39 5000 6.2 320 17:45 25.06.2020
922 Haze 29 1012 39 5000 6.2 320 17:20 25.06.2020
923 Haze 30 1013 37 5000 6.2 320 16:58 25.06.2020
924 Haze 30 1013 37 5000 6.2 320 16:38 25.06.2020
925 Haze 30 1013 37 5000 6.2 320 16:19 25.06.2020
926 Clear 30 1013 35 7000 6.2 310 15:43 25.06.2020
927 Clear 30 1013 35 7000 6.2 310 15:25 25.06.2020
928 Clear 30 1014 35 6000 5.1 310 14:56 25.06.2020
929 Clear 30 1014 35 6000 5.1 310 14:37 25.06.2020
930 Clear 30 1014 35 6000 5.1 310 14:19 25.06.2020
931 Clear 30 1014 30 8000 4.1 300 13:42 25.06.2020
932 Clear 30 1014 30 8000 4.1 300 13:20 25.06.2020
933 Clear 28 1014 24 10000 4.1 310 12:59 25.06.2020
934 Clear 28 1014 24 10000 4.1 310 12:41 25.06.2020
935 Clear 28 1014 24 10000 4.1 310 12:20 25.06.2020
936 Clear 27 1014 28 10000 5.1 310 11:43 25.06.2020
937 Clear 27 1014 28 10000 5.1 310 11:23 25.06.2020
938 Clear 25 1015 36 10000 3.1 290 10:46 25.06.2020
939 Clear 25 1015 36 10000 3.1 290 10:27 25.06.2020
940 Clouds 23 1015 43 10000 2.6 270 09:59 25.06.2020
941 Clouds 23 1015 43 10000 2.6 270 09:40 25.06.2020
942 Clouds 23 1015 43 10000 2.6 270 09:20 25.06.2020
943 Clouds 20 1015 60 10000 3.6 290 08:45 25.06.2020
944 Clouds 20 1015 60 10000 3.6 290 08:20 25.06.2020
945 Clouds 18 1015 72 7000 2.6 320 07:46 25.06.2020
946 Clouds 18 1015 72 7000 2.6 320 07:27 25.06.2020
947 Clouds 16 1015 77 7000 2.6 320 06:51 25.06.2020
948 Clouds 16 1015 77 7000 2.6 320 06:27 25.06.2020
949 Clouds 15 1016 82 7000 2.6 320 05:51 25.06.2020
950 Clouds 15 1015 77 8000 3.1 320 04:29 25.06.2020
951 Clouds 16 1015 77 8000 3.1 320 03:35 25.06.2020
952 Clouds 16 1015 77 8000 3.1 320 02:43 25.06.2020
953 Clear 17 1016 63 8000 2.1 330 01:59 25.06.2020
954 Clear 17 1016 63 8000 2.1 330 01:29 25.06.2020
955 Clear 17 1016 63 8000 1 320 00:47 25.06.2020
956 Clear 17 1016 63 8000 1 320 00:22 25.06.2020
957 Clear 18 1016 59 8000 1 330 23:45 24.06.2020
958 Clear 18 1016 59 8000 1 330 23:26 24.06.2020
959 Clear 19 1017 63 7000 3.1 320 22:59 24.06.2020
960 Clear 19 1017 63 7000 3.1 320 22:59 24.06.2020
961 Clear 19 1017 63 7000 3.1 320 22:41 24.06.2020
962 Clear 19 1017 63 7000 3.1 320 22:20 24.06.2020
963 Clear 20 1017 64 7000 3.1 330 21:56 24.06.2020
964 Clear 20 1017 64 7000 3.1 330 21:37 24.06.2020
965 Clear 20 1017 64 7000 3.1 330 21:19 24.06.2020
966 Clear 20 1016 64 7000 5.1 320 20:58 24.06.2020
967 Clear 20 1016 64 7000 5.1 320 20:39 24.06.2020
968 Clear 20 1016 64 7000 5.1 320 20:20 24.06.2020
969 Clear 22 1017 56 6000 6.2 300 19:57 24.06.2020
970 Clear 22 1017 56 6000 6.2 300 19:38 24.06.2020
971 Clear 22 1017 56 6000 6.2 300 19:18 24.06.2020
972 Haze 24 1016 44 5000 6.2 310 18:58 24.06.2020
973 Haze 24 1016 44 5000 6.2 310 18:39 24.06.2020
974 Haze 24 1016 44 5000 6.2 310 18:39 24.06.2020
975 Haze 24 1016 44 5000 6.2 310 18:20 24.06.2020
976 Clear 26 1016 36 6000 7.7 330 17:54 24.06.2020
977 Clear 26 1016 36 6000 7.7 330 17:36 24.06.2020
978 Clear 26 1016 36 6000 7.7 330 17:18 24.06.2020
979 Clear 27 1015 36 6000 7.7 320 16:54 24.06.2020
980 Clear 27 1015 36 6000 7.7 320 16:36 24.06.2020
981 Clear 27 1015 36 6000 7.7 320 16:18 24.06.2020
982 Clear 28 1016 32 6000 7.2 320 15:39 24.06.2020
983 Clear 28 1016 32 6000 7.2 320 15:20 24.06.2020
984 Haze 28 1016 32 5000 7.7 320 14:59 24.06.2020
985 Haze 28 1016 32 5000 7.7 320 14:40 24.06.2020
986 Haze 28 1016 32 5000 7.7 320 14:21 24.06.2020
987 Clear 27 1016 34 8000 6.2 300 13:42 24.06.2020
988 Clear 27 1016 34 8000 6.2 300 13:21 24.06.2020
989 Clear 27 1017 28 10000 5.1 320 12:45 24.06.2020
990 Clear 27 1017 28 10000 5.1 320 12:22 24.06.2020
991 Clear 26 1017 24 10000 5.1 320 11:58 24.06.2020
992 Clear 26 1017 24 10000 5.1 320 11:40 24.06.2020
993 Clear 26 1017 24 10000 5.1 320 11:22 24.06.2020
994 Clear 25 1017 22 10000 5.1 310 10:54 24.06.2020
995 Clear 25 1017 22 10000 5.1 310 10:36 24.06.2020
996 Clear 25 1017 22 10000 5.1 310 10:18 24.06.2020
997 Clear 23 1017 38 10000 4.1 320 09:42 24.06.2020
998 Clear 23 1017 38 10000 4.1 320 09:20 24.06.2020
999 Clear 21 1017 49 10000 2.1 320 08:41 24.06.2020
1000 Clear 21 1017 49 10000 2.1 320 08:20 24.06.2020
1001 Clouds 20 1017 49 10000 4.6 300 07:50 24.06.2020
1002 Clouds 20 1017 49 10000 4.6 300 07:29 24.06.2020
1003 Clouds 18 1017 49 10000 4.6 300 06:49 24.06.2020
1004 Clouds 18 1017 52 10000 2.6 300 06:25 24.06.2020
1005 Clouds 16 1017 59 10000 3.6 330 05:54 24.06.2020
1006 Clouds 17 1016 39 10000 1.5 340 04:42 24.06.2020
1007 Clouds 17 1016 39 10000 1.5 340 04:18 24.06.2020
1008 Clear 19 1017 35 10000 3.1 24 03:34 24.06.2020
1009 Clear 16 1017 59 6000 4.1 260 02:43 24.06.2020
1010 Clear 20 1016 35 10000 3.1 280 01:35 24.06.2020
1011 Clear 20 1016 35 10000 3.1 280 00:47 24.06.2020
1012 Clear 20 1017 30 10000 3.1 240 00:27 24.06.2020
1013 Clear 22 1016 24 10000 3.1 240 23:44 23.06.2020
1014 Clear 21 1016 24 10000 3.1 240 23:19 23.06.2020
1015 Clear 22 1016 25 10000 3.1 240 22:54 23.06.2020
1016 Clear 22 1016 25 10000 3.1 240 22:36 23.06.2020
1017 Clear 22 1016 25 10000 3.1 240 22:18 23.06.2020
1018 Clear 22 1016 25 10000 3.1 240 22:18 23.06.2020
1019 Clear 22 1016 53 10000 1.5 350 21:40 23.06.2020
1020 Clear 22 1016 53 10000 1.5 350 21:19 23.06.2020
1021 Clear 23 1016 35 10000 2.1 340 20:56 23.06.2020
1022 Clear 23 1016 35 10000 2.1 340 20:37 23.06.2020
1023 Clear 23 1016 35 10000 2.1 340 20:18 23.06.2020
1024 Clear 25 1015 36 8000 5.1 310 19:45 23.06.2020
1025 Clear 26 1015 36 8000 5.1 310 19:27 23.06.2020
1026 Clear 27 1015 30 7000 5.1 310 18:42 23.06.2020
1027 Clear 29 1015 26 7000 5.1 310 18:19 23.06.2020
1028 Clear 29 1015 26 7000 5.1 310 17:59 23.06.2020
1029 Clear 29 1015 26 7000 5.1 310 17:39 23.06.2020
1030 Clear 29 1015 26 7000 5.1 310 17:20 23.06.2020
1031 Clear 30 1015 16 10000 4.1 260 16:56 23.06.2020
1032 Clear 30 1015 16 10000 4.1 260 16:37 23.06.2020
1033 Clear 30 1015 16 10000 4.1 260 16:18 23.06.2020
1034 Clear 30 1015 16 10000 4.1 260 16:18 23.06.2020
1035 Clear 31 1015 16 10000 4.1 260 15:45 23.06.2020
1036 Clear 31 1015 16 10000 4.1 260 15:25 23.06.2020
1037 Clear 31 1015 14 10000 3.1 250 14:59 23.06.2020
1038 Clear 31 1015 14 10000 3.1 250 14:41 23.06.2020
1039 Clear 31 1015 14 10000 3.1 250 14:19 23.06.2020
1040 Clear 30 1016 16 10000 3.1 250 13:56 23.06.2020
1041 Clear 30 1016 16 10000 3.1 250 13:38 23.06.2020
1042 Clear 29 1016 16 10000 3.1 240 13:20 23.06.2020
1043 Clear 29 1016 16 10000 3.1 240 12:41 23.06.2020
1044 Clear 29 1016 16 10000 3.1 240 12:22 23.06.2020
1045 Clear 28 1017 11 10000 4.1 240 11:55 23.06.2020
1046 Clear 28 1017 11 10000 4.1 240 11:37 23.06.2020
1047 Clear 28 1017 12 10000 4.1 240 11:19 23.06.2020
1048 Clear 27 1016 15 10000 4.6 250 10:55 23.06.2020
1049 Clear 27 1016 15 10000 4.6 250 10:37 23.06.2020
1050 Clear 27 1016 15 10000 4.6 250 10:19 23.06.2020
1051 Clear 26 1016 19 10000 3.6 230 09:41 23.06.2020
1052 Clear 26 1016 19 10000 3.6 230 09:20 23.06.2020
1053 Clear 24 1016 23 10000 2.6 220 08:48 23.06.2020
1054 Clear 24 1016 23 10000 2.6 220 08:29 23.06.2020
1055 Clear 22 1016 35 8000 4.1 260 07:59 23.06.2020
1056 Clear 22 1016 35 8000 4.1 260 07:39 23.06.2020
1057 Clear 22 1016 35 8000 4.1 260 07:21 23.06.2020
1058 Clear 19 1016 35 10000 3.1 250 06:48 23.06.2020
1059 Clear 19 1016 35 10000 3.1 250 06:30 23.06.2020
1060 Clear 16 1015 40 10000 2.1 250 05:39 23.06.2020
1061 Clear 17 1015 49 10000 4.46 305 03:39 23.06.2020
1062 Clear 17 1015 49 10000 4.52 308 02:56 23.06.2020
1063 Clear 17 1015 49 10000 4.52 308 02:37 23.06.2020
1064 Clear 17 1015 49 10000 4.53 309 02:19 23.06.2020
1065 Clear 18 1015 52 10000 1.5 270 01:37 23.06.2020
1066 Clear 18 1015 52 10000 1.5 270 01:18 23.06.2020
1067 Clear 20 1015 45 10000 4.06 316 00:24 23.06.2020
1068 Clear 21 1015 43 10000 4.06 316 23:57 22.06.2020
1069 Clear 21 1015 43 10000 4.06 316 23:39 22.06.2020
1070 Clear 21 1015 43 10000 3.83 326 23:19 22.06.2020
1071 Clear 21 1015 40 8000 1.5 210 22:57 22.06.2020
1072 Clear 21 1015 40 8000 1.5 210 22:39 22.06.2020
1073 Clear 21 1015 40 8000 1.5 210 22:20 22.06.2020
1074 Clear 21 1015 49 8000 1.5 260 21:57 22.06.2020
1075 Clear 21 1015 49 8000 1.5 260 21:38 22.06.2020
1076 Clear 21 1015 49 8000 1.5 260 21:20 22.06.2020
1077 Clear 23 1014 36 8000 2.1 250 20:44 22.06.2020
1078 Clear 23 1014 36 8000 2.1 250 20:25 22.06.2020
1079 Clear 25 1014 36 8000 2.1 250 19:59 22.06.2020
1080 Clear 25 1013 31 6000 2.6 300 19:41 22.06.2020
1081 Clear 25 1013 31 6000 2.6 300 19:19 22.06.2020
1082 Clear 28 1013 26 6000 5.1 300 18:42 22.06.2020
1083 Clear 28 1013 26 6000 5.1 300 18:24 22.06.2020
1084 Clear 30 1013 20 6000 5.7 250 17:57 22.06.2020
1085 Clear 30 1013 20 6000 5.7 250 17:39 22.06.2020
1086 Clear 30 1013 20 6000 5.7 250 17:21 22.06.2020
1087 Clear 30 1013 20 6000 5.7 250 16:59 22.06.2020
1088 Clear 30 1013 25 6000 4.6 260 16:40 22.06.2020
1089 Clear 30 1013 25 6000 4.6 260 16:18 22.06.2020
1090 Clear 31 1012 25 6000 5.7 250 15:54 22.06.2020
1091 Clear 31 1012 25 6000 5.7 250 15:36 22.06.2020
1092 Clear 31 1012 25 6000 5.7 250 15:18 22.06.2020
1093 Clear 30 1012 27 6000 5.7 240 14:39 22.06.2020
1094 Clear 30 1012 27 6000 5.7 240 14:20 22.06.2020
1095 Clear 30 1013 27 6000 4.6 270 13:56 22.06.2020
1096 Clear 30 1013 27 6000 4.6 270 13:37 22.06.2020
1097 Clear 30 1013 27 6000 4.6 270 13:19 22.06.2020
1098 Clear 30 1014 27 6000 4.6 240 12:42 22.06.2020
1099 Clear 30 1014 27 6000 4.6 240 12:23 22.06.2020
1100 Clear 29 1013 25 6000 5.7 280 11:57 22.06.2020
1101 Clear 29 1013 25 6000 5.7 280 11:37 22.06.2020
1102 Clear 29 1013 25 6000 5.7 280 11:18 22.06.2020
1103 Clear 29 1013 25 6000 5.7 280 10:54 22.06.2020
1104 Clear 28 1013 32 6000 3.1 260 10:36 22.06.2020
1105 Clear 28 1013 32 6000 3.1 260 10:18 22.06.2020
1106 Clear 27 1013 44 6000 2.6 230 09:41 22.06.2020
1107 Clear 27 1013 44 6000 2.6 230 09:20 22.06.2020
1108 Clear 27 1013 44 6000 2.6 230 09:20 22.06.2020
1109 Clear 27 1012 41 6000 4.6 260 08:58 22.06.2020
1110 Clear 27 1012 41 6000 4.6 260 08:39 22.06.2020
1111 Clear 27 1012 41 6000 4.6 260 08:39 22.06.2020
1112 Clear 27 1012 41 6000 4.6 260 08:20 22.06.2020
1113 Clear 25 1012 38 6000 5.1 250 07:52 22.06.2020
1114 Clear 25 1012 38 6000 5.1 250 07:33 22.06.2020
1115 Clear 24 1011 33 6000 6.2 250 06:45 22.06.2020
1116 Clear 24 1011 33 6000 6.2 250 06:26 22.06.2020
1117 Clear 24 1011 16 6000 2.1 240 05:58 22.06.2020
1118 Clear 24 1011 16 6000 2.1 240 05:30 22.06.2020
1119 Clear 21 1011 40 7000 2.6 280 02:55 22.06.2020
1120 Clear 21 1012 43 7000 1.5 110 01:34 22.06.2020
1121 Clear 21 1012 43 7000 1.5 100 00:41 22.06.2020
1122 Clear 23 1012 41 7000 1.5 240 23:59 21.06.2020
1123 Clear 23 1012 41 7000 1.5 240 23:40 21.06.2020
1124 Clear 23 1012 41 7000 1.5 240 23:22 21.06.2020
1125 Clear 23 1013 47 8000 1.5 205 22:57 21.06.2020
1126 Clear 23 1013 47 8000 1.5 205 22:38 21.06.2020
1127 Clear 23 1013 47 8000 1.15 245 22:19 21.06.2020
1128 Clear 25 1013 41 8000 2.1 250 21:59 21.06.2020
1129 Clear 25 1013 41 8000 2.1 250 21:41 21.06.2020
1130 Clear 25 1013 41 8000 2.1 250 21:21 21.06.2020
1131 Clear 26 1012 36 8000 2.6 240 20:59 21.06.2020
1132 Clear 26 1012 36 8000 2.6 240 20:38 21.06.2020
1133 Clear 26 1012 36 8000 2.6 240 20:19 21.06.2020
1134 Haze 27 1013 36 5000 3.6 260 19:57 21.06.2020
1135 Haze 27 1013 36 5000 3.6 260 19:38 21.06.2020
1136 Haze 27 1013 36 5000 3.6 260 19:20 21.06.2020
1137 Haze 29 1012 30 5000 4.6 250 18:55 21.06.2020
1138 Haze 29 1012 30 5000 4.6 250 18:37 21.06.2020
1139 Haze 29 1012 30 5000 4.6 250 18:37 21.06.2020
1140 Haze 29 1012 30 5000 4.6 250 18:19 21.06.2020
1141 Clear 30 1012 28 6000 4.6 270 17:40 21.06.2020
1142 Clear 30 1012 28 6000 4.6 270 17:21 21.06.2020
1143 Clear 31 1012 28 6000 4.6 270 16:57 21.06.2020
1144 Clear 31 1012 27 6000 4.6 280 16:38 21.06.2020
1145 Clear 31 1012 27 6000 4.6 280 16:20 21.06.2020
1146 Clear 31 1012 29 6000 4.1 280 15:39 21.06.2020
1147 Clear 31 1012 29 6000 4.1 280 15:21 21.06.2020
1148 Clear 30 1013 25 7000 4.1 280 14:55 21.06.2020
1149 Clear 30 1013 25 7000 4.1 280 14:37 21.06.2020
1150 Clear 30 1013 25 7000 4.1 280 14:18 21.06.2020
1151 Clear 30 1013 33 7000 2.6 250 13:42 21.06.2020
1152 Clear 30 1013 33 7000 2.6 250 13:42 21.06.2020
1153 Clear 30 1013 33 7000 2.6 250 13:23 21.06.2020
1154 Clear 30 1013 33 7000 2.6 250 12:59 21.06.2020
1155 Clear 29 1013 28 7000 2.6 290 12:41 21.06.2020
1156 Clear 29 1013 28 7000 2.6 290 12:23 21.06.2020
1157 Clear 27 1013 39 7000 3.1 220 11:43 21.06.2020
1158 Clear 27 1013 39 7000 3.1 220 11:24 21.06.2020
1159 Clear 25 1013 39 7000 3.1 220 10:59 21.06.2020
1160 Clear 25 1013 47 7000 3.1 230 10:40 21.06.2020
1161 Clear 25 1013 47 7000 3.1 230 10:22 21.06.2020
1162 Clear 22 1013 60 7000 4.1 240 09:44 21.06.2020
1163 Clear 22 1013 60 7000 4.1 240 09:25 21.06.2020
1164 Clear 21 1013 64 7000 5.1 230 09:00 21.06.2020
1165 Clear 21 1013 64 7000 5.1 230 08:41 21.06.2020
1166 Clear 21 1013 64 7000 5.1 230 08:20 21.06.2020
1167 Clear 19 1013 64 7000 5.1 240 07:59 21.06.2020
1168 Clear 19 1013 64 7000 5.1 240 07:40 21.06.2020
1169 Clear 19 1013 64 7000 5.1 240 07:20 21.06.2020
1170 Clear 19 1013 64 7000 5.1 240 07:20 21.06.2020
1171 Clear 17 1013 68 7000 1 240 06:46 21.06.2020
1172 Clear 16 1012 72 8000 4.22 320 05:58 21.06.2020
1173 Clear 18 1013 72 7000 2.1 230 04:50 21.06.2020
1174 Clear 19 1013 68 7000 1 220 03:20 21.06.2020
1175 Clear 20 1013 56 7000 1.5 240 02:53 21.06.2020
1176 Clear 20 1013 52 7000 2.1 240 01:48 21.06.2020
1177 Clear 20 1013 52 7000 2.1 240 01:21 21.06.2020
1178 Clear 21 1013 46 7000 3.1 250 00:55 21.06.2020
1179 Clear 21 1013 46 7000 3.1 250 00:37 21.06.2020
1180 Clear 21 1013 46 7000 3.1 250 00:18 21.06.2020
1181 Clear 20 1013 60 7000 1 100 23:43 20.06.2020
1182 Clear 20 1013 60 7000 1 100 23:21 20.06.2020
1183 Clear 22 1013 46 7000 3.1 260 22:55 20.06.2020
1184 Clear 22 1013 46 7000 3.1 260 22:37 20.06.2020
1185 Clear 22 1013 46 7000 3.1 260 22:18 20.06.2020
1186 Clear 22 1013 46 7000 3.1 260 22:18 20.06.2020
1187 Clear 22 1012 49 7000 3.1 260 21:56 20.06.2020
1188 Clear 22 1012 49 7000 3.1 260 21:38 20.06.2020
1189 Clear 22 1012 49 7000 3.1 260 21:19 20.06.2020
1190 Clouds 23 1012 60 7000 3.1 260 20:56 20.06.2020
1191 Clouds 23 1012 60 7000 3.1 260 20:38 20.06.2020
1192 Clouds 23 1012 60 7000 3.1 260 20:19 20.06.2020
1193 Clouds 23 1012 60 7000 3.1 260 20:19 20.06.2020
1194 Clouds 23 1013 56 6000 3.1 250 19:43 20.06.2020
1195 Clouds 23 1013 56 6000 3.1 250 19:23 20.06.2020
1196 Clouds 25 1012 44 6000 5.1 270 18:55 20.06.2020
1197 Clouds 25 1012 44 6000 5.1 270 18:37 20.06.2020
1198 Clouds 25 1012 44 6000 5.1 270 18:19 20.06.2020
1199 Haze 26 1012 44 5000 6.2 260 17:56 20.06.2020
1200 Haze 26 1012 44 5000 6.2 260 17:37 20.06.2020
1201 Haze 26 1012 44 5000 6.2 260 17:18 20.06.2020
1202 Haze 26 1012 47 5000 5.7 250 16:40 20.06.2020
1203 Haze 26 1012 47 5000 5.7 250 16:19 20.06.2020
1204 Haze 26 1012 47 5000 5.7 250 15:57 20.06.2020
1205 Haze 26 1012 47 5000 4.6 260 15:38 20.06.2020
1206 Haze 26 1012 47 5000 4.6 260 15:18 20.06.2020
1207 Haze 27 1012 42 5000 8.2 280 14:42 20.06.2020
1208 Haze 27 1012 42 5000 8.2 280 14:20 20.06.2020
1209 Haze 25 1012 50 5000 7.2 260 13:42 20.06.2020
1210 Haze 25 1012 50 5000 7.2 260 13:20 20.06.2020
1211 Haze 25 1012 50 5000 7.2 270 12:57 20.06.2020
1212 Haze 25 1012 50 5000 7.2 270 12:38 20.06.2020
1213 Haze 25 1012 50 5000 7.2 270 12:19 20.06.2020
1214 Haze 25 1012 50 5000 7.2 270 11:55 20.06.2020
1215 Haze 24 1012 53 5000 6.7 260 11:36 20.06.2020
1216 Haze 24 1012 53 5000 6.7 260 11:18 20.06.2020
1217 Clouds 23 1012 60 6000 6.7 280 10:42 20.06.2020
1218 Clouds 23 1012 60 6000 6.7 280 10:20 20.06.2020
1219 Clouds 21 1012 64 6000 4.1 260 09:54 20.06.2020
1220 Clouds 21 1012 64 6000 4.1 260 09:36 20.06.2020
1221 Clouds 21 1012 64 6000 4.1 260 09:18 20.06.2020
1222 Clouds 21 1012 64 6000 6.2 260 08:43 20.06.2020
1223 Clouds 21 1012 64 6000 6.2 260 08:25 20.06.2020
1224 Clouds 19 1012 82 6000 3.1 250 07:51 20.06.2020
1225 Clouds 19 1012 82 6000 3.1 250 07:26 20.06.2020
1226 Clouds 19 1012 82 6000 3.1 250 06:53 20.06.2020
1227 Clouds 18 1012 77 6000 2.1 260 06:23 20.06.2020
1228 Clouds 17 1011 88 6000 4.1 260 05:50 20.06.2020
1229 Clouds 17 1011 82 6000 4.1 260 04:50 20.06.2020
1230 Clear 16 1011 82 7000 4.1 270 02:27 20.06.2020
1231 Clear 17 1011 82 7000 3.6 250 01:48 20.06.2020
1232 Clouds 18 1012 77 6000 6.2 270 00:52 20.06.2020
1233 Clouds 18 1012 77 6000 6.2 270 00:21 20.06.2020
1234 Clouds 19 1012 72 6000 6.2 270 23:55 19.06.2020
1235 Clouds 19 1012 72 6000 6.2 270 23:37 19.06.2020
1236 Clouds 19 1012 72 6000 6.2 270 23:18 19.06.2020
1237 Clouds 18 1013 68 6000 5.1 280 22:40 19.06.2020
1238 Clouds 18 1013 68 6000 5.1 280 22:22 19.06.2020
1239 Clouds 19 1013 68 6000 4.1 280 21:58 19.06.2020
1240 Clouds 19 1013 68 6000 4.1 280 21:38 19.06.2020
1241 Clouds 19 1013 68 6000 4.1 280 21:18 19.06.2020
1242 Clouds 21 1012 60 6000 4.1 280 20:58 19.06.2020
1243 Clouds 21 1012 60 6000 4.1 280 20:40 19.06.2020
1244 Clouds 21 1012 60 6000 4.1 280 20:21 19.06.2020
1245 Clouds 22 1012 53 6000 7.2 270 19:57 19.06.2020
1246 Clouds 22 1012 53 6000 7.2 270 19:38 19.06.2020
1247 Clouds 22 1012 53 6000 7.2 270 19:20 19.06.2020
1248 Clouds 23 1011 49 6000 7.2 260 18:41 19.06.2020
1249 Clouds 23 1011 49 6000 7.2 260 18:22 19.06.2020
1250 Clouds 23 1011 49 6000 7.2 260 17:59 19.06.2020
1251 Clouds 24 1011 44 6000 7.2 270 17:40 19.06.2020
1252 Clouds 24 1011 44 6000 7.2 270 17:22 19.06.2020
1253 Clouds 25 1011 44 6000 7.2 270 16:56 19.06.2020
1254 Clouds 26 1011 41 6000 7.2 270 16:37 19.06.2020
1255 Clouds 26 1011 41 6000 7.2 270 16:19 19.06.2020
1256 Clouds 26 1011 41 6000 8.2 270 15:43 19.06.2020
1257 Clouds 26 1011 41 6000 8.2 270 15:24 19.06.2020
1258 Clouds 26 1011 41 6000 9.3 270 14:56 19.06.2020
1259 Clouds 26 1011 41 6000 9.3 270 14:38 19.06.2020
1260 Clouds 26 1011 41 6000 9.3 270 14:19 19.06.2020
1261 Clouds 26 1012 41 6000 6.7 240 13:45 19.06.2020
1262 Clouds 26 1012 41 6000 6.7 240 13:26 19.06.2020
1263 Clouds 25 1012 47 6000 6.2 230 12:49 19.06.2020
1264 Clouds 24 1012 47 6000 6.2 230 12:24 19.06.2020
1265 Clouds 23 1013 53 6000 4.1 260 11:59 19.06.2020
1266 Clouds 23 1013 53 6000 4.1 260 11:40 19.06.2020
1267 Clouds 23 1013 53 6000 4.1 260 11:19 19.06.2020
1268 Clouds 23 1013 53 6000 5.1 250 10:59 19.06.2020
1269 Clouds 23 1013 53 6000 5.1 250 10:40 19.06.2020
1270 Clouds 23 1013 53 6000 5.1 250 10:19 19.06.2020
1271 Clouds 21 1013 60 6000 3.6 240 09:42 19.06.2020
1272 Clouds 21 1013 60 6000 3.6 240 09:21 19.06.2020
1273 Clouds 21 1013 60 7000 7.7 250 08:58 19.06.2020
1274 Haze 19 1013 72 5000 5.7 270 08:38 19.06.2020
1275 Haze 19 1013 72 5000 5.7 270 08:20 19.06.2020
1276 Haze 19 1013 72 5000 5.7 270 07:40 19.06.2020
1277 Haze 19 1013 72 5000 5.7 270 07:21 19.06.2020
1278 Haze 18 1013 77 4500 4.6 240 06:44 19.06.2020
1279 Haze 18 1013 77 4500 4.6 240 06:20 19.06.2020
1280 Mist 16 1013 87 5000 2.1 260 04:30 19.06.2020
1281 Mist 17 1013 82 5000 1.5 230 03:31 19.06.2020
1282 Clear 18 1013 82 7000 5.7 250 01:45 19.06.2020
1283 Clouds 18 1013 77 7000 2.6 240 00:43 19.06.2020
1284 Clouds 18 1013 77 7000 2.6 240 00:22 19.06.2020
1285 Clouds 18 1013 72 7000 2.6 240 23:57 18.06.2020
1286 Clouds 18 1013 72 7000 2.6 240 23:38 18.06.2020
1287 Clouds 18 1013 72 7000 2.6 240 23:20 18.06.2020
1288 Clouds 18 1013 72 8000 1.5 280 22:40 18.06.2020
1289 Clouds 18 1013 72 8000 1.5 280 22:20 18.06.2020
1290 Clouds 19 1013 68 8000 2.1 300 21:56 18.06.2020
1291 Clouds 19 1013 68 8000 2.1 300 21:37 18.06.2020
1292 Clouds 19 1013 68 8000 2.1 300 21:19 18.06.2020
1293 Clouds 20 1012 60 8000 1.5 260 20:41 18.06.2020
1294 Clouds 20 1012 60 8000 1.5 260 20:21 18.06.2020
1295 Clear 22 1012 56 6000 5.1 300 19:58 18.06.2020
1296 Clear 22 1012 56 6000 5.1 300 19:40 18.06.2020
1297 Clear 22 1012 56 6000 5.1 300 19:20 18.06.2020
1298 Clear 24 1012 53 7000 6.7 310 18:42 18.06.2020
1299 Clear 24 1012 53 7000 6.7 310 18:23 18.06.2020
1300 Clouds 26 1012 50 6000 5.1 270 17:57 18.06.2020
1301 Clouds 26 1012 50 6000 5.1 270 17:39 18.06.2020
1302 Clouds 26 1012 50 6000 5.1 270 17:21 18.06.2020
1303 Haze 28 1012 51 5000 3.1 260 16:44 18.06.2020
1304 Haze 28 1012 51 5000 3.1 260 16:25 18.06.2020
1305 Haze 29 1012 39 5000 6.2 240 15:59 18.06.2020
1306 Haze 29 1012 39 5000 6.2 240 15:40 18.06.2020
1307 Haze 29 1012 39 5000 6.2 240 15:20 18.06.2020
1308 Clouds 30 1012 37 6000 7.2 250 14:57 18.06.2020
1309 Clouds 30 1012 37 6000 7.2 250 14:39 18.06.2020
1310 Clouds 30 1012 37 6000 7.2 250 14:20 18.06.2020
1311 Clear 30 1012 33 6000 6.2 250 13:48 18.06.2020
1312 Clear 30 1012 33 6000 6.2 250 13:29 18.06.2020
1313 Haze 30 1012 23 5000 5.1 280 12:58 18.06.2020
1314 Haze 30 1012 23 5000 5.1 280 12:58 18.06.2020
1315 Haze 30 1012 23 5000 5.1 280 12:40 18.06.2020
1316 Haze 30 1012 23 5000 5.1 280 12:20 18.06.2020
1317 Haze 30 1012 26 5000 7.2 250 11:59 18.06.2020
1318 Smoke 30 1012 25 4200 8.2 260 11:40 18.06.2020
1319 Smoke 30 1012 25 4200 8.2 260 11:19 18.06.2020
1320 Smoke 29 1012 26 3500 7.2 310 10:41 18.06.2020
1321 Smoke 29 1012 26 3500 7.2 310 10:19 18.06.2020
1322 Smoke 29 1012 25 3100 7.2 310 09:55 18.06.2020
1323 Smoke 28 1012 26 5000 2.1 240 09:37 18.06.2020
1324 Smoke 28 1012 26 5000 2.1 240 09:19 18.06.2020
1325 Haze 27 1011 26 5000 2.1 240 08:40 18.06.2020
1326 Haze 27 1011 26 5000 2.1 240 08:21 18.06.2020
1327 Clear 25 1012 28 6000 2.1 240 07:46 18.06.2020
1328 Clear 25 1012 28 6000 2.1 240 07:26 18.06.2020
1329 Clear 23 1011 29 6000 2.1 240 06:54 18.06.2020
1330 Clear 20 1011 33 6000 2.1 240 05:58 18.06.2020
1331 Clear 20 1011 43 6000 0.58 280 04:24 18.06.2020
1332 Clear 21 1011 37 6000 1.5 180 02:51 18.06.2020
1333 Clear 21 1012 38 6000 1.14 79 01:29 18.06.2020
1334 Clear 22 1012 38 6000 1.14 79 00:57 18.06.2020
1335 Clear 23 1013 33 6000 1.14 79 00:38 18.06.2020
1336 Clear 23 1013 33 6000 3.47 353 00:20 18.06.2020
1337 Clear 23 1013 33 6000 3.47 353 23:43 17.06.2020
1338 Clear 23 1013 33 6000 5.17 330 23:21 17.06.2020
1339 Clear 25 1013 33 6000 5.17 330 22:57 17.06.2020
1340 Clear 25 1012 36 6000 1.5 310 22:38 17.06.2020
1341 Clear 25 1012 36 6000 1.5 310 22:20 17.06.2020
1342 Clear 26 1012 31 6000 4.1 280 21:55 17.06.2020
1343 Clear 26 1012 31 6000 4.1 280 21:37 17.06.2020
1344 Clear 26 1012 28 6000 6.2 290 21:18 17.06.2020
1345 Clear 26 1012 28 6000 6.2 290 20:38 17.06.2020
1346 Clear 26 1012 28 6000 6.2 290 20:20 17.06.2020
1347 Clear 28 1012 30 6000 6.2 290 19:57 17.06.2020
1348 Clear 28 1012 30 6000 6.2 290 19:38 17.06.2020
1349 Clear 28 1012 30 6000 6.2 290 19:19 17.06.2020
1350 Clear 29 1012 26 6000 7.7 300 18:45 17.06.2020
1351 Clear 29 1012 26 6000 7.7 300 18:27 17.06.2020
1352 Clear 31 1012 23 6000 7.7 300 17:46 17.06.2020
1353 Clear 31 1012 23 6000 7.7 300 17:23 17.06.2020
1354 Clear 32 1013 25 6000 7.7 300 16:58 17.06.2020
1355 Clear 32 1013 25 6000 7.7 300 16:39 17.06.2020
1356 Clear 32 1013 25 6000 7.7 300 16:21 17.06.2020
1357 Clear 32 1013 24 6000 5.7 300 15:58 17.06.2020
1358 Clear 32 1013 24 6000 5.7 300 15:39 17.06.2020
1359 Clear 32 1013 24 6000 5.7 300 15:20 17.06.2020
1360 Clear 32 1013 22 6000 7.7 300 14:58 17.06.2020
1361 Clear 32 1013 22 6000 7.7 300 14:39 17.06.2020
1362 Clear 32 1013 22 6000 7.7 300 14:19 17.06.2020
1363 Clear 32 1013 20 6000 7.7 310 13:56 17.06.2020
1364 Clear 32 1013 20 6000 7.7 310 13:38 17.06.2020
1365 Clear 32 1013 20 6000 7.7 310 13:19 17.06.2020
1366 Clear 31 1013 22 7000 7.7 310 12:42 17.06.2020
1367 Clear 31 1013 22 7000 7.7 310 12:23 17.06.2020
1368 Clear 31 1014 20 7000 7.2 310 11:57 17.06.2020
1369 Clear 31 1014 20 7000 7.2 310 11:57 17.06.2020
1370 Clear 31 1014 20 7000 7.2 310 11:38 17.06.2020
1371 Clear 31 1014 20 7000 7.2 310 11:20 17.06.2020
1372 Clear 31 1014 20 7000 7.2 310 11:20 17.06.2020
1373 Clear 29 1014 21 10000 1.5 250 10:38 17.06.2020
1374 Clear 29 1014 21 10000 1.5 250 10:19 17.06.2020
1375 Clear 29 1014 21 10000 1.5 250 10:19 17.06.2020
1376 Clear 28 1014 21 10000 1.5 250 09:58 17.06.2020
1377 Clear 27 1013 24 10000 1 240 09:40 17.06.2020
1378 Clear 27 1013 24 10000 1 240 09:20 17.06.2020
1379 Clear 25 1014 25 8000 1.5 220 08:46 17.06.2020
1380 Clear 25 1014 25 8000 1.5 220 08:21 17.06.2020
1381 Clear 24 1013 23 8000 2.1 230 07:57 17.06.2020
1382 Clear 24 1013 23 8000 2.1 230 07:39 17.06.2020
1383 Clear 24 1013 23 8000 2.1 230 07:20 17.06.2020
1384 Clear 21 1013 28 10000 2.1 230 06:55 17.06.2020
1385 Clear 19 1013 28 10000 2.1 230 06:37 17.06.2020
1386 Clear 18 1013 28 10000 2.1 230 06:19 17.06.2020
1387 Clear 19 1012 32 10000 2.1 230 04:56 17.06.2020
1388 Clear 18 1013 49 10000 3.92 321 02:55 17.06.2020
1389 Clear 20 1013 52 10000 3.8 322 01:43 17.06.2020
1390 Clear 20 1013 52 10000 4.47 317 00:41 17.06.2020
1391 Clear 20 1013 52 10000 5.04 313 00:23 17.06.2020
1392 Clear 21 1013 46 10000 5.04 313 23:56 16.06.2020
1393 Clear 21 1013 46 10000 5.04 313 23:56 16.06.2020
1394 Clear 21 1013 46 10000 5.04 313 23:37 16.06.2020
1395 Clear 21 1013 46 10000 5.92 314 23:19 16.06.2020
1396 Clear 21 1014 46 10000 3.6 300 22:54 16.06.2020
1397 Clear 21 1014 46 10000 3.6 300 22:36 16.06.2020
1398 Clear 21 1014 46 10000 3.6 300 22:18 16.06.2020
1399 Clear 22 1013 46 10000 5.7 290 21:45 16.06.2020
1400 Clear 22 1013 46 10000 5.7 290 21:23 16.06.2020
1401 Clear 23 1013 43 10000 5.7 290 20:57 16.06.2020
1402 Clear 23 1013 43 10000 5.7 290 20:39 16.06.2020
1403 Clear 23 1013 43 10000 5.7 290 20:19 16.06.2020
1404 Clear 24 1013 43 10000 5.7 290 19:57 16.06.2020
1405 Clear 25 1013 36 7000 5.1 310 19:38 16.06.2020
1406 Clear 25 1013 36 7000 5.1 310 19:20 16.06.2020
1407 Clear 27 1013 30 7000 5.1 310 18:54 16.06.2020
1408 Clear 27 1013 30 7000 5.1 310 18:36 16.06.2020
1409 Clear 27 1013 30 7000 5.1 310 18:18 16.06.2020
1410 Clear 28 1013 30 7000 7.7 310 17:54 16.06.2020
1411 Clear 28 1013 30 7000 7.7 310 17:36 16.06.2020
1412 Clear 29 1013 32 8000 6.7 310 17:18 16.06.2020
1413 Clear 29 1013 32 8000 6.7 310 16:42 16.06.2020
1414 Clear 29 1013 32 8000 6.7 310 16:20 16.06.2020
1415 Clear 29 1013 26 8000 5.7 300 15:58 16.06.2020
1416 Clear 29 1013 26 8000 5.7 300 15:39 16.06.2020
1417 Clear 29 1013 26 8000 5.7 300 15:21 16.06.2020
1418 Clear 29 1013 28 7000 6.7 300 14:56 16.06.2020
1419 Clear 29 1013 28 7000 6.7 300 14:38 16.06.2020
1420 Clear 29 1013 28 7000 6.7 300 14:20 16.06.2020
1421 Clear 29 1013 28 7000 5.7 330 13:46 16.06.2020
1422 Clear 29 1013 28 7000 5.7 330 13:26 16.06.2020
1423 Clear 28 1014 30 7000 6.7 300 12:57 16.06.2020
1424 Clear 28 1014 30 7000 6.7 300 12:38 16.06.2020
1425 Clear 28 1014 30 7000 6.7 300 12:19 16.06.2020
1426 Clear 27 1014 34 8000 3.6 330 11:54 16.06.2020
1427 Clear 27 1014 34 8000 3.6 330 11:36 16.06.2020
1428 Clear 27 1014 34 8000 3.6 330 11:18 16.06.2020
1429 Clear 26 1014 41 10000 2.1 260 10:42 16.06.2020
1430 Clear 26 1014 41 10000 2.1 260 10:20 16.06.2020
1431 Clear 24 1014 41 10000 1.5 250 09:57 16.06.2020
1432 Clear 24 1014 41 10000 1.5 250 09:38 16.06.2020
1433 Clear 24 1014 41 10000 1.5 250 09:20 16.06.2020
1434 Clear 22 1014 49 7000 1 250 08:41 16.06.2020
1435 Clear 22 1014 49 7000 1 250 08:22 16.06.2020
1436 Clear 20 1014 60 7000 4.87 310 07:46 16.06.2020
1437 Clear 20 1014 60 7000 4.9 312 07:26 16.06.2020
1438 Clear 18 1014 52 7000 4.9 312 06:47 16.06.2020
1439 Clear 18 1014 52 7000 4.74 314 06:19 16.06.2020
1440 Clear 15 1013 59 7000 4.74 314 05:32 16.06.2020
1441 Clear 16 1013 63 10000 4.62 314 04:28 16.06.2020
1442 Clear 17 1013 59 10000 3.1 300 02:56 16.06.2020
1443 Clear 18 1013 55 10000 3.6 300 01:58 16.06.2020
1444 Clear 18 1013 55 10000 3.6 300 01:22 16.06.2020
1445 Clear 18 1014 42 10000 3.6 300 00:43 16.06.2020
1446 Clear 18 1014 42 10000 3.6 300 00:19 16.06.2020
1447 Clear 18 1014 48 10000 2.1 260 23:41 15.06.2020
1448 Clear 18 1014 48 10000 2.1 260 23:22 15.06.2020
1449 Clear 19 1014 48 10000 2.1 260 22:55 15.06.2020
1450 Clear 19 1014 59 8000 1 320 22:37 15.06.2020
1451 Clear 19 1014 59 8000 1 320 22:18 15.06.2020
1452 Clear 20 1014 64 7000 3.1 310 21:55 15.06.2020
1453 Clear 20 1014 64 7000 3.1 310 21:36 15.06.2020
1454 Clear 20 1014 64 7000 3.1 310 21:18 15.06.2020
1455 Clear 21 1014 60 8000 3.6 330 20:55 15.06.2020
1456 Clear 21 1014 60 8000 3.6 330 20:37 15.06.2020
1457 Clear 21 1014 60 8000 3.6 330 20:18 15.06.2020
1458 Clear 22 1014 56 8000 4.1 310 19:54 15.06.2020
1459 Clear 22 1014 56 8000 4.1 310 19:36 15.06.2020
1460 Clear 24 1013 47 8000 6.7 290 19:18 15.06.2020
1461 Clear 24 1013 47 8000 6.7 290 18:43 15.06.2020
1462 Clear 24 1013 47 8000 6.7 290 18:22 15.06.2020
1463 Clear 26 1013 39 7000 6.2 320 17:59 15.06.2020
1464 Clear 26 1013 39 7000 6.2 320 17:41 15.06.2020
1465 Clear 26 1013 39 7000 6.2 320 17:20 15.06.2020
1466 Clear 27 1013 39 7000 6.2 320 16:58 15.06.2020
1467 Clear 28 1012 34 6000 5.7 330 16:39 15.06.2020
1468 Clear 28 1012 34 6000 5.7 330 16:18 15.06.2020
1469 Clear 28 1012 32 6000 5.1 300 15:56 15.06.2020
1470 Clear 28 1012 32 6000 5.1 300 15:36 15.06.2020
1471 Clear 28 1012 36 6000 4.1 310 15:18 15.06.2020
1472 Clear 28 1012 36 6000 4.1 310 14:41 15.06.2020
1473 Clear 28 1012 36 6000 4.1 310 14:20 15.06.2020
1474 Clouds 27 1013 24 8000 4.1 310 13:59 15.06.2020
1475 Clouds 27 1013 24 8000 4.1 310 13:39 15.06.2020
1476 Clouds 27 1013 24 8000 4.1 310 13:20 15.06.2020
1477 Clouds 27 1014 26 8000 4.6 320 12:55 15.06.2020
1478 Clouds 27 1014 26 8000 4.6 320 12:36 15.06.2020
1479 Clouds 26 1014 27 7000 6.2 290 12:18 15.06.2020
1480 Clouds 26 1014 27 7000 6.2 290 11:43 15.06.2020
1481 Clouds 26 1014 27 7000 6.2 290 11:24 15.06.2020
1482 Clear 25 1014 33 7000 5.1 300 10:44 15.06.2020
1483 Clear 25 1014 33 7000 5.1 300 10:22 15.06.2020
1484 Clouds 24 1014 38 7000 4.1 330 09:56 15.06.2020
1485 Clouds 24 1014 38 7000 4.1 330 09:38 15.06.2020
1486 Clouds 24 1014 38 7000 4.1 330 09:19 15.06.2020
1487 Clear 22 1014 43 8000 3.6 350 08:39 15.06.2020
1488 Clear 22 1014 43 8000 3.6 350 08:21 15.06.2020
1489 Clear 20 1013 56 8000 2.6 360 07:46 15.06.2020
1490 Clear 20 1013 56 8000 2.6 360 07:28 15.06.2020
1491 Clear 17 1013 63 8000 2.1 320 06:49 15.06.2020
1492 Clear 17 1013 63 8000 2.1 320 06:25 15.06.2020
1493 Clear 14 1013 82 6000 2.6 280 05:46 15.06.2020
1494 Clear 14 1013 82 6000 2.6 280 05:26 15.06.2020
1495 Clear 15 1013 82 10000 2.1 320 04:20 15.06.2020
1496 Clear 15 1012 77 10000 2.6 320 03:41 15.06.2020
1497 Clear 16 1011 72 8000 2.6 280 02:54 15.06.2020
1498 Clear 18 1012 52 10000 3.1 320 01:57 15.06.2020
1499 Clear 18 1012 52 10000 3.1 320 01:34 15.06.2020
1500 Clear 18 1011 55 10000 3.6 320 00:59 15.06.2020
1501 Clear 18 1011 55 10000 3.6 320 00:39 15.06.2020
1502 Clear 18 1011 55 10000 3.6 320 00:20 15.06.2020
1503 Clear 19 1012 52 8000 4.1 320 23:47 14.06.2020
1504 Clear 19 1012 52 8000 4.1 320 23:25 14.06.2020
1505 Clear 19 1011 48 8000 3.1 300 22:58 14.06.2020
1506 Clear 19 1011 48 8000 3.1 300 22:39 14.06.2020
1507 Clear 19 1011 48 8000 3.1 300 22:20 14.06.2020
1508 Clear 20 1011 52 8000 1 330 21:58 14.06.2020
1509 Clear 20 1011 52 8000 1 330 21:40 14.06.2020
1510 Clear 20 1011 52 8000 1 330 21:19 14.06.2020
1511 Clear 21 1011 49 8000 3.1 290 20:59 14.06.2020
1512 Clear 21 1011 49 8000 3.1 290 20:40 14.06.2020
1513 Clear 21 1011 49 8000 3.1 290 20:21 14.06.2020
1514 Clear 24 1010 38 8000 3.6 310 19:59 14.06.2020
1515 Clear 24 1010 38 8000 3.6 310 19:40 14.06.2020
1516 Clear 24 1010 38 8000 3.6 310 19:40 14.06.2020
1517 Clear 24 1010 38 8000 3.6 310 19:20 14.06.2020
1518 Clear 24 1010 36 8000 3.1 310 18:58 14.06.2020
1519 Clear 24 1010 36 8000 3.1 310 18:58 14.06.2020
1520 Clear 25 1010 36 8000 3.1 310 18:40 14.06.2020
1521 Clear 25 1010 36 8000 3.1 310 18:21 14.06.2020
1522 Clear 27 1010 29 8000 3.1 310 17:58 14.06.2020
1523 Clear 27 1010 29 8000 3.1 310 17:39 14.06.2020
1524 Clear 27 1010 29 8000 3.1 310 17:20 14.06.2020
1525 Clear 29 1010 28 8000 3.6 310 16:57 14.06.2020
1526 Clear 29 1010 28 8000 3.6 310 16:38 14.06.2020
1527 Clear 29 1010 28 8000 3.6 310 16:19 14.06.2020
1528 Clear 29 1011 23 8000 4.1 310 15:55 14.06.2020
1529 Clear 29 1011 23 8000 4.1 310 15:36 14.06.2020
1530 Clear 29 1011 18 8000 4.1 250 15:18 14.06.2020
1531 Clear 29 1011 18 8000 4.1 250 14:41 14.06.2020
1532 Clear 29 1011 18 8000 4.1 250 14:22 14.06.2020
1533 Clear 29 1011 16 8000 5.1 290 13:58 14.06.2020
1534 Clear 29 1011 16 8000 5.1 290 13:40 14.06.2020
1535 Clear 29 1011 16 8000 5.1 290 13:40 14.06.2020
1536 Clear 29 1011 16 8000 5.1 290 13:21 14.06.2020
1537 Clear 29 1012 17 10000 3.1 270 12:57 14.06.2020
1538 Clear 29 1012 17 10000 3.1 270 12:57 14.06.2020
1539 Clear 28 1012 21 10000 3.1 250 12:39 14.06.2020
1540 Clear 28 1012 21 10000 3.1 250 12:21 14.06.2020
1541 Clear 27 1012 21 10000 3.1 250 11:57 14.06.2020
1542 Clear 27 1012 21 10000 3.1 250 11:38 14.06.2020
1543 Clear 27 1012 21 10000 3.1 250 11:20 14.06.2020
1544 Clear 27 1012 21 10000 3.1 250 11:20 14.06.2020
1545 Clear 26 1012 25 10000 2.1 240 10:42 14.06.2020
1546 Clear 26 1012 25 10000 2.1 240 10:20 14.06.2020
1547 Clear 25 1012 29 10000 2.1 200 09:56 14.06.2020
1548 Clear 24 1012 29 10000 2.1 200 09:38 14.06.2020
1549 Clear 24 1012 29 10000 2.1 200 09:20 14.06.2020
1550 Clear 23 1012 28 10000 2.6 260 08:41 14.06.2020
1551 Clear 23 1012 28 10000 2.6 260 08:19 14.06.2020
1552 Clear 22 1012 33 6000 3.1 270 07:52 14.06.2020
1553 Clear 22 1012 33 6000 3.1 270 07:32 14.06.2020
1554 Clouds 19 1011 40 7000 3.1 270 06:39 14.06.2020
1555 Clouds 18 1010 37 7000 3.1 270 05:47 14.06.2020
1556 Clouds 18 1010 37 7000 3.1 270 05:18 14.06.2020
1557 Clouds 19 1010 37 7000 3.1 270 04:35 14.06.2020
1558 Clouds 19 1010 42 8000 3.1 270 03:44 14.06.2020
1559 Clear 20 1010 40 8000 1.5 280 02:34 14.06.2020
1560 Clear 20 1011 40 8000 1 290 01:49 14.06.2020
1561 Clear 20 1011 40 8000 1 290 01:26 14.06.2020
1562 Clear 22 1011 37 8000 2.6 250 00:42 14.06.2020
1563 Clear 22 1011 37 8000 2.6 250 00:20 14.06.2020
1564 Clear 22 1011 35 8000 3.1 230 23:46 13.06.2020
1565 Clear 22 1011 35 8000 3.1 230 23:26 13.06.2020
1566 Clear 23 1010 25 7000 5.1 260 22:58 13.06.2020
1567 Clear 24 1010 25 7000 5.1 260 22:38 13.06.2020
1568 Clear 24 1010 25 7000 5.1 260 22:18 13.06.2020
1569 Clear 25 1010 27 7000 6.2 270 21:57 13.06.2020
1570 Clear 25 1010 27 7000 6.2 270 21:39 13.06.2020
1571 Clear 25 1010 27 7000 6.2 270 21:21 13.06.2020
1572 Clear 26 1010 26 7000 6.7 260 20:44 13.06.2020
1573 Clear 26 1010 26 7000 6.7 260 20:20 13.06.2020
1574 Clear 28 1010 23 6000 7.2 250 19:59 13.06.2020
1575 Clear 28 1010 23 6000 7.2 250 19:38 13.06.2020
1576 Clear 28 1010 23 6000 7.2 250 19:19 13.06.2020
1577 Clear 28 1010 23 6000 7.2 250 18:58 13.06.2020
1578 Clear 28 1010 23 6000 7.2 250 18:58 13.06.2020
1579 Clear 30 1010 19 6000 6.7 250 18:39 13.06.2020
1580 Clouds 30 1010 19 6000 6.7 250 18:20 13.06.2020
1581 Clouds 31 1010 19 6000 4.6 250 17:57 13.06.2020
1582 Clouds 31 1010 19 6000 4.6 250 17:38 13.06.2020
1583 Clouds 31 1010 19 6000 4.6 250 17:20 13.06.2020
1584 Clouds 31 1010 19 6000 4.6 250 16:54 13.06.2020
1585 Clouds 31 1010 19 8000 5.7 250 16:36 13.06.2020
1586 Clouds 31 1010 19 8000 5.7 250 16:18 13.06.2020
1587 Clouds 31 1010 19 6000 6.7 260 15:42 13.06.2020
1588 Clouds 31 1010 19 6000 6.7 260 15:21 13.06.2020
1589 Clouds 32 1011 18 6000 5.7 270 14:44 13.06.2020
1590 Clouds 32 1011 18 6000 5.7 270 14:44 13.06.2020
1591 Clouds 32 1011 18 6000 5.7 270 14:24 13.06.2020
1592 Clouds 31 1011 20 7000 5.1 240 13:58 13.06.2020
1593 Clouds 31 1011 20 7000 5.1 240 13:39 13.06.2020
1594 Clouds 31 1011 20 7000 5.1 240 13:20 13.06.2020
1595 Clear 31 1011 19 6000 6.2 290 12:43 13.06.2020
1596 Clear 31 1011 19 6000 6.2 290 12:25 13.06.2020
1597 Clear 29 1012 21 8000 5.7 280 11:57 13.06.2020
1598 Clear 29 1012 21 8000 5.7 280 11:38 13.06.2020
1599 Clear 29 1012 21 8000 5.7 280 11:19 13.06.2020
1600 Clear 28 1012 24 8000 3.1 290 10:56 13.06.2020
1601 Clear 28 1012 24 8000 3.1 290 10:37 13.06.2020
1602 Clear 28 1012 24 8000 3.1 290 10:18 13.06.2020
1603 Clear 27 1012 26 10000 2.6 210 09:42 13.06.2020
1604 Clear 27 1012 26 10000 2.6 210 09:21 13.06.2020
1605 Clear 25 1012 27 10000 3.1 210 08:48 13.06.2020
1606 Clear 25 1012 27 10000 3.1 210 08:30 13.06.2020
1607 Clear 22 1013 33 6000 2.34 193 07:50 13.06.2020
1608 Clear 24 1013 33 6000 1.71 173 07:27 13.06.2020
1609 Clear 24 1013 33 6000 1.71 173 06:49 13.06.2020
1610 Clear 20 1013 37 7000 0.22 225 06:28 13.06.2020
1611 Clear 16 1012 44 6000 0.22 225 05:45 13.06.2020
1612 Clear 17 1013 45 7000 1.58 304 05:24 13.06.2020
1613 Clear 18 1013 42 7000 2.5 306 03:47 13.06.2020
1614 Clear 19 1013 42 7000 3.11 314 02:54 13.06.2020
1615 Clouds 20 1013 40 7000 3.61 319 02:29 13.06.2020
1616 Clouds 20 1014 40 7000 2.6 260 01:45 13.06.2020
1617 Clouds 20 1014 40 7000 2.6 260 01:19 13.06.2020
1618 Clouds 20 1014 37 7000 1.81 335 00:42 13.06.2020
1619 Clouds 20 1014 37 7000 2.27 330 00:23 13.06.2020
1620 Clouds 20 1014 35 7000 2.27 330 23:41 12.06.2020
1621 Clouds 20 1014 35 7000 2.99 317 23:19 12.06.2020
1622 Clouds 20 1015 35 7000 2.99 317 22:59 12.06.2020
1623 Clouds 20 1015 35 7000 2.99 317 22:40 12.06.2020
1624 Clouds 20 1015 35 7000 3.6 315 22:19 12.06.2020
1625 Clouds 21 1015 35 7000 2.6 270 21:49 12.06.2020
1626 Clear 21 1015 35 7000 2.6 270 21:24 12.06.2020
1627 Clear 22 1014 37 7000 2.6 290 20:58 12.06.2020
1628 Clear 22 1014 37 7000 2.6 290 20:40 12.06.2020
1629 Clear 22 1014 37 7000 2.6 290 20:40 12.06.2020
1630 Clouds 22 1014 35 7000 5.1 300 20:22 12.06.2020
1631 Clouds 23 1014 35 7000 5.1 300 19:56 12.06.2020
1632 Clouds 23 1014 35 7000 5.1 300 19:38 12.06.2020
1633 Clouds 26 1014 29 7000 6.2 300 19:18 12.06.2020
1634 Clouds 26 1014 29 7000 6.2 300 18:39 12.06.2020
1635 Clouds 26 1014 27 7000 7.7 300 18:19 12.06.2020
1636 Clouds 26 1014 27 7000 7.7 300 17:58 12.06.2020
1637 Clouds 27 1014 27 7000 7.7 300 17:38 12.06.2020
1638 Clouds 27 1014 27 7000 7.7 300 17:18 12.06.2020
1639 Clouds 27 1014 31 7000 7.7 300 16:41 12.06.2020
1640 Clouds 27 1014 31 7000 7.7 300 16:20 12.06.2020
1641 Clouds 27 1014 31 7000 8.2 300 15:48 12.06.2020
1642 Clear 27 1014 31 7000 8.2 300 15:25 12.06.2020
1643 Clear 27 1015 28 7000 8.2 300 14:58 12.06.2020
1644 Clear 27 1015 28 7000 8.2 300 14:39 12.06.2020
1645 Clear 27 1015 28 7000 8.2 300 14:21 12.06.2020
1646 Clear 27 1015 22 7000 8.2 300 13:42 12.06.2020
1647 Clear 27 1015 22 7000 8.2 300 13:21 12.06.2020
1648 Clear 26 1015 24 7000 8.2 300 12:41 12.06.2020
1649 Clear 26 1015 24 7000 8.2 300 12:20 12.06.2020
1650 Clear 25 1015 25 7000 8.7 310 11:59 12.06.2020
1651 Clear 25 1015 25 7000 8.7 310 11:40 12.06.2020
1652 Clear 25 1015 25 7000 8.7 310 11:22 12.06.2020
1653 Clear 25 1015 16 7000 7.7 290 10:47 12.06.2020
1654 Clear 25 1015 16 7000 7.7 290 10:25 12.06.2020
1655 Clear 24 1015 22 7000 7.2 300 09:58 12.06.2020
1656 Clear 24 1015 22 7000 7.2 300 09:38 12.06.2020
1657 Clear 22 1014 33 6000 5.7 300 09:18 12.06.2020
1658 Clear 22 1014 33 6000 5.7 300 08:41 12.06.2020
1659 Clear 22 1014 33 6000 5.7 300 08:22 12.06.2020
1660 Clear 20 1015 45 6000 7.2 280 07:40 12.06.2020
1661 Clear 20 1015 45 6000 7.2 280 07:22 12.06.2020
1662 Clouds 18 1014 55 6000 6.7 290 06:41 12.06.2020
1663 Clouds 16 1014 55 6000 6.7 290 06:20 12.06.2020
1664 Clouds 15 1014 55 6000 4.6 260 05:49 12.06.2020
1665 Clouds 15 1014 55 6000 4.6 260 05:23 12.06.2020
1666 Clear 18 1014 45 8000 4.1 280 03:52 12.06.2020
1667 Clear 17 1014 45 8000 3.6 260 02:42 12.06.2020
1668 Clear 18 1014 45 8000 3.6 280 01:39 12.06.2020
1669 Clear 18 1015 45 7000 3.6 250 00:59 12.06.2020
1670 Clear 18 1015 45 7000 3.6 250 00:39 12.06.2020
1671 Clear 18 1015 45 7000 3.6 250 00:20 12.06.2020
1672 Clear 19 1025 45 7000 3.1 280 23:57 11.06.2020
1673 Clear 20 1025 45 7000 3.1 280 23:38 11.06.2020
1674 Clear 20 1025 45 7000 3.1 280 23:19 11.06.2020
1675 Clear 20 1013 42 0 8.23 298 22:55 11.06.2020
1676 Clear 21 1014 37 7000 3.6 300 22:37 11.06.2020
1677 Clear 21 1014 37 7000 3.6 300 22:19 11.06.2020
1678 Clear 21 1014 37 7000 3.6 300 21:43 11.06.2020
1679 Clear 21 1014 37 7000 3.6 300 21:20 11.06.2020
1680 Clear 22 1014 43 6000 5.1 300 20:58 11.06.2020
1681 Clear 22 1014 43 6000 5.1 300 20:40 11.06.2020
1682 Clouds 22 1014 43 6000 5.1 300 20:20 11.06.2020
1683 Clouds 23 1013 38 6000 6.2 310 19:44 11.06.2020
1684 Clouds 23 1013 38 6000 6.2 310 19:22 11.06.2020
1685 Dust 25 1013 31 4000 10.8 300 18:57 11.06.2020
1686 Dust 25 1013 31 4000 10.8 300 18:39 11.06.2020
1687 Dust 25 1013 31 4000 10.8 300 18:20 11.06.2020
1688 Dust 27 1013 24 4000 8.7 270 17:55 11.06.2020
1689 Dust 27 1013 24 4000 8.7 270 17:37 11.06.2020
1690 Dust 27 1013 24 4000 8.7 270 17:18 11.06.2020
1691 Dust 28 1013 26 5000 7.7 260 16:43 11.06.2020
1692 Dust 28 1013 26 5000 7.7 260 16:25 11.06.2020
1693 Dust 28 1013 23 4000 9.8 280 15:58 11.06.2020
1694 Dust 28 1013 23 4000 9.8 280 15:39 11.06.2020
1695 Dust 28 1013 23 4000 9.8 280 15:21 11.06.2020
1696 Dust 29 1014 25 4000 9.3 260 14:46 11.06.2020
1697 Dust 29 1014 25 4000 9.3 260 14:21 11.06.2020
1698 Dust 29 1014 23 5000 10.3 290 13:57 11.06.2020
1699 Dust 29 1014 23 5000 10.3 290 13:39 11.06.2020
1700 Dust 29 1014 23 5000 10.3 290 13:21 11.06.2020
1701 Dust 29 1014 16 5000 9.3 280 12:59 11.06.2020
1702 Dust 29 1014 16 5000 9.3 280 12:39 11.06.2020
1703 Dust 29 1014 16 5000 9.3 280 12:20 11.06.2020
1704 Haze 28 1015 18 5000 5.7 250 11:58 11.06.2020
1705 Haze 28 1015 18 5000 5.7 250 11:40 11.06.2020
1706 Haze 28 1015 18 5000 5.7 250 11:21 11.06.2020
1707 Haze 28 1015 18 5000 5.7 250 11:21 11.06.2020
1708 Clear 28 1014 18 6000 5.1 260 10:57 11.06.2020
1709 Clear 28 1014 18 6000 5.1 260 10:38 11.06.2020
1710 Clear 28 1014 18 6000 5.1 260 10:18 11.06.2020
1711 Clear 28 1014 18 6000 5.1 260 10:18 11.06.2020
1712 Clear 26 1015 21 0 5.1 250 09:42 11.06.2020
1713 Clouds 26 1015 21 0 5.1 250 09:24 11.06.2020
1714 Clouds 25 1015 20 7000 4.1 250 08:44 11.06.2020
1715 Clear 25 1015 20 7000 4.1 250 08:21 11.06.2020
1716 Haze 24 1014 20 5000 2.1 220 07:59 11.06.2020
1717 Haze 24 1014 20 5000 2.1 220 07:41 11.06.2020
1718 Haze 24 1014 21 5000 2.1 220 07:20 11.06.2020
1719 Haze 21 1014 26 5000 1.5 220 06:29 11.06.2020
1720 Clear 19 1014 22 6000 3.6 260 05:50 11.06.2020
1721 Clear 22 1014 26 8000 2.6 230 03:59 11.06.2020
1722 Clear 21 1014 26 8000 2.6 230 03:24 11.06.2020
1723 Clear 21 1014 26 8000 3.1 250 02:40 11.06.2020
1724 Clear 22 1015 20 8000 4.1 250 01:55 11.06.2020
1725 Clear 23 1015 20 8000 4.1 250 01:31 11.06.2020
1726 Clear 23 1015 20 8000 5.1 240 00:51 11.06.2020
1727 Clear 23 1015 20 8000 5.1 240 00:30 11.06.2020
1728 Clear 22 1015 18 8000 5.1 250 23:56 10.06.2020
1729 Clear 22 1015 18 8000 5.1 250 23:37 10.06.2020
1730 Clear 22 1015 18 8000 5.1 250 23:18 10.06.2020
1731 Clear 23 1014 17 7000 6.2 270 22:40 10.06.2020
1732 Clear 23 1014 17 7000 6.2 270 22:22 10.06.2020
1733 Clear 23 1014 31 7000 5.7 260 21:59 10.06.2020
1734 Clear 23 1014 31 7000 5.7 260 21:40 10.06.2020
1735 Clear 23 1014 31 7000 5.7 260 21:19 10.06.2020
1736 Clear 24 1014 31 8000 4.6 250 20:58 10.06.2020
1737 Clear 24 1014 31 8000 4.6 250 20:40 10.06.2020
1738 Clear 24 1014 31 8000 4.6 250 20:21 10.06.2020
1739 Clear 26 1014 26 7000 5.7 270 19:58 10.06.2020
1740 Clear 26 1014 26 7000 5.7 270 19:38 10.06.2020
1741 Clear 27 1014 32 10000 6.7 260 19:18 10.06.2020
1742 Clear 27 1014 32 10000 6.7 260 18:42 10.06.2020
1743 Clear 29 1014 26 10000 6.2 280 18:22 10.06.2020
1744 Clear 29 1014 26 10000 6.2 280 17:59 10.06.2020
1745 Clear 29 1014 26 10000 6.2 280 17:41 10.06.2020
1746 Clear 29 1014 26 10000 6.2 280 17:20 10.06.2020
1747 Clear 30 1014 25 10000 7.2 300 16:59 10.06.2020
1748 Clear 30 1014 25 10000 7.2 300 16:41 10.06.2020
1749 Clear 30 1014 25 10000 7.2 300 16:22 10.06.2020
1750 Clear 30 1014 20 8000 7.2 280 15:59 10.06.2020
1751 Clear 30 1014 20 8000 7.2 280 15:38 10.06.2020
1752 Clear 30 1014 20 8000 7.2 280 15:20 10.06.2020
1753 Clear 30 1014 20 8000 5.1 300 14:41 10.06.2020
1754 Clear 30 1014 20 8000 5.1 300 14:22 10.06.2020
1755 Clear 30 1014 10 8000 5.1 260 13:58 10.06.2020
1756 Clear 30 1014 10 8000 5.1 260 13:39 10.06.2020
1757 Clear 30 1014 10 8000 5.1 260 13:21 10.06.2020
1758 Clear 30 1014 10 8000 2.1 290 12:42 10.06.2020
1759 Clear 30 1014 11 8000 2.1 290 12:20 10.06.2020
1760 Clear 28 1015 17 8000 5.7 310 11:56 10.06.2020
1761 Clear 28 1015 17 8000 5.7 310 11:38 10.06.2020
1762 Clear 28 1015 17 8000 5.7 310 11:19 10.06.2020
1763 Clear 28 1015 17 8000 5.7 310 11:19 10.06.2020
1764 Clear 27 1014 15 8000 4.1 320 10:55 10.06.2020
1765 Clear 27 1014 15 8000 4.1 320 10:36 10.06.2020
1766 Clear 26 1014 10 8000 4.1 300 10:18 10.06.2020
1767 Clear 26 1014 10 8000 4.1 300 09:40 10.06.2020
1768 Clear 26 1014 10 8000 4.1 300 09:22 10.06.2020
1769 Clear 24 1014 16 8000 4.1 270 08:44 10.06.2020
1770 Clouds 24 1014 16 8000 4.1 270 08:23 10.06.2020
1771 Smoke 22 1013 20 5000 1.5 260 07:57 10.06.2020
1772 Smoke 22 1013 20 5000 1.5 260 07:38 10.06.2020
1773 Smoke 22 1013 20 5000 1.5 260 07:18 10.06.2020
1774 Clouds 20 1013 26 7000 1.5 230 06:44 10.06.2020
1775 Clouds 20 1013 26 7000 1.5 230 06:20 10.06.2020
1776 Clouds 18 1013 22 7000 2.1 260 05:55 10.06.2020
1777 Clear 18 1013 22 7000 2.1 260 05:23 10.06.2020
1778 Clear 20 1012 24 10000 5.19 312 04:32 10.06.2020
1779 Clear 20 1013 19 8000 5.49 313 02:55 10.06.2020
1780 Clouds 20 1013 26 8000 5.58 307 01:59 10.06.2020
1781 Clouds 20 1013 26 8000 5.58 307 01:36 10.06.2020
1782 Clouds 21 1013 24 8000 4.99 305 00:39 10.06.2020
1783 Clouds 20 1013 24 8000 4.99 314 00:21 10.06.2020
1784 Clouds 20 1013 24 8000 4.99 314 23:56 09.06.2020
1785 Clouds 20 1013 24 8000 4.99 314 23:38 09.06.2020
1786 Clear 20 1013 24 8000 4.99 329 23:19 09.06.2020
1787 Clear 22 1013 30 10000 4.99 329 22:55 09.06.2020
1788 Clear 23 1012 38 7000 4.1 320 22:37 09.06.2020
1789 Clear 23 1012 38 7000 4.1 320 22:19 09.06.2020
1790 Clear 24 1012 38 7000 4.1 320 21:56 09.06.2020
1791 Clear 24 1012 38 7000 4.1 320 21:38 09.06.2020
1792 Clouds 24 1012 38 7000 4.1 320 21:19 09.06.2020
1793 Clouds 24 1012 36 7000 4.1 320 20:56 09.06.2020
1794 Clouds 24 1012 36 7000 4.1 320 20:38 09.06.2020
1795 Clouds 24 1012 36 7000 4.1 320 20:18 09.06.2020
1796 Clouds 27 1012 44 6000 6.2 320 19:56 09.06.2020
1797 Clouds 27 1012 44 6000 6.2 320 19:38 09.06.2020
1798 Clouds 27 1012 44 6000 6.2 320 19:19 09.06.2020
1799 Clouds 30 1012 20 6000 5.1 310 18:45 09.06.2020
1800 Clouds 30 1012 20 6000 5.1 310 18:26 09.06.2020
1801 Haze 31 1011 19 5000 5.1 320 17:58 09.06.2020
1802 Haze 31 1011 19 5000 5.1 320 17:40 09.06.2020
1803 Haze 31 1011 19 5000 5.1 320 17:22 09.06.2020
1804 Clear 32 1012 11 6000 4.1 270 16:59 09.06.2020
1805 Clear 32 1012 11 6000 4.1 270 16:40 09.06.2020
1806 Clear 32 1012 10 6000 4.1 270 16:21 09.06.2020
1807 Haze 34 1012 10 5000 4.1 270 15:41 09.06.2020
1808 Haze 34 1012 10 5000 4.1 270 15:23 09.06.2020
1809 Haze 33 1012 10 5000 4.1 270 14:59 09.06.2020
1810 Haze 33 1012 10 5000 4.1 270 14:40 09.06.2020
1811 Haze 33 1012 11 5000 4.1 270 14:20 09.06.2020
1812 Haze 32 1013 11 5000 5.1 280 13:57 09.06.2020
1813 Haze 32 1013 11 5000 5.1 280 13:38 09.06.2020
1814 Haze 32 1013 14 5000 3.6 290 13:20 09.06.2020
1815 Haze 32 1013 14 5000 3.6 290 12:42 09.06.2020
1816 Haze 32 1013 14 5000 3.6 290 12:21 09.06.2020
1817 Clear 32 1013 14 8000 3.1 240 11:58 09.06.2020
1818 Clear 32 1013 14 8000 3.1 240 11:40 09.06.2020
1819 Clear 32 1013 14 8000 3.1 240 11:20 09.06.2020
1820 Clear 30 1013 15 8000 3.1 280 10:58 09.06.2020
1821 Clear 30 1013 15 8000 3.1 280 10:40 09.06.2020
1822 Clear 30 1013 15 8000 3.1 280 10:21 09.06.2020
1823 Clear 29 1013 12 8000 4.52 300 09:43 09.06.2020
1824 Clear 29 1013 12 8000 5.15 304 09:24 09.06.2020
1825 Clear 26 1013 21 7000 5.15 304 08:56 09.06.2020
1826 Clear 26 1013 21 7000 5.15 304 08:38 09.06.2020
1827 Clear 26 1013 21 7000 4.78 311 08:19 09.06.2020
1828 Clear 22 1013 18 7000 4.78 311 07:38 09.06.2020
1829 Clear 22 1013 21 7000 4.95 326 07:19 09.06.2020
1830 Clear 20 1012 24 7000 4.95 326 06:53 09.06.2020
1831 Clear 20 1012 24 7000 4.95 326 06:53 09.06.2020
1832 Clear 20 1012 24 7000 4.95 326 06:33 09.06.2020
1833 Clear 19 1012 32 7000 4.74 325 05:34 09.06.2020
1834 Clear 22 1012 33 7000 3.02 307 03:21 09.06.2020
1835 Clouds 23 1011 31 7000 3.35 311 01:43 09.06.2020
1836 Clouds 21 1011 31 7000 3.79 313 01:19 09.06.2020
1837 Clouds 22 1011 27 7000 2.1 130 00:50 09.06.2020
1838 Clear 22 1011 27 7000 2.1 130 00:21 09.06.2020
1839 Clear 23 1011 23 7000 2.1 90 23:59 08.06.2020
1840 Clear 23 1011 23 7000 2.1 90 23:39 08.06.2020
1841 Clear 23 1011 23 7000 2.1 90 23:19 08.06.2020
1842 Clear 24 1011 21 6000 5.2 325 22:42 08.06.2020
1843 Clear 24 1011 21 6000 5.44 332 22:23 08.06.2020
1844 Clear 25 1012 24 6000 2.1 280 21:59 08.06.2020
1845 Clear 26 1012 24 6000 2.1 280 21:41 08.06.2020
1846 Clear 26 1012 24 6000 2.1 280 21:22 08.06.2020
1847 Clear 26 1012 28 6000 2.1 300 20:57 08.06.2020
1848 Clear 27 1012 28 6000 2.1 300 20:39 08.06.2020
1849 Clear 27 1012 28 6000 2.1 300 20:39 08.06.2020
1850 Clear 27 1012 28 6000 2.1 300 20:20 08.06.2020
1851 Haze 28 1011 28 5000 2.6 310 19:59 08.06.2020
1852 Haze 28 1011 28 5000 2.6 310 19:41 08.06.2020
1853 Clear 30 1011 25 6000 3.6 290 19:20 08.06.2020
1854 Clear 30 1011 25 6000 3.6 290 18:41 08.06.2020
1855 Clear 31 1011 25 6000 3.6 290 18:19 08.06.2020
1856 Clear 32 1011 21 6000 3.6 330 17:57 08.06.2020
1857 Clear 32 1011 21 6000 3.6 330 17:39 08.06.2020
1858 Clear 32 1011 21 6000 3.6 330 17:19 08.06.2020
1859 Clear 33 1011 21 6000 3.1 300 16:46 08.06.2020
1860 Clear 33 1011 21 6000 3.1 300 16:25 08.06.2020
1861 Clear 33 1011 15 6000 4.6 300 15:59 08.06.2020
1862 Clear 33 1011 15 6000 4.6 300 15:41 08.06.2020
1863 Clear 33 1011 15 6000 4.6 300 15:21 08.06.2020
1864 Clear 33 1011 16 6000 5.1 300 14:56 08.06.2020
1865 Clear 33 1011 16 6000 5.1 300 14:38 08.06.2020
1866 Clear 33 1011 16 6000 5.1 300 14:18 08.06.2020
1867 Clear 34 1011 13 6000 5.7 290 13:42 08.06.2020
1868 Clear 34 1011 13 6000 5.7 290 13:21 08.06.2020
1869 Clear 33 1011 14 6000 6.2 300 12:42 08.06.2020
1870 Clear 33 1011 14 6000 6.2 300 12:20 08.06.2020
1871 Clear 32 1011 17 6000 4.6 300 11:58 08.06.2020
1872 Clear 32 1011 17 6000 4.6 300 11:40 08.06.2020
1873 Clear 32 1011 17 6000 4.6 300 11:21 08.06.2020
1874 Clear 31 1011 14 8000 4.6 310 10:56 08.06.2020
1875 Clear 31 1011 14 8000 4.6 310 10:37 08.06.2020
1876 Clear 31 1011 14 8000 4.6 310 10:19 08.06.2020
1877 Clear 31 1011 14 8000 4.6 310 10:19 08.06.2020
1878 Clear 30 1012 16 8000 4.1 280 09:47 08.06.2020
1879 Clear 30 1012 16 8000 4.1 280 09:23 08.06.2020
1880 Clear 29 1011 18 8000 6.67 308 08:57 08.06.2020
1881 Clear 29 1011 18 8000 6.67 308 08:39 08.06.2020
1882 Clear 29 1011 18 8000 6.16 306 08:19 08.06.2020
1883 Clear 26 1011 22 8000 6.16 306 07:39 08.06.2020
1884 Clear 26 1011 22 8000 5.5 306 07:21 08.06.2020
1885 Clear 23 1011 27 8000 5.5 306 06:41 08.06.2020
1886 Clear 23 1011 27 8000 4.48 310 06:21 08.06.2020
1887 Clear 21 1011 23 8000 2.1 260 05:42 08.06.2020
1888 Clear 22 1010 26 8000 4.74 296 03:29 08.06.2020
1889 Clear 22 1011 22 8000 1.5 300 02:27 08.06.2020
1890 Clear 24 1011 22 8000 3.1 310 01:45 08.06.2020
1891 Clear 24 1011 22 8000 3.1 310 01:20 08.06.2020
1892 Clear 24 1011 22 8000 3.1 310 00:28 08.06.2020
1893 Clear 24 1011 22 8000 3.1 310 23:40 07.06.2020
1894 Clear 24 1011 22 8000 3.1 310 23:19 07.06.2020
1895 Clear 24 1012 25 8000 4.6 310 22:58 07.06.2020
1896 Clear 24 1012 25 8000 4.6 310 22:38 07.06.2020
1897 Clear 24 1012 25 8000 4.6 310 22:19 07.06.2020
1898 Clear 25 1012 29 8000 4.6 310 21:58 07.06.2020
1899 Clear 25 1012 29 8000 4.6 310 21:37 07.06.2020
1900 Clear 25 1012 29 8000 4.6 310 21:19 07.06.2020
1901 Clear 26 1012 26 8000 4.6 310 20:54 07.06.2020
1902 Clear 26 1012 26 8000 4.6 310 20:36 07.06.2020
1903 Clear 26 1012 26 8000 4.6 310 20:18 07.06.2020
1904 Clear 28 1011 34 6000 4.1 310 19:54 07.06.2020
1905 Clear 28 1011 34 6000 4.1 310 19:36 07.06.2020
1906 Clear 29 1011 32 7000 5.1 320 19:18 07.06.2020
1907 Clear 30 1011 32 7000 5.1 320 18:40 07.06.2020
1908 Clear 30 1011 32 7000 5.1 320 18:21 07.06.2020
1909 Clear 32 1011 22 7000 4.1 270 17:59 07.06.2020
1910 Clear 32 1011 22 7000 4.1 270 17:40 07.06.2020
1911 Clear 32 1011 22 7000 4.1 270 17:21 07.06.2020
1912 Clear 34 1011 18 7000 4.1 270 16:44 07.06.2020
1913 Clear 34 1011 18 7000 4.1 270 16:22 07.06.2020
1914 Clear 34 1012 16 6000 5.1 280 15:45 07.06.2020
1915 Clear 34 1012 16 6000 5.1 280 15:24 07.06.2020
1916 Haze 34 1012 14 5000 3.1 270 14:59 07.06.2020
1917 Haze 34 1012 14 5000 3.1 270 14:37 07.06.2020
1918 Haze 34 1012 14 5000 3.1 270 14:18 07.06.2020
1919 Clear 34 1012 17 8000 5.1 280 13:45 07.06.2020
1920 Clear 34 1012 17 8000 5.1 280 13:45 07.06.2020
1921 Clear 34 1012 17 8000 5.1 280 13:45 07.06.2020
1922 Clear 34 1012 17 8000 5.1 280 13:19 07.06.2020
1923 Clear 33 1012 18 8000 3.1 250 12:44 07.06.2020
1924 Clear 33 1012 18 8000 3.1 250 12:44 07.06.2020
1925 Clear 33 1012 18 8000 3.1 250 12:26 07.06.2020
1926 Clear 32 1013 22 8000 4.1 240 11:56 07.06.2020
1927 Clear 32 1013 22 8000 4.1 240 11:56 07.06.2020
1928 Clear 32 1013 22 8000 4.1 240 11:38 07.06.2020
1929 Clear 32 1013 22 8000 4.1 240 11:20 07.06.2020
1930 Clear 32 1012 22 6000 3.6 250 10:58 07.06.2020
1931 Clear 32 1012 22 6000 3.6 250 10:39 07.06.2020
1932 Clear 32 1012 22 6000 3.6 250 10:19 07.06.2020
1933 Clear 29 1012 30 6000 2.6 230 09:56 07.06.2020
1934 Clear 29 1012 30 6000 2.6 230 09:38 07.06.2020
1935 Clear 29 1012 30 6000 2.6 230 09:19 07.06.2020
1936 Clear 28 1013 28 6000 4.1 240 08:45 07.06.2020
1937 Clear 28 1013 28 6000 4.1 240 08:23 07.06.2020
1938 Clear 28 1013 28 6000 4.1 240 08:23 07.06.2020
1939 Haze 24 1012 38 4000 4.1 240 07:47 07.06.2020
1940 Haze 24 1012 38 4000 4.1 240 07:28 07.06.2020
1941 Haze 24 1012 38 4000 4.1 240 07:28 07.06.2020
1942 Haze 25 1012 33 5000 4.6 250 06:43 07.06.2020
1943 Clear 25 1012 31 6000 3.6 240 05:40 07.06.2020
1944 Clear 25 1012 29 6000 3.1 250 04:20 07.06.2020
1945 Clear 25 1012 29 6000 3.1 250 04:20 07.06.2020
1946 Clear 23 1012 31 6000 4.58 308 02:32 07.06.2020
1947 Clear 24 1012 27 6000 2.6 230 01:50 07.06.2020
1948 Clear 24 1012 27 6000 2.6 230 01:25 07.06.2020
1949 Clear 24 1013 27 6000 6.12 323 00:45 07.06.2020
1950 Clear 24 1013 27 6000 6.43 327 00:19 07.06.2020
1951 Clear 26 1013 29 6000 2.1 80 23:57 06.06.2020
1952 Clear 25 1013 29 6000 2.1 80 23:37 06.06.2020
1953 Clear 25 1013 29 6000 2.1 80 23:18 06.06.2020
1954 Clear 25 1013 30 6000 2.6 350 22:56 06.06.2020
1955 Clear 25 1013 30 6000 2.6 350 22:37 06.06.2020
1956 Clear 25 1013 30 6000 2.6 350 22:18 06.06.2020
1957 Haze 26 1013 28 5000 1.5 290 21:44 06.06.2020
1958 Haze 26 1013 28 5000 1.5 290 21:22 06.06.2020
1959 Haze 27 1013 32 5000 4.1 310 20:57 06.06.2020
1960 Haze 27 1013 32 5000 4.1 310 20:38 06.06.2020
1961 Haze 27 1013 32 5000 4.1 310 20:18 06.06.2020
1962 Haze 29 1013 30 5000 2.6 300 19:57 06.06.2020
1963 Haze 31 1013 30 5000 2.6 300 19:37 06.06.2020
1964 Haze 31 1013 30 5000 2.6 300 19:19 06.06.2020
1965 Haze 32 1012 35 5000 3.6 300 18:43 06.06.2020
1966 Haze 32 1012 35 5000 3.6 300 18:24 06.06.2020
1967 Haze 34 1013 27 5000 4.1 300 17:58 06.06.2020
1968 Haze 34 1013 27 5000 4.1 300 17:58 06.06.2020
1969 Haze 34 1013 27 5000 4.1 300 17:40 06.06.2020
1970 Haze 34 1013 27 5000 4.1 300 17:19 06.06.2020
1971 Haze 34 1013 27 5000 4.1 300 16:48 06.06.2020
1972 Haze 34 1013 27 5000 4.1 300 16:23 06.06.2020
1973 Haze 35 1014 20 5000 4.1 300 15:58 06.06.2020
1974 Haze 35 1014 20 5000 4.1 300 15:40 06.06.2020
1975 Haze 35 1014 20 5000 4.1 300 15:20 06.06.2020
1976 Haze 35 1014 17 5000 5.1 300 14:54 06.06.2020
1977 Haze 35 1014 17 5000 5.1 300 14:36 06.06.2020
1978 Haze 35 1014 17 5000 5.1 300 14:18 06.06.2020
1979 Haze 35 1014 15 5000 5.33 294 13:41 06.06.2020
1980 Haze 34 1015 14 5000 3.1 70 13:18 06.06.2020
1981 Haze 34 1015 14 5000 3.1 70 12:43 06.06.2020
1982 Haze 34 1015 14 5000 3.1 70 12:43 06.06.2020
1983 Haze 34 1015 14 5000 3.1 70 12:43 06.06.2020
1984 Haze 34 1015 14 5000 3.1 70 12:43 06.06.2020
1985 Haze 34 1015 14 5000 3.1 70 12:43 06.06.2020
1986 Haze 34 1015 14 5000 3.1 70 12:24 06.06.2020
1987 Haze 33 1016 16 5000 1.5 30 11:59 06.06.2020
1988 Haze 33 1016 16 5000 1.5 30 11:39 06.06.2020
1989 Haze 33 1016 16 5000 1.5 30 11:20 06.06.2020
1990 Haze 32 1016 18 5000 0.73 304 10:59 06.06.2020
1991 Haze 32 1016 18 5000 0.73 304 10:40 06.06.2020
1992 Haze 32 1016 18 5000 0.81 14 10:22 06.06.2020
1993 Haze 30 1016 23 5000 0.81 14 09:59 06.06.2020
1994 Haze 30 1016 23 5000 0.81 14 09:40 06.06.2020
1995 Haze 30 1016 23 5000 1.73 27 09:21 06.06.2020
1996 Haze 28 1016 23 5000 2.29 55 08:45 06.06.2020
1997 Haze 28 1016 23 5000 2.78 44 08:24 06.06.2020
1998 Haze 26 1016 36 5000 2.78 44 07:55 06.06.2020
1999 Haze 24 1016 36 5000 2.78 44 07:36 06.06.2020
2000 Haze 23 1016 36 5000 2.87 12 07:18 06.06.2020
2001 Haze 21 1015 40 5000 2.87 12 06:42 06.06.2020
2002 Haze 21 1015 40 5000 2.97 332 06:23 06.06.2020
2003 Haze 19 1015 49 5000 2.97 332 05:32 06.06.2020
2004 Clear 19 1015 52 8000 3.34 321 04:49 06.06.2020
2005 Clear 20 1015 49 8000 3.55 325 03:29 06.06.2020
2006 Clear 21 1016 56 8000 2.37 336 01:59 06.06.2020
2007 Clear 21 1016 56 8000 2.61 328 01:21 06.06.2020
2008 Clear 22 1016 49 8000 2.61 328 00:56 06.06.2020
2009 Clear 22 1016 49 8000 2.61 328 00:38 06.06.2020
2010 Clear 22 1016 49 8000 3.21 335 00:20 06.06.2020
2011 Clear 24 1016 41 8000 3.21 335 23:40 05.06.2020
2012 Clear 24 1016 41 8000 3.89 343 23:20 05.06.2020
2013 Clear 24 1016 38 8000 3.89 343 22:56 05.06.2020
2014 Clear 24 1016 38 8000 3.89 343 22:38 05.06.2020
2015 Clear 24 1016 38 8000 4.75 339 22:19 05.06.2020
2016 Clear 24 1016 38 8000 4.75 339 21:43 05.06.2020
2017 Clear 24 1016 38 8000 7.02 335 21:23 05.06.2020
2018 Clear 24 1016 38 8000 7.02 335 21:23 05.06.2020
2019 Clear 26 1016 39 8000 7.02 335 20:59 05.06.2020
2020 Clear 26 1016 39 8000 7.02 335 20:41 05.06.2020
2021 Clear 26 1016 39 8000 8.33 332 20:21 05.06.2020
2022 Clear 28 1015 34 6000 3.6 340 19:44 05.06.2020
2023 Clear 28 1015 34 6000 3.6 340 19:24 05.06.2020
2024 Clear 30 1015 25 6000 4.1 320 18:59 05.06.2020
2025 Clear 30 1015 25 6000 4.1 320 18:39 05.06.2020
2026 Clear 30 1015 25 6000 4.1 320 18:20 05.06.2020
2027 Clear 31 1014 23 6000 4.6 320 17:58 05.06.2020
2028 -273 0 0 0 0 0 17:58 05.06.2020
2029 Clear 31 1014 23 6000 4.6 320 17:40 05.06.2020
2030 Clear 31 1014 23 6000 4.6 320 17:19 05.06.2020
2031 Clear 32 1015 24 7000 6.96 324 16:41 05.06.2020
2032 Clear 32 1015 24 7000 6.18 305 16:23 05.06.2020
2033 Clear 33 1015 22 7000 6.18 305 15:57 05.06.2020
2034 Clear 33 1015 22 7000 6.18 305 15:38 05.06.2020
2035 Clear 33 1015 22 7000 4.84 285 15:20 05.06.2020
2036 Clear 32 1016 24 7000 4.84 285 14:56 05.06.2020
2037 Clear 32 1016 24 7000 4.84 285 14:38 05.06.2020
2038 Clear 32 1016 24 7000 4.08 260 14:19 05.06.2020
2039 Clear 31 1017 22 7000 2.1 360 13:44 05.06.2020
2040 Clear 31 1017 22 7000 2.1 360 13:26 05.06.2020
2041 Clear 30 1017 22 7000 1 330 12:55 05.06.2020
2042 Clear 30 1017 22 7000 1 330 12:37 05.06.2020
2043 Clear 30 1017 22 7000 1 330 12:18 05.06.2020
2044 Clear 29 1018 26 7000 1.5 350 11:42 05.06.2020
2045 Clear 29 1018 26 7000 1.5 350 11:23 05.06.2020
2046 Clear 28 1018 30 7000 3.1 30 10:57 05.06.2020
2047 Clear 27 1018 30 7000 3.1 30 10:39 05.06.2020
2048 Clear 27 1018 30 7000 3.1 30 10:19 05.06.2020
2049 Clear 26 1018 33 6000 3.1 50 09:56 05.06.2020
2050 Clear 26 1018 33 6000 3.1 50 09:37 05.06.2020
2051 Clear 26 1018 33 6000 3.1 50 09:19 05.06.2020
2052 Clouds 24 1018 38 6000 1.5 30 08:57 05.06.2020
2053 Clouds 24 1018 38 6000 1.5 30 08:38 05.06.2020
2054 Clouds 24 1018 38 6000 1.5 30 08:18 05.06.2020
2055 Clouds 22 1018 43 6000 1.42 31 07:48 05.06.2020
2056 Clouds 22 1018 43 6000 1.42 31 07:30 05.06.2020
2057 Clouds 20 1018 46 6000 1.52 355 06:37 05.06.2020
2058 Clouds 19 1017 52 6000 2.57 324 05:22 05.06.2020
2059 Clouds 18 1017 59 6000 3.09 318 04:27 05.06.2020
2060 Clouds 18 1017 59 6000 3.09 318 03:29 05.06.2020
2061 Clouds 19 1017 55 6000 2.91 319 02:29 05.06.2020
2062 Clear 19 1017 55 6000 2.1 90 01:58 05.06.2020
2063 Clear 19 1017 55 6000 2.1 90 01:30 05.06.2020
2064 Clear 19 1018 55 6000 2.1 90 00:43 05.06.2020
2065 Clear 19 1018 55 6000 2.1 90 00:21 05.06.2020
2066 Clear 21 1017 49 6000 2.1 90 23:47 04.06.2020
2067 Clear 21 1017 49 6000 2.1 90 23:29 04.06.2020
2068 Clear 21 1017 52 7000 1.5 100 22:57 04.06.2020
2069 Clear 21 1017 52 7000 1.5 100 22:38 04.06.2020
2070 Clear 21 1017 52 7000 1.5 100 22:20 04.06.2020
2071 Clear 22 1017 53 7000 4.31 336 21:57 04.06.2020
2072 Clear 22 1017 53 7000 4.31 336 21:38 04.06.2020
2073 Clear 22 1017 53 7000 6.08 334 21:20 04.06.2020
2074 Clear 23 1016 46 7000 1 300 20:55 04.06.2020
2075 Clear 23 1016 46 7000 1 300 20:37 04.06.2020
2076 Clear 23 1016 46 7000 1 300 20:19 04.06.2020
2077 Haze 24 1016 44 5000 2.1 320 19:41 04.06.2020
2078 Haze 24 1016 44 5000 2.1 320 19:21 04.06.2020
2079 Haze 24 1016 44 5000 2.1 320 18:57 04.06.2020
2080 Clear 26 1016 31 6000 4.6 310 18:38 04.06.2020
2081 Clear 26 1016 31 6000 4.6 310 18:20 04.06.2020
2082 Clear 28 1015 26 6000 4.1 290 17:43 04.06.2020
2083 Clear 28 1015 26 6000 4.1 290 17:22 04.06.2020
2084 Clear 29 1015 23 6000 5.7 290 16:58 04.06.2020
2085 Clear 29 1015 23 6000 5.7 290 16:40 04.06.2020
2086 Clear 29 1015 23 6000 5.7 290 16:20 04.06.2020
2087 Clear 29 1016 23 6000 5.1 280 15:44 04.06.2020
2088 Clear 30 1016 23 6000 5.1 280 15:26 04.06.2020
2089 Clear 30 1016 23 6000 6.2 280 14:42 04.06.2020
2090 Clear 30 1016 23 6000 6.2 280 14:23 04.06.2020
2091 Clear 28 1016 24 7000 4.1 280 13:59 04.06.2020
2092 Clear 28 1016 24 7000 4.1 280 13:40 04.06.2020
2093 Clear 28 1016 24 7000 4.1 280 13:21 04.06.2020
2094 Clear 28 1017 24 7000 1.5 160 12:59 04.06.2020
2095 Clear 28 1017 24 7000 1.5 160 12:41 04.06.2020
2096 Clear 28 1017 24 7000 1.5 160 12:22 04.06.2020
2097 Haze 26 1017 31 5000 1.5 160 11:55 04.06.2020
2098 Haze 26 1017 31 5000 1.5 160 11:37 04.06.2020
2099 Haze 26 1017 31 5000 1.5 160 11:19 04.06.2020
2100 Clear 25 1017 29 6000 2.1 50 10:42 04.06.2020
2101 Clear 25 1017 29 6000 2.1 50 10:23 04.06.2020
2102 Clear 24 1016 33 6000 1.5 80 09:58 04.06.2020
2103 Clear 24 1016 33 6000 1.5 80 09:40 04.06.2020
2104 Clear 23 1016 33 6000 1.5 80 09:22 04.06.2020
2105 Clear 21 1015 43 8000 1.5 350 08:44 04.06.2020
2106 Clear 21 1015 43 8000 1.5 350 08:26 04.06.2020
2107 Haze 20 1016 45 5000 2.54 155 07:47 04.06.2020
2108 Haze 20 1016 45 5000 3.01 141 07:27 04.06.2020
2109 Haze 17 1015 48 5000 3.01 141 06:44 04.06.2020
2110 Haze 17 1015 48 5000 1.18 135 06:25 04.06.2020
2111 Haze 17 1015 48 5000 1.18 135 06:25 04.06.2020
2112 Haze 14 1015 51 5000 1.18 135 05:39 04.06.2020
2113 Haze 14 1015 51 5000 0.99 297 05:20 04.06.2020
2114 Clear 15 1014 42 10000 4.1 260 03:25 04.06.2020
2115 Clear 16 1015 45 10000 2.6 230 01:56 04.06.2020
2116 Clear 16 1015 48 10000 3.1 240 01:20 04.06.2020
2117 Clear 16 1015 48 10000 3.1 240 00:48 04.06.2020
2118 Clear 17 1015 42 10000 5.1 260 23:48 03.06.2020
2119 Clear 17 1015 42 10000 5.1 260 23:21 03.06.2020
2120 Clear 18 1015 39 10000 5.1 250 22:59 03.06.2020
2121 Clear 18 1015 39 10000 5.1 250 22:39 03.06.2020
2122 Clear 18 1015 39 10000 5.1 250 22:19 03.06.2020
2123 Clear 19 1014 37 8000 5.1 250 21:58 03.06.2020
2124 Clear 19 1014 37 8000 5.1 250 21:39 03.06.2020
2125 Clear 19 1014 37 8000 5.1 250 21:21 03.06.2020
2126 Clear 20 1014 34 8000 5.1 250 20:56 03.06.2020
2127 Clear 20 1014 34 8000 5.1 250 20:38 03.06.2020
2128 Clouds 20 1014 34 8000 5.1 250 20:19 03.06.2020
2129 Clouds 21 1014 28 6000 6.2 270 19:56 03.06.2020
2130 Clouds 21 1014 28 6000 6.2 270 19:37 03.06.2020
2131 Clouds 21 1014 28 6000 6.2 270 19:19 03.06.2020
2132 Clouds 23 1014 38 6000 6.2 270 18:54 03.06.2020
2133 Clouds 23 1014 38 6000 6.2 270 18:36 03.06.2020
2134 Clouds 25 1014 31 10000 6.2 250 18:18 03.06.2020
2135 Clouds 25 1014 31 10000 6.2 250 17:41 03.06.2020
2136 Clouds 25 1014 31 10000 6.2 250 17:21 03.06.2020
2137 Clouds 25 1014 29 10000 6.7 250 16:55 03.06.2020
2138 Clouds 25 1014 29 10000 6.7 250 16:37 03.06.2020
2139 Clouds 25 1014 29 10000 6.7 250 16:18 03.06.2020
2140 Clouds 25 1014 29 10000 6.7 250 16:18 03.06.2020
2141 Clouds 25 1014 29 10000 6.7 250 15:41 03.06.2020
2142 Clouds 25 1014 29 10000 6.7 250 15:21 03.06.2020
2143 Clouds 25 1014 31 10000 7.7 270 14:57 03.06.2020
2144 Clouds 25 1014 31 10000 7.7 270 14:38 03.06.2020
2145 Clouds 25 1014 31 10000 7.7 270 14:20 03.06.2020
2146 Clouds 24 1014 35 9000 5.7 250 13:38 03.06.2020
2147 Clouds 24 1014 35 9000 5.7 250 13:19 03.06.2020
2148 Clouds 23 1015 33 9000 4.6 250 12:43 03.06.2020
2149 Clouds 23 1015 33 9000 4.6 250 12:22 03.06.2020
2150 Clouds 22 1015 40 8000 4.1 240 11:57 03.06.2020
2151 Clouds 22 1015 40 8000 4.1 240 11:39 03.06.2020
2152 Clouds 22 1015 40 8000 4.1 240 11:21 03.06.2020
2153 Clouds 21 1015 45 8000 3.1 220 10:42 03.06.2020
2154 Clouds 21 1015 45 8000 3.1 220 10:24 03.06.2020
2155 Haze 20 1014 52 4800 5.7 280 09:45 03.06.2020
2156 Haze 20 1014 52 4800 5.7 280 09:22 03.06.2020
2157 Clouds 19 1014 59 8000 4.1 250 08:59 03.06.2020
2158 Clouds 19 1014 59 8000 4.1 250 08:40 03.06.2020
2159 Clouds 19 1014 59 8000 4.1 250 08:20 03.06.2020
2160 Clouds 17 1012 55 7000 4.6 240 07:43 03.06.2020
2161 Clouds 16 1012 67 7000 4.6 240 07:22 03.06.2020
2162 Clouds 16 1012 67 7000 4.6 240 06:54 03.06.2020
2163 Clouds 16 1012 67 7000 4.6 240 06:33 03.06.2020
2164 Clouds 16 1012 67 7000 4.6 240 06:33 03.06.2020
2165 Clouds 14 1012 72 8000 5.1 250 05:48 03.06.2020
2166 Clouds 14 1012 72 8000 5.1 250 05:21 03.06.2020
2167 Clear 15 1012 72 8000 5.1 260 03:52 03.06.2020
2168 Clear 15 1012 72 8000 5.1 260 03:23 03.06.2020
2169 Clear 16 1012 55 8000 5.1 260 02:24 03.06.2020
2170 Clear 17 1012 39 8000 4.6 280 00:56 03.06.2020
2171 Clear 17 1012 42 8000 3.6 280 00:37 03.06.2020
2172 Clear 17 1012 42 8000 3.6 280 00:18 03.06.2020
2173 Clear 17 1012 55 8000 6.2 250 23:38 02.06.2020
2174 Clear 17 1012 55 8000 6.2 250 23:20 02.06.2020
2175 Clear 18 1011 45 8000 10.3 260 22:39 02.06.2020
2176 Clear 18 1011 45 8000 10.3 260 22:19 02.06.2020
2177 Clear 18 1011 45 8000 7.7 270 21:57 02.06.2020
2178 Clear 18 1011 45 8000 7.7 270 21:38 02.06.2020
2179 Clear 18 1011 45 8000 7.7 270 21:20 02.06.2020
2180 Clear 18 1011 52 8000 5.1 300 20:58 02.06.2020
2181 Clear 18 1011 52 8000 5.1 300 20:40 02.06.2020
2182 Clouds 18 1011 52 8000 5.1 300 20:21 02.06.2020
2183 Clouds 22 1010 37 7000 5.1 300 19:45 02.06.2020
2184 Clouds 22 1010 37 7000 5.1 300 19:26 02.06.2020
2185 Dust 24 1009 38 5000 8.2 280 18:59 02.06.2020
2186 Dust 24 1009 38 5000 8.2 280 18:40 02.06.2020
2187 Dust 24 1009 38 5000 8.2 280 18:20 02.06.2020
2188 Dust 26 1009 34 5000 8.2 280 17:59 02.06.2020
2189 Dust 26 1009 34 5000 8.2 280 17:40 02.06.2020
2190 Dust 26 1009 34 5000 8.2 280 17:21 02.06.2020
2191 Dust 28 1009 34 5000 8.7 270 16:55 02.06.2020
2192 Dust 28 1009 34 5000 8.7 270 16:37 02.06.2020
2193 Dust 28 1009 34 5000 8.7 270 16:19 02.06.2020
2194 Dust 30 1009 28 5000 8.7 260 15:40 02.06.2020
2195 Dust 30 1009 28 5000 8.7 260 15:22 02.06.2020
2196 Clouds 30 1009 23 6000 7.7 260 14:48 02.06.2020
2197 Clouds 30 1009 23 6000 7.7 260 14:28 02.06.2020
2198 Dust 31 1009 16 5000 7.7 260 13:57 02.06.2020
2199 Dust 32 1009 16 5000 7.7 260 13:37 02.06.2020
2200 Dust 32 1009 16 5000 7.7 260 13:19 02.06.2020
2201 Clear 32 1009 14 8000 7.7 260 12:57 02.06.2020
2202 Clear 32 1009 14 8000 7.7 260 12:39 02.06.2020
2203 Clear 32 1009 14 8000 7.7 260 12:20 02.06.2020
2204 Clear 32 1010 15 8000 7.7 240 11:55 02.06.2020
2205 Clear 32 1010 15 8000 7.7 240 11:36 02.06.2020
2206 Clear 32 1010 15 8000 7.7 240 11:18 02.06.2020
2207 Clear 28 1010 23 6000 3.6 120 10:44 02.06.2020
2208 Clear 28 1010 23 6000 3.6 120 10:25 02.06.2020
2209 Clear 28 1010 20 6000 4.1 150 09:55 02.06.2020
2210 Clear 28 1010 20 6000 4.1 150 09:36 02.06.2020
2211 Clear 28 1010 20 6000 4.1 150 09:18 02.06.2020
2212 Clear 26 1011 27 6000 2.6 130 08:45 02.06.2020
2213 Clear 26 1011 27 6000 2.6 130 08:20 02.06.2020
2214 Clear 23 1011 40 6000 6.01 139 07:44 02.06.2020
2215 Clear 23 1011 40 6000 5.76 132 07:25 02.06.2020
2216 Clear 19 1010 42 7000 5.76 132 06:43 02.06.2020
2217 Clear 18 1011 48 7000 1.5 50 05:54 02.06.2020
2218 Clear 21 1011 49 10000 1.5 110 04:57 02.06.2020
2219 Clear 21 1011 46 10000 2.1 240 03:21 02.06.2020
2220 Clear 22 1011 40 10000 2.1 230 02:24 02.06.2020
2221 Clear 22 1012 40 10000 3.1 240 00:58 02.06.2020
2222 Clear 20 1012 40 10000 3.1 240 00:25 02.06.2020
2223 Clear 23 1012 33 10000 4.6 240 23:55 01.06.2020
2224 Clear 22 1012 33 10000 4.6 240 23:36 01.06.2020
2225 Clear 21 1012 33 10000 4.6 240 23:18 01.06.2020
2226 Clear 21 1013 31 10000 4.1 240 22:41 01.06.2020
2227 Clear 21 1013 31 10000 4.1 240 22:21 01.06.2020
2228 Clear 22 1013 25 10000 3.1 240 21:58 01.06.2020
2229 Clear 22 1013 25 10000 3.1 240 21:40 01.06.2020
2230 Clear 22 1013 25 10000 3.1 240 21:19 01.06.2020
2231 Clear 22 1013 35 10000 3.1 240 20:56 01.06.2020
2232 Clear 24 1013 29 10000 3.1 280 20:38 01.06.2020
2233 Clear 24 1013 29 10000 3.1 280 20:19 01.06.2020
2234 Clear 24 1013 29 10000 3.1 280 19:55 01.06.2020
2235 Clear 24 1013 29 10000 3.1 280 19:37 01.06.2020
2236 Clear 27 1013 22 10000 5.1 280 19:19 01.06.2020
2237 Clear 27 1013 22 10000 5.1 280 18:55 01.06.2020
2238 Clear 27 1013 22 10000 5.1 280 18:37 01.06.2020
2239 Clear 27 1013 22 10000 5.1 280 18:18 01.06.2020
2240 Clear 27 1013 22 10000 5.1 300 17:40 01.06.2020
2241 Clear 27 1013 22 10000 5.1 300 17:19 01.06.2020
2242 Clear 28 1013 24 10000 5.1 300 16:42 01.06.2020
2243 Clear 28 1013 24 10000 5.1 300 16:22 01.06.2020
2244 Clear 28 1013 17 10000 4.6 310 15:59 01.06.2020
2245 Clear 28 1013 17 10000 4.6 310 15:39 01.06.2020
2246 Clear 28 1013 17 10000 4.6 310 15:20 01.06.2020
2247 Clear 28 1014 18 10000 5.1 330 14:58 01.06.2020
2248 Clear 28 1014 18 10000 5.1 330 14:40 01.06.2020
2249 Clear 28 1014 18 10000 5.1 330 14:21 01.06.2020
2250 Clear 28 1014 21 10000 5.1 340 13:55 01.06.2020
2251 Clear 28 1014 21 10000 5.1 340 13:37 01.06.2020
2252 Clear 28 1014 21 10000 5.1 340 13:37 01.06.2020
2253 Clear 28 1014 21 10000 5.1 340 13:18 01.06.2020
2254 Clear 28 1014 21 10000 5.1 340 13:18 01.06.2020
2255 Clear 27 1014 24 10000 5.1 330 12:55 01.06.2020
2256 Clear 27 1014 24 10000 5.1 330 12:36 01.06.2020
2257 Clear 27 1014 24 10000 5.1 330 12:18 01.06.2020
2258 Clear 26 1015 26 10000 3.6 330 11:40 01.06.2020
2259 Clear 26 1015 26 10000 3.6 330 11:22 01.06.2020
2260 Clear 26 1015 26 10000 3.6 330 10:57 01.06.2020
2261 Clear 25 1015 25 10000 3.6 340 10:37 01.06.2020
2262 Clear 25 1015 25 10000 3.6 340 10:19 01.06.2020
2263 Clear 23 1015 23 10000 3.6 10 09:55 01.06.2020
2264 Clear 23 1015 23 10000 3.6 10 09:37 01.06.2020
2265 Clear 23 1015 23 10000 3.6 10 09:19 01.06.2020
2266 Clear 20 1015 24 10000 3.1 280 08:42 01.06.2020
2267 Clouds 20 1015 24 10000 3.1 280 08:23 01.06.2020
2268 Clouds 17 1015 51 10000 3.1 270 07:44 01.06.2020
2269 Clouds 17 1015 51 10000 3.1 270 07:26 01.06.2020
2270 Clouds 16 1015 67 10000 2.1 260 06:52 01.06.2020
2271 Clouds 16 1015 67 10000 2.1 260 06:20 01.06.2020
2272 Clouds 14 1015 51 10000 2.6 280 05:49 01.06.2020
2273 Clouds 14 1015 58 8000 4.1 270 04:23 01.06.2020
2274 Clouds 14 1015 26 10000 2.1 290 03:45 01.06.2020
2275 Clouds 14 1015 26 10000 2.1 290 03:18 01.06.2020
2276 Clear 16 1015 39 10000 2.1 280 01:47 01.06.2020
2277 Clear 16 1015 39 10000 2.1 280 01:28 01.06.2020
2278 Clear 17 1015 48 10000 2.1 340 00:57 01.06.2020
2279 Clear 17 1015 48 10000 2.1 340 00:39 01.06.2020
2280 Clear 17 1015 48 10000 2.1 340 00:21 01.06.2020
2281 Clear 17 1015 48 10000 2.1 340 23:55 31.05.2020
2282 Clear 18 1015 39 10000 2.1 70 23:37 31.05.2020
2283 Clear 18 1015 39 10000 2.1 70 23:19 31.05.2020
2284 Clear 19 1015 42 8000 3.1 300 22:43 31.05.2020
2285 Clear 19 1015 42 8000 3.1 300 22:43 31.05.2020
2286 Clear 19 1015 42 8000 3.1 300 22:25 31.05.2020
2287 Clear 20 1015 42 7000 3.1 320 21:58 31.05.2020
2288 Clear 20 1015 42 7000 3.1 320 21:39 31.05.2020
2289 Clear 20 1015 42 7000 3.1 320 21:21 31.05.2020
2290 Clear 20 1015 42 7000 3.1 320 21:21 31.05.2020
2291 Clear 21 1015 40 6000 3.6 310 20:57 31.05.2020
2292 Clear 21 1015 40 6000 3.6 310 20:38 31.05.2020
2293 Clear 21 1015 40 6000 3.6 310 20:19 31.05.2020
2294 Clear 22 1015 40 6000 4.6 270 19:54 31.05.2020
2295 Clear 22 1015 40 6000 4.6 270 19:36 31.05.2020
2296 Clear 22 1015 40 6000 4.6 270 19:18 31.05.2020
2297 Clear 25 1014 38 6000 3.6 330 18:43 31.05.2020
2298 Clear 25 1014 38 6000 3.6 330 18:24 31.05.2020
2299 Clear 27 1014 29 7000 3.6 320 17:45 31.05.2020
2300 Clear 27 1014 29 7000 3.6 320 17:25 31.05.2020
2301 Clear 28 1015 20 10000 3.6 320 16:58 31.05.2020
2302 Clear 28 1015 20 10000 3.6 320 16:40 31.05.2020
2303 Clear 28 1015 20 10000 3.6 320 16:19 31.05.2020
2304 Clear 29 1015 18 10000 4.6 300 15:40 31.05.2020
2305 Clear 29 1015 18 10000 4.6 300 15:21 31.05.2020
2306 Clear 29 1015 16 10000 2.6 360 14:47 31.05.2020
2307 Clear 29 1015 16 10000 2.6 360 14:22 31.05.2020
2308 Clear 29 1015 17 10000 3.1 360 13:57 31.05.2020
2309 Clear 29 1015 17 10000 3.1 360 13:38 31.05.2020
2310 Clear 29 1015 17 10000 3.1 360 13:20 31.05.2020
2311 Clear 28 1016 20 10000 2.6 20 12:58 31.05.2020
2312 Clear 28 1016 20 10000 2.6 20 12:39 31.05.2020
2313 Clear 28 1016 20 10000 2.6 20 12:21 31.05.2020
2314 Clear 27 1017 14 10000 1.5 350 11:49 31.05.2020
2315 Clear 27 1017 15 10000 1.5 350 11:24 31.05.2020
2316 Clear 26 1017 15 10000 1.5 350 10:58 31.05.2020
2317 Clear 26 1017 15 10000 1.5 350 10:58 31.05.2020
2318 Clear 25 1017 13 10000 2.6 20 10:39 31.05.2020
2319 Clear 25 1017 13 10000 2.6 20 10:21 31.05.2020
2320 Clear 23 1018 16 10000 1.5 360 09:56 31.05.2020
2321 Clear 23 1018 16 10000 1.5 360 09:38 31.05.2020
2322 Clear 23 1018 16 10000 1.5 360 09:38 31.05.2020
2323 Clear 23 1018 16 10000 1.5 360 09:19 31.05.2020
2324 Clear 21 1018 18 10000 3.48 319 08:41 31.05.2020
2325 Clear 21 1018 18 10000 4.27 313 08:23 31.05.2020
2326 Clear 18 1018 48 10000 4.27 313 07:48 31.05.2020
2327 Clear 18 1018 48 10000 4.54 312 07:21 31.05.2020
2328 Clear 15 1018 58 10000 1.5 60 06:56 31.05.2020
2329 Clear 15 1018 58 10000 1.5 60 06:34 31.05.2020
2330 Clear 12 1018 66 10000 1.5 80 05:48 31.05.2020
2331 Clear 12 1018 66 10000 1.5 80 05:30 31.05.2020
2332 Clear 14 1017 67 10000 2.1 80 03:57 31.05.2020
2333 Clear 14 1017 67 10000 2.1 80 03:22 31.05.2020
2334 Clear 16 1017 23 10000 2.1 280 02:44 31.05.2020
2335 Clear 16 1017 55 10000 2.6 280 01:45 31.05.2020
2336 Clear 16 1018 55 10000 5.38 326 00:40 31.05.2020
2337 Clear 16 1018 55 10000 6.05 324 00:20 31.05.2020
2338 Clear 17 1019 51 10000 6.05 324 23:42 30.05.2020
2339 Clear 17 1019 51 10000 6.38 323 23:23 30.05.2020
2340 Clear 16 1019 55 10000 1.5 20 22:56 30.05.2020
2341 Clear 16 1019 55 10000 1.5 20 22:37 30.05.2020
2342 Clear 16 1019 55 10000 1.5 20 22:19 30.05.2020
2343 Clear 18 1018 55 10000 1.5 320 21:42 30.05.2020
2344 Clear 18 1018 55 10000 1.5 320 21:22 30.05.2020
2345 Clear 19 1018 48 10000 8.21 328 20:57 30.05.2020
2346 Clear 19 1018 48 10000 8.21 328 20:39 30.05.2020
2347 Clear 19 1018 48 10000 7.75 328 20:21 30.05.2020
2348 Clear 21 1017 45 10000 1.5 300 19:55 30.05.2020
2349 Clear 21 1017 45 10000 1.5 300 19:37 30.05.2020
2350 Clear 21 1017 45 10000 1.5 300 19:18 30.05.2020
2351 Clear 24 1017 36 10000 4.1 330 18:43 30.05.2020
2352 Clear 24 1017 36 10000 4.1 330 18:19 30.05.2020
2353 Clear 25 1017 17 10000 4.6 300 17:42 30.05.2020
2354 Clear 25 1017 17 10000 4.6 300 17:24 30.05.2020
2355 Clear 26 1017 22 10000 2.1 290 16:58 30.05.2020
2356 Clear 25 1017 22 10000 2.1 290 16:39 30.05.2020
2357 Clear 26 1017 22 10000 2.1 290 16:21 30.05.2020
2358 Clear 27 1017 26 10000 2.1 350 15:42 30.05.2020
2359 Clear 27 1017 26 10000 2.1 350 15:24 30.05.2020
2360 Clear 26 1017 27 10000 4.23 294 14:45 30.05.2020
2361 Clear 26 1017 27 10000 4.09 287 14:26 30.05.2020
2362 Clear 24 1018 25 10000 1.5 250 13:44 30.05.2020
2363 Clear 24 1018 25 10000 1.5 250 13:25 30.05.2020
2364 Clear 23 1019 31 10000 1.5 80 12:42 30.05.2020
2365 Clear 23 1019 31 10000 1.5 80 12:23 30.05.2020
2366 Clear 22 1019 30 10000 1.5 90 11:59 30.05.2020
2367 Clear 22 1019 30 10000 1.5 90 11:41 30.05.2020
2368 Clear 22 1019 30 10000 1.5 90 11:22 30.05.2020
2369 Clear 21 1019 35 10000 2.1 330 10:56 30.05.2020
2370 Clear 21 1019 35 10000 2.1 330 10:38 30.05.2020
2371 Clear 21 1019 35 10000 2.1 330 10:20 30.05.2020
2372 Clear 18 1019 52 10000 1.5 340 09:43 30.05.2020
2373 Clear 18 1019 52 10000 1.5 340 09:25 30.05.2020
2374 Clear 17 1019 55 10000 1.5 20 08:44 30.05.2020
2375 Clear 17 1019 55 10000 1.5 20 08:26 30.05.2020
2376 Clouds 15 1019 62 10000 2.1 360 07:40 30.05.2020
2377 Clouds 15 1019 62 10000 2.1 360 07:19 30.05.2020
2378 Clouds 12 1018 76 8000 2.6 350 06:30 30.05.2020
2379 Clear 10 1019 81 6000 5.09 318 05:52 30.05.2020
2380 Clear 12 1018 75 0 4.75 313 04:59 30.05.2020
2381 Clouds 11 1018 81 10000 2.6 300 02:53 30.05.2020
2382 Clouds 11 1018 81 10000 2.6 300 02:23 30.05.2020
2383 Clouds 13 1018 76 10000 4.1 280 01:20 30.05.2020
2384 Clouds 13 1018 76 10000 4.1 280 00:36 30.05.2020
2385 Clouds 13 1018 76 10000 4.1 280 00:18 30.05.2020
2386 Clouds 13 1018 76 10000 4.1 280 23:38 29.05.2020
2387 Clouds 13 1018 76 10000 4.1 280 23:20 29.05.2020
2388 Clouds 14 1018 71 10000 4.1 290 22:56 29.05.2020
2389 Clouds 14 1018 71 10000 4.1 290 22:37 29.05.2020
2390 Clouds 14 1018 71 10000 4.1 290 22:18 29.05.2020
2391 Clouds 15 1018 67 10000 4.1 290 21:41 29.05.2020
2392 Clouds 15 1018 67 10000 4.1 290 21:21 29.05.2020
2393 Clouds 15 1018 62 10000 4.6 300 20:59 29.05.2020
2394 Clouds 15 1018 62 10000 4.6 300 20:40 29.05.2020
2395 Clouds 15 1018 62 10000 4.6 300 20:19 29.05.2020
2396 Clear 17 1017 48 10000 6.2 310 19:44 29.05.2020
2397 Clear 17 1017 48 10000 6.2 310 19:26 29.05.2020
2398 Clear 19 1017 45 10000 6.2 310 18:55 29.05.2020
2399 Clear 19 1017 45 10000 6.2 310 18:37 29.05.2020
2400 Clear 19 1017 45 10000 6.2 310 18:18 29.05.2020
2401 Clouds 20 1017 40 10000 7.2 310 17:40 29.05.2020
2402 Clouds 20 1017 40 10000 7.2 310 17:22 29.05.2020
2403 Clouds 20 1017 40 10000 7.2 310 17:22 29.05.2020
2404 Clouds 20 1017 40 10000 7.2 310 16:58 29.05.2020
2405 Clouds 21 1018 37 10000 6.2 280 16:40 29.05.2020
2406 Clouds 21 1018 37 10000 6.2 280 16:22 29.05.2020
2407 Clouds 22 1018 35 10000 7.2 280 15:55 29.05.2020
2408 Clouds 22 1018 35 10000 7.2 280 15:37 29.05.2020
2409 Clouds 22 1018 35 10000 7.2 280 15:18 29.05.2020
2410 Clouds 22 1018 33 10000 6.2 280 14:40 29.05.2020
2411 Clouds 22 1018 33 10000 6.2 280 14:21 29.05.2020
2412 Clouds 22 1018 33 10000 6.2 280 13:43 29.05.2020
2413 Clouds 22 1018 33 10000 6.2 280 13:24 29.05.2020
2414 Clouds 21 1018 37 10000 6.2 280 12:59 29.05.2020
2415 Clouds 21 1018 37 10000 6.2 280 12:41 29.05.2020
2416 Clouds 21 1018 37 10000 6.2 280 12:22 29.05.2020
2417 Clouds 20 1018 40 10000 7.2 300 11:45 29.05.2020
2418 Clouds 20 1018 40 10000 7.2 300 11:26 29.05.2020
2419 Clouds 19 1018 45 10000 5.1 300 10:57 29.05.2020
2420 Clouds 19 1018 45 10000 5.1 300 10:37 29.05.2020
2421 Clouds 19 1018 45 10000 5.1 300 10:18 29.05.2020
2422 Clouds 18 1018 48 10000 8.7 270 09:43 29.05.2020
2423 Clouds 18 1018 48 10000 8.7 270 09:20 29.05.2020
2424 Clouds 17 1018 59 10000 6.7 310 08:56 29.05.2020
2425 Clouds 17 1018 59 10000 6.7 310 08:37 29.05.2020
2426 Clouds 17 1018 59 10000 6.7 310 08:19 29.05.2020
2427 Clouds 16 1017 63 10000 6.7 300 07:40 29.05.2020
2428 Clouds 16 1017 63 10000 6.7 300 07:21 29.05.2020
2429 Clouds 14 1017 71 10000 6.7 300 06:48 29.05.2020
2430 Clouds 14 1017 71 10000 6.7 300 06:27 29.05.2020
2431 Clouds 13 1017 71 10000 6.7 300 05:51 29.05.2020
2432 Clouds 13 1016 82 10000 5.1 300 02:39 29.05.2020
2433 Clouds 14 1016 82 10000 6.7 300 01:42 29.05.2020
2434 Clouds 14 1016 82 10000 6.7 300 01:23 29.05.2020
2435 Clouds 14 1016 82 10000 5.1 310 00:46 29.05.2020
2436 Clouds 14 1016 82 10000 5.1 310 00:21 29.05.2020
2437 Clouds 15 1016 72 10000 5.1 310 23:39 28.05.2020
2438 Clouds 15 1016 72 10000 5.1 310 23:19 28.05.2020
2439 Clouds 15 1017 67 10000 4.1 310 22:44 28.05.2020
2440 Clouds 15 1017 67 10000 4.1 310 22:26 28.05.2020
2441 Clear 16 1017 59 8000 5.1 320 21:58 28.05.2020
2442 Clear 16 1017 59 8000 5.1 320 21:40 28.05.2020
2443 Clear 16 1017 59 8000 5.1 320 21:20 28.05.2020
2444 Clear 17 1016 55 8000 3.6 310 20:58 28.05.2020
2445 Clear 17 1016 55 8000 3.6 310 20:39 28.05.2020
2446 Clear 17 1016 55 8000 3.6 310 20:19 28.05.2020
2447 Clear 19 1016 52 6000 5.7 310 19:57 28.05.2020
2448 Clear 19 1016 52 6000 5.7 310 19:39 28.05.2020
2449 Clear 19 1016 52 6000 5.7 310 19:20 28.05.2020
2450 Haze 22 1015 43 5000 5.1 300 18:46 28.05.2020
2451 Haze 22 1015 43 5000 5.1 300 18:27 28.05.2020
2452 Haze 22 1015 43 5000 6.7 320 17:59 28.05.2020
2453 Haze 22 1015 43 5000 6.7 320 17:39 28.05.2020
2454 Haze 22 1015 43 5000 6.7 320 17:20 28.05.2020
2455 Haze 24 1015 43 5000 6.2 290 16:46 28.05.2020
2456 Haze 24 1015 43 5000 6.2 290 16:21 28.05.2020
2457 Haze 24 1016 44 5000 5.7 310 15:55 28.05.2020
2458 Haze 24 1016 44 5000 5.7 310 15:36 28.05.2020
2459 Haze 24 1016 44 5000 5.7 310 15:18 28.05.2020
2460 Haze 24 1016 41 5000 7.2 270 14:42 28.05.2020
2461 Haze 24 1016 41 5000 7.2 270 14:22 28.05.2020
2462 Haze 24 1016 41 5000 7.2 270 14:22 28.05.2020
2463 Haze 24 1016 41 5000 7.7 280 13:46 28.05.2020
2464 Haze 24 1016 41 5000 7.7 280 13:27 28.05.2020
2465 Clear 23 1016 40 6000 7.2 290 12:56 28.05.2020
2466 Clear 23 1016 40 6000 7.2 290 12:37 28.05.2020
2467 Clear 23 1016 40 6000 7.2 290 12:18 28.05.2020
2468 Clear 22 1016 46 6000 5.7 280 11:40 28.05.2020
2469 Clear 22 1016 46 6000 5.7 280 11:22 28.05.2020
2470 Clear 21 1017 52 6000 6.7 280 10:50 28.05.2020
2471 Clear 21 1017 52 6000 6.7 280 10:28 28.05.2020
2472 Clear 21 1017 52 6000 6.7 280 10:28 28.05.2020
2473 Clear 19 1017 59 7000 6.2 280 09:59 28.05.2020
2474 Clear 19 1017 59 7000 6.2 280 09:38 28.05.2020
2475 Clear 19 1017 59 7000 6.2 280 09:19 28.05.2020
2476 Clear 18 1017 63 8000 7.2 280 08:44 28.05.2020
2477 Clouds 18 1017 63 8000 7.2 280 08:25 28.05.2020
2478 Clouds 20 1014 49 0 8.34 311 07:45 28.05.2020
2479 Clouds 16 1017 63 8000 5.1 300 07:24 28.05.2020
2480 Clouds 16 1017 63 8000 5.1 300 06:51 28.05.2020
2481 Clouds 15 1017 63 8000 5.1 300 06:31 28.05.2020
2482 Clouds 14 1017 72 8000 5.1 290 05:40 28.05.2020
2483 Haze 13 1016 82 5000 5.7 280 04:46 28.05.2020
2484 Haze 13 1016 82 5000 5.7 280 04:22 28.05.2020
2485 Haze 13 1016 82 5000 3.1 260 03:45 28.05.2020
2486 Clouds 16 1016 48 8000 5.1 270 02:45 28.05.2020
2487 Clear 16 1016 42 8000 5.1 300 01:49 28.05.2020
2488 Clear 17 1016 39 8000 4.1 290 00:54 28.05.2020
2489 Clear 17 1016 39 8000 4.1 290 00:23 28.05.2020
2490 Clear 17 1016 36 8000 3.6 300 23:57 27.05.2020
2491 Clear 17 1016 36 8000 3.6 300 23:38 27.05.2020
2492 Clear 17 1016 36 8000 3.6 300 23:20 27.05.2020
2493 Clear 18 1016 39 8000 4.6 290 22:54 27.05.2020
2494 Clear 18 1016 39 8000 4.6 290 22:36 27.05.2020
2495 Clear 18 1016 39 8000 4.6 290 22:18 27.05.2020
2496 Clear 20 1016 42 8000 3.6 320 21:40 27.05.2020
2497 Clear 20 1016 42 8000 3.6 320 21:21 27.05.2020
2498 Clear 21 1015 33 8000 5.1 290 20:58 27.05.2020
2499 Clear 21 1015 33 8000 5.1 290 20:40 27.05.2020
2500 Clear 21 1015 33 8000 5.1 290 20:20 27.05.2020
2501 Clear 23 1015 40 7000 5.1 290 19:47 27.05.2020
2502 Clear 23 1015 40 7000 5.1 290 19:21 27.05.2020
2503 Haze 25 1015 29 5000 7.2 290 18:58 27.05.2020
2504 Haze 25 1015 29 5000 7.2 290 18:39 27.05.2020
2505 Haze 25 1015 29 5000 7.2 290 18:19 27.05.2020
2506 Haze 27 1015 30 5000 7.2 280 17:43 27.05.2020
2507 Haze 27 1015 30 5000 7.2 280 17:25 27.05.2020
2508 Haze 28 1014 37 5000 7.2 270 16:57 27.05.2020
2509 Haze 28 1014 37 5000 7.2 270 16:38 27.05.2020
2510 Haze 28 1014 37 5000 7.2 270 16:20 27.05.2020
2511 Smoke 29 1014 35 3000 7.2 290 15:59 27.05.2020
2512 Smoke 30 1014 35 3000 7.2 290 15:37 27.05.2020
2513 Smoke 30 1014 35 3000 7.2 290 15:18 27.05.2020
2514 Haze 30 1014 27 5000 5.1 240 14:42 27.05.2020
2515 Haze 30 1014 27 5000 5.1 240 14:21 27.05.2020
2516 Haze 30 1015 28 5000 9.3 270 13:44 27.05.2020
2517 Haze 31 1014 16 5000 2.1 260 13:26 27.05.2020
2518 Haze 32 1014 16 5000 2.1 260 12:57 27.05.2020
2519 Haze 32 1014 16 5000 2.1 260 12:57 27.05.2020
2520 Haze 32 1014 16 5000 2.1 260 12:39 27.05.2020
2521 Haze 32 1014 16 5000 2.1 260 12:21 27.05.2020
2522 Haze 31 1015 18 5000 2.1 260 11:39 27.05.2020
2523 Haze 31 1015 18 5000 2.1 260 11:21 27.05.2020
2524 Haze 29 1015 23 5000 2.1 280 10:57 27.05.2020
2525 Haze 29 1015 23 5000 2.1 280 10:57 27.05.2020
2526 Haze 29 1015 23 5000 2.1 280 10:38 27.05.2020
2527 Haze 29 1015 23 5000 2.1 280 10:19 27.05.2020
2528 Haze 28 1015 24 5000 2.1 280 09:41 27.05.2020
2529 Haze 28 1015 24 5000 2.1 280 09:22 27.05.2020
2530 Haze 27 1015 27 5000 1.85 143 08:56 27.05.2020
2531 Smoke 26 1015 33 4000 1.85 143 08:36 27.05.2020
2532 Smoke 26 1015 33 4000 1.31 114 08:18 27.05.2020
2533 Smoke 20 1015 43 4000 1.31 114 07:49 27.05.2020
2534 Smoke 20 1015 43 4000 1.31 114 07:30 27.05.2020
2535 Haze 19 1015 48 4000 0.81 45 06:49 27.05.2020
2536 Haze 17 1015 48 4000 1.27 356 06:21 27.05.2020
2537 Haze 16 1015 55 4000 1.27 356 05:49 27.05.2020
2538 Haze 16 1015 55 4000 1.36 352 05:22 27.05.2020
2539 Clear 20 1015 49 8000 2.12 335 02:34 27.05.2020
2540 Clear 22 1012 27 0 3.08 329 01:53 27.05.2020
2541 Clear 20 1016 45 8000 3.08 329 01:30 27.05.2020
2542 Clear 20 1016 45 8000 3.65 329 00:46 27.05.2020
2543 Clear 19 1016 45 8000 3.95 320 00:20 27.05.2020
2544 Clear 20 1016 43 8000 3.95 320 23:57 26.05.2020
2545 Clear 20 1016 43 8000 3.95 320 23:38 26.05.2020
2546 Clouds 20 1016 43 8000 4.11 322 23:19 26.05.2020
2547 Clouds 20 1016 40 8000 4.11 322 22:41 26.05.2020
2548 Clear 20 1016 40 8000 4.46 331 22:21 26.05.2020
2549 -273 0 0 0 0 0 21:59 26.05.2020
2550 Clear 22 1016 37 8000 4.46 331 21:40 26.05.2020
2551 Clear 22 1016 37 8000 4.46 331 21:40 26.05.2020
2552 Clouds 22 1016 37 8000 3.77 343 21:21 26.05.2020
2553 Clouds 23 1016 36 8000 3.32 343 20:57 26.05.2020
2554 Clouds 23 1016 36 8000 3.32 343 20:39 26.05.2020
2555 Clouds 23 1016 36 8000 2.07 38 20:19 26.05.2020
2556 Clouds 27 1015 18 6000 3.1 260 19:40 26.05.2020
2557 Clouds 28 1015 18 6000 3.1 260 19:20 26.05.2020
2558 Clouds 28 1015 18 6000 3.1 260 18:57 26.05.2020
2559 Haze 29 1015 20 5000 5.7 270 18:39 26.05.2020
2560 Clear 28 1015 15 6000 3.1 260 18:20 26.05.2020
2561 Clear 29 1015 15 6000 3.1 260 17:39 26.05.2020
2562 Clear 29 1015 15 6000 3.1 260 17:21 26.05.2020
2563 Clear 30 1015 15 10000 2.1 190 16:48 26.05.2020
2564 Clear 30 1015 15 10000 2.1 190 16:23 26.05.2020
2565 Clear 31 1015 12 10000 2.1 190 15:58 26.05.2020
2566 Clear 31 1015 12 10000 2.1 190 15:39 26.05.2020
2567 Clear 31 1015 12 10000 2.1 190 15:19 26.05.2020
2568 Clear 30 1016 12 10000 2.1 180 14:44 26.05.2020
2569 Clear 30 1016 12 10000 2.1 180 14:25 26.05.2020
2570 Clear 29 1017 16 10000 3.1 180 13:58 26.05.2020
2571 Clear 29 1017 16 10000 3.1 180 13:40 26.05.2020
2572 Clear 29 1017 16 10000 3.1 180 13:21 26.05.2020
2573 Clear 28 1018 19 10000 1.25 203 12:44 26.05.2020
2574 Clear 28 1018 19 10000 1.84 198 12:22 26.05.2020
2575 Clear 27 1018 21 10000 1.84 198 11:59 26.05.2020
2576 Clear 27 1018 21 10000 1.84 198 11:40 26.05.2020
2577 Clear 27 1018 21 10000 2.29 189 11:19 26.05.2020
2578 Clear 27 1018 21 10000 2.29 189 11:19 26.05.2020
2579 Clear 25 1018 27 10000 2.1 100 10:47 26.05.2020
2580 Clear 25 1018 27 10000 2.1 100 10:19 26.05.2020
2581 Clear 24 1019 33 10000 3.1 90 09:57 26.05.2020
2582 Clear 23 1019 33 10000 3.1 90 09:37 26.05.2020
2583 Clear 23 1019 33 10000 3.1 90 09:18 26.05.2020
2584 Clear 21 1019 37 8000 3.1 100 08:40 26.05.2020
2585 Clear 21 1019 37 8000 3.1 100 08:21 26.05.2020
2586 Clear 21 1019 37 8000 3.1 100 08:21 26.05.2020
2587 Haze 17 1019 55 5000 1 10 07:42 26.05.2020
2588 Haze 17 1019 55 5000 1 10 07:23 26.05.2020
2589 Clear 13 1018 58 7000 1.18 120 06:52 26.05.2020
2590 Clear 13 1018 58 7000 1.18 120 06:52 26.05.2020
2591 Clear 13 1018 58 7000 0.94 293 06:28 26.05.2020
2592 Clear 13 1018 58 7000 0.94 293 06:28 26.05.2020
2593 Clear 11 1018 66 6000 1.5 50 05:42 26.05.2020
2594 Clear 11 1018 66 6000 1.5 50 05:20 26.05.2020
2595 Clear 13 1018 62 6000 1.5 100 04:48 26.05.2020
2596 Clear 13 1018 62 6000 1.5 100 04:29 26.05.2020
2597 Clear 13 1018 67 7000 1.95 309 03:46 26.05.2020
2598 Clear 14 1018 62 8000 1 220 02:36 26.05.2020
2599 Clear 13 1018 62 10000 1 250 01:47 26.05.2020
2600 Clear 14 1018 62 10000 3.47 313 00:44 26.05.2020
2601 Clear 14 1018 62 10000 3.79 313 00:26 26.05.2020
2602 Clear 14 1019 62 8000 3.79 313 23:59 25.05.2020
2603 Clear 14 1019 62 8000 3.79 313 23:39 25.05.2020
2604 Clear 14 1019 62 8000 3.69 327 23:20 25.05.2020
2605 Clear 15 1019 58 7000 1 130 22:56 25.05.2020
2606 Clear 15 1019 58 7000 1 130 22:38 25.05.2020
2607 Clear 15 1019 58 7000 1 130 22:19 25.05.2020
2608 Clear 16 1019 55 7000 1 300 21:59 25.05.2020
2609 Clear 16 1019 55 7000 1 300 21:39 25.05.2020
2610 Clear 16 1019 55 7000 1 300 21:20 25.05.2020
2611 Clear 18 1018 48 8000 3.6 310 20:59 25.05.2020
2612 Clear 18 1018 48 8000 3.6 310 20:41 25.05.2020
2613 Clear 18 1018 48 8000 3.6 310 20:20 25.05.2020
2614 Clear 19 1018 42 8000 5.1 310 19:58 25.05.2020
2615 Clear 19 1018 42 8000 5.1 310 19:38 25.05.2020
2616 Clear 19 1018 42 8000 5.1 310 19:18 25.05.2020
2617 Clear 19 1018 42 8000 5.1 310 19:18 25.05.2020
2618 Clear 21 1017 35 6000 6.2 290 18:43 25.05.2020
2619 Clear 21 1017 35 6000 6.2 290 18:22 25.05.2020
2620 Clear 22 1017 35 7000 5.7 280 17:57 25.05.2020
2621 Clear 22 1017 35 7000 5.7 280 17:39 25.05.2020
2622 Clear 22 1017 35 7000 5.7 280 17:21 25.05.2020
2623 Clear 23 1017 35 7000 6.2 280 16:56 25.05.2020
2624 Clear 23 1017 35 7000 6.2 280 16:38 25.05.2020
2625 Clear 23 1017 35 7000 6.2 280 16:19 25.05.2020
2626 Clouds 22 1017 35 10000 6.2 280 15:42 25.05.2020
2627 Clouds 22 1017 35 10000 6.2 280 15:19 25.05.2020
2628 Clouds 22 1017 35 10000 6.2 280 15:19 25.05.2020
2629 Clouds 22 1017 35 10000 6.2 280 14:57 25.05.2020
2630 Clouds 22 1017 35 10000 6.2 280 14:38 25.05.2020
2631 Clouds 22 1017 35 10000 6.2 280 14:19 25.05.2020
2632 Clouds 22 1017 37 10000 7.2 280 13:39 25.05.2020
2633 Clouds 22 1017 37 10000 7.2 280 13:21 25.05.2020
2634 Clouds 21 1018 42 10000 5.1 250 12:57 25.05.2020
2635 Clouds 21 1018 42 10000 5.1 250 12:38 25.05.2020
2636 Clouds 21 1018 42 10000 5.1 250 12:20 25.05.2020
2637 Clouds 19 1018 48 10000 5.1 250 11:39 25.05.2020
2638 Clouds 19 1018 48 10000 5.1 250 11:20 25.05.2020
2639 Clouds 18 1017 52 10000 7.2 270 10:56 25.05.2020
2640 Clouds 18 1017 52 10000 7.2 270 10:37 25.05.2020
2641 Clouds 18 1017 52 10000 7.2 270 10:19 25.05.2020
2642 Clouds 18 1017 52 10000 7.2 270 10:19 25.05.2020
2643 Clouds 17 1016 63 6000 5.1 250 09:54 25.05.2020
2644 Clouds 17 1016 63 6000 5.1 250 09:36 25.05.2020
2645 Clouds 17 1016 63 6000 5.1 250 09:18 25.05.2020
2646 Haze 15 1016 67 5000 5.1 250 08:39 25.05.2020
2647 Haze 15 1016 67 5000 5.1 250 08:20 25.05.2020
2648 Haze 13 1015 71 5000 5.1 250 07:50 25.05.2020
2649 Haze 13 1015 71 5000 5.1 250 07:32 25.05.2020
2650 Haze 12 1015 76 5000 5.1 250 06:57 25.05.2020
2651 Haze 12 1015 76 5000 5.1 250 06:37 25.05.2020
2652 Haze 10 1014 81 4000 5.1 260 05:27 25.05.2020
2653 Clear 11 1015 76 6000 2.1 270 03:30 25.05.2020
2654 Clear 12 1015 76 6000 2.1 270 02:51 25.05.2020
2655 Clear 12 1015 76 6000 2.1 270 02:32 25.05.2020
2656 Clear 12 1015 76 6000 5.1 270 01:42 25.05.2020
2657 Clear 12 1015 71 6000 5.1 270 00:47 25.05.2020
2658 Clear 12 1015 71 6000 5.1 270 00:26 25.05.2020
2659 Clear 13 1015 71 6000 5.1 270 23:58 24.05.2020
2660 Clear 13 1015 71 6000 5.1 270 23:39 24.05.2020
2661 Clear 13 1015 71 6000 5.1 270 23:20 24.05.2020
2662 Clear 13 1015 71 6000 5.1 270 22:56 24.05.2020
2663 Clouds 13 1015 66 6000 4.6 260 22:37 24.05.2020
2664 Clouds 13 1015 66 6000 4.6 260 22:18 24.05.2020
2665 Clouds 14 1015 62 6000 5.1 270 21:55 24.05.2020
2666 Clouds 14 1015 62 6000 5.1 270 21:36 24.05.2020
2667 Clouds 14 1015 62 6000 5.1 270 21:18 24.05.2020
2668 Clouds 14 1014 58 6000 6.7 270 20:43 24.05.2020
2669 Clouds 14 1014 58 6000 6.7 270 20:21 24.05.2020
2670 Clouds 14 1014 58 6000 6.7 270 19:56 24.05.2020
2671 Clouds 16 1014 47 6000 8.2 300 19:38 24.05.2020
2672 Clouds 16 1014 47 6000 8.2 300 19:18 24.05.2020
2673 Clouds 16 1014 44 6000 8.2 300 18:43 24.05.2020
2674 Clouds 17 1014 44 6000 8.2 300 18:23 24.05.2020
2675 Clouds 17 1013 36 6000 8.2 300 17:59 24.05.2020
2676 Clouds 17 1013 36 6000 8.2 300 17:40 24.05.2020
2677 Clouds 17 1013 36 6000 8.2 300 17:21 24.05.2020
2678 Clouds 18 1013 28 6000 8.2 300 16:56 24.05.2020
2679 Clouds 18 1013 28 6000 8.2 300 16:38 24.05.2020
2680 Clouds 18 1013 29 6000 8.2 300 16:19 24.05.2020
2681 Clouds 18 1013 39 8000 8.2 300 15:56 24.05.2020
2682 Clouds 18 1013 39 8000 8.2 300 15:38 24.05.2020
2683 Clouds 18 1013 39 8000 8.2 300 15:38 24.05.2020
2684 Clouds 18 1013 39 8000 8.2 300 15:18 24.05.2020
2685 Clouds 18 1013 59 8000 6.2 320 14:44 24.05.2020
2686 Clouds 18 1013 59 8000 6.2 320 14:24 24.05.2020
2687 Clouds 18 1013 59 8000 6.2 320 14:24 24.05.2020
2688 Clouds 17 1013 51 8000 6.2 290 13:58 24.05.2020
2689 Clouds 17 1013 51 8000 6.2 290 13:39 24.05.2020
2690 Clouds 17 1013 51 8000 6.2 290 13:21 24.05.2020
2691 Clouds 16 1013 62 8000 5.1 290 12:59 24.05.2020
2692 Clouds 16 1013 62 8000 5.1 290 12:40 24.05.2020
2693 Clouds 16 1013 62 8000 5.1 290 12:22 24.05.2020
2694 Rain 15 1014 87 2000 6.2 300 11:59 24.05.2020
2695 Rain 15 1014 87 2000 6.2 300 11:41 24.05.2020
2696 Rain 15 1014 87 2000 6.2 300 11:41 24.05.2020
2697 Rain 15 1014 87 2000 6.2 300 11:22 24.05.2020
2698 Rain 16 1013 87 2000 7.2 250 10:57 24.05.2020
2699 Clouds 17 1012 72 6000 7.2 250 10:39 24.05.2020
2700 Clouds 17 1012 72 6000 7.2 250 10:21 24.05.2020
2701 Rain 16 1012 72 5000 7.2 260 09:41 24.05.2020
2702 Rain 16 1012 72 5000 7.2 260 09:19 24.05.2020
2703 Rain 15 1012 71 5000 8.2 250 08:57 24.05.2020
2704 Rain 15 1012 71 5000 8.2 250 08:39 24.05.2020
2705 Rain 15 1012 71 5000 8.2 250 08:20 24.05.2020
2706 Clouds 16 1012 67 6000 8.2 250 07:49 24.05.2020
2707 Clouds 15 1012 67 6000 8.2 250 07:25 24.05.2020
2708 Rain 14 1012 76 7000 8.2 240 06:57 24.05.2020
2709 Rain 14 1012 76 7000 8.2 240 06:36 24.05.2020
2710 Clouds 14 1012 76 7000 6.2 280 05:20 24.05.2020
2711 Clouds 14 1013 76 6000 8.2 260 03:42 24.05.2020
2712 Clouds 14 1013 76 6000 8.2 260 02:46 24.05.2020
2713 Clouds 14 1014 71 7000 6.2 280 01:54 24.05.2020
2714 Clouds 14 1015 76 7000 6.2 270 00:42 24.05.2020
2715 Clouds 14 1015 76 7000 6.2 270 00:22 24.05.2020
2716 Clouds 15 1015 72 7000 6.2 260 23:46 23.05.2020
2717 Clouds 15 1015 72 7000 6.2 260 23:26 23.05.2020
2718 Clouds 16 1015 67 7000 4.1 260 22:59 23.05.2020
2719 Clouds 16 1015 67 7000 4.1 260 22:39 23.05.2020
2720 Clouds 16 1015 67 7000 4.1 260 22:21 23.05.2020
2721 Clouds 16 1015 67 7000 4.1 260 21:59 23.05.2020
2722 Clouds 17 1015 67 7000 6.2 260 21:41 23.05.2020
2723 Clouds 17 1015 67 7000 6.2 260 21:20 23.05.2020
2724 Clouds 18 1015 63 7000 7.2 280 20:59 23.05.2020
2725 Clouds 18 1015 63 7000 7.2 280 20:39 23.05.2020
2726 Clouds 18 1015 63 7000 7.2 280 20:19 23.05.2020
2727 Clouds 20 1015 49 7000 7.2 270 19:55 23.05.2020
2728 Clouds 20 1015 49 7000 7.2 270 19:37 23.05.2020
2729 Clouds 20 1015 49 7000 7.2 270 19:18 23.05.2020
2730 Clouds 22 1015 43 7000 7.2 270 18:41 23.05.2020
2731 Clouds 22 1015 43 7000 7.2 270 18:22 23.05.2020
2732 Clouds 23 1015 40 6000 8.7 300 17:58 23.05.2020
2733 Clouds 23 1015 40 6000 8.7 300 17:40 23.05.2020
2734 Clouds 23 1015 40 6000 8.7 300 17:20 23.05.2020
2735 Clouds 24 1015 38 7000 6.2 280 16:58 23.05.2020
2736 Clouds 24 1015 38 7000 6.2 280 16:40 23.05.2020
2737 Clouds 24 1015 38 7000 6.2 280 16:20 23.05.2020
2738 Clouds 24 1016 46 6000 6.7 280 15:55 23.05.2020
2739 Clouds 24 1016 46 6000 6.7 280 15:37 23.05.2020
2740 Clouds 24 1016 46 6000 6.7 280 15:19 23.05.2020
2741 Clouds 25 1016 41 6000 6.2 270 14:41 23.05.2020
2742 Clouds 25 1016 41 6000 6.2 270 14:23 23.05.2020
2743 Clouds 24 1016 44 6000 5.1 290 13:42 23.05.2020
2744 Clouds 24 1016 44 6000 5.1 290 13:19 23.05.2020
2745 Clouds 23 1017 46 6000 5.1 270 12:58 23.05.2020
2746 Clouds 23 1017 46 6000 5.1 270 12:40 23.05.2020
2747 Clouds 23 1017 46 6000 5.1 270 12:19 23.05.2020
2748 Clouds 23 1017 46 6000 5.1 270 11:54 23.05.2020
2749 Clouds 22 1017 49 6000 6.7 270 11:36 23.05.2020
2750 Clouds 22 1017 49 6000 6.7 270 11:18 23.05.2020
2751 Clouds 22 1017 49 6000 6.2 300 10:54 23.05.2020
2752 Clouds 22 1017 49 6000 6.2 300 10:36 23.05.2020
2753 Clouds 22 1017 49 6000 6.2 300 10:18 23.05.2020
2754 Clouds 20 1017 60 6000 5.1 290 09:41 23.05.2020
2755 Clouds 20 1017 60 6000 5.1 290 09:23 23.05.2020
2756 Clouds 19 1017 68 7000 4.1 280 08:54 23.05.2020
2757 Clouds 19 1017 68 7000 4.1 280 08:36 23.05.2020
2758 Clouds 19 1017 68 7000 4.1 280 08:18 23.05.2020
2759 Clouds 18 1016 72 6000 5.1 290 07:41 23.05.2020
2760 Clouds 18 1016 72 6000 5.1 290 07:21 23.05.2020
2761 Clouds 17 1016 82 6000 5.1 290 06:42 23.05.2020
2762 Clouds 17 1017 72 7000 4.1 260 05:51 23.05.2020
2763 Clouds 17 1017 72 7000 6.7 250 03:52 23.05.2020
2764 Clouds 17 1017 72 7000 6.7 250 03:23 23.05.2020
2765 Clear 18 1017 68 7000 6.7 250 02:28 23.05.2020
2766 Clear 20 1017 32 7000 6.7 260 01:28 23.05.2020
2767 Clear 21 1014 44 0 7.13 313 00:49 23.05.2020
2768 Clear 22 1017 30 7000 5.1 250 00:30 23.05.2020
2769 Clear 22 1017 30 7000 5.1 250 23:59 22.05.2020
2770 Clear 22 1017 30 7000 5.1 250 23:40 22.05.2020
2771 Clear 22 1017 30 7000 5.1 250 23:20 22.05.2020
2772 Clear 23 1017 33 7000 4.6 240 22:57 22.05.2020
2773 Clear 23 1017 33 7000 4.6 240 22:38 22.05.2020
2774 Clear 23 1017 33 7000 4.6 240 22:19 22.05.2020
2775 Haze 23 1017 33 5000 1.5 300 21:46 22.05.2020
2776 Haze 23 1017 33 5000 1.5 300 21:22 22.05.2020
2777 Haze 23 1017 33 5000 1.5 300 20:55 22.05.2020
2778 Haze 25 1016 44 5000 1.5 300 20:37 22.05.2020
2779 Haze 25 1016 44 5000 1.5 300 20:18 22.05.2020
2780 Clear 27 1016 32 6000 3.1 270 19:44 22.05.2020
2781 Clear 27 1016 32 6000 3.1 270 19:25 22.05.2020
2782 Clear 27 1016 32 6000 3.1 270 19:25 22.05.2020
2783 Clear 29 1015 35 6000 5.1 280 18:54 22.05.2020
2784 Clear 29 1015 35 6000 5.1 280 18:36 22.05.2020
2785 Clear 29 1015 35 6000 5.1 280 18:18 22.05.2020
2786 Haze 31 1015 31 5000 6.2 270 17:39 22.05.2020
2787 Haze 31 1015 31 5000 6.2 270 17:39 22.05.2020
2788 Haze 31 1015 31 5000 6.2 270 17:19 22.05.2020
2789 Clear 33 1015 17 6000 5.1 270 16:56 22.05.2020
2790 Clear 33 1015 17 6000 5.1 270 16:37 22.05.2020
2791 Clear 33 1015 17 6000 5.1 270 16:19 22.05.2020
2792 Clear 33 1015 17 6000 6.7 280 15:42 22.05.2020
2793 Clear 33 1015 17 6000 6.7 280 15:22 22.05.2020
2794 Clear 34 1015 15 6000 6.7 260 14:56 22.05.2020
2795 Clear 34 1015 15 6000 6.7 260 14:38 22.05.2020
2796 Clear 34 1015 15 6000 6.7 260 14:20 22.05.2020
2797 Haze 34 1016 12 5000 6.7 260 13:41 22.05.2020
2798 Haze 34 1016 12 5000 6.7 260 13:19 22.05.2020
2799 Clear 34 1016 11 6000 7.2 280 12:43 22.05.2020
2800 Clear 34 1016 11 6000 7.2 280 12:24 22.05.2020
2801 Clear 34 1016 11 6000 7.2 280 11:47 22.05.2020
2802 Clear 34 1015 9 7000 4.6 250 11:22 22.05.2020
2803 Clear 33 1015 10 7000 4.6 280 10:59 22.05.2020
2804 Clear 33 1015 10 7000 4.6 280 10:39 22.05.2020
2805 Clear 33 1015 10 7000 4.6 280 10:20 22.05.2020
2806 Clear 31 1015 10 6000 4.1 260 09:55 22.05.2020
2807 Clear 31 1015 10 6000 4.1 260 09:36 22.05.2020
2808 Clear 31 1015 11 6000 4.1 260 09:18 22.05.2020
2809 Clear 30 1015 14 6000 3.21 272 08:42 22.05.2020
2810 Clear 30 1015 14 6000 2.22 265 08:19 22.05.2020
2811 Clear 27 1015 22 6000 2.22 265 07:52 22.05.2020
2812 Clear 24 1015 22 6000 1.02 239 07:23 22.05.2020
2813 Clear 23 1014 23 6000 1.02 239 06:53 22.05.2020
2814 Clear 22 1014 33 6000 1.02 239 06:31 22.05.2020
2815 Clear 22 1014 33 6000 0.01 1 05:37 22.05.2020
2816 Clear 22 1014 31 6000 0.84 339 04:50 22.05.2020
2817 Clear 22 1014 29 6000 1.37 327 03:57 22.05.2020
2818 Clear 24 1014 29 6000 1.37 327 03:39 22.05.2020
2819 Clear 24 1014 26 6000 1.91 323 02:59 22.05.2020
2820 Clear 25 1014 22 6000 2.38 294 01:49 22.05.2020
2821 Clear 25 1014 22 6000 2.77 309 01:24 22.05.2020
2822 Clear 25 1014 24 6000 2.77 309 00:34 22.05.2020
2823 Clear 25 1014 24 6000 1.5 310 23:59 21.05.2020
2824 Clear 25 1014 24 6000 1.5 310 23:40 21.05.2020
2825 Clear 25 1014 24 6000 1.5 310 23:22 21.05.2020
2826 Clear 25 1014 24 6000 1.5 310 22:57 21.05.2020
2827 Clear 26 1014 21 6000 2.6 310 22:37 21.05.2020
2828 Clear 26 1014 21 6000 2.6 310 22:19 21.05.2020
2829 Clear 26 1014 20 6000 5.1 320 21:49 21.05.2020
2830 Clear 26 1014 20 6000 5.1 320 21:27 21.05.2020
2831 Clear 28 1014 20 6000 5.1 320 20:59 21.05.2020
2832 Clear 28 1013 20 6000 5.7 310 20:40 21.05.2020
2833 Clear 28 1013 20 6000 5.7 310 20:22 21.05.2020
2834 Haze 31 1013 16 5000 5.1 320 19:40 21.05.2020
2835 Haze 31 1013 16 5000 5.1 320 19:20 21.05.2020
2836 Haze 33 1012 12 4000 7.2 320 18:59 21.05.2020
2837 Haze 33 1012 12 4000 7.2 320 18:37 21.05.2020
2838 Haze 33 1012 10 4000 7.2 320 18:19 21.05.2020
2839 Haze 35 1012 9 4000 6.2 320 17:56 21.05.2020
2840 Haze 35 1012 9 4000 6.2 320 17:38 21.05.2020
2841 Haze 35 1012 9 4000 6.2 320 17:19 21.05.2020
2842 Haze 36 1012 6 5000 6.7 290 16:44 21.05.2020
2843 Haze 36 1012 6 5000 6.7 290 16:22 21.05.2020
2844 Clear 36 1012 7 6000 7.2 300 15:44 21.05.2020
2845 Clear 36 1012 7 6000 7.2 300 15:24 21.05.2020
2846 Clear 36 1012 6 6000 7.2 270 14:43 21.05.2020
2847 Clear 36 1012 6 6000 7.2 270 14:25 21.05.2020
2848 Clear 36 1013 9 7000 4.1 250 14:00 21.05.2020
2849 Clear 36 1013 9 7000 4.1 250 13:38 21.05.2020
2850 Clear 36 1013 9 7000 4.1 250 13:20 21.05.2020
2851 Clear 36 1013 9 7000 4.6 240 12:55 21.05.2020
2852 Clear 36 1013 9 7000 4.6 240 12:36 21.05.2020
2853 Clear 36 1013 9 7000 4.6 240 12:18 21.05.2020
2854 Clear 36 1014 6 7000 3.6 240 11:40 21.05.2020
2855 Clear 36 1014 6 7000 3.6 240 11:22 21.05.2020
2856 Clear 35 1014 10 7000 2.6 210 10:55 21.05.2020
2857 Clear 35 1014 10 7000 2.6 210 10:37 21.05.2020
2858 Clear 35 1014 10 7000 2.6 210 10:18 21.05.2020
2859 Clear 33 1013 11 6000 1 150 09:42 21.05.2020
2860 Clear 33 1013 11 6000 1 150 09:24 21.05.2020
2861 Clear 32 1013 18 6000 2.1 130 08:58 21.05.2020
2862 Clear 32 1013 18 6000 2.1 130 08:40 21.05.2020
2863 Clear 32 1013 18 6000 2.1 130 08:22 21.05.2020
2864 Haze 28 1012 24 5000 4.5 140 07:43 21.05.2020
2865 Haze 28 1012 24 5000 4.62 132 07:24 21.05.2020
2866 Haze 23 1012 25 4500 1.5 240 06:45 21.05.2020
2867 Haze 22 1012 33 4500 3.48 126 05:52 21.05.2020
2868 Clear 25 1009 20 0 3.02 123 04:53 21.05.2020
2869 Clear 22 1012 29 6000 1.77 84 03:21 21.05.2020
2870 Clear 22 1012 25 6000 1.77 84 02:37 21.05.2020
2871 Clear 22 1012 25 6000 2.68 79 02:18 21.05.2020
2872 Clear 25 1012 36 6000 2.68 79 01:42 21.05.2020
2873 Clear 25 1012 36 6000 2.41 57 01:18 21.05.2020
2874 Clear 26 1012 31 6000 2.41 57 00:44 21.05.2020
2875 Clear 26 1012 31 6000 3.38 18 00:21 21.05.2020
2876 Clear 26 1013 31 6000 3.38 18 23:41 20.05.2020
2877 Clear 26 1013 31 6000 4.84 352 23:20 20.05.2020
2878 Clear 27 1013 21 6000 4.84 352 22:55 20.05.2020
2879 Clear 27 1013 21 6000 4.84 352 22:37 20.05.2020
2880 Clear 27 1013 21 6000 5.72 342 22:19 20.05.2020
2881 Haze 29 1013 18 5000 3.1 350 21:40 20.05.2020
2882 Haze 29 1013 18 5000 3.1 350 21:21 20.05.2020
2883 Haze 29 1013 17 5000 1.5 340 20:44 20.05.2020
2884 Haze 29 1013 17 5000 1.5 340 20:24 20.05.2020
2885 Haze 29 1013 17 5000 1.5 340 20:24 20.05.2020
2886 Haze 31 1013 16 5000 4.1 330 19:57 20.05.2020
2887 Haze 31 1013 16 5000 4.1 330 19:38 20.05.2020
2888 Haze 31 1013 16 5000 4.1 330 19:19 20.05.2020
2889 Haze 34 1012 12 4000 4.1 320 18:43 20.05.2020
2890 Haze 34 1012 10 4000 4.1 320 18:24 20.05.2020
2891 Dust 35 1012 10 3000 5.1 300 17:43 20.05.2020
2892 Dust 35 1012 9 3000 5.1 300 17:24 20.05.2020
2893 Dust 35 1012 9 3000 5.1 300 17:24 20.05.2020
2894 Dust 36 1012 9 4000 5.7 300 16:58 20.05.2020
2895 Dust 36 1012 9 4000 5.7 300 16:39 20.05.2020
2896 Dust 36 1012 9 4000 5.7 300 16:21 20.05.2020
2897 Dust 36 1013 9 4000 3.6 330 15:55 20.05.2020
2898 Dust 36 1013 9 4000 3.6 330 15:36 20.05.2020
2899 Dust 36 1013 9 4000 3.6 330 15:18 20.05.2020
2900 Dust 36 1013 13 4000 4.1 260 14:38 20.05.2020
2901 Dust 36 1013 13 4000 4.1 260 14:19 20.05.2020
2902 Dust 36 1014 12 4000 3.1 310 13:40 20.05.2020
2903 Dust 36 1014 12 4000 3.1 310 13:40 20.05.2020
2904 Dust 36 1014 12 4000 3.1 310 13:19 20.05.2020
2905 Dust 36 1014 13 5000 2.1 350 12:43 20.05.2020
2906 Dust 36 1014 13 5000 2.1 350 12:21 20.05.2020
2907 Dust 35 1015 11 5000 2.1 160 11:57 20.05.2020
2908 Dust 35 1015 11 5000 2.1 160 11:36 20.05.2020
2909 Dust 35 1015 11 5000 2.1 160 11:18 20.05.2020
2910 Dust 34 1015 16 4000 2.1 90 10:42 20.05.2020
2911 Dust 34 1015 16 4000 2.1 90 10:19 20.05.2020
2912 Dust 33 1015 17 4000 2.1 80 09:44 20.05.2020
2913 Dust 33 1015 17 4000 2.1 80 09:21 20.05.2020
2914 Dust 32 1015 17 5000 5.7 50 08:42 20.05.2020
2915 Dust 29 1015 26 5000 5.66 101 08:20 20.05.2020
2916 Dust 27 1015 26 5000 5.66 101 07:55 20.05.2020
2917 Dust 27 1015 26 5000 5.66 101 07:37 20.05.2020
2918 Dust 27 1015 26 5000 4.64 82 07:19 20.05.2020
2919 Dust 23 1014 35 5000 2.11 86 06:28 20.05.2020
2920 Dust 22 1014 35 5000 1.86 79 05:19 20.05.2020
2921 Dust 23 1014 33 5000 1.5 59 04:26 20.05.2020
2922 Dust 23 1014 29 5000 1.5 59 03:38 20.05.2020
2923 Dust 26 1015 22 4000 1.24 23 01:58 20.05.2020
2924 Dust 27 1015 20 4000 2.04 33 01:26 20.05.2020
2925 Dust 27 1015 20 4000 2.04 33 00:44 20.05.2020
2926 Dust 27 1015 20 4000 2.71 59 00:23 20.05.2020
2927 Dust 27 1016 20 4000 2.71 59 23:41 19.05.2020
2928 Dust 27 1016 20 4000 4.18 65 23:19 19.05.2020
2929 Dust 28 1016 24 4000 4.18 65 22:56 19.05.2020
2930 Dust 28 1016 24 4000 4.18 65 22:38 19.05.2020
2931 Dust 28 1016 24 4000 4.7 67 22:18 19.05.2020
2932 Dust 29 1015 23 4000 1 20 21:56 19.05.2020
2933 Dust 29 1015 23 4000 1 20 21:37 19.05.2020
2934 Dust 29 1015 23 4000 1 20 21:19 19.05.2020
2935 Dust 30 1015 19 4000 3.6 330 20:57 19.05.2020
2936 Dust 31 1015 19 4000 3.6 330 20:38 19.05.2020
2937 Dust 31 1015 19 4000 3.6 330 20:20 19.05.2020
2938 Dust 34 1014 13 4000 2.1 40 19:40 19.05.2020
2939 Dust 34 1014 13 4000 2.1 40 19:21 19.05.2020
2940 Dust 35 1014 11 4000 2.1 40 18:58 19.05.2020
2941 Dust 35 1014 11 4000 2.1 40 18:40 19.05.2020
2942 Dust 35 1014 11 4000 2.1 40 18:40 19.05.2020
2943 Dust 35 1014 10 4000 2.1 40 18:20 19.05.2020
2944 Dust 36 1014 10 4000 2.1 40 17:43 19.05.2020
2945 Dust 36 1014 9 4000 2.1 40 17:21 19.05.2020
2946 Dust 37 1014 9 4000 2.1 30 16:59 19.05.2020
2947 Dust 37 1014 9 4000 2.1 30 16:59 19.05.2020
2948 Dust 37 1014 9 4000 2.1 30 16:38 19.05.2020
2949 Dust 37 1014 9 4000 2.1 30 16:19 19.05.2020
2950 Dust 38 1015 8 4000 3.1 70 15:47 19.05.2020
2951 Dust 38 1015 8 4000 3.1 70 15:22 19.05.2020
2952 Dust 38 1015 8 4000 3.1 80 14:58 19.05.2020
2953 Dust 38 1015 8 4000 3.1 80 14:39 19.05.2020
2954 Dust 38 1015 8 4000 3.1 80 14:20 19.05.2020
2955 Dust 38 1016 12 4000 3.1 70 13:58 19.05.2020
2956 Dust 38 1016 12 4000 3.1 70 13:39 19.05.2020
2957 Dust 38 1016 12 4000 3.1 70 13:20 19.05.2020
2958 Dust 37 1017 12 4000 3.1 70 12:57 19.05.2020
2959 Dust 37 1017 12 4000 3.1 70 12:38 19.05.2020
2960 Dust 37 1017 12 4000 3.1 70 12:20 19.05.2020
2961 Dust 36 1017 11 4000 6.51 64 11:55 19.05.2020
2962 Dust 36 1017 11 4000 6.51 64 11:37 19.05.2020
2963 Dust 36 1017 11 4000 6.86 69 11:18 19.05.2020
2964 Clear 34 1017 15 7000 6.86 69 10:43 19.05.2020
2965 Clear 34 1017 15 7000 7.63 76 10:23 19.05.2020
2966 Haze 33 1017 14 5000 3.6 80 09:56 19.05.2020
2967 Haze 33 1017 14 5000 3.6 80 09:38 19.05.2020
2968 Haze 33 1017 14 5000 3.6 80 09:20 19.05.2020
2969 Haze 32 1017 13 5000 2.6 80 08:42 19.05.2020
2970 Haze 32 1017 13 5000 2.6 80 08:23 19.05.2020
2971 Haze 31 1017 16 5000 2.6 80 07:43 19.05.2020
2972 Haze 31 1017 16 5000 2.6 80 07:25 19.05.2020
2973 Haze 26 1016 27 4000 9.52 81 06:45 19.05.2020
2974 Haze 26 1016 27 4000 5.15 75 06:24 19.05.2020
2975 Haze 24 1016 25 4000 5.15 75 05:40 19.05.2020
2976 Haze 25 1015 22 5000 4 70 04:55 19.05.2020
2977 Haze 25 1015 22 5000 4 70 04:55 19.05.2020
2978 Haze 25 1015 22 5000 3.34 60 04:18 19.05.2020
2979 Haze 27 1015 19 5000 2.6 60 01:30 19.05.2020
2980 Haze 28 1015 18 5000 2.6 80 00:43 19.05.2020
2981 Haze 28 1015 18 5000 2.6 80 00:22 19.05.2020
2982 Haze 28 1015 21 5000 1.5 80 23:56 18.05.2020
2983 Haze 28 1015 21 5000 1.5 80 23:38 18.05.2020
2984 Haze 28 1015 21 5000 1.5 80 23:19 18.05.2020
2985 Haze 28 1015 18 4000 1.5 90 22:41 18.05.2020
2986 Haze 28 1015 18 4000 1.5 90 22:22 18.05.2020
2987 Haze 29 1015 18 4000 1.5 80 21:56 18.05.2020
2988 Haze 29 1015 18 4000 1.5 80 21:38 18.05.2020
2989 Haze 29 1015 18 4000 1.5 80 21:18 18.05.2020
2990 Haze 31 1014 15 4000 1.5 70 20:43 18.05.2020
2991 Haze 31 1014 15 4000 1.5 70 20:22 18.05.2020
2992 Haze 31 1014 15 4000 1.5 70 19:59 18.05.2020
2993 Haze 33 1014 8 4000 4.1 30 19:40 18.05.2020
2994 Haze 35 1013 12 4000 2.1 120 19:19 18.05.2020
2995 Haze 35 1013 12 4000 2.1 120 18:46 18.05.2020
2996 Haze 35 1013 12 4000 2.1 120 18:25 18.05.2020
2997 Haze 36 1013 10 4000 2.1 50 17:55 18.05.2020
2998 Haze 36 1013 10 4000 2.1 50 17:36 18.05.2020
2999 Haze 36 1013 9 4000 2.1 50 17:18 18.05.2020
3000 Haze 36 1013 9 4000 2.1 50 17:18 18.05.2020
3001 Haze 38 1014 10 5000 1.5 90 16:43 18.05.2020
3002 Haze 38 1014 10 5000 1.5 90 16:21 18.05.2020
3003 Haze 37 1014 10 5000 2.1 60 15:58 18.05.2020
3004 Haze 37 1014 10 5000 2.1 60 15:39 18.05.2020
3005 Haze 37 1014 10 5000 2.1 60 15:21 18.05.2020
3006 Clear 37 1015 11 6000 3.1 10 14:57 18.05.2020
3007 Clear 37 1015 11 6000 3.1 10 14:38 18.05.2020
3008 Clear 37 1015 11 6000 3.1 10 14:20 18.05.2020
3009 Clear 37 1015 10 6000 3.1 20 13:41 18.05.2020
3010 Clear 37 1015 10 6000 3.1 20 13:21 18.05.2020
3011 Clear 37 1015 10 6000 3.1 20 13:21 18.05.2020
3012 Clear 36 1016 11 6000 2.1 70 12:58 18.05.2020
3013 Clear 36 1016 11 6000 2.1 70 12:40 18.05.2020
3014 Clear 36 1016 12 6000 2.1 70 12:20 18.05.2020
3015 Clear 35 1016 12 6000 3.6 70 11:59 18.05.2020
3016 Clear 35 1016 12 6000 3.6 70 11:41 18.05.2020
3017 Clear 35 1016 12 6000 3.6 70 11:22 18.05.2020
3018 Clear 34 1017 13 6000 3.1 90 10:46 18.05.2020
3019 Clear 34 1017 13 6000 3.1 90 10:24 18.05.2020
3020 Clear 32 1017 13 6000 3.1 100 09:46 18.05.2020
3021 Clear 32 1017 13 6000 3.1 100 09:28 18.05.2020
3022 Clear 31 1016 14 6000 2.1 80 08:59 18.05.2020
3023 Clear 31 1016 14 6000 2.1 80 08:40 18.05.2020
3024 Clear 31 1016 14 6000 2.1 80 08:21 18.05.2020
3025 Clear 28 1016 23 6000 8.05 69 07:45 18.05.2020
3026 Clear 28 1016 23 6000 7.28 63 07:24 18.05.2020
3027 Clear 24 1016 31 6000 7.28 63 06:48 18.05.2020
3028 Clear 24 1016 31 6000 4.6 61 06:23 18.05.2020
3029 Haze 24 1016 27 5000 4.6 61 05:44 18.05.2020
3030 Clear 26 1015 27 6000 1 90 03:53 18.05.2020
3031 Clouds 26 1015 27 6000 1 90 03:22 18.05.2020
3032 Haze 27 1016 26 5000 6.13 55 01:56 18.05.2020
3033 Haze 28 1016 28 5000 8.4 46 00:49 18.05.2020
3034 Haze 28 1016 28 5000 9.58 44 00:19 18.05.2020
3035 Haze 28 1016 26 5000 1 60 23:56 17.05.2020
3036 Haze 28 1016 26 5000 1 60 23:38 17.05.2020
3037 Haze 28 1016 26 5000 1 60 23:19 17.05.2020
3038 Haze 29 1016 26 5000 1 60 22:54 17.05.2020
3039 Haze 29 1016 28 5000 10.27 41 22:36 17.05.2020
3040 Haze 29 1016 28 5000 11.27 39 22:18 17.05.2020
3041 Haze 30 1016 28 5000 1.5 40 21:41 17.05.2020
3042 Haze 30 1016 28 5000 1.5 40 21:20 17.05.2020
3043 Haze 31 1015 30 5000 1 90 20:57 17.05.2020
3044 Haze 31 1015 30 5000 1 90 20:39 17.05.2020
3045 Haze 31 1015 30 5000 1 90 20:19 17.05.2020
3046 Haze 34 1014 12 5000 1 80 19:47 17.05.2020
3047 Haze 34 1014 12 5000 1 80 19:28 17.05.2020
3048 Haze 35 1014 11 5000 1 80 18:59 17.05.2020
3049 Haze 35 1014 11 5000 1 80 18:59 17.05.2020
3050 Haze 35 1014 11 5000 1 80 18:39 17.05.2020
3051 Haze 35 1014 11 5000 1 80 18:21 17.05.2020
3052 Haze 36 1014 15 5000 1 80 17:42 17.05.2020
3053 Haze 36 1014 15 5000 1 80 17:24 17.05.2020
3054 Clouds 37 1015 12 6000 2.6 90 16:59 17.05.2020
3055 Clouds 37 1015 12 6000 2.6 90 16:39 17.05.2020
3056 Clouds 37 1015 12 6000 2.6 90 16:20 17.05.2020
3057 Clouds 37 1015 12 6000 2.6 90 16:20 17.05.2020
3058 Clouds 37 1015 12 6000 2.6 90 15:56 17.05.2020
3059 Clouds 37 1015 12 6000 4.1 80 15:37 17.05.2020
3060 Clouds 37 1015 12 6000 4.1 80 15:18 17.05.2020
3061 Haze 37 1016 11 5000 5.1 50 14:42 17.05.2020
3062 Haze 37 1016 11 5000 5.1 50 14:24 17.05.2020
3063 Haze 37 1016 11 5000 5.1 50 14:24 17.05.2020
3064 Haze 37 1017 12 5000 4.6 40 13:57 17.05.2020
3065 Haze 37 1017 12 5000 4.6 40 13:37 17.05.2020
3066 Haze 37 1017 12 5000 4.6 40 13:18 17.05.2020
3067 Clouds 22 1016 35 10000 3.46 88 04:26 17.05.2020
3068 Clouds 24 1016 33 10000 4.27 62 02:29 17.05.2020
3069 Clouds 24 1015 41 10000 5.49 49 01:58 17.05.2020
3070 Clouds 24 1015 41 10000 5.49 49 01:38 17.05.2020
3071 Clouds 25 1015 36 10000 6.28 50 00:40 17.05.2020
3072 Clouds 25 1015 36 10000 6.85 55 00:19 17.05.2020
3073 Clouds 25 1015 34 10000 6.85 55 23:40 16.05.2020
3074 Clouds 25 1015 34 10000 6.63 51 23:20 16.05.2020
3075 Clouds 27 1015 21 10000 6.63 51 22:58 16.05.2020
3076 Clouds 25 1015 17 6000 5.1 360 22:40 16.05.2020
3077 Clouds 27 1015 21 10000 5.98 54 22:20 16.05.2020
3078 Clouds 28 1015 21 10000 5.98 54 21:46 16.05.2020
3079 Clouds 28 1015 21 10000 7.1 55 21:28 16.05.2020
3080 Clouds 29 1015 20 10000 7.1 55 20:59 16.05.2020
3081 Clouds 29 1015 20 10000 7.1 55 20:41 16.05.2020
3082 Clouds 29 1015 20 10000 6.75 58 20:22 16.05.2020
3083 Clouds 30 1015 20 10000 6.75 58 19:58 16.05.2020
3084 Clouds 30 1014 17 6000 4.1 360 19:40 16.05.2020
3085 Clouds 32 1014 13 7000 2.6 30 19:22 16.05.2020
3086 Clouds 33 1014 13 7000 2.6 30 18:44 16.05.2020
3087 Clouds 33 1014 13 7000 2.6 30 18:25 16.05.2020
3088 Clouds 35 1014 12 6000 2.6 30 17:58 16.05.2020
3089 Clouds 35 1014 12 6000 2.6 30 17:40 16.05.2020
3090 Clouds 35 1014 12 6000 2.6 30 17:20 16.05.2020
3091 Clouds 36 1015 9 7000 3.1 60 16:42 16.05.2020
3092 Clouds 36 1015 8 7000 3.1 60 16:23 16.05.2020
3093 Clouds 36 1015 8 7000 3.1 60 16:23 16.05.2020
3094 Clouds 37 1015 13 6000 2.6 60 15:58 16.05.2020
3095 Clouds 37 1015 13 6000 2.6 60 15:40 16.05.2020
3096 Clouds 37 1015 13 6000 2.6 60 15:20 16.05.2020
3097 Clouds 36 1015 13 7000 2.1 320 14:55 16.05.2020
3098 Clouds 36 1015 13 7000 2.1 320 14:37 16.05.2020
3099 Clouds 36 1015 13 7000 2.1 320 14:19 16.05.2020
3100 Clouds 35 1016 12 10000 2.6 330 13:42 16.05.2020
3101 Clouds 35 1016 12 10000 2.6 330 13:23 16.05.2020
3102 Clouds 34 1017 13 10000 2.1 60 12:56 16.05.2020
3103 Clouds 34 1017 13 10000 2.1 60 12:38 16.05.2020
3104 Clouds 34 1017 13 10000 2.1 60 12:18 16.05.2020
3105 Clouds 34 1017 12 10000 4.1 50 11:41 16.05.2020
3106 Clouds 34 1017 12 10000 4.1 50 11:41 16.05.2020
3107 Clouds 34 1017 12 10000 4.1 50 11:22 16.05.2020
3108 Clouds 32 1017 14 10000 3.6 120 10:57 16.05.2020
3109 Clouds 32 1017 14 10000 3.6 120 10:38 16.05.2020
3110 Clouds 32 1017 14 10000 3.6 120 10:19 16.05.2020
3111 Clouds 31 1018 14 10000 3.1 100 09:46 16.05.2020
3112 Clouds 31 1018 14 10000 3.1 100 09:28 16.05.2020
3113 Clouds 30 1018 17 10000 3.1 100 08:46 16.05.2020
3114 Clouds 30 1018 17 10000 3.1 100 08:24 16.05.2020
3115 Clouds 29 1017 20 10000 4.1 100 07:59 16.05.2020
3116 Clouds 28 1017 20 10000 4.1 100 07:40 16.05.2020
3117 Clouds 28 1017 20 10000 4.1 100 07:21 16.05.2020
3118 Clouds 23 1016 33 7000 5.8 99 06:47 16.05.2020
3119 Clouds 23 1016 33 7000 4.15 101 06:19 16.05.2020
3120 Clouds 21 1016 37 7000 4.15 101 05:42 16.05.2020
3121 Clouds 21 1016 37 7000 4.33 93 05:20 16.05.2020
3122 Clouds 23 1015 23 6000 4.1 60 03:27 16.05.2020
3123 Clouds 23 1015 23 6000 4.1 60 02:42 16.05.2020
3124 Clouds 24 1016 31 10000 4.43 103 02:19 16.05.2020
3125 Clouds 24 1016 31 10000 4.9 98 01:40 16.05.2020
3126 Clouds 24 1016 31 10000 5.58 85 00:58 16.05.2020
3127 Clouds 24 1016 31 10000 5.58 85 00:40 16.05.2020
3128 Clouds 25 1016 31 10000 5.48 70 00:20 16.05.2020
3129 Clouds 25 1015 29 10000 5.48 70 23:40 15.05.2020
3130 Clouds 25 1015 29 10000 5.58 61 23:19 15.05.2020
3131 Clouds 26 1015 26 10000 5.58 61 22:42 15.05.2020
3132 Clouds 26 1015 26 10000 5.59 66 22:22 15.05.2020
3133 Clouds 27 1015 26 10000 5.59 66 21:58 15.05.2020
3134 Clouds 27 1015 26 10000 5.59 66 21:39 15.05.2020
3135 Clouds 27 1015 26 10000 5.91 63 21:21 15.05.2020
3136 Clouds 28 1014 24 10000 7.09 62 20:56 15.05.2020
3137 Clouds 28 1014 24 10000 7.09 62 20:38 15.05.2020
3138 Clouds 28 1014 24 10000 6.55 59 20:20 15.05.2020
3139 Clouds 31 1013 14 8000 2.6 40 19:44 15.05.2020
3140 Clouds 31 1013 14 8000 2.6 40 19:25 15.05.2020
3141 Clouds 33 1013 12 8000 2.6 20 18:59 15.05.2020
3142 Clouds 32 1013 12 8000 2.6 20 18:39 15.05.2020
3143 Clouds 33 1013 10 8000 2.6 20 18:21 15.05.2020
3144 Clouds 34 1013 11 8000 2.6 20 17:39 15.05.2020
3145 Clouds 34 1013 11 8000 2.6 20 17:39 15.05.2020
3146 Clouds 34 1013 9 8000 2.6 20 17:19 15.05.2020
3147 Clouds 34 1014 13 8000 4.1 30 16:57 15.05.2020
3148 Clouds 34 1014 13 8000 4.1 30 16:38 15.05.2020
3149 Clouds 34 1014 13 8000 4.1 30 16:19 15.05.2020
3150 Clouds 36 1014 9 8000 2.1 80 15:42 15.05.2020
3151 Clouds 36 1014 9 8000 2.1 80 15:23 15.05.2020
3152 Clouds 36 1014 9 8000 2.1 80 14:59 15.05.2020
3153 Clouds 36 1015 10 8000 2.6 90 14:41 15.05.2020
3154 Clouds 36 1015 10 8000 2.6 90 14:23 15.05.2020
3155 Clouds 36 1015 8 8000 3.6 70 13:58 15.05.2020
3156 Clouds 36 1015 8 8000 3.6 70 13:39 15.05.2020
3157 Clouds 35 1015 8 8000 3.6 70 13:19 15.05.2020
3158 Clouds 35 1015 10 8000 4.1 150 12:39 15.05.2020
3159 Clouds 35 1015 10 8000 4.1 150 12:18 15.05.2020
3160 Clouds 34 1015 10 8000 4.1 90 11:56 15.05.2020
3161 Clouds 34 1015 10 8000 4.1 90 11:38 15.05.2020
3162 Clouds 34 1015 10 8000 4.1 90 11:19 15.05.2020
3163 Haze 32 1016 14 5000 5.1 100 10:57 15.05.2020
3164 Haze 32 1016 14 5000 5.1 100 10:38 15.05.2020
3165 Haze 32 1016 14 5000 5.1 100 10:38 15.05.2020
3166 Haze 32 1016 14 5000 5.1 100 10:20 15.05.2020
3167 Haze 31 1017 15 5000 4.6 90 09:57 15.05.2020
3168 Haze 31 1017 15 5000 4.6 90 09:36 15.05.2020
3169 Haze 31 1017 15 5000 4.6 90 09:18 15.05.2020
3170 Haze 30 1016 12 5000 8.39 95 08:38 15.05.2020
3171 Haze 30 1016 13 5000 8.61 93 08:20 15.05.2020
3172 Haze 30 1015 15 5000 7.2 80 07:59 15.05.2020
3173 Clouds 31 1011 13 0 8.61 93 07:40 15.05.2020
3174 Clouds 30 1012 13 0 7.79 82 07:21 15.05.2020
3175 Haze 22 1014 37 5000 7.79 82 06:33 15.05.2020
3176 Haze 22 1014 37 5000 6.13 66 05:38 15.05.2020
3177 Haze 24 1014 31 5000 5.9 56 03:52 15.05.2020
3178 Haze 24 1014 31 5000 5.9 56 03:31 15.05.2020
3179 Haze 25 1015 38 5000 7.12 59 01:37 15.05.2020
3180 Haze 25 1015 38 5000 6.42 69 01:19 15.05.2020
3181 Haze 24 1015 38 5000 6.42 69 00:44 15.05.2020
3182 Haze 24 1015 38 5000 5.06 48 00:23 15.05.2020
3183 Haze 25 1015 36 5000 5.06 48 23:43 14.05.2020
3184 Haze 25 1015 36 5000 5.08 22 23:20 14.05.2020
3185 Haze 26 1015 26 5000 5.08 22 22:55 14.05.2020
3186 Haze 26 1015 26 5000 5.08 22 22:37 14.05.2020
3187 Haze 26 1015 26 5000 4.2 14 22:19 14.05.2020
3188 Haze 28 1015 24 5000 4.2 14 21:55 14.05.2020
3189 Haze 28 1015 24 5000 4.2 14 21:37 14.05.2020
3190 Haze 28 1015 24 5000 5.47 0 21:18 14.05.2020
3191 Haze 29 1015 25 5000 2.1 270 20:42 14.05.2020
3192 Haze 29 1015 25 5000 2.1 270 20:20 14.05.2020
3193 Haze 29 1015 25 5000 2.1 270 20:20 14.05.2020
3194 Haze 31 1014 18 5000 3.1 290 19:58 14.05.2020
3195 Haze 31 1014 18 5000 3.1 290 19:39 14.05.2020
3196 Haze 31 1014 18 5000 3.1 290 19:20 14.05.2020
3197 Haze 32 1014 18 5000 5.1 300 18:58 14.05.2020
3198 Haze 32 1014 18 5000 5.1 300 18:58 14.05.2020
3199 Haze 32 1014 18 5000 5.1 300 18:38 14.05.2020
3200 Haze 32 1014 18 5000 5.1 300 18:20 14.05.2020
3201 Haze 34 1014 16 4000 5.1 300 17:58 14.05.2020
3202 Haze 34 1014 16 4000 5.1 300 17:37 14.05.2020
3203 Haze 34 1014 16 4000 5.1 300 17:19 14.05.2020
3204 Haze 36 1014 8 5000 2.1 100 16:57 14.05.2020
3205 Haze 36 1014 8 5000 2.1 100 16:38 14.05.2020
3206 Haze 36 1014 8 5000 2.1 100 16:19 14.05.2020
3207 Haze 36 1014 8 5000 2.1 90 15:56 14.05.2020
3208 Haze 36 1014 8 5000 2.1 90 15:37 14.05.2020
3209 Haze 36 1014 8 5000 2.1 90 15:18 14.05.2020
3210 Haze 36 1014 8 5000 2.1 350 14:40 14.05.2020
3211 Haze 36 1014 8 5000 2.1 350 14:20 14.05.2020
3212 Haze 36 1014 8 5000 2.1 350 13:59 14.05.2020
3213 Haze 35 1015 11 5000 3.1 50 13:41 14.05.2020
3214 Haze 35 1015 11 5000 3.1 50 13:20 14.05.2020
3215 Haze 35 1015 11 5000 3.1 50 12:59 14.05.2020
3216 Haze 35 1015 11 5000 3.1 50 12:39 14.05.2020
3217 Haze 35 1015 11 5000 3.1 50 12:39 14.05.2020
3218 Haze 35 1015 11 5000 3.1 50 12:20 14.05.2020
3219 Haze 34 1015 14 5000 2.1 120 11:58 14.05.2020
3220 Haze 34 1015 14 5000 2.1 120 11:39 14.05.2020
3221 Haze 34 1015 14 5000 2.1 120 11:20 14.05.2020
3222 Haze 33 1016 14 5000 3.1 70 10:56 14.05.2020
3223 Haze 33 1016 14 5000 3.1 70 10:37 14.05.2020
3224 Haze 33 1016 14 5000 3.1 70 10:37 14.05.2020
3225 Haze 33 1016 14 5000 3.1 70 10:19 14.05.2020
3226 Haze 31 1016 18 5000 3.1 70 09:42 14.05.2020
3227 Haze 31 1016 18 5000 3.1 70 09:23 14.05.2020
3228 Haze 29 1016 21 5000 1 170 08:42 14.05.2020
3229 Haze 29 1016 21 5000 1 170 08:21 14.05.2020
3230 Clouds 30 1013 13 0 0.99 51 07:47 14.05.2020
3231 Haze 21 1016 43 4000 2.32 331 07:25 14.05.2020
3232 Haze 21 1016 43 4000 2.32 331 06:55 14.05.2020
3233 Haze 21 1016 43 4000 2.32 331 06:34 14.05.2020
3234 Haze 19 1015 43 4000 3.06 328 05:58 14.05.2020
3235 Haze 19 1015 43 4000 3.06 328 05:36 14.05.2020
3236 Clouds 22 1015 43 6000 3.24 336 04:42 14.05.2020
3237 Clouds 20 1015 43 6000 3.39 339 03:32 14.05.2020
3238 Clouds 21 1015 40 6000 3.61 338 02:43 14.05.2020
3239 Clouds 21 1015 40 6000 3.36 348 02:20 14.05.2020
3240 Clouds 22 1016 38 6000 1.5 220 01:44 14.05.2020
3241 Haze 21 1015 32 5000 3.57 355 00:51 14.05.2020
3242 Haze 21 1015 32 5000 3.57 355 00:51 14.05.2020
3243 Clouds 23 1017 36 6000 1.5 180 00:26 14.05.2020
3244 Clouds 23 1017 36 6000 1.5 180 23:45 13.05.2020
3245 Clouds 23 1017 36 6000 1.5 180 23:45 13.05.2020
3246 Clouds 23 1017 36 6000 1.5 180 23:23 13.05.2020
3247 Clouds 25 1017 31 6000 5.17 351 22:59 13.05.2020
3248 Clouds 25 1017 31 6000 5.17 351 22:40 13.05.2020
3249 Clouds 25 1017 31 6000 5.55 346 22:21 13.05.2020
3250 Clouds 25 1017 31 6000 5.55 346 22:21 13.05.2020
3251 Haze 26 1017 28 5000 1 220 21:57 13.05.2020
3252 Haze 26 1017 28 5000 1 220 21:39 13.05.2020
3253 Haze 26 1017 28 5000 1 220 21:19 13.05.2020
3254 Haze 27 1017 26 5000 1 220 20:42 13.05.2020
3255 Haze 27 1017 26 5000 1 220 20:23 13.05.2020
3256 -273 0 0 0 0 0 19:59 13.05.2020
3257 Haze 27 1017 23 5000 2.6 290 19:40 13.05.2020
3258 Haze 27 1017 23 5000 2.6 290 19:22 13.05.2020
3259 Haze 30 1017 19 5000 2.6 290 18:43 13.05.2020
3260 Haze 30 1017 19 5000 2.6 290 18:22 13.05.2020
3261 -273 0 0 0 0 0 18:21 13.05.2020
3262 Haze 30 1017 19 5000 2.6 290 18:20 13.05.2020
3263 Haze 32 1017 15 4000 4.6 320 17:39 13.05.2020
3264 Haze 32 1017 15 4000 4.6 320 17:20 13.05.2020
3265 Haze 34 1017 14 5000 4.1 320 16:56 13.05.2020
3266 Haze 34 1017 14 5000 4.1 320 16:38 13.05.2020
3267 Haze 34 1017 14 5000 4.1 320 16:18 13.05.2020
3268 Haze 34 1017 13 5000 2.1 10 15:42 13.05.2020
3269 Haze 34 1017 13 5000 2.1 10 15:42 13.05.2020
3270 Haze 34 1017 13 5000 2.1 10 15:20 13.05.2020
3271 Haze 34 1017 15 5000 3.6 310 14:57 13.05.2020
3272 Haze 34 1017 15 5000 3.6 310 14:39 13.05.2020
3273 Haze 34 1017 15 5000 3.6 310 14:21 13.05.2020
3274 Clouds 33 1018 15 6000 1.5 30 13:57 13.05.2020
3275 Clouds 33 1018 15 6000 1.5 30 13:39 13.05.2020
3276 Clouds 33 1018 15 6000 1.5 30 13:20 13.05.2020
3277 Clouds 33 1014 11 0 1.53 303 12:54 13.05.2020
3278 Clouds 33 1014 11 0 1.53 303 12:36 13.05.2020
3279 Clouds 33 1014 11 0 0.94 213 12:18 13.05.2020
3280 Clouds 33 1014 11 0 0.94 213 11:54 13.05.2020
3281 Clouds 33 1014 11 0 0.94 213 11:36 13.05.2020
3282 Clouds 32 1016 12 0 2.31 160 11:18 13.05.2020
3283 Clouds 32 1016 12 0 2.31 160 10:54 13.05.2020
3284 Clouds 32 1016 12 0 2.31 160 10:36 13.05.2020
3285 Clear 31 1016 13 0 3.38 144 10:18 13.05.2020
3286 Clear 31 1016 13 0 3.38 144 09:40 13.05.2020
3287 Clear 30 1017 14 0 4.17 132 09:22 13.05.2020
3288 Clear 30 1017 14 0 4.17 132 08:43 13.05.2020
3289 Clear 28 1016 16 0 4.2 116 08:22 13.05.2020
3290 Clear 28 1016 16 0 4.2 116 07:59 13.05.2020
3291 Clear 28 1016 16 0 4.2 116 07:37 13.05.2020
3292 Clear 26 1016 18 0 3.87 117 06:59 13.05.2020
3293 Clear 26 1016 18 0 3.87 117 06:41 13.05.2020
3294 Clear 19 1019 48 8000 1.5 210 05:51 13.05.2020
3295 Clear 19 1019 52 8000 1.5 210 04:41 13.05.2020
3296 Clear 18 1019 52 8000 0.95 337 02:59 13.05.2020
3297 Clear 18 1019 52 8000 1.77 341 02:26 13.05.2020
3298 Clear 19 1019 45 8000 1.79 352 01:26 13.05.2020
3299 Clear 20 1020 45 8000 1.79 352 00:45 13.05.2020
3300 Clear 20 1020 45 8000 2.58 352 00:20 13.05.2020
3301 Clear 22 1020 31 8000 1.5 30 23:40 12.05.2020
3302 Clear 22 1020 31 8000 1.5 30 23:21 12.05.2020
3303 Clear 22 1020 29 8000 1 200 22:57 12.05.2020
3304 Clear 22 1020 29 8000 1 200 22:39 12.05.2020
3305 Clear 22 1020 29 8000 1 200 22:20 12.05.2020
3306 Clear 22 1020 33 8000 1.5 240 21:55 12.05.2020
3307 Clear 22 1020 33 8000 1.5 240 21:37 12.05.2020
3308 Clear 22 1020 33 8000 1.5 240 21:18 12.05.2020
3309 Clear 24 1019 36 10000 1.5 300 20:56 12.05.2020
3310 Clear 24 1019 36 10000 1.5 300 20:38 12.05.2020
3311 Clear 24 1019 36 10000 1.5 300 20:38 12.05.2020
3312 Clear 24 1019 36 10000 1.5 300 20:20 12.05.2020
3313 Clear 27 1019 29 10000 1.5 270 19:56 12.05.2020
3314 Clear 27 1019 29 10000 1.5 270 19:37 12.05.2020
3315 Clear 27 1019 29 10000 1.5 270 19:19 12.05.2020
3316 Clear 29 1019 18 10000 3.6 310 18:42 12.05.2020
3317 Clear 29 1019 18 10000 3.6 310 18:24 12.05.2020
3318 Clear 31 1018 14 10000 4.1 320 17:58 12.05.2020
3319 Clear 31 1018 14 10000 4.1 320 17:39 12.05.2020
3320 Clear 31 1018 14 10000 4.1 320 17:21 12.05.2020
3321 Clear 33 1018 13 10000 2.6 300 16:43 12.05.2020
3322 Clear 33 1018 13 10000 2.6 300 16:23 12.05.2020
3323 Clear 32 1019 11 10000 2.6 0 15:56 12.05.2020
3324 Clear 32 1019 11 10000 2.6 0 15:37 12.05.2020
3325 Clear 32 1019 11 10000 2.6 0 15:18 12.05.2020
3326 Clear 32 1019 11 10000 2.1 40 14:55 12.05.2020
3327 Clear 32 1019 11 10000 2.1 40 14:36 12.05.2020
3328 Clear 32 1019 11 10000 2.1 40 14:18 12.05.2020
3329 Clear 32 1019 11 10000 1.49 326 13:56 12.05.2020
3330 Clear 32 1020 11 10000 2.6 80 13:37 12.05.2020
3331 Clear 32 1020 11 10000 2.6 80 13:18 12.05.2020
3332 Clear 32 1020 11 10000 2.6 80 12:57 12.05.2020
3333 Clear 31 1015 12 0 0.66 16 12:38 12.05.2020
3334 Clear 31 1015 12 0 0.66 16 12:38 12.05.2020
3335 Clear 30 1016 13 0 1.29 101 12:20 12.05.2020
3336 Clear 30 1016 13 0 1.29 101 11:57 12.05.2020
3337 Clear 28 1020 18 10000 2.6 80 11:38 12.05.2020
3338 Clear 28 1020 18 10000 2.6 80 11:20 12.05.2020
3339 Clear 28 1020 18 10000 2.6 80 10:56 12.05.2020
3340 Clear 28 1020 18 10000 2.6 80 10:38 12.05.2020
3341 Clear 28 1020 18 10000 2.6 80 10:18 12.05.2020
3342 Clear 27 1020 18 10000 2.6 80 09:57 12.05.2020
3343 Haze 26 1020 21 5000 3.1 80 09:38 12.05.2020
3344 Haze 26 1020 21 5000 3.1 80 09:38 12.05.2020
3345 Haze 26 1020 21 5000 3.1 80 09:20 12.05.2020
3346 Haze 24 1020 23 5000 4.1 50 08:42 12.05.2020
3347 Haze 24 1020 23 5000 4.1 50 08:21 12.05.2020
3348 Haze 22 1020 30 5000 6.36 100 07:58 12.05.2020
3349 Haze 22 1020 30 5000 6.36 100 07:40 12.05.2020
3350 Haze 22 1020 30 5000 6.02 89 07:20 12.05.2020
3351 Haze 15 1020 63 4000 6.02 89 06:38 12.05.2020
3352 Haze 15 1020 63 4000 4.02 75 06:20 12.05.2020
3353 Haze 13 1019 62 4000 4.02 75 05:46 12.05.2020
3354 Clear 14 1019 59 6000 3 62 04:41 12.05.2020
3355 Clear 13 1019 54 6000 1.18 22 03:24 12.05.2020
3356 Clear 14 1019 51 6000 2.01 352 02:27 12.05.2020
3357 Clear 16 1019 45 6000 1.96 348 01:48 12.05.2020
3358 Clear 16 1019 45 6000 2.64 327 01:20 12.05.2020
3359 Clear 16 1019 42 6000 3.23 324 00:25 12.05.2020
3360 Clear 17 1019 42 6000 3.23 324 23:58 11.05.2020
3361 Clear 17 1019 42 6000 3.23 324 23:40 11.05.2020
3362 Clear 17 1019 42 6000 3.38 353 23:20 11.05.2020
3363 Clear 19 1019 40 6000 3.38 353 22:58 11.05.2020
3364 Clear 19 1019 40 6000 3.38 353 22:40 11.05.2020
3365 Clear 19 1019 40 6000 4.57 349 22:19 11.05.2020
3366 Haze 19 1019 42 5000 1.5 80 21:57 11.05.2020
3367 Haze 19 1019 42 5000 1.5 80 21:38 11.05.2020
3368 Haze 19 1019 42 5000 1.5 80 21:19 11.05.2020
3369 Haze 19 1019 42 5000 1.5 80 21:19 11.05.2020
3370 Haze 21 1019 43 5000 2.1 280 20:57 11.05.2020
3371 Haze 21 1019 43 5000 2.1 280 20:38 11.05.2020
3372 Haze 21 1019 43 5000 2.1 280 20:19 11.05.2020
3373 Haze 22 1019 43 5000 2.1 280 19:54 11.05.2020
3374 Haze 22 1019 40 5000 1.5 280 19:36 11.05.2020
3375 Haze 22 1019 40 5000 1.5 280 19:18 11.05.2020
3376 Haze 24 1018 31 5000 3.1 270 18:55 11.05.2020
3377 Haze 24 1018 31 5000 3.1 270 18:36 11.05.2020
3378 Haze 24 1018 31 5000 3.1 270 18:18 11.05.2020
3379 Clear 26 1018 23 6000 3.1 320 17:41 11.05.2020
3380 Clear 26 1018 23 6000 3.1 320 17:22 11.05.2020
3381 Clear 26 1019 29 6000 3.1 320 16:58 11.05.2020
3382 Clear 27 1019 29 6000 3.1 320 16:38 11.05.2020
3383 Clear 27 1019 29 6000 3.1 320 16:20 11.05.2020
3384 Clear 29 1019 18 6000 1.5 30 15:57 11.05.2020
3385 Clear 29 1019 18 6000 1.5 30 15:39 11.05.2020
3386 Clear 29 1019 18 6000 1.5 30 15:18 11.05.2020
3387 Clear 29 1019 17 7000 2.6 300 14:42 11.05.2020
3388 Clear 29 1019 17 7000 2.6 300 14:42 11.05.2020
3389 Clear 29 1019 17 7000 2.6 300 14:23 11.05.2020
3390 Clear 28 1020 20 7000 1.5 340 13:59 11.05.2020
3391 Clear 28 1020 20 7000 1.5 340 13:41 11.05.2020
3392 Clear 28 1020 20 7000 1.5 340 13:19 11.05.2020
3393 Clear 27 1020 22 7000 2.1 50 12:58 11.05.2020
3394 Clear 27 1020 22 7000 2.1 50 12:39 11.05.2020
3395 Clear 27 1020 22 7000 2.1 50 12:21 11.05.2020
3396 Clear 25 1021 23 7000 2.1 80 11:56 11.05.2020
3397 Clear 25 1021 23 7000 2.1 80 11:37 11.05.2020
3398 Clear 25 1021 23 7000 2.1 80 11:19 11.05.2020
3399 Clear 24 1021 27 7000 1.5 130 10:55 11.05.2020
3400 Clear 24 1021 27 7000 1.5 130 10:36 11.05.2020
3401 Clear 24 1021 27 7000 1.5 130 10:18 11.05.2020
3402 Clear 22 1020 26 8000 1.66 104 09:54 11.05.2020
3403 Clear 22 1020 26 8000 1.66 104 09:36 11.05.2020
3404 Clear 22 1020 26 8000 2.68 105 09:18 11.05.2020
3405 Clear 20 1020 28 8000 2.68 105 08:39 11.05.2020
3406 Clear 20 1020 28 8000 2.18 101 08:19 11.05.2020
3407 Clear 15 1020 31 8000 2.18 101 07:50 11.05.2020
3408 Clear 15 1020 31 8000 2.18 101 07:32 11.05.2020
3409 Clear 15 1020 31 8000 2.18 101 07:32 11.05.2020
3410 Haze 12 1020 58 5000 1.14 37 06:55 11.05.2020
3411 Clear 10 1019 57 6000 1.14 37 06:31 11.05.2020
3412 Clear 11 1019 57 6000 1.63 333 05:31 11.05.2020
3413 Clear 12 1019 58 10000 1.63 336 04:58 11.05.2020
3414 Clear 12 1019 54 10000 2.36 335 03:47 11.05.2020
3415 Clear 12 1019 50 10000 3 335 02:35 11.05.2020
3416 Clear 13 1019 58 10000 3.42 321 01:55 11.05.2020
3417 Clear 13 1019 54 10000 3.48 317 00:54 11.05.2020
3418 Clear 13 1019 54 10000 3.77 321 00:28 11.05.2020
3419 Clear 14 1020 47 10000 2.6 310 23:59 10.05.2020
3420 Clear 14 1020 47 10000 2.6 310 23:39 10.05.2020
3421 Clear 14 1020 47 10000 2.6 310 23:19 10.05.2020
3422 Clear 14 1020 47 10000 2.6 310 22:54 10.05.2020
3423 Clear 14 1020 47 10000 2.6 310 22:36 10.05.2020
3424 Clear 14 1020 47 10000 2.6 310 22:18 10.05.2020
3425 Clear 15 1019 67 6000 2.1 340 21:41 10.05.2020
3426 Clear 15 1019 67 6000 2.1 340 21:18 10.05.2020
3427 Clear 16 1018 63 6000 2.1 310 20:42 10.05.2020
3428 Clear 16 1018 63 6000 2.1 310 20:24 10.05.2020
3429 Clear 17 1018 63 6000 2.1 310 19:56 10.05.2020
3430 Clear 18 1018 63 6000 5.1 300 19:38 10.05.2020
3431 Clear 18 1018 63 6000 5.1 300 19:20 10.05.2020
3432 Clear 18 1018 63 6000 5.1 300 19:20 10.05.2020
3433 Clear 20 1018 52 6000 5.1 290 18:55 10.05.2020
3434 Clear 20 1018 52 6000 5.1 290 18:36 10.05.2020
3435 Clear 20 1018 52 6000 5.1 290 18:18 10.05.2020
3436 Clear 21 1018 52 6000 5.1 290 17:57 10.05.2020
3437 Clouds 22 1018 46 7000 5.1 280 17:39 10.05.2020
3438 Clouds 22 1018 46 7000 5.1 280 17:20 10.05.2020
3439 Clouds 23 1017 40 7000 5.1 280 16:44 10.05.2020
3440 Clouds 23 1017 40 7000 5.1 280 16:21 10.05.2020
3441 Clear 23 1017 40 10000 6.2 292 15:58 10.05.2020
3442 Clear 23 1017 40 10000 6.2 292 15:40 10.05.2020
3443 Clear 23 1017 40 10000 6.2 290 15:22 10.05.2020
3444 Clear 23 1017 40 10000 3.1 250 14:56 10.05.2020
3445 Clear 23 1017 40 10000 3.1 250 14:37 10.05.2020
3446 Clear 23 1017 40 10000 3.1 250 14:19 10.05.2020
3447 Clear 22 1018 43 10000 3.1 260 13:58 10.05.2020
3448 Clear 22 1018 43 10000 3.1 260 13:37 10.05.2020
3449 Clear 22 1018 43 10000 3.1 260 13:19 10.05.2020
3450 Clouds 21 1018 46 10000 3.1 250 12:56 10.05.2020
3451 Clouds 21 1018 46 10000 3.1 250 12:37 10.05.2020
3452 Clouds 21 1018 46 10000 3.1 250 12:19 10.05.2020
3453 Clouds 20 1018 52 10000 3.1 250 11:54 10.05.2020
3454 Clouds 20 1018 52 10000 3.1 250 11:36 10.05.2020
3455 Clouds 20 1018 52 10000 3.1 250 11:18 10.05.2020
3456 Clouds 19 1018 52 10000 5.1 260 10:42 10.05.2020
3457 Clouds 19 1018 52 10000 5.1 260 10:24 10.05.2020
3458 Clouds 18 1017 59 10000 3.6 260 09:56 10.05.2020
3459 Clouds 17 1017 59 10000 3.6 260 09:38 10.05.2020
3460 Clouds 17 1017 59 10000 3.6 260 09:19 10.05.2020
3461 Clouds 16 1017 67 10000 3.6 260 08:44 10.05.2020
3462 Clouds 16 1017 67 10000 3.6 260 08:23 10.05.2020
3463 Clear 18 1016 52 0 4.88 283 07:44 10.05.2020
3464 Clear 11 1016 81 6000 4.73 280 07:19 10.05.2020
3465 Clear 11 1016 81 6000 4.73 280 06:52 10.05.2020
3466 Clear 11 1016 81 6000 4.73 280 06:29 10.05.2020
3467 Clear 10 1016 87 6000 4.55 269 05:48 10.05.2020
3468 Clouds 12 1016 87 8000 3.1 250 04:49 10.05.2020
3469 Clouds 12 1016 87 8000 3.1 250 04:29 10.05.2020
3470 Clouds 12 1016 87 8000 3.1 250 03:54 10.05.2020
3471 Clouds 12 1016 87 8000 3.1 250 03:35 10.05.2020
3472 Clouds 13 1016 87 10000 3.1 250 02:41 10.05.2020
3473 Clouds 13 1016 87 10000 3.1 250 02:18 10.05.2020
3474 Clouds 13 1015 87 10000 2.1 270 01:41 10.05.2020
3475 Clouds 13 1015 87 10000 2.1 270 01:19 10.05.2020
3476 Clouds 14 1015 82 10000 2.1 270 00:54 10.05.2020
3477 Clouds 14 1015 82 10000 2.1 270 00:24 10.05.2020
3478 Clouds 14 1015 82 10000 3.1 250 23:58 09.05.2020
3479 Clouds 14 1015 82 10000 3.1 250 23:39 09.05.2020
3480 Clouds 14 1015 82 10000 3.1 250 23:20 09.05.2020
3481 Clouds 15 1014 77 10000 4.1 250 22:42 09.05.2020
3482 Clouds 15 1014 77 10000 4.1 250 22:24 09.05.2020
3483 Clouds 15 1014 77 10000 3.1 250 21:58 09.05.2020
3484 Clouds 16 1014 77 10000 3.1 250 21:40 09.05.2020
3485 Clouds 16 1014 77 10000 3.1 250 21:21 09.05.2020
3486 Clouds 16 1014 72 10000 6.2 270 20:58 09.05.2020
3487 Clouds 16 1014 72 10000 6.2 270 20:38 09.05.2020
3488 Clouds 16 1014 72 10000 6.2 270 20:20 09.05.2020
3489 Clouds 17 1012 63 10000 6.2 270 19:56 09.05.2020
3490 Clouds 17 1012 63 10000 6.2 270 19:38 09.05.2020
3491 Clouds 17 1012 63 10000 6.2 270 19:19 09.05.2020
3492 Clouds 18 1012 63 7000 7.2 270 18:44 09.05.2020
3493 Clouds 18 1012 63 7000 7.2 270 18:26 09.05.2020
3494 Clouds 20 1012 49 7000 8.2 270 17:46 09.05.2020
3495 Clouds 20 1012 49 7000 8.2 270 17:23 09.05.2020
3496 Clouds 21 1013 49 7000 8.7 280 16:58 09.05.2020
3497 Clouds 21 1013 49 7000 8.7 280 16:40 09.05.2020
3498 Clouds 21 1013 49 7000 8.7 280 16:19 09.05.2020
3499 Clouds 21 1013 46 7000 8.7 280 15:45 09.05.2020
3500 Clouds 21 1013 46 7000 8.7 280 15:45 09.05.2020
3501 Clouds 21 1013 46 7000 8.7 280 15:26 09.05.2020
3502 -273 0 0 0 0 0 14:59 09.05.2020
3503 Clouds 21 1013 46 8000 8.7 280 14:40 09.05.2020
3504 Clouds 21 1013 46 8000 8.7 280 14:19 09.05.2020
3505 Clouds 21 1013 45 7000 8.7 280 13:57 09.05.2020
3506 Clouds 20 1013 45 7000 8.7 280 13:38 09.05.2020
3507 Clouds 20 1013 45 7000 8.7 280 13:19 09.05.2020
3508 Clouds 19 1013 52 7000 8.2 260 12:42 09.05.2020
3509 Clouds 19 1013 52 7000 8.2 260 12:22 09.05.2020
3510 Rain 17 1013 59 7000 9.3 320 11:56 09.05.2020
3511 Rain 17 1013 59 7000 9.3 320 11:37 09.05.2020
3512 Rain 17 1013 59 7000 9.3 320 11:18 09.05.2020
3513 Rain 17 1012 72 7000 9.3 310 10:43 09.05.2020
3514 Rain 17 1012 72 7000 9.3 310 10:25 09.05.2020
3515 Dust 18 1012 55 4000 8.2 260 09:57 09.05.2020
3516 Dust 18 1012 55 4000 8.2 260 09:38 09.05.2020
3517 Dust 18 1012 55 4000 8.2 260 09:19 09.05.2020
3518 Dust 19 1011 68 4000 8.7 260 08:51 09.05.2020
3519 Dust 19 1011 68 4000 8.7 260 08:31 09.05.2020
3520 Haze 18 1010 59 5000 5.1 250 07:50 09.05.2020
3521 Haze 18 1010 59 5000 5.1 250 07:31 09.05.2020
3522 Haze 18 1008 52 5000 2.6 260 06:54 09.05.2020
3523 Haze 17 1008 52 5000 2.6 260 06:25 09.05.2020
3524 Haze 17 1008 52 5000 4.1 280 05:46 09.05.2020
3525 Clear 18 1007 48 7000 3.1 240 03:59 09.05.2020
3526 Clear 17 1007 48 7000 3.1 240 03:38 09.05.2020
3527 Clear 18 1007 42 7000 2.1 50 02:42 09.05.2020
3528 Clear 19 1007 40 7000 5.1 24 01:54 09.05.2020
3529 Clear 19 1007 40 7000 4.7 1 01:24 09.05.2020
3530 Clear 19 1008 37 7000 1.5 20 00:55 09.05.2020
3531 Clear 20 1008 37 7000 1.5 20 00:37 09.05.2020
3532 Clear 20 1009 37 6000 1.5 310 23:54 08.05.2020
3533 Clear 20 1009 37 6000 1.5 310 23:36 08.05.2020
3534 Clear 20 1009 37 6000 1.5 310 23:18 08.05.2020
3535 Clear 19 1009 48 6000 3.1 300 22:42 08.05.2020
3536 Clear 22 1009 36 6000 3.1 240 22:20 08.05.2020
3537 Clear 23 1009 36 6000 3.1 240 21:59 08.05.2020
3538 Clear 23 1009 36 6000 3.1 240 21:41 08.05.2020
3539 Clear 23 1009 36 6000 3.1 240 21:19 08.05.2020
3540 Clear 24 1009 36 6000 3.1 240 20:59 08.05.2020
3541 Clear 25 1009 31 6000 1 220 20:40 08.05.2020
3542 Clouds 25 1009 31 6000 1 220 20:22 08.05.2020
3543 Clouds 27 1009 24 6000 4.1 330 19:46 08.05.2020
3544 Clouds 28 1009 24 6000 4.1 330 19:24 08.05.2020
3545 Clouds 28 1009 24 6000 4.1 330 19:24 08.05.2020
3546 Clouds 28 1009 23 6000 4.6 320 18:58 08.05.2020
3547 Clouds 28 1009 23 6000 4.6 320 18:40 08.05.2020
3548 Clouds 28 1009 23 6000 4.6 320 18:22 08.05.2020
3549 Clouds 30 1009 19 6000 5.7 320 17:42 08.05.2020
3550 Clouds 30 1009 19 6000 5.7 320 17:42 08.05.2020
3551 Clouds 30 1009 19 6000 5.7 320 17:19 08.05.2020
3552 Haze 31 1009 19 5000 4.1 200 16:54 08.05.2020
3553 Haze 31 1009 19 5000 4.1 200 16:36 08.05.2020
3554 Haze 31 1009 19 5000 4.1 200 16:18 08.05.2020
3555 Haze 32 1010 17 5000 1.5 240 15:42 08.05.2020
3556 Haze 32 1010 17 5000 1.5 240 15:20 08.05.2020
3557 Clear 32 1011 11 6000 4.1 200 14:55 08.05.2020
3558 Clear 32 1011 11 6000 4.1 200 14:37 08.05.2020
3559 Clear 32 1011 12 6000 4.1 200 14:18 08.05.2020
3560 Clear 31 1012 18 8000 3.1 190 13:41 08.05.2020
3561 Clear 31 1012 18 8000 3.1 190 13:20 08.05.2020
3562 Clear 30 1013 18 10000 2.6 150 12:56 08.05.2020
3563 Clear 30 1013 18 10000 2.6 150 12:38 08.05.2020
3564 Clear 30 1013 18 10000 2.6 150 12:20 08.05.2020
3565 Clear 30 1013 18 10000 2.6 150 12:20 08.05.2020
3566 Clear 29 1014 17 10000 3.6 150 11:44 08.05.2020
3567 Clear 29 1014 17 10000 3.6 150 11:23 08.05.2020
3568 Clear 26 1015 26 10000 3.1 140 10:59 08.05.2020
3569 Clear 26 1015 26 10000 3.1 140 10:40 08.05.2020
3570 Clear 24 1015 36 8000 1 70 10:19 08.05.2020
3571 Clear 24 1015 36 8000 1 70 09:56 08.05.2020
3572 Clear 24 1015 36 8000 1 70 09:38 08.05.2020
3573 Clear 24 1015 36 8000 1 70 09:18 08.05.2020
3574 Clear 22 1015 37 10000 1 340 08:42 08.05.2020
3575 Clear 22 1015 37 10000 1 340 08:22 08.05.2020
3576 Clear 23 1012 25 0 2.31 137 07:43 08.05.2020
3577 Haze 15 1015 59 4000 1.5 230 07:24 08.05.2020
3578 Haze 15 1015 59 4000 1.5 230 06:51 08.05.2020
3579 Haze 15 1015 59 4000 1.5 230 06:24 08.05.2020
3580 Haze 14 1015 67 4000 1.5 240 05:51 08.05.2020
3581 Clear 15 1015 77 6000 2.1 240 04:41 08.05.2020
3582 Clear 15 1015 72 6000 1.5 220 02:35 08.05.2020
3583 Clear 15 1016 67 6000 1.5 240 01:56 08.05.2020
3584 Clear 15 1016 67 6000 1.5 240 01:28 08.05.2020
3585 Clear 16 1016 63 6000 1.5 180 00:58 08.05.2020
3586 Clear 16 1016 63 6000 1.5 180 00:39 08.05.2020
3587 Clear 16 1016 63 6000 1.5 180 00:20 08.05.2020
3588 Clear 17 1017 55 6000 1 150 23:42 07.05.2020
3589 Clear 17 1017 55 6000 1 150 23:23 07.05.2020
3590 Clear 17 1017 55 6000 1 150 23:23 07.05.2020
3591 Clear 17 1017 55 6000 1 150 23:23 07.05.2020
3592 Clear 16 1017 63 10000 4.08 336 22:57 07.05.2020
3593 Clear 16 1017 63 10000 4.08 336 22:39 07.05.2020
3594 Clear 16 1017 63 10000 4.47 341 22:19 07.05.2020
3595 Clear 17 1017 63 10000 4.47 341 21:56 07.05.2020
3596 Clear 18 1016 59 10000 4.47 341 21:37 07.05.2020
3597 Clear 18 1016 59 10000 5.02 342 21:19 07.05.2020
3598 Clear 19 1016 55 10000 1 100 20:43 07.05.2020
3599 Clear 19 1016 55 10000 1 100 20:24 07.05.2020
3600 Clear 20 1016 30 10000 3.6 250 19:59 07.05.2020
3601 Clear 20 1016 30 10000 3.6 250 19:40 07.05.2020
3602 Clear 20 1016 30 10000 3.6 250 19:21 07.05.2020
3603 Clear 24 1016 27 10000 3.6 250 18:46 07.05.2020
3604 Clear 24 1016 27 10000 3.6 250 18:46 07.05.2020
3605 Clear 24 1016 27 10000 3.6 250 18:28 07.05.2020
3606 Clear 25 1016 25 10000 5.1 310 17:57 07.05.2020
3607 Clear 25 1016 25 10000 5.1 310 17:37 07.05.2020
3608 Clear 25 1016 25 10000 5.1 310 17:19 07.05.2020
3609 Clear 25 1016 22 10000 3.1 280 16:41 07.05.2020
3610 Clear 25 1016 22 10000 3.1 280 16:19 07.05.2020
3611 Clear 26 1016 22 10000 3.1 280 15:57 07.05.2020
3612 Clear 26 1016 22 10000 3.1 280 15:37 07.05.2020
3613 Clear 26 1016 22 10000 3.1 280 15:18 07.05.2020
3614 Clear 25 1016 25 10000 3.6 280 14:46 07.05.2020
3615 Clear 25 1016 25 10000 3.6 280 14:23 07.05.2020
3616 Clear 24 1017 25 10000 4.1 260 13:58 07.05.2020
3617 Clear 24 1017 25 10000 4.1 260 13:40 07.05.2020
3618 Clear 24 1017 25 10000 4.1 260 13:40 07.05.2020
3619 Clear 24 1017 25 10000 4.1 260 13:20 07.05.2020
3620 Clear 23 1017 28 10000 3.6 250 12:41 07.05.2020
3621 Clear 22 1017 28 10000 3.6 250 12:20 07.05.2020
3622 Clouds 21 1017 68 10000 3.6 280 11:40 07.05.2020
3623 Clouds 21 1017 68 10000 3.6 280 11:21 07.05.2020
3624 Clear 20 1017 40 8000 3.04 275 10:57 07.05.2020
3625 Clear 20 1017 40 8000 3.04 275 10:38 07.05.2020
3626 Clear 20 1017 40 8000 2.57 272 10:19 07.05.2020
3627 Haze 17 1018 59 4000 2.57 272 09:40 07.05.2020
3628 Haze 17 1018 59 4000 1.95 278 09:20 07.05.2020
3629 Haze 15 1018 67 4000 1.5 50 08:56 07.05.2020
3630 Haze 15 1018 67 4000 1.5 50 08:37 07.05.2020
3631 Haze 15 1018 67 4000 1.5 50 08:18 07.05.2020
3632 Haze 13 1017 82 5000 1.5 110 07:41 07.05.2020
3633 Haze 13 1017 82 5000 1.5 110 07:41 07.05.2020
3634 Haze 13 1017 82 5000 1.5 110 07:22 07.05.2020
3635 Mist 8 1017 93 3000 2.73 314 06:39 07.05.2020
3636 Mist 9 1017 100 3000 1 160 06:21 07.05.2020
3637 Mist 8 1017 100 3000 1 160 05:28 07.05.2020
3638 Mist 9 1017 93 4000 1 110 03:50 07.05.2020
3639 Mist 9 1017 93 5000 1.5 80 03:23 07.05.2020
3640 Clear 10 1016 81 7000 2.82 318 02:41 07.05.2020
3641 Clear 10 1017 87 7000 2.73 313 01:41 07.05.2020
3642 Clear 10 1017 87 7000 3.02 311 01:23 07.05.2020
3643 Clear 12 1017 82 7000 3.02 311 00:45 07.05.2020
3644 Clear 12 1017 82 7000 3.74 310 00:26 07.05.2020
3645 Clear 12 1017 82 7000 3.6 250 23:46 06.05.2020
3646 Clear 12 1017 82 7000 3.6 250 23:25 06.05.2020
3647 Clear 13 1017 82 8000 3.6 250 22:57 06.05.2020
3648 Clear 13 1017 82 8000 3.6 250 22:39 06.05.2020
3649 Clear 13 1017 82 8000 3.6 250 22:19 06.05.2020
3650 Haze 13 1016 76 5000 5.1 290 21:56 06.05.2020
3651 Clear 14 1017 76 10000 3.1 270 21:38 06.05.2020
3652 Clear 14 1017 76 10000 3.1 270 21:19 06.05.2020
3653 Clear 14 1017 76 10000 3.1 270 20:42 06.05.2020
3654 Clear 14 1017 76 10000 3.1 270 20:24 06.05.2020
3655 Clouds 15 1017 72 10000 4.1 270 19:58 06.05.2020
3656 Clouds 15 1017 72 10000 4.1 270 19:58 06.05.2020
3657 Clouds 15 1017 72 10000 4.1 270 19:39 06.05.2020
3658 Clouds 15 1017 72 10000 4.1 270 19:20 06.05.2020
3659 Clouds 17 1016 59 8000 5.1 290 18:59 06.05.2020
3660 Clouds 17 1016 59 8000 5.1 290 18:59 06.05.2020
3661 Clouds 17 1016 59 8000 5.1 290 18:40 06.05.2020
3662 Clouds 17 1016 59 8000 5.1 290 18:40 06.05.2020
3663 Clouds 17 1016 59 8000 5.1 290 18:21 06.05.2020
3664 Clouds 18 1016 55 8000 6.2 270 17:59 06.05.2020
3665 Clouds 18 1016 55 8000 6.2 270 17:39 06.05.2020
3666 Clouds 18 1016 55 8000 6.2 270 17:21 06.05.2020
3667 Clouds 18 1016 55 8000 6.7 290 16:58 06.05.2020
3668 Clouds 18 1016 55 8000 6.7 290 16:40 06.05.2020
3669 Clouds 19 1016 55 8000 6.7 290 16:21 06.05.2020
3670 Clouds 19 1015 52 7000 6.2 260 15:59 06.05.2020
3671 Clouds 19 1015 52 7000 6.2 260 15:59 06.05.2020
3672 Clouds 19 1015 52 7000 6.2 260 15:40 06.05.2020
3673 Clouds 19 1015 52 7000 6.2 260 15:21 06.05.2020
3674 Clouds 19 1015 55 7000 7.2 250 14:56 06.05.2020
3675 Clouds 19 1015 55 7000 7.2 250 14:37 06.05.2020
3676 Clouds 19 1015 55 7000 7.2 250 14:18 06.05.2020
3677 Clouds 19 1015 59 7000 6.7 250 13:56 06.05.2020
3678 Clouds 18 1015 72 6000 7.2 250 13:36 06.05.2020
3679 Clouds 18 1015 72 6000 7.2 250 13:18 06.05.2020
3680 Clouds 17 1015 72 6000 7.2 250 12:42 06.05.2020
3681 Clouds 17 1015 72 6000 7.2 250 12:23 06.05.2020
3682 Haze 15 1015 82 5000 7.2 260 11:41 06.05.2020
3683 Haze 15 1015 82 5000 7.2 260 11:21 06.05.2020
3684 Drizzle 14 1014 87 4500 7.2 250 10:58 06.05.2020
3685 Drizzle 14 1014 87 4500 7.2 250 10:39 06.05.2020
3686 Drizzle 14 1014 87 4500 7.2 250 10:19 06.05.2020
3687 Drizzle 13 1014 76 3000 6.2 250 09:45 06.05.2020
3688 Drizzle 13 1014 76 3000 6.2 250 09:26 06.05.2020
3689 Drizzle 12 1014 100 3000 3.6 250 08:55 06.05.2020
3690 Drizzle 12 1014 100 3000 3.6 250 08:36 06.05.2020
3691 Drizzle 12 1014 100 3000 3.6 250 08:18 06.05.2020
3692 Haze 12 1012 87 5000 7.7 240 07:55 06.05.2020
3693 Drizzle 12 1013 93 3000 6.2 260 07:36 06.05.2020
3694 Drizzle 12 1013 93 3000 6.2 260 07:18 06.05.2020
3695 Drizzle 12 1013 93 3000 6.2 260 06:43 06.05.2020
3696 Drizzle 12 1013 93 3000 6.2 260 06:19 06.05.2020
3697 Drizzle 12 1012 87 3000 9.3 250 05:37 06.05.2020
3698 Clouds 14 1011 70 0 10.92 280 04:50 06.05.2020
3699 Drizzle 11 1012 93 3000 9.3 260 03:50 06.05.2020
3700 Drizzle 11 1012 93 3000 9.3 260 03:24 06.05.2020
3701 Drizzle 11 1012 93 3000 9.3 260 02:51 06.05.2020
3702 Rain 11 1012 93 3000 7.2 260 02:22 06.05.2020
3703 Clouds 11 1013 87 7000 8.2 240 01:42 06.05.2020
3704 Clouds 11 1013 87 7000 8.2 240 01:21 06.05.2020
3705 Clouds 11 1013 87 7000 8.2 240 00:44 06.05.2020
3706 Clouds 11 1013 87 7000 8.2 240 00:19 06.05.2020
3707 Clouds 11 1013 87 7000 8.2 240 23:41 05.05.2020
3708 Clouds 11 1013 87 7000 8.2 240 23:20 05.05.2020
3709 Clouds 11 1013 87 7000 8.2 240 22:55 05.05.2020
3710 Clouds 11 1012 87 10000 9.3 260 22:37 05.05.2020
3711 Clouds 11 1012 87 10000 9.3 260 22:18 05.05.2020
3712 Clouds 12 1012 81 8000 3.1 290 21:41 05.05.2020
3713 Clouds 12 1012 81 8000 3.1 290 21:21 05.05.2020
3714 Clouds 12 1012 81 8000 3.1 290 21:21 05.05.2020
3715 Clouds 12 1012 76 8000 4.1 270 20:59 05.05.2020
3716 Clouds 12 1012 76 8000 4.1 270 20:40 05.05.2020
3717 Clouds 12 1012 76 8000 4.1 270 20:20 05.05.2020
3718 Thunderstorm 14 1011 82 2000 5.1 290 19:59 05.05.2020
3719 Thunderstorm 14 1011 82 2000 5.1 290 19:39 05.05.2020
3720 Thunderstorm 14 1011 82 2000 5.1 290 19:21 05.05.2020
3721 Thunderstorm 16 1011 72 2000 5.1 290 18:56 05.05.2020
3722 Thunderstorm 16 1011 72 2000 5.1 290 18:38 05.05.2020
3723 Thunderstorm 16 1011 72 2000 5.1 290 18:19 05.05.2020
3724 Thunderstorm 16 1011 72 2000 5.1 290 18:19 05.05.2020
3725 Haze 17 1010 63 5000 5.7 280 17:54 05.05.2020
3726 Dust 17 1011 77 4000 8.2 290 17:36 05.05.2020
3727 Dust 17 1011 77 4000 8.2 290 17:18 05.05.2020
3728 Dust 17 1011 77 4000 8.2 290 16:38 05.05.2020
3729 Dust 17 1011 77 4000 8.2 290 16:20 05.05.2020
3730 Dust 19 1010 72 4000 7.7 260 15:58 05.05.2020
3731 Dust 19 1010 72 4000 7.7 260 15:39 05.05.2020
3732 Dust 19 1010 72 4000 7.7 260 15:20 05.05.2020
3733 Thunderstorm 21 1009 64 4000 5.1 260 14:55 05.05.2020
3734 Thunderstorm 21 1009 43 4000 8.2 230 14:37 05.05.2020
3735 Thunderstorm 21 1009 43 4000 8.2 230 14:37 05.05.2020
3736 Thunderstorm 21 1009 43 4000 8.2 230 14:18 05.05.2020
3737 Haze 24 1009 29 5000 8.2 260 13:55 05.05.2020
3738 Haze 24 1009 29 5000 8.2 260 13:36 05.05.2020
3739 Haze 24 1009 29 5000 8.2 260 13:18 05.05.2020
3740 Haze 24 1009 29 5000 8.2 260 13:18 05.05.2020
3741 Haze 25 1009 29 5000 8.2 260 12:54 05.05.2020
3742 Clouds 26 1010 29 8000 4.1 240 12:36 05.05.2020
3743 Clouds 26 1010 29 8000 4.1 240 12:18 05.05.2020
3744 Clouds 25 1010 31 8000 2.6 220 11:40 05.05.2020
3745 Clouds 25 1010 31 8000 2.6 220 11:20 05.05.2020
3746 Haze 23 1011 35 5000 2.6 220 10:56 05.05.2020
3747 Haze 23 1011 35 5000 2.6 220 10:37 05.05.2020
3748 Haze 23 1011 35 5000 2.6 220 10:18 05.05.2020
3749 Clouds 21 1011 37 6000 3.6 190 09:44 05.05.2020
3750 Clouds 21 1011 37 6000 3.6 190 09:26 05.05.2020
3751 Clouds 19 1011 45 6000 2.1 180 08:59 05.05.2020
3752 Clouds 19 1011 45 6000 2.1 180 08:40 05.05.2020
3753 Clouds 19 1011 45 6000 2.1 180 08:18 05.05.2020
3754 Clear 18 1011 48 6000 2.18 208 07:44 05.05.2020
3755 Clear 18 1011 48 6000 1.96 214 07:23 05.05.2020
3756 Haze 15 1011 55 5000 2.6 250 06:58 05.05.2020
3757 Haze 15 1011 55 5000 2.6 250 06:40 05.05.2020
3758 Haze 15 1011 55 5000 2.6 250 06:19 05.05.2020
3759 Haze 13 1010 62 5000 0.9 231 05:28 05.05.2020
3760 Clear 14 1011 55 6000 1.5 120 02:57 05.05.2020
3761 Clear 15 1013 51 6000 2.1 290 01:20 05.05.2020
3762 Clear 15 1013 51 6000 2.1 290 00:49 05.05.2020
3763 Clear 16 1013 51 6000 2.1 290 23:57 04.05.2020
3764 Clear 16 1013 51 6000 2.1 290 23:38 04.05.2020
3765 Clear 16 1013 51 6000 2.1 290 23:38 04.05.2020
3766 Clear 16 1013 51 6000 2.1 290 23:19 04.05.2020
3767 Clear 16 1013 55 6000 3.53 331 22:55 04.05.2020
3768 Clear 16 1013 55 6000 3.53 331 22:37 04.05.2020
3769 Clear 16 1013 55 6000 4.65 325 22:18 04.05.2020
3770 Clear 17 1013 55 6000 4.65 325 21:52 04.05.2020
3771 Clear 17 1013 55 6000 4.65 325 21:52 04.05.2020
3772 Clear 17 1013 55 6000 4.65 325 21:52 04.05.2020
3773 Clear 17 1013 55 6000 4.65 325 21:52 04.05.2020
3774 Clear 17 1013 55 6000 5.65 322 21:26 04.05.2020
3775 Clear 17 1013 55 6000 5.65 322 21:26 04.05.2020
3776 Clear 17 1013 55 6000 5.65 322 21:26 04.05.2020
3777 Clear 17 1013 55 6000 5.65 322 21:26 04.05.2020
3778 Clear 17 1013 55 6000 6.01 321 21:26 04.05.2020
3779 Haze 17 1013 52 5000 2.1 350 20:43 04.05.2020
3780 Haze 17 1013 52 5000 2.1 350 20:43 04.05.2020
3781 Haze 17 1013 52 5000 2.1 350 20:43 04.05.2020
3782 Haze 17 1013 52 5000 2.1 350 20:21 04.05.2020
3783 Haze 19 1012 45 5000 3.6 310 19:59 04.05.2020
3784 Haze 19 1012 45 5000 3.6 310 19:59 04.05.2020
3785 Haze 19 1012 45 5000 3.6 310 19:40 04.05.2020
3786 Haze 19 1012 45 5000 3.6 310 19:20 04.05.2020
3787 Haze 21 1012 43 4000 5.1 330 18:55 04.05.2020
3788 Haze 21 1012 43 4000 5.1 330 18:36 04.05.2020
3789 Haze 21 1012 43 4000 5.1 330 18:18 04.05.2020
3790 Dust 23 1012 37 4000 7.2 310 17:54 04.05.2020
3791 Clouds 25 1012 31 10000 5.1 300 17:36 04.05.2020
3792 Clouds 25 1012 31 10000 5.1 300 17:18 04.05.2020
3793 Clouds 25 1012 31 10000 5.1 300 16:42 04.05.2020
3794 Clouds 25 1012 31 10000 5.1 300 16:21 04.05.2020
3795 Clouds 26 1012 24 10000 6.2 280 15:46 04.05.2020
3796 Clouds 26 1012 24 10000 6.2 280 15:25 04.05.2020
3797 Clouds 26 1012 26 10000 4.1 300 14:56 04.05.2020
3798 Clouds 26 1012 26 10000 4.1 300 14:56 04.05.2020
3799 Clouds 26 1012 26 10000 4.1 300 14:38 04.05.2020
3800 Clouds 26 1012 26 10000 4.1 300 14:38 04.05.2020
3801 Clouds 26 1012 26 10000 4.1 300 14:38 04.05.2020
3802 Clouds 26 1012 26 10000 4.1 300 14:38 04.05.2020
3803 Clouds 26 1012 26 10000 4.1 300 14:38 04.05.2020
3804 Clouds 25 1013 29 10000 5.1 270 13:42 04.05.2020
3805 Clouds 25 1013 29 10000 5.1 270 13:42 04.05.2020
3806 Clear 25 1013 25 10000 6.2 270 12:46 04.05.2020
3807 Clear 25 1013 25 10000 6.2 270 12:46 04.05.2020
3808 Clear 25 1013 25 10000 6.2 270 12:46 04.05.2020
3809 Clear 24 1014 31 10000 5.1 290 12:00 04.05.2020
3810 Clear 22 1014 32 10000 4.1 250 09:32 04.05.2020
3811 Clear 19 1014 32 10000 3.6 250 08:50 04.05.2020
3812 Clear 19 1014 32 10000 3.6 250 08:50 04.05.2020
3813 Clear 19 1014 32 10000 3.6 250 08:50 04.05.2020
3814 Clear 19 1014 32 10000 3.6 250 08:50 04.05.2020
3815 Clear 19 1014 32 10000 3.6 250 08:50 04.05.2020
3816 Clouds 17 1013 34 10000 3.1 230 07:43 04.05.2020
3817 Clouds 17 1013 34 10000 3.1 230 07:43 04.05.2020
3818 Clouds 17 1013 34 10000 3.1 230 07:43 04.05.2020
3819 Clouds 14 1013 38 7000 4.6 230 06:43 04.05.2020
3820 Clouds 14 1013 38 7000 4.6 230 06:43 04.05.2020
3821 Clouds 14 1013 38 7000 4.6 230 06:43 04.05.2020
3822 Clouds 14 1013 38 7000 4.6 230 06:43 04.05.2020
3823 Clouds 15 1012 38 6000 6.2 240 04:55 04.05.2020
3824 Clear 14 1013 38 8000 5.7 260 03:18 04.05.2020
3825 Clear 15 1013 38 8000 5.7 260 02:30 04.05.2020
3826 Clear 16 1013 45 7000 3.6 240 00:38 04.05.2020
3827 Clear 17 1014 42 7000 4.1 250 23:46 03.05.2020
3828 Clear 17 1014 42 7000 4.1 250 23:25 03.05.2020
3829 Clear 17 1014 45 7000 3.6 250 22:57 03.05.2020
3830 Clear 17 1014 45 7000 3.6 250 22:38 03.05.2020
3831 Clear 17 1014 45 7000 3.6 250 22:38 03.05.2020
3832 Clear 17 1014 45 7000 3.6 250 22:38 03.05.2020
3833 Clear 17 1014 45 7000 3.6 250 22:20 03.05.2020
3834 Clear 18 1014 39 7000 3.1 250 21:41 03.05.2020
3835 Clear 18 1014 39 7000 3.1 250 21:21 03.05.2020
3836 Clear 19 1013 40 6000 1.5 200 20:47 03.05.2020
3837 Clouds 19 1013 40 6000 1.5 200 20:23 03.05.2020
3838 Clouds 21 1013 37 6000 3.1 320 19:56 03.05.2020
3839 Clouds 21 1013 37 6000 3.1 320 19:56 03.05.2020
3840 Clouds 21 1013 37 6000 3.1 320 19:37 03.05.2020
3841 Clouds 21 1013 37 6000 3.1 320 19:37 03.05.2020
3842 Clouds 21 1013 37 6000 3.1 320 19:18 03.05.2020
3843 Clouds 23 1012 31 6000 4.6 290 18:39 03.05.2020
3844 Clouds 23 1012 31 6000 4.6 290 18:20 03.05.2020
3845 Clouds 25 1012 27 6000 5.7 270 17:56 03.05.2020
3846 Clouds 25 1012 27 6000 5.7 270 17:37 03.05.2020
3847 Clouds 25 1012 27 6000 5.7 270 17:19 03.05.2020
3848 Clouds 25 1012 27 6000 5.7 270 17:19 03.05.2020
3849 Clouds 26 1012 22 10000 5.1 240 16:44 03.05.2020
3850 Clouds 26 1012 22 10000 5.1 240 16:19 03.05.2020
3851 Clouds 26 1012 21 10000 5.1 240 15:57 03.05.2020
3852 Clouds 26 1012 21 10000 5.1 240 15:38 03.05.2020
3853 Clouds 26 1012 21 10000 5.1 240 15:19 03.05.2020
3854 Clouds 26 1012 22 10000 5.1 250 14:57 03.05.2020
3855 Clouds 26 1012 22 10000 5.1 250 14:38 03.05.2020
3856 Clouds 26 1012 22 10000 5.1 250 14:19 03.05.2020
3857 Clouds 26 1013 22 10000 6.7 250 13:39 03.05.2020
3858 Clouds 26 1013 22 10000 6.7 250 13:39 03.05.2020
3859 Clouds 26 1013 22 10000 6.7 250 13:39 03.05.2020
3860 Clouds 26 1013 22 10000 6.7 250 13:39 03.05.2020
3861 Clouds 24 1013 25 0 4.1 220 12:58 03.05.2020
3862 Clouds 24 1013 25 0 4.1 220 12:58 03.05.2020
3863 Clouds 24 1013 25 0 4.1 220 12:58 03.05.2020
3864 Clouds 24 1013 25 0 4.1 220 12:58 03.05.2020
3865 Clouds 24 1013 25 0 4.1 220 12:58 03.05.2020
3866 Clouds 24 1013 25 0 4.1 220 12:38 03.05.2020
3867 Clear 24 1014 25 10000 3.1 220 11:58 03.05.2020
3868 Clear 24 1014 25 10000 3.1 220 11:40 03.05.2020
3869 Clear 24 1014 25 10000 3.1 220 11:21 03.05.2020
3870 Clear 21 1015 30 10000 3.1 220 10:55 03.05.2020
3871 Clear 21 1015 30 10000 3.1 220 10:33 03.05.2020
3872 Clear 21 1015 30 10000 3.1 220 10:33 03.05.2020
3873 Clear 21 1015 30 10000 3.1 220 10:33 03.05.2020
3874 Clear 21 1015 30 10000 3.1 220 10:33 03.05.2020
3875 Clear 21 1015 30 10000 3.1 220 10:32 03.05.2020
3876 Clear 20 1014 34 10000 2.1 220 09:45 03.05.2020
3877 Clear 20 1014 34 10000 2.1 220 09:26 03.05.2020
3878 Clear 20 1014 34 10000 2.1 220 09:26 03.05.2020
3879 Clear 20 1014 34 10000 2.1 220 09:26 03.05.2020
3880 Clear 17 1014 31 10000 2.1 170 08:36 03.05.2020
3881 Clear 13 1014 54 10000 1.5 200 08:00 03.05.2020
3882 Clear 13 1014 54 10000 1.5 200 07:38 03.05.2020
3883 Clear 13 1014 54 10000 1.5 200 07:38 03.05.2020
3884 Clear 13 1014 54 10000 1.5 200 07:38 03.05.2020
3885 Clear 10 1013 58 10000 1 210 06:18 03.05.2020
3886 Clear 10 1013 62 10000 1.5 190 05:44 03.05.2020
3887 Clear 8 1012 75 6000 0.88 142 04:29 03.05.2020
3888 Clear 8 1012 75 6000 0.4 184 03:58 03.05.2020
3889 Clear 12 1013 47 10000 0.55 289 02:38 03.05.2020
3890 Clouds 12 1013 47 10000 0.7 312 02:19 03.05.2020
3891 Clouds 13 1013 47 10000 0.7 312 01:41 03.05.2020
3892 Clouds 13 1013 46 10000 1.15 309 01:23 03.05.2020
3893 Clouds 13 1013 46 8000 1.5 200 00:40 03.05.2020
3894 Clouds 13 1013 45 8000 1.5 200 00:21 03.05.2020
3895 Clouds 14 1013 45 8000 1.5 200 23:55 02.05.2020
3896 Clouds 15 1013 31 8000 2.1 210 23:37 02.05.2020
3897 Clouds 15 1013 31 8000 2.1 210 23:18 02.05.2020
3898 Clouds 15 1014 41 8000 2.1 210 22:41 02.05.2020
3899 Clear 15 1014 41 8000 2.1 210 22:22 02.05.2020
3900 Clear 16 1014 41 8000 2.1 270 21:55 02.05.2020
3901 Clear 16 1014 41 8000 2.1 270 21:37 02.05.2020
3902 Clear 16 1014 41 8000 2.1 270 21:18 02.05.2020
3903 Clear 17 1014 33 8000 2.1 270 20:54 02.05.2020
3904 Clear 17 1014 33 8000 2.1 270 20:36 02.05.2020
3905 Clouds 17 1014 33 8000 2.1 270 20:18 02.05.2020
3906 Clouds 18 1013 39 8000 4.1 280 19:55 02.05.2020
3907 Clouds 18 1013 39 8000 4.1 280 19:36 02.05.2020
3908 Clouds 18 1013 39 8000 4.1 280 19:18 02.05.2020
3909 Clouds 19 1013 34 8000 4.1 280 18:40 02.05.2020
3910 Clouds 19 1013 34 8000 4.1 280 18:21 02.05.2020
3911 Clouds 21 1013 37 8000 7.7 280 17:57 02.05.2020
3912 Clouds 21 1013 37 8000 7.7 280 17:39 02.05.2020
3913 Clouds 21 1013 37 8000 7.7 280 17:20 02.05.2020
3914 Clouds 22 1013 35 7000 7.7 260 16:57 02.05.2020
3915 Clouds 22 1013 35 7000 7.7 260 16:39 02.05.2020
3916 Clear 22 1013 35 7000 7.7 260 16:21 02.05.2020
3917 Clouds 22 1013 35 7000 7.7 260 15:42 02.05.2020
3918 Clouds 22 1013 35 7000 7.7 260 15:20 02.05.2020
3919 Clouds 23 1014 35 7000 7.2 250 14:46 02.05.2020
3920 Clouds 23 1014 35 7000 7.2 250 14:28 02.05.2020
3921 Clouds 22 1014 33 7000 6.2 250 13:59 02.05.2020
3922 Clouds 22 1014 33 7000 6.2 250 13:40 02.05.2020
3923 Clouds 22 1014 33 7000 6.2 250 13:21 02.05.2020
3924 Clouds 22 1014 35 7000 6.7 240 12:44 02.05.2020
3925 Clouds 22 1014 35 7000 6.7 240 12:25 02.05.2020
3926 Clouds 21 1014 34 8000 3.6 250 11:59 02.05.2020
3927 Clouds 21 1014 34 8000 3.6 250 11:41 02.05.2020
3928 Clouds 21 1014 34 8000 3.6 250 11:22 02.05.2020
3929 Clouds 21 1014 34 8000 3.6 250 11:22 02.05.2020
3930 Clear 20 1015 39 8000 4.6 250 10:58 02.05.2020
3931 Clear 20 1015 39 8000 4.6 250 10:38 02.05.2020
3932 Clear 20 1015 39 8000 4.6 250 10:20 02.05.2020
3933 Clouds 19 1014 45 10000 3.1 240 09:57 02.05.2020
3934 Clouds 19 1014 45 10000 3.1 240 09:38 02.05.2020
3935 Clouds 19 1014 45 10000 3.1 240 09:20 02.05.2020
3936 Clouds 17 1014 55 10000 2.1 230 08:46 02.05.2020
3937 Clouds 17 1014 55 10000 2.1 230 08:27 02.05.2020
3938 Clear 16 1014 59 10000 2.1 230 07:48 02.05.2020
3939 Clear 14 1014 59 10000 2.1 230 07:29 02.05.2020
3940 Clear 14 1013 62 10000 3.78 241 06:51 02.05.2020
3941 Clear 12 1013 67 10000 2.47 226 05:30 02.05.2020
3942 Clear 13 1013 62 10000 1.77 239 04:59 02.05.2020
3943 Clear 13 1013 62 10000 1.24 252 04:25 02.05.2020
3944 Clear 15 1012 47 0 1.01 271 03:18 02.05.2020
3945 Clear 12 1014 66 6000 1.24 278 02:26 02.05.2020
3946 Clear 12 1014 66 6000 1.24 278 01:50 02.05.2020
3947 Clear 12 1014 66 6000 1.09 277 00:58 02.05.2020
3948 Clear 14 1014 48 10000 2.1 230 00:36 02.05.2020
3949 Clear 14 1014 48 10000 2.1 230 00:18 02.05.2020
3950 Clear 15 1014 48 10000 2.1 230 23:39 01.05.2020
3951 Clear 15 1014 48 10000 2.1 230 23:20 01.05.2020
3952 Clear 16 1014 48 10000 5.1 290 22:56 01.05.2020
3953 Clear 16 1014 48 10000 5.1 290 22:37 01.05.2020
3954 Clear 16 1014 48 10000 5.1 290 22:18 01.05.2020
3955 Clear 16 1014 48 10000 5.1 290 22:18 01.05.2020
3956 Clear 17 1014 45 10000 7.2 290 21:56 01.05.2020
3957 Clear 17 1014 45 10000 7.2 290 21:38 01.05.2020
3958 Clear 17 1014 45 10000 7.2 290 21:18 01.05.2020
3959 Clear 17 1014 45 10000 7.2 290 21:18 01.05.2020
3960 Clear 17 1014 45 10000 7.2 290 21:18 01.05.2020
3961 Clear 17 1014 45 10000 7.2 290 20:56 01.05.2020
3962 Clear 17 1014 45 10000 7.2 290 20:37 01.05.2020
3963 Clear 17 1014 45 10000 7.2 290 20:19 01.05.2020
3964 Clear 19 1013 39 10000 6.2 290 19:42 01.05.2020
3965 Clear 19 1013 39 10000 6.2 290 19:22 01.05.2020
3966 Clear 20 1013 34 10000 6.2 290 18:58 01.05.2020
3967 Clear 20 1013 34 10000 6.2 290 18:40 01.05.2020
3968 Clear 20 1013 34 10000 6.2 290 18:21 01.05.2020
3969 Clear 22 1013 33 10000 7.7 280 17:58 01.05.2020
3970 Clear 22 1013 33 10000 7.7 280 17:39 01.05.2020
3971 Clear 22 1013 33 10000 7.7 280 17:21 01.05.2020
3972 Clouds 23 1013 23 10000 7.7 260 16:56 01.05.2020
3973 Clouds 23 1013 23 10000 7.7 260 16:38 01.05.2020
3974 Clouds 23 1013 23 10000 7.7 260 16:19 01.05.2020
3975 Clouds 24 1014 18 10000 6.2 250 15:55 01.05.2020
3976 Clouds 24 1014 18 10000 6.2 250 15:37 01.05.2020
3977 Clouds 24 1014 15 10000 6.2 250 15:18 01.05.2020
3978 Clouds 23 1014 23 10000 7.2 270 14:42 01.05.2020
3979 Clouds 23 1014 23 10000 7.2 270 14:23 01.05.2020
3980 Clouds 23 1014 30 8000 7.7 260 13:42 01.05.2020
3981 Clouds 23 1014 30 8000 7.7 260 13:23 01.05.2020
3982 Clear 23 1015 23 10000 6.2 240 12:59 01.05.2020
3983 Clear 23 1015 23 10000 6.2 240 12:40 01.05.2020
3984 Clear 23 1015 23 10000 6.2 240 12:20 01.05.2020
3985 Clear 23 1015 23 10000 6.2 240 11:59 01.05.2020
3986 Clear 22 1015 26 10000 6.2 240 11:41 01.05.2020
3987 Clear 22 1015 26 10000 6.2 240 11:19 01.05.2020
3988 Clear 21 1015 28 10000 6.2 240 10:54 01.05.2020
3989 Clear 21 1015 28 10000 6.2 240 10:36 01.05.2020
3990 Clear 20 1015 34 10000 4.1 240 10:18 01.05.2020
3991 Clear 20 1015 34 10000 4.1 240 09:41 01.05.2020
3992 Clear 20 1015 34 10000 4.1 240 09:19 01.05.2020
3993 Clear 19 1015 34 10000 1.5 230 08:46 01.05.2020
3994 Clear 19 1015 34 10000 1.5 230 08:46 01.05.2020
3995 Clouds 19 1015 34 10000 1.5 230 08:28 01.05.2020
3996 Haze 14 1015 50 5000 4.62 298 07:59 01.05.2020
3997 Haze 14 1015 50 5000 4.62 298 07:39 01.05.2020
3998 Haze 14 1015 50 5000 3.57 299 07:18 01.05.2020
3999 Clouds 11 1014 54 10000 1.5 180 06:27 01.05.2020
4000 Clouds 11 1014 54 10000 1.5 180 05:26 01.05.2020
4001 Clouds 13 1014 50 10000 3.81 306 03:45 01.05.2020
4002 Clouds 14 1014 50 10000 4.39 302 02:54 01.05.2020
4003 Clouds 14 1014 50 10000 4.39 302 02:35 01.05.2020
4004 Clouds 14 1015 54 10000 1.5 250 01:54 01.05.2020
4005 Clouds 14 1015 54 10000 1.5 250 01:27 01.05.2020
4006 Clouds 14 1015 54 10000 2.6 240 00:41 01.05.2020
4007 Clouds 14 1015 54 10000 2.6 240 00:41 01.05.2020
4008 Clouds 14 1015 54 10000 2.6 240 00:22 01.05.2020
4009 Clouds 14 1015 51 8000 2.6 240 23:57 30.04.2020
4010 Clouds 14 1015 51 8000 2.6 240 23:39 30.04.2020
4011 Clear 14 1015 51 8000 2.6 240 23:21 30.04.2020
4012 Clear 14 1016 54 7000 1.5 260 22:59 30.04.2020
4013 Clear 14 1016 54 7000 1.5 260 22:39 30.04.2020
4014 Clear 14 1016 54 7000 1.5 260 22:19 30.04.2020
4015 Clear 15 1016 54 7000 3.1 310 21:55 30.04.2020
4016 Clear 16 1016 54 7000 3.1 310 21:36 30.04.2020
4017 Clear 16 1016 54 7000 3.1 310 21:18 30.04.2020
4018 Clear 16 1015 67 7000 4.1 310 20:41 30.04.2020
4019 Clouds 16 1015 67 7000 4.1 310 20:19 30.04.2020
4020 Clouds 17 1015 63 7000 3.1 310 19:58 30.04.2020
4021 Clouds 18 1015 63 7000 3.1 310 19:38 30.04.2020
4022 Clouds 18 1015 63 7000 3.1 310 19:18 30.04.2020
4023 Clouds 20 1014 49 8000 4.1 310 18:40 30.04.2020
4024 Clouds 20 1014 49 8000 4.1 310 18:21 30.04.2020
4025 Clouds 23 1014 20 8000 4.1 250 17:59 30.04.2020
4026 Clouds 23 1014 20 8000 4.1 250 17:40 30.04.2020
4027 Clouds 23 1014 20 8000 4.1 250 17:22 30.04.2020
4028 Clouds 23 1014 16 8000 3.1 260 16:58 30.04.2020
4029 Clouds 23 1014 16 8000 3.1 260 16:40 30.04.2020
4030 Clouds 23 1014 15 8000 3.1 260 16:20 30.04.2020
4031 Clouds 23 1014 15 6000 3.1 280 15:54 30.04.2020
4032 Clouds 23 1014 15 6000 3.1 280 15:36 30.04.2020
4033 Clouds 23 1015 15 6000 4.1 240 15:18 30.04.2020
4034 Clouds 23 1015 15 6000 4.1 240 14:40 30.04.2020
4035 Clouds 23 1015 16 6000 4.1 240 14:20 30.04.2020
4036 Clouds 23 1015 28 6000 3.6 260 13:57 30.04.2020
4037 Clouds 23 1015 28 6000 3.6 260 13:39 30.04.2020
4038 Clouds 23 1015 28 6000 3.6 260 13:20 30.04.2020
4039 Clouds 23 1015 35 6000 4.1 270 12:55 30.04.2020
4040 Clouds 23 1015 35 6000 4.1 270 12:37 30.04.2020
4041 Clouds 23 1015 35 6000 4.1 270 12:18 30.04.2020
4042 Clouds 22 1015 28 7000 3.61 287 11:38 30.04.2020
4043 Clear 22 1015 28 7000 4.37 304 11:18 30.04.2020
4044 Clear 20 1016 30 7000 1.5 360 10:56 30.04.2020
4045 Clear 20 1016 30 7000 1.5 360 10:38 30.04.2020
4046 Clear 20 1016 30 7000 1.5 360 10:18 30.04.2020
4047 Clouds 19 1016 37 7000 2.6 350 09:44 30.04.2020
4048 Clouds 19 1016 37 7000 2.6 350 09:23 30.04.2020
4049 Clouds 15 1016 51 7000 2.1 250 08:57 30.04.2020
4050 Clouds 15 1016 51 7000 2.1 250 08:39 30.04.2020
4051 Clouds 13 1016 51 7000 2.1 250 08:20 30.04.2020
4052 Clouds 12 1016 67 7000 5.59 311 07:43 30.04.2020
4053 Clouds 12 1016 67 7000 5.78 309 07:24 30.04.2020
4054 Clouds 15 1014 52 0 5.78 309 06:48 30.04.2020
4055 Haze 8 1015 81 5000 1.5 50 05:49 30.04.2020
4056 Haze 8 1015 81 5000 1.5 50 05:28 30.04.2020
4057 Clouds 8 1015 81 6000 1.5 30 04:33 30.04.2020
4058 Clear 8 1015 87 6000 2.6 290 03:53 30.04.2020
4059 Clear 10 1015 76 6000 2.6 310 02:45 30.04.2020
4060 Clear 10 1015 76 6000 2.6 310 02:24 30.04.2020
4061 Clear 10 1016 76 7000 2.6 320 01:35 30.04.2020
4062 Clear 11 1016 87 6000 2.6 320 00:42 30.04.2020
4063 Clear 11 1016 87 6000 2.6 320 00:19 30.04.2020
4064 Clear 11 1016 81 6000 3.6 310 23:57 29.04.2020
4065 Clear 11 1016 81 6000 3.6 310 23:37 29.04.2020
4066 Clear 11 1016 81 6000 3.6 310 23:37 29.04.2020
4067 Clear 11 1016 81 6000 3.6 310 23:18 29.04.2020
4068 Clear 12 1016 81 6000 4.1 350 22:40 29.04.2020
4069 Clear 12 1016 81 6000 4.1 350 22:21 29.04.2020
4070 Clear 12 1016 81 6000 4.1 350 22:21 29.04.2020
4071 Clear 13 1016 76 6000 3.6 310 21:59 29.04.2020
4072 Clear 13 1016 76 6000 3.6 310 21:37 29.04.2020
4073 Clear 13 1016 76 6000 3.6 310 21:19 29.04.2020
4074 Clear 14 1015 76 6000 4.1 320 20:55 29.04.2020
4075 Clear 14 1015 76 6000 4.1 320 20:36 29.04.2020
4076 Clear 14 1015 76 6000 4.1 320 20:18 29.04.2020
4077 Clear 14 1015 76 6000 4.1 320 20:18 29.04.2020
4078 Clouds 16 1014 67 6000 4.6 320 19:42 29.04.2020
4079 Clouds 16 1014 67 6000 4.6 320 19:20 29.04.2020
4080 Haze 17 1014 59 5000 5.7 290 18:57 29.04.2020
4081 Haze 17 1014 59 5000 5.7 290 18:38 29.04.2020
4082 Haze 17 1014 59 5000 5.7 290 18:18 29.04.2020
4083 Haze 19 1014 48 5000 7.2 280 17:41 29.04.2020
4084 Haze 19 1014 48 5000 7.2 280 17:21 29.04.2020
4085 Clouds 21 1014 37 6000 6.2 290 16:55 29.04.2020
4086 Clouds 21 1014 37 6000 6.2 290 16:36 29.04.2020
4087 Clouds 21 1014 37 6000 6.2 290 16:18 29.04.2020
4088 Clouds 21 1014 40 7000 5.1 290 15:55 29.04.2020
4089 Clouds 21 1014 40 7000 5.1 290 15:36 29.04.2020
4090 Clouds 21 1014 40 7000 5.1 290 15:18 29.04.2020
4091 Clouds 21 1014 40 7000 6.2 290 14:42 29.04.2020
4092 Clouds 21 1014 40 7000 6.2 290 14:23 29.04.2020
4093 Clouds 21 1014 40 7000 4.1 280 13:56 29.04.2020
4094 Clouds 21 1014 40 7000 4.1 280 13:38 29.04.2020
4095 Clouds 21 1014 40 7000 4.1 280 13:38 29.04.2020
4096 Clouds 21 1014 40 7000 4.1 280 13:18 29.04.2020
4097 Clouds 20 1014 42 7000 5.1 300 12:41 29.04.2020
4098 Clouds 20 1014 42 7000 5.1 300 12:19 29.04.2020
4099 Clouds 19 1014 45 7000 5.1 300 11:59 29.04.2020
4100 Clouds 19 1014 45 7000 5.1 300 11:38 29.04.2020
4101 Clouds 19 1014 45 7000 5.1 300 11:20 29.04.2020
4102 Clouds 18 1014 48 7000 5.1 300 10:54 29.04.2020
4103 Clouds 18 1014 48 7000 5.1 300 10:54 29.04.2020
4104 Clouds 18 1014 48 7000 5.1 300 10:36 29.04.2020
4105 Haze 16 1014 59 5000 5.1 270 10:18 29.04.2020
4106 Haze 16 1014 59 5000 5.1 270 09:41 29.04.2020
4107 Haze 16 1014 59 5000 5.1 270 09:21 29.04.2020
4108 Haze 15 1012 62 5000 6.2 270 08:44 29.04.2020
4109 Haze 15 1012 62 5000 6.2 270 08:26 29.04.2020
4110 Haze 15 1012 62 5000 6.2 270 08:26 29.04.2020
4111 Haze 13 1013 71 5000 3.1 260 07:55 29.04.2020
4112 Haze 13 1013 71 5000 3.1 260 07:29 29.04.2020
4113 Haze 12 1013 76 5000 3.1 260 06:53 29.04.2020
4114 Haze 12 1013 76 5000 3.1 260 06:32 29.04.2020
4115 Haze 11 1013 87 5000 3.1 260 05:53 29.04.2020
4116 Haze 10 1013 87 5000 3.1 260 05:19 29.04.2020
4117 Haze 8 1013 81 5000 3.1 260 04:20 29.04.2020
4118 Clouds 15 1011 28 0 5.08 307 03:53 29.04.2020
4119 Clouds 14 1012 67 8000 4.88 302 02:30 29.04.2020
4120 Clouds 13 1012 62 8000 4.26 311 01:37 29.04.2020
4121 Clouds 13 1012 62 8000 4.33 326 01:19 29.04.2020
4122 Clouds 13 1012 62 8000 4.33 326 00:38 29.04.2020
4123 Clouds 13 1012 62 8000 4.78 326 00:18 29.04.2020
4124 Clouds 14 1012 58 8000 4.78 326 23:45 28.04.2020
4125 Clouds 14 1012 58 8000 5.33 325 23:22 28.04.2020
4126 Clouds 15 1012 55 8000 5.33 325 22:40 28.04.2020
4127 Clouds 15 1012 55 8000 6.05 328 22:22 28.04.2020
4128 Clouds 15 1012 55 8000 6.05 328 22:22 28.04.2020
4129 Clouds 16 1012 51 8000 6.05 328 21:59 28.04.2020
4130 Clouds 16 1012 51 8000 6.05 328 21:59 28.04.2020
4131 Clouds 16 1012 51 8000 5.49 326 21:41 28.04.2020
4132 Clouds 16 1012 51 8000 6.48 327 21:23 28.04.2020
4133 Clouds 17 1012 48 8000 6.48 327 20:59 28.04.2020
4134 Clouds 17 1012 48 8000 6.48 327 20:40 28.04.2020
4135 Clouds 17 1012 48 8000 6.97 330 20:21 28.04.2020
4136 Clouds 19 1011 34 7000 1.5 240 19:58 28.04.2020
4137 Clouds 19 1011 34 7000 1.5 240 19:39 28.04.2020
4138 Clouds 19 1011 34 7000 1.5 240 19:20 28.04.2020
4139 Clouds 21 1011 32 6000 2.6 240 18:57 28.04.2020
4140 Clouds 21 1011 32 6000 2.6 240 18:38 28.04.2020
4141 Clouds 21 1011 32 6000 2.6 240 18:19 28.04.2020
4142 Clouds 23 1011 30 6000 2.1 230 17:38 28.04.2020
4143 Clouds 23 1011 30 6000 2.1 230 17:20 28.04.2020
4144 Clouds 24 1011 29 0 5.86 307 16:59 28.04.2020
4145 Clouds 24 1011 29 0 5.86 307 16:40 28.04.2020
4146 Clear 24 1011 29 0 5.47 300 16:22 28.04.2020
4147 Clear 25 1011 25 10000 5.47 300 15:57 28.04.2020
4148 Clear 25 1011 25 10000 5.47 300 15:39 28.04.2020
4149 Clear 25 1011 25 10000 4.62 289 15:20 28.04.2020
4150 Clear 24 1012 27 10000 2.1 230 14:57 28.04.2020
4151 Clear 24 1012 27 10000 2.1 230 14:39 28.04.2020
4152 Clear 24 1012 27 10000 2.1 230 14:19 28.04.2020
4153 Clear 24 1012 27 10000 2.1 230 13:57 28.04.2020
4154 Clear 24 1012 23 10000 4.06 277 13:37 28.04.2020
4155 Clear 24 1012 23 10000 3.88 277 13:19 28.04.2020
4156 Clear 24 1012 23 10000 3.88 277 12:44 28.04.2020
4157 Clear 24 1012 23 10000 3.58 274 12:24 28.04.2020
4158 Clear 23 1013 26 10000 3.58 274 11:44 28.04.2020
4159 Clear 23 1013 26 10000 2.93 272 11:24 28.04.2020
4160 Clear 21 1013 37 6000 2.93 272 10:59 28.04.2020
4161 Clear 21 1013 37 6000 2.93 272 10:39 28.04.2020
4162 Clear 21 1013 37 6000 2.93 272 10:39 28.04.2020
4163 Clear 21 1013 37 6000 1.86 271 10:19 28.04.2020
4164 Clear 19 1013 39 6000 1.86 271 09:57 28.04.2020
4165 Clear 19 1013 39 6000 1.86 271 09:39 28.04.2020
4166 Clear 19 1013 39 6000 0.9 266 09:20 28.04.2020
4167 Clear 17 1013 42 6000 1.58 251 08:45 28.04.2020
4168 Clear 17 1013 42 6000 1.18 248 08:26 28.04.2020
4169 Haze 15 1013 51 5000 1.18 248 07:45 28.04.2020
4170 Haze 15 1013 51 5000 1.01 261 07:20 28.04.2020
4171 Haze 12 1012 62 5000 1.01 261 06:50 28.04.2020
4172 Haze 12 1012 62 5000 1.13 281 06:22 28.04.2020
4173 Haze 9 1012 66 5000 2.1 240 05:41 28.04.2020
4174 Haze 9 1012 66 5000 2.1 240 05:20 28.04.2020
4175 Clear 11 1012 62 6000 2.6 240 04:27 28.04.2020
4176 Clear 12 1012 58 6000 1.5 240 02:34 28.04.2020
4177 Clouds 12 1013 58 6000 2.1 250 01:23 28.04.2020
4178 Clouds 12 1013 58 6000 2.1 250 01:23 28.04.2020
4179 Clouds 13 1013 54 6000 3.1 250 00:56 28.04.2020
4180 Clouds 13 1013 54 6000 3.1 250 00:23 28.04.2020
4181 Clouds 14 1013 50 6000 3.1 250 23:47 27.04.2020
4182 Clouds 14 1013 50 6000 3.1 250 23:24 27.04.2020
4183 Clouds 14 1013 50 7000 1.87 291 22:56 27.04.2020
4184 Clouds 14 1013 50 7000 1.87 291 22:38 27.04.2020
4185 Clouds 14 1013 50 7000 2.14 334 22:19 27.04.2020
4186 Clouds 14 1013 50 7000 2.1 250 21:56 27.04.2020
4187 Clouds 14 1013 50 7000 2.1 250 21:38 27.04.2020
4188 Clouds 14 1013 50 7000 2.1 250 21:18 27.04.2020
4189 Clouds 15 1013 47 6000 3.1 270 20:44 27.04.2020
4190 Clouds 15 1013 47 6000 3.1 270 20:22 27.04.2020
4191 Clouds 16 1013 38 6000 5.1 260 19:59 27.04.2020
4192 Clouds 16 1013 38 6000 5.1 260 19:39 27.04.2020
4193 Clouds 16 1013 38 6000 5.1 260 19:21 27.04.2020
4194 Clouds 17 1013 21 6000 6.7 270 18:58 27.04.2020
4195 Clouds 17 1013 21 6000 6.7 270 18:40 27.04.2020
4196 Clouds 17 1013 21 6000 6.7 270 18:19 27.04.2020
4197 Haze 19 1013 36 5000 6.2 250 17:54 27.04.2020
4198 Haze 19 1013 36 5000 6.2 250 17:36 27.04.2020
4199 Haze 19 1013 36 5000 6.2 250 17:18 27.04.2020
4200 Clouds 20 1013 37 7000 8.2 250 16:40 27.04.2020
4201 Clouds 20 1013 37 7000 8.2 250 16:21 27.04.2020
4202 Clouds 20 1013 34 7000 8.2 280 15:57 27.04.2020
4203 Clouds 20 1013 34 7000 8.2 280 15:38 27.04.2020
4204 Clouds 20 1013 34 7000 8.2 280 15:19 27.04.2020
4205 Clouds 21 1014 34 7000 6.2 240 14:56 27.04.2020
4206 Clouds 21 1014 34 7000 6.2 240 14:38 27.04.2020
4207 Clouds 21 1014 34 7000 6.2 240 14:18 27.04.2020
4208 Clouds 21 1015 32 7000 5.1 280 13:42 27.04.2020
4209 Clouds 21 1015 32 7000 5.1 280 13:42 27.04.2020
4210 Clouds 21 1015 32 7000 5.1 280 13:22 27.04.2020
4211 Clouds 19 1015 36 7000 6.2 250 12:58 27.04.2020
4212 Clouds 19 1015 36 7000 6.2 250 12:40 27.04.2020
4213 Clouds 19 1015 36 7000 6.2 250 12:20 27.04.2020
4214 Clouds 19 1015 39 7000 6.2 260 11:41 27.04.2020
4215 Clouds 19 1015 39 7000 6.2 260 11:22 27.04.2020
4216 Haze 17 1015 51 5000 6.7 250 10:58 27.04.2020
4217 Haze 17 1015 51 5000 6.7 250 10:39 27.04.2020
4218 Haze 17 1015 51 5000 6.7 250 10:21 27.04.2020
4219 Haze 16 1015 55 5000 4.6 230 09:54 27.04.2020
4220 Haze 16 1015 55 5000 4.6 230 09:36 27.04.2020
4221 Haze 16 1015 55 5000 4.6 230 09:18 27.04.2020
4222 Haze 15 1016 62 5000 5.1 260 08:43 27.04.2020
4223 Haze 15 1016 62 5000 5.1 260 08:25 27.04.2020
4224 Haze 11 1015 66 5000 1 280 07:44 27.04.2020
4225 Haze 11 1015 66 5000 1 280 07:22 27.04.2020
4226 Haze 9 1015 76 4000 2.1 230 06:57 27.04.2020
4227 Haze 9 1015 76 4000 2.1 230 06:27 27.04.2020
4228 Haze 9 1014 76 5000 2.1 190 05:50 27.04.2020
4229 Clear 9 1015 71 6000 1.5 180 04:55 27.04.2020
4230 Clear 9 1015 62 7000 1 170 04:36 27.04.2020
4231 Clear 9 1015 62 7000 1 170 03:43 27.04.2020
4232 Clear 9 1015 71 7000 2.6 260 01:51 27.04.2020
4233 Clear 9 1015 71 7000 2.6 260 01:19 27.04.2020
4234 Clear 9 1015 66 7000 2.1 280 00:21 27.04.2020
4235 Clear 10 1016 71 7000 1.5 100 23:59 26.04.2020
4236 Clear 10 1016 71 7000 1.5 100 23:41 26.04.2020
4237 Clear 10 1016 71 7000 1.5 100 23:22 26.04.2020
4238 Clear 11 1016 66 6000 1.5 110 22:59 26.04.2020
4239 Clear 11 1016 66 6000 1.5 110 22:40 26.04.2020
4240 Clear 11 1016 66 6000 1.5 110 22:21 26.04.2020
4241 Clear 11 1016 71 6000 2.1 340 21:58 26.04.2020
4242 Clear 11 1016 71 6000 2.1 340 21:39 26.04.2020
4243 Clear 11 1016 71 6000 2.1 340 21:19 26.04.2020
4244 Haze 12 1015 66 5000 3.6 340 20:55 26.04.2020
4245 Haze 12 1015 66 5000 3.6 340 20:37 26.04.2020
4246 Haze 12 1015 66 5000 3.6 340 20:19 26.04.2020
4247 Haze 12 1015 66 5000 3.6 340 20:19 26.04.2020
4248 Haze 15 1015 54 5000 4.6 310 19:57 26.04.2020
4249 Haze 15 1015 54 5000 4.6 310 19:37 26.04.2020
4250 Haze 15 1015 54 5000 4.6 310 19:19 26.04.2020
4251 Haze 16 1015 54 5000 6.7 280 18:43 26.04.2020
4252 Haze 16 1015 54 5000 6.7 280 18:24 26.04.2020
4253 Haze 18 1014 45 5000 6.7 280 17:44 26.04.2020
4254 Haze 18 1014 45 5000 6.7 280 17:44 26.04.2020
4255 Haze 18 1014 45 5000 6.7 280 17:24 26.04.2020
4256 Clouds 18 1013 42 6000 6.7 270 16:59 26.04.2020
4257 Clouds 18 1013 42 6000 6.7 270 16:40 26.04.2020
4258 Clouds 18 1013 42 6000 6.7 270 16:21 26.04.2020
4259 Clouds 18 1013 45 8000 6.2 260 15:58 26.04.2020
4260 Clouds 19 1013 45 8000 6.2 260 15:38 26.04.2020
4261 Clouds 19 1013 45 8000 6.2 260 15:20 26.04.2020
4262 Clouds 19 1013 45 8000 5.1 270 14:54 26.04.2020
4263 Clouds 19 1013 45 8000 5.1 270 14:36 26.04.2020
4264 Clouds 19 1013 45 8000 5.1 270 14:18 26.04.2020
4265 Clouds 17 1014 45 8000 5.1 270 13:41 26.04.2020
4266 Clouds 17 1014 45 8000 5.1 270 13:23 26.04.2020
4267 Clouds 16 1014 55 10000 5.1 270 12:58 26.04.2020
4268 Clouds 16 1014 55 10000 5.1 270 12:40 26.04.2020
4269 Clouds 16 1014 55 10000 5.1 270 12:20 26.04.2020
4270 Clouds 15 1014 54 10000 6.2 290 11:57 26.04.2020
4271 Clouds 15 1014 54 10000 6.2 290 11:39 26.04.2020
4272 -273 0 0 0 0 0 11:21 26.04.2020
4273 Clouds 15 1014 62 10000 6.2 290 10:55 26.04.2020
4274 Clouds 15 1014 62 10000 6.2 290 10:37 26.04.2020
4275 Clouds 15 1014 62 10000 6.2 290 10:18 26.04.2020
4276 Clouds 14 1013 62 10000 6.2 270 09:39 26.04.2020
4277 Clouds 14 1013 62 10000 6.2 270 09:21 26.04.2020
4278 Clouds 12 1013 66 10000 6.7 280 08:46 26.04.2020
4279 Clouds 12 1013 66 10000 6.7 280 08:23 26.04.2020
4280 Clouds 12 1013 66 10000 6.2 270 07:59 26.04.2020
4281 Clouds 12 1013 66 10000 6.2 270 07:40 26.04.2020
4282 Clouds 12 1013 66 10000 6.2 270 07:20 26.04.2020
4283 Mist 10 1013 87 5000 5.1 250 06:40 26.04.2020
4284 Mist 8 1012 100 4000 5.1 250 05:55 26.04.2020
4285 Mist 8 1012 100 4000 5.1 250 05:37 26.04.2020
4286 Mist 8 1012 100 4000 5.1 250 04:56 26.04.2020
4287 Rain 11 1011 87 6000 5.1 250 04:22 26.04.2020
4288 Rain 11 1011 87 6000 5.1 250 02:47 26.04.2020
4289 Rain 11 1011 87 6000 5.1 250 02:28 26.04.2020
4290 Rain 11 1011 81 6000 5.1 260 01:46 26.04.2020
4291 Rain 11 1011 81 6000 5.1 260 01:26 26.04.2020
4292 Clouds 12 1011 76 10000 6.2 250 00:39 26.04.2020
4293 Clouds 12 1011 76 10000 6.2 250 00:19 26.04.2020
4294 Clouds 12 1011 76 10000 6.2 250 23:39 25.04.2020
4295 Clouds 12 1011 76 10000 6.2 250 23:20 25.04.2020
4296 Clouds 12 1010 76 10000 5.1 270 22:58 25.04.2020
4297 Clouds 12 1010 76 10000 5.1 270 22:39 25.04.2020
4298 Clouds 12 1010 76 10000 5.1 270 22:19 25.04.2020
4299 Clouds 12 1010 76 10000 6.7 270 21:54 25.04.2020
4300 Clouds 12 1010 76 10000 6.7 270 21:36 25.04.2020
4301 Clouds 12 1010 76 10000 6.7 270 21:18 25.04.2020
4302 Clouds 12 1010 71 10000 7.7 250 20:42 25.04.2020
4303 Clouds 12 1010 71 10000 7.7 250 20:22 25.04.2020
4304 Clouds 13 1009 62 10000 7.2 270 19:56 25.04.2020
4305 Clouds 13 1009 62 10000 7.2 270 19:38 25.04.2020
4306 Clouds 13 1009 62 10000 7.2 270 19:19 25.04.2020
4307 Clouds 14 1009 62 6000 7.2 270 18:42 25.04.2020
4308 Clouds 14 1009 62 6000 7.2 270 18:21 25.04.2020
4309 Clouds 15 1009 58 6000 7.2 270 17:58 25.04.2020
4310 Clouds 15 1009 58 6000 7.2 270 17:39 25.04.2020
4311 Clouds 15 1009 58 6000 7.2 270 17:20 25.04.2020
4312 Clouds 15 1009 54 6000 7.7 270 16:58 25.04.2020
4313 Clouds 15 1009 54 6000 7.7 270 16:40 25.04.2020
4314 Clouds 15 1009 54 6000 7.7 270 16:21 25.04.2020
4315 Clouds 17 1010 55 6000 8.7 270 15:54 25.04.2020
4316 Clouds 17 1010 55 6000 8.7 270 15:36 25.04.2020
4317 Clouds 17 1010 55 6000 8.7 270 15:18 25.04.2020
4318 Clouds 18 1010 55 6000 8.2 280 14:39 25.04.2020
4319 Clouds 18 1010 55 6000 8.2 280 14:20 25.04.2020
4320 Clouds 17 1010 59 7000 8.2 280 13:59 25.04.2020
4321 Clouds 17 1010 59 7000 8.2 280 13:40 25.04.2020
4322 Clouds 17 1010 59 7000 8.2 280 13:18 25.04.2020
4323 Clouds 17 1010 63 7000 6.2 260 12:55 25.04.2020
4324 Clouds 17 1010 63 7000 6.2 260 12:36 25.04.2020
4325 Clouds 17 1010 63 7000 6.2 260 12:18 25.04.2020
4326 Rain 16 1010 67 7000 6.2 270 11:41 25.04.2020
4327 Rain 16 1010 67 7000 6.2 270 11:23 25.04.2020
4328 Clouds 15 1010 77 7000 5.1 250 10:57 25.04.2020
4329 Clouds 15 1010 77 7000 5.1 250 10:38 25.04.2020
4330 Clouds 15 1010 77 7000 5.1 250 10:19 25.04.2020
4331 Rain 14 1010 82 5000 4.1 280 09:43 25.04.2020
4332 Rain 15 1010 82 5000 4.1 280 09:22 25.04.2020
4333 Drizzle 15 1009 76 5000 4.1 280 08:55 25.04.2020
4334 Drizzle 15 1009 76 5000 4.1 280 08:37 25.04.2020
4335 Drizzle 15 1009 76 5000 4.1 280 08:19 25.04.2020
4336 Haze 15 1009 82 4000 5.1 260 07:43 25.04.2020
4337 Haze 15 1009 82 4000 5.1 260 07:22 25.04.2020
4338 Mist 14 1008 93 4000 5.1 260 06:43 25.04.2020
4339 Drizzle 14 1009 71 5000 3.1 280 05:47 25.04.2020
4340 Drizzle 14 1009 71 5000 3.1 280 05:28 25.04.2020
4341 Haze 14 1008 76 5000 2.1 330 04:24 25.04.2020
4342 Haze 14 1008 76 5000 5.1 270 02:44 25.04.2020
4343 Haze 14 1008 76 5000 5.1 270 02:19 25.04.2020
4344 Dust 15 1008 82 3500 5.1 240 01:50 25.04.2020
4345 Dust 15 1008 82 3500 5.1 240 01:26 25.04.2020
4346 Dust 15 1007 82 3500 5.1 240 00:50 25.04.2020
4347 Dust 16 1007 82 3500 5.1 240 00:29 25.04.2020
4348 Dust 17 1005 63 2000 6.2 260 23:43 24.04.2020
4349 Dust 18 1006 48 3000 7.2 260 23:22 24.04.2020
4350 Dust 20 1006 48 3000 7.2 260 22:56 24.04.2020
4351 Dust 20 1006 48 3000 7.2 260 22:37 24.04.2020
4352 Dust 20 1006 48 3000 7.2 260 22:19 24.04.2020
4353 Dust 20 1005 40 2000 6.7 250 21:54 24.04.2020
4354 Dust 20 1005 40 2000 6.7 250 21:36 24.04.2020
4355 Dust 20 1005 40 2000 6.7 250 21:18 24.04.2020
4356 Dust 22 1004 35 1500 5.1 250 20:44 24.04.2020
4357 Dust 22 1004 35 1500 5.1 250 20:19 24.04.2020
4358 Dust 23 1004 35 1500 5.1 250 19:58 24.04.2020
4359 Dust 23 1003 33 1000 4.1 250 19:39 24.04.2020
4360 Dust 23 1003 33 1000 4.1 250 19:20 24.04.2020
4361 Dust 24 1003 25 1000 3.1 250 18:43 24.04.2020
4362 Dust 24 1003 25 1000 3.1 250 18:25 24.04.2020
4363 Dust 25 1003 27 4000 1.5 180 17:54 24.04.2020
4364 Dust 25 1003 27 4000 1.5 180 17:36 24.04.2020
4365 Dust 25 1003 27 4000 1.5 180 17:18 24.04.2020
4366 Haze 25 1004 27 5000 2.6 120 16:56 24.04.2020
4367 Haze 26 1004 27 5000 2.6 120 16:38 24.04.2020
4368 Haze 26 1004 27 5000 2.6 120 16:20 24.04.2020
4369 Haze 26 1004 29 5000 2.6 110 15:41 24.04.2020
4370 Haze 26 1004 29 5000 2.6 110 15:20 24.04.2020
4371 Haze 25 1007 31 5000 4.6 120 14:41 24.04.2020
4372 Haze 25 1007 31 5000 4.6 120 14:22 24.04.2020
4373 Clouds 25 1007 29 6000 2.6 130 13:59 24.04.2020
4374 Clouds 25 1007 29 6000 2.6 130 13:41 24.04.2020
4375 Clouds 25 1007 29 6000 2.6 130 13:20 24.04.2020
4376 Haze 23 1009 28 5000 5.1 150 12:57 24.04.2020
4377 Haze 23 1009 28 5000 5.1 150 12:57 24.04.2020
4378 Haze 22 1009 28 5000 5.1 150 12:39 24.04.2020
4379 Haze 22 1009 28 5000 5.1 150 12:19 24.04.2020
4380 Clouds 21 1011 43 6000 1.5 80 11:43 24.04.2020
4381 Clouds 21 1011 43 6000 1.5 80 11:21 24.04.2020
4382 Clouds 20 1010 45 6000 3.1 160 10:57 24.04.2020
4383 Clouds 20 1010 45 6000 3.1 160 10:38 24.04.2020
4384 Clouds 20 1010 45 6000 3.1 160 10:20 24.04.2020
4385 Haze 18 1011 42 5000 1.5 180 09:55 24.04.2020
4386 Haze 18 1011 42 5000 1.5 180 09:36 24.04.2020
4387 Haze 18 1011 42 5000 1.5 180 09:18 24.04.2020
4388 Haze 16 1012 67 5000 2.1 200 08:42 24.04.2020
4389 Haze 16 1012 67 5000 2.1 200 08:20 24.04.2020
4390 Clouds 14 1011 62 6000 3.2 160 07:56 24.04.2020
4391 Clouds 14 1011 62 6000 3.2 160 07:56 24.04.2020
4392 Clouds 14 1011 62 6000 3.2 160 07:38 24.04.2020
4393 Clouds 14 1011 62 6000 3.2 160 07:19 24.04.2020
4394 Clouds 13 1011 71 6000 1.5 60 06:42 24.04.2020
4395 Clear 11 1011 71 6000 1.5 60 05:51 24.04.2020
4396 Clear 11 1012 71 6000 2.1 240 05:20 24.04.2020
4397 Clear 13 1012 71 6000 2.1 240 03:34 24.04.2020
4398 Clouds 14 1012 71 6000 2.6 240 02:50 24.04.2020
4399 Clouds 14 1012 71 6000 2.6 240 02:30 24.04.2020
4400 Clouds 14 1013 71 6000 2.1 240 01:46 24.04.2020
4401 Clouds 14 1014 71 6000 2.6 230 00:50 24.04.2020
4402 Clouds 14 1014 71 6000 2.6 230 00:19 24.04.2020
4403 Clouds 15 1014 67 6000 2.6 230 23:46 23.04.2020
4404 Clouds 15 1014 67 6000 2.6 230 23:27 23.04.2020
4405 Clouds 15 1014 67 6000 2.6 230 22:58 23.04.2020
4406 Clouds 15 1014 62 6000 1.5 280 22:39 23.04.2020
4407 Clouds 15 1014 62 6000 1.5 280 22:39 23.04.2020
4408 Clouds 15 1014 62 6000 1.5 280 22:20 23.04.2020
4409 Clouds 16 1012 72 6000 1.5 280 21:57 23.04.2020
4410 Clouds 16 1012 72 6000 1.5 280 21:57 23.04.2020
4411 Clouds 16 1012 72 6000 1.5 280 21:39 23.04.2020
4412 Clouds 16 1012 72 6000 1.5 280 21:20 23.04.2020
4413 Clouds 16 1012 72 6000 1.5 280 21:20 23.04.2020
4414 Clouds 17 1012 63 6000 4.1 280 20:57 23.04.2020
4415 Clouds 17 1012 63 6000 4.1 280 20:39 23.04.2020
4416 Clouds 17 1012 63 6000 4.1 280 20:19 23.04.2020
4417 Clouds 18 1012 59 6000 5.1 280 19:56 23.04.2020
4418 Clouds 18 1012 59 6000 5.1 280 19:38 23.04.2020
4419 Clouds 18 1012 59 6000 5.1 280 19:19 23.04.2020
4420 Clouds 18 1012 59 6000 5.1 280 19:19 23.04.2020
4421 Clouds 18 1012 59 6000 6.7 310 18:41 23.04.2020
4422 Clouds 19 1012 59 6000 6.7 310 18:23 23.04.2020
4423 Haze 20 1012 45 5000 7.2 270 17:58 23.04.2020
4424 Haze 20 1012 45 5000 7.2 270 17:58 23.04.2020
4425 Haze 20 1012 45 5000 7.2 270 17:39 23.04.2020
4426 Haze 20 1012 45 5000 7.2 270 17:21 23.04.2020
4427 Haze 21 1012 45 5000 7.2 270 16:57 23.04.2020
4428 Dust 22 1011 43 5000 8.7 260 16:38 23.04.2020
4429 Dust 22 1011 43 5000 8.7 260 16:18 23.04.2020
4430 Dust 22 1012 43 5000 8.7 260 15:42 23.04.2020
4431 Haze 21 1012 52 5000 5.7 270 15:22 23.04.2020
4432 Haze 21 1012 52 5000 5.7 270 14:56 23.04.2020
4433 Haze 21 1012 52 5000 5.7 270 14:37 23.04.2020
4434 Haze 21 1012 52 5000 5.7 270 14:19 23.04.2020
4435 Dust 21 1013 56 4000 7.2 240 13:55 23.04.2020
4436 Dust 21 1013 56 4000 7.2 240 13:36 23.04.2020
4437 Dust 20 1013 56 4500 7.2 240 13:18 23.04.2020
4438 Dust 20 1013 56 4500 7.2 240 12:42 23.04.2020
4439 Dust 20 1013 56 4500 7.2 240 12:23 23.04.2020
4440 Dust 20 1013 56 4500 7.2 240 11:55 23.04.2020
4441 Dust 20 1013 56 4500 7.2 240 11:36 23.04.2020
4442 Dust 19 1013 52 4500 4.6 240 11:18 23.04.2020
4443 Dust 19 1013 52 4500 4.6 240 10:41 23.04.2020
4444 Dust 19 1013 52 4500 4.6 240 10:21 23.04.2020
4445 Dust 19 1013 59 4000 4.6 240 09:41 23.04.2020
4446 Dust 19 1013 59 4000 4.6 240 09:20 23.04.2020
4447 Dust 18 1013 59 4000 4.6 240 08:57 23.04.2020
4448 Dust 17 1013 72 4000 6.2 250 08:39 23.04.2020
4449 Dust 17 1013 72 4000 6.2 250 08:21 23.04.2020
4450 Haze 16 1012 77 4000 5.1 250 07:42 23.04.2020
4451 Haze 16 1012 77 4000 5.1 250 07:23 23.04.2020
4452 Dust 16 1012 77 4000 3.1 280 06:47 23.04.2020
4453 Dust 15 1011 82 4000 5.7 240 05:58 23.04.2020
4454 Dust 15 1011 82 4000 5.7 240 05:23 23.04.2020
4455 Dust 16 1010 77 5000 6.2 240 04:51 23.04.2020
4456 Dust 20 1009 42 5000 5.1 250 02:24 23.04.2020
4457 Dust 21 1010 40 4000 5.7 240 01:46 23.04.2020
4458 Dust 21 1010 40 4000 5.7 240 01:24 23.04.2020
4459 Dust 22 1010 33 4000 4.1 240 00:45 23.04.2020
4460 Dust 22 1010 33 4000 4.6 240 00:18 23.04.2020
4461 Dust 22 1010 33 4000 4.6 240 23:48 22.04.2020
4462 Dust 22 1010 33 4000 4.6 240 23:23 22.04.2020
4463 Haze 21 1010 35 5000 5.1 250 22:56 22.04.2020
4464 Haze 21 1010 35 5000 5.1 250 22:37 22.04.2020
4465 Haze 21 1010 35 5000 5.1 250 22:19 22.04.2020
4466 Haze 21 1009 46 5000 1 240 21:55 22.04.2020
4467 Haze 21 1009 46 5000 1 240 21:37 22.04.2020
4468 Haze 21 1009 46 5000 1 240 21:19 22.04.2020
4469 Haze 23 1009 43 5000 1.5 270 20:43 22.04.2020
4470 Haze 23 1009 43 5000 1.5 270 20:19 22.04.2020
4471 Dust 24 1009 38 5000 2.1 330 19:58 22.04.2020
4472 Dust 24 1009 38 5000 2.1 330 19:39 22.04.2020
4473 Dust 24 1009 38 5000 2.1 330 19:39 22.04.2020
4474 Dust 24 1009 38 5000 2.1 330 19:19 22.04.2020
4475 Dust 27 1008 33 5000 4.6 340 18:59 22.04.2020
4476 Dust 27 1008 33 5000 4.6 340 18:40 22.04.2020
4477 Dust 27 1008 33 5000 4.6 340 18:22 22.04.2020
4478 Dust 28 1008 28 4000 6.2 270 17:57 22.04.2020
4479 Dust 28 1008 28 4000 6.2 270 17:39 22.04.2020
4480 Clear 29 1009 24 6000 5.1 250 17:20 22.04.2020
4481 Clear 29 1009 24 6000 5.1 250 16:43 22.04.2020
4482 Clear 29 1009 24 6000 5.1 250 16:25 22.04.2020
4483 Clear 29 1010 26 6000 6.2 260 15:54 22.04.2020
4484 Clear 29 1010 26 6000 6.2 260 15:36 22.04.2020
4485 Clear 29 1010 28 6000 6.2 270 15:18 22.04.2020
4486 Clear 29 1010 28 6000 6.2 270 15:18 22.04.2020
4487 Clear 29 1010 28 6000 6.2 270 14:41 22.04.2020
4488 Clear 29 1010 28 6000 6.2 270 14:21 22.04.2020
4489 Clear 29 1011 24 6000 8.2 250 13:59 22.04.2020
4490 Clear 29 1011 24 6000 8.2 250 13:40 22.04.2020
4491 Clear 28 1011 28 6000 9.3 230 13:19 22.04.2020
4492 Clear 28 1011 28 6000 9.3 230 12:42 22.04.2020
4493 Clear 28 1011 28 6000 9.3 230 12:23 22.04.2020
4494 Clear 27 1011 31 7000 4.1 290 11:58 22.04.2020
4495 Clear 27 1011 31 7000 4.1 290 11:38 22.04.2020
4496 Clear 27 1011 31 7000 4.1 290 11:18 22.04.2020
4497 Clear 27 1012 29 6000 2.1 230 10:42 22.04.2020
4498 Clear 27 1012 29 6000 2.1 230 10:24 22.04.2020
4499 Haze 25 1012 38 5000 3.6 230 09:43 22.04.2020
4500 Haze 24 1012 38 5000 3.6 230 09:24 22.04.2020
4501 Haze 22 1012 53 5000 2.1 240 08:59 22.04.2020
4502 Haze 22 1012 53 5000 2.1 240 08:59 22.04.2020
4503 Haze 22 1012 53 5000 2.1 240 08:41 22.04.2020
4504 Haze 22 1012 53 5000 2.1 240 08:23 22.04.2020
4505 Haze 20 1012 68 4000 3.95 237 07:54 22.04.2020
4506 Haze 20 1012 68 4000 3.95 237 07:36 22.04.2020
4507 Haze 20 1012 68 4000 3.95 237 07:18 22.04.2020
4508 Haze 19 1012 63 4000 3.95 237 06:41 22.04.2020
4509 Dust 16 1012 68 5000 3.21 253 05:39 22.04.2020
4510 Clear 21 1009 37 0 3.21 253 04:42 22.04.2020
4511 Dust 18 1012 72 5000 2.2 273 02:59 22.04.2020
4512 Dust 18 1012 72 5000 2.33 272 02:18 22.04.2020
4513 Dust 19 1013 68 5000 2.33 272 01:39 22.04.2020
4514 Dust 19 1013 68 5000 2.33 272 01:19 22.04.2020
4515 Dust 19 1013 72 5000 2.33 272 00:41 22.04.2020
4516 Dust 18 1013 72 5000 2.57 295 00:20 22.04.2020
4517 Dust 19 1013 64 5000 2.57 295 23:44 21.04.2020
4518 Dust 19 1013 64 5000 2.57 295 23:22 21.04.2020
4519 Dust 19 1014 60 5000 2.57 295 22:58 21.04.2020
4520 Dust 19 1014 60 5000 2.57 295 22:39 21.04.2020
4521 Dust 19 1014 60 5000 2.57 295 22:20 21.04.2020
4522 Dust 20 1014 60 5000 2.57 295 21:57 21.04.2020
4523 Dust 20 1014 60 5000 2.33 300 21:39 21.04.2020
4524 Dust 20 1014 60 5000 2.57 295 21:39 21.04.2020
4525 Dust 20 1014 60 5000 5.31 341 21:21 21.04.2020
4526 Dust 22 1013 53 5000 5.31 341 20:41 21.04.2020
4527 Dust 22 1013 53 5000 5.31 341 20:23 21.04.2020
4528 Dust 23 1012 49 4000 1.5 260 19:58 21.04.2020
4529 Dust 23 1012 49 4000 1.5 260 19:39 21.04.2020
4530 Dust 23 1012 49 4000 1.5 260 19:19 21.04.2020
4531 Dust 25 1012 47 4000 2.1 260 18:55 21.04.2020
4532 Dust 25 1012 47 4000 2.1 260 18:37 21.04.2020
4533 Dust 25 1012 47 4000 2.1 260 18:37 21.04.2020
4534 Dust 25 1012 47 4000 2.1 260 18:18 21.04.2020
4535 Dust 25 1012 47 4000 2.1 260 18:18 21.04.2020
4536 Dust 27 1012 28 4000 2.1 250 17:40 21.04.2020
4537 Dust 27 1012 28 4000 2.1 250 17:20 21.04.2020
4538 Dust 28 1012 30 3500 4.1 250 16:58 21.04.2020
4539 Dust 28 1012 30 3500 4.1 250 16:38 21.04.2020
4540 Dust 28 1012 30 3500 4.1 250 16:19 21.04.2020
4541 Dust 29 1012 28 3500 4.1 250 15:55 21.04.2020
4542 Dust 29 1012 28 3500 4.1 250 15:55 21.04.2020
4543 Dust 29 1012 28 3500 4.1 250 15:37 21.04.2020
4544 Dust 29 1012 28 3500 4.1 250 15:37 21.04.2020
4545 Dust 29 1012 28 3500 4.1 250 15:19 21.04.2020
4546 Dust 30 1012 28 3500 2.1 230 14:45 21.04.2020
4547 Dust 30 1012 28 3500 2.1 230 14:25 21.04.2020
4548 Dust 30 1013 28 3500 6.13 247 13:58 21.04.2020
4549 Dust 30 1013 28 3500 6.13 247 13:38 21.04.2020
4550 Dust 30 1013 28 3500 6.13 247 13:18 21.04.2020
4551 Dust 28 1014 44 3500 6.13 247 12:40 21.04.2020
4552 Dust 28 1014 44 3500 3.87 185 12:20 21.04.2020
4553 Dust 28 1014 44 3500 3.87 185 11:58 21.04.2020
4554 Dust 28 1014 44 1600 3.87 185 11:39 21.04.2020
4555 Dust 28 1014 44 1600 3.87 185 11:20 21.04.2020
4556 Haze 26 1014 36 2500 3.87 185 10:59 21.04.2020
4557 Haze 26 1014 36 2500 3.87 185 10:40 21.04.2020
4558 Haze 26 1014 36 2500 3.87 185 10:22 21.04.2020
4559 Haze 23 1014 46 2500 1.5 30 09:59 21.04.2020
4560 Haze 23 1014 46 2500 1.5 30 09:37 21.04.2020
4561 Haze 23 1014 46 2500 1.5 30 09:18 21.04.2020
4562 Haze 22 1014 46 2500 1.5 30 08:47 21.04.2020
4563 Haze 21 1014 52 5000 2.6 157 08:27 21.04.2020
4564 Haze 21 1014 52 5000 2.6 157 08:27 21.04.2020
4565 Haze 18 1013 68 4000 2.6 157 07:56 21.04.2020
4566 Haze 18 1013 68 4000 2.6 157 07:37 21.04.2020
4567 Haze 18 1013 68 4000 2.6 157 07:19 21.04.2020
4568 Haze 15 1013 59 4000 2.6 157 06:43 21.04.2020
4569 Haze 15 1013 59 4000 2.59 109 06:18 21.04.2020
4570 Haze 16 1013 59 5000 1.5 180 05:44 21.04.2020
4571 Clear 16 1013 67 6000 2.59 109 03:48 21.04.2020
4572 Clear 16 1013 67 6000 2.59 109 03:48 21.04.2020
4573 Clear 16 1013 63 6000 0.88 5 02:59 21.04.2020
4574 Clear 19 1013 59 6000 0.37 359 01:37 21.04.2020
4575 Clear 20 1013 63 6000 0.37 359 00:51 21.04.2020
4576 Clear 20 1013 63 6000 2.51 10 00:25 21.04.2020
4577 Haze 20 1013 56 5000 2.51 10 23:44 20.04.2020
4578 Haze 20 1013 56 5000 2.51 10 23:23 20.04.2020
4579 Haze 21 1013 56 5000 2.51 10 22:57 20.04.2020
4580 Haze 21 1013 52 5000 2.51 10 22:37 20.04.2020
4581 Haze 21 1013 52 5000 2.51 10 22:19 20.04.2020
4582 Haze 21 1013 52 5000 2.51 10 22:19 20.04.2020
4583 Haze 21 1013 52 5000 2.51 10 22:19 20.04.2020
4584 Haze 21 1012 52 5000 1.5 90 21:55 20.04.2020
4585 Haze 21 1012 52 5000 1.5 90 21:37 20.04.2020
4586 Haze 21 1012 52 5000 1.5 90 21:19 20.04.2020
4587 Haze 21 1012 52 5000 1.5 90 20:56 20.04.2020
4588 Haze 21 1012 46 5000 1.93 34 20:37 20.04.2020
4589 Haze 21 1012 46 5000 1.93 34 20:18 20.04.2020
4590 Haze 23 1012 43 5000 2.1 360 19:41 20.04.2020
4591 Haze 23 1012 43 5000 2.1 360 19:23 20.04.2020
4592 Haze 25 1012 31 5000 3.1 340 18:59 20.04.2020
4593 Haze 25 1012 31 5000 3.1 340 18:41 20.04.2020
4594 Haze 25 1012 31 5000 3.1 340 18:21 20.04.2020
4595 Haze 28 1012 26 5000 4.1 310 17:55 20.04.2020
4596 Haze 28 1012 26 5000 4.1 310 17:37 20.04.2020
4597 Haze 28 1012 26 5000 4.1 310 17:19 20.04.2020
4598 Haze 28 1012 24 5000 1.5 140 16:43 20.04.2020
4599 Haze 28 1012 24 5000 1.5 140 16:21 20.04.2020
4600 Clouds 29 1012 24 6000 2.1 180 15:58 20.04.2020
4601 Clouds 29 1012 24 6000 2.1 180 15:39 20.04.2020
4602 Clouds 29 1012 24 6000 2.1 180 15:21 20.04.2020
4603 Clear 29 1012 23 6000 3.1 230 14:55 20.04.2020
4604 Clear 29 1012 23 6000 3.1 230 14:55 20.04.2020
4605 Clear 29 1012 23 6000 3.1 230 14:36 20.04.2020
4606 Clear 29 1014 23 6000 3.1 160 14:18 20.04.2020
4607 Clear 29 1014 23 6000 3.1 160 13:41 20.04.2020
4608 Clear 29 1014 23 6000 3.1 160 13:22 20.04.2020
4609 Clear 29 1014 24 6000 2.1 150 12:54 20.04.2020
4610 Clear 29 1014 24 6000 2.1 150 12:36 20.04.2020
4611 Clear 29 1014 24 6000 2.1 150 12:18 20.04.2020
4612 Clear 27 1015 27 6000 3.6 130 11:40 20.04.2020
4613 Clear 27 1015 27 6000 3.6 130 11:21 20.04.2020
4614 Clear 26 1015 26 6000 2.6 100 10:57 20.04.2020
4615 Clear 26 1015 26 6000 2.6 100 10:38 20.04.2020
4616 Clear 26 1015 26 6000 2.6 100 10:19 20.04.2020
4617 Clear 24 1015 27 6000 3.1 150 09:56 20.04.2020
4618 Clouds 24 1015 27 6000 3.1 150 09:37 20.04.2020
4619 Clear 24 1015 27 6000 3.1 150 09:19 20.04.2020
4620 Clear 23 1014 35 6000 5.62 151 08:41 20.04.2020
4621 Clear 23 1014 35 6000 5.62 151 08:22 20.04.2020
4622 Haze 16 1014 55 4000 2.6 70 07:52 20.04.2020
4623 Haze 16 1014 55 4000 2.6 70 07:29 20.04.2020
4624 Haze 15 1014 67 4000 2.1 80 06:58 20.04.2020
4625 Clear 16 1013 55 7000 5.62 151 06:36 20.04.2020
4626 Clear 16 1013 55 7000 3.02 112 05:44 20.04.2020
4627 Clear 17 1014 55 7000 3.02 112 04:21 20.04.2020
4628 Clear 17 1014 51 7000 2.75 92 02:47 20.04.2020
4629 Clear 18 1014 52 7000 2.95 95 01:56 20.04.2020
4630 Clear 18 1014 52 7000 2.95 95 01:28 20.04.2020
4631 Haze 19 1014 52 5000 2.95 95 00:39 20.04.2020
4632 Haze 19 1014 48 5000 1.78 50 23:59 19.04.2020
4633 Haze 19 1014 48 5000 1.78 50 23:59 19.04.2020
4634 Haze 19 1014 48 5000 1.78 50 23:39 19.04.2020
4635 Haze 19 1014 48 5000 1.78 50 23:21 19.04.2020
4636 Haze 20 1014 45 5000 1.5 0 22:55 19.04.2020
4637 Haze 20 1014 45 5000 1.5 0 22:36 19.04.2020
4638 Haze 20 1014 45 5000 1.5 0 22:18 19.04.2020
4639 Haze 21 1014 42 5000 1.5 0 21:42 19.04.2020
4640 Haze 21 1014 42 5000 1.5 0 21:23 19.04.2020
4641 Haze 21 1013 40 5000 3.36 97 20:56 19.04.2020
4642 Haze 21 1013 40 5000 3.36 97 20:38 19.04.2020
4643 Haze 21 1013 40 5000 3.36 97 20:20 19.04.2020
4644 Haze 23 1013 38 5000 1.5 320 19:56 19.04.2020
4645 Haze 23 1013 38 5000 1.5 320 19:38 19.04.2020
4646 Haze 23 1013 38 5000 1.5 320 19:19 19.04.2020
4647 Dust 25 1013 31 3500 2.6 320 18:55 19.04.2020
4648 Dust 25 1013 31 3500 2.6 320 18:36 19.04.2020
4649 Dust 25 1013 31 3500 2.6 320 18:18 19.04.2020
4650 Dust 27 1013 24 3500 1.5 190 17:55 19.04.2020
4651 Dust 27 1013 24 3500 1.5 190 17:37 19.04.2020
4652 Dust 27 1013 24 3500 1.5 190 17:19 19.04.2020
4653 Dust 25 1013 23 4000 4.68 112 16:40 19.04.2020
4654 Dust 25 1013 23 4000 4.68 112 16:21 19.04.2020
4655 Dust 26 1013 24 4000 4.68 112 15:58 19.04.2020
4656 Dust 26 1013 24 4000 4.68 112 15:58 19.04.2020
4657 Dust 27 1013 24 4000 4.68 112 15:39 19.04.2020
4658 Dust 27 1013 24 4000 3.66 123 15:19 19.04.2020
4659 Dust 27 1014 26 4000 2.1 160 14:39 19.04.2020
4660 Dust 27 1014 26 4000 2.1 160 14:21 19.04.2020
4661 Dust 27 1014 26 4000 2.1 160 14:21 19.04.2020
4662 Dust 27 1015 24 4000 2.6 150 13:57 19.04.2020
4663 Dust 27 1015 24 4000 2.6 150 13:37 19.04.2020
4664 Dust 27 1015 24 4000 2.6 150 13:18 19.04.2020
4665 Haze 27 1017 51 4000 1.5 170 12:44 19.04.2020
4666 Haze 27 1017 51 4000 1.5 170 12:44 19.04.2020
4667 Haze 27 1017 51 4000 1.5 170 12:24 19.04.2020
4668 Haze 26 1017 53 5000 1.5 220 11:55 19.04.2020
4669 Haze 25 1017 53 5000 1.5 220 11:36 19.04.2020
4670 Haze 24 1017 31 5000 2.1 140 11:18 19.04.2020
4671 Haze 24 1017 31 5000 2.1 140 10:41 19.04.2020
4672 Haze 24 1017 31 5000 2.1 140 10:21 19.04.2020
4673 Haze 23 1017 33 5000 1.5 220 09:59 19.04.2020
4674 Haze 23 1017 33 5000 1.5 220 09:41 19.04.2020
4675 Haze 23 1017 33 5000 1.5 220 09:41 19.04.2020
4676 Haze 23 1017 33 5000 1.5 220 09:19 19.04.2020
4677 Haze 19 1016 55 5000 1.5 340 08:40 19.04.2020
4678 Haze 19 1016 55 5000 1.5 340 08:21 19.04.2020
4679 Clear 15 1016 63 6000 5.59 130 07:56 19.04.2020
4680 Clear 15 1016 63 6000 5.59 130 07:38 19.04.2020
4681 Clear 15 1016 63 6000 5.59 130 07:19 19.04.2020
4682 Clear 13 1016 62 7000 4.42 81 06:26 19.04.2020
4683 Clear 13 1015 62 7000 4.42 81 05:35 19.04.2020
4684 Clear 15 1015 67 10000 4.42 81 03:55 19.04.2020
4685 Clear 15 1016 82 10000 1.51 54 02:52 19.04.2020
4686 Clear 15 1016 82 10000 1.51 54 02:19 19.04.2020
4687 Clear 15 1016 72 10000 1.51 54 01:31 19.04.2020
4688 Clear 15 1016 72 10000 1.51 54 00:41 19.04.2020
4689 Clear 15 1016 72 10000 2.93 331 00:20 19.04.2020
4690 Clear 16 1015 77 10000 2.93 331 23:44 18.04.2020
4691 Clear 16 1015 77 10000 2.93 331 23:21 18.04.2020
4692 Clear 17 1016 63 10000 1.5 150 22:57 18.04.2020
4693 Clear 17 1016 63 10000 1.5 150 22:38 18.04.2020
4694 Clear 17 1016 63 10000 1.5 150 22:20 18.04.2020
4695 Clear 17 1015 63 10000 1 70 21:56 18.04.2020
4696 Clear 17 1015 63 10000 1 70 21:37 18.04.2020
4697 Clear 17 1015 63 10000 1 70 21:19 18.04.2020
4698 Clear 18 1015 68 10000 1.5 30 20:40 18.04.2020
4699 Clear 18 1015 68 10000 1.5 30 20:21 18.04.2020
4700 Clear 20 1015 34 7000 3.1 330 19:44 18.04.2020
4701 Clear 20 1015 34 7000 3.1 330 19:25 18.04.2020
4702 -273 0 0 0 0 0 18:59 18.04.2020
4703 Clear 21 1014 30 7000 3.1 320 18:37 18.04.2020
4704 Clear 21 1014 30 7000 3.1 320 18:37 18.04.2020
4705 Clear 21 1014 30 7000 3.1 320 18:19 18.04.2020
4706 Clear 21 1014 30 7000 3.1 320 18:19 18.04.2020
4707 Clouds 23 1014 20 7000 5.1 320 17:43 18.04.2020
4708 Clouds 23 1014 20 7000 5.1 320 17:21 18.04.2020
4709 Clouds 25 1014 29 8000 4.1 300 16:57 18.04.2020
4710 Clouds 25 1014 29 8000 4.1 300 16:38 18.04.2020
4711 Clouds 25 1014 29 8000 4.1 300 16:19 18.04.2020
4712 Clouds 26 1014 27 8000 2.1 50 15:39 18.04.2020
4713 Clouds 26 1014 27 8000 2.1 50 15:21 18.04.2020
4714 Clouds 24 1015 33 8000 2.1 50 14:46 18.04.2020
4715 Clouds 24 1015 33 8000 2.1 50 14:27 18.04.2020
4716 Clouds 24 1015 40 8000 4.6 50 13:58 18.04.2020
4717 Clouds 24 1015 40 8000 4.6 50 13:40 18.04.2020
4718 Clouds 24 1015 40 8000 4.6 50 13:19 18.04.2020
4719 Clouds 23 1016 43 8000 4.6 50 12:42 18.04.2020
4720 Clouds 23 1016 43 8000 4.6 50 12:42 18.04.2020
4721 Clouds 23 1016 43 8000 4.6 50 12:23 18.04.2020
4722 Clear 22 1016 40 10000 3.6 70 11:56 18.04.2020
4723 Clear 22 1016 40 10000 3.6 70 11:37 18.04.2020
4724 Clear 22 1016 40 10000 3.6 70 11:19 18.04.2020
4725 Clear 21 1016 43 10000 3.1 70 10:41 18.04.2020
4726 Clear 21 1016 43 10000 3.1 70 10:21 18.04.2020
4727 Clear 19 1016 52 10000 3.1 40 09:58 18.04.2020
4728 Clear 19 1016 52 10000 3.1 40 09:39 18.04.2020
4729 Clear 19 1016 52 10000 3.1 40 09:20 18.04.2020
4730 Clear 18 1015 59 10000 1 70 08:42 18.04.2020
4731 Clear 18 1015 59 10000 1 70 08:21 18.04.2020
4732 Haze 15 1015 67 5000 5.1 20 07:45 18.04.2020
4733 Clear 13 1015 81 8000 2.89 46 07:23 18.04.2020
4734 Clear 12 1015 81 8000 2.89 46 06:39 18.04.2020
4735 Clear 12 1014 81 8000 1 180 05:49 18.04.2020
4736 Clear 15 1012 52 0 4.55 336 04:54 18.04.2020
4737 Mist 10 1014 87 5000 4.1 330 04:30 18.04.2020
4738 Clear 12 1014 71 8000 1 230 03:18 18.04.2020
4739 Clear 12 1014 71 8000 1 230 02:40 18.04.2020
4740 Clear 12 1014 71 8000 1 230 02:21 18.04.2020
4741 Clear 11 1014 76 10000 4.21 329 01:43 18.04.2020
4742 Clear 11 1014 76 10000 4.21 329 01:22 18.04.2020
4743 Clear 11 1014 71 10000 1 90 00:24 18.04.2020
4744 Clear 12 1015 66 10000 1 90 23:59 17.04.2020
4745 Clear 12 1015 66 10000 1 90 23:40 17.04.2020
4746 Clear 12 1015 66 10000 1 90 23:20 17.04.2020
4747 Clear 12 1015 71 10000 1 90 22:58 17.04.2020
4748 Clear 12 1015 71 10000 1 90 22:58 17.04.2020
4749 Clear 12 1015 71 10000 1 90 22:40 17.04.2020
4750 Clear 12 1015 71 10000 1 90 22:20 17.04.2020
4751 Clear 12 1014 81 10000 4.29 336 21:58 17.04.2020
4752 Clear 12 1014 81 10000 4.29 336 21:39 17.04.2020
4753 Rain 12 1014 81 10000 5.22 15 21:19 17.04.2020
4754 Rain 13 1014 82 10000 1 320 20:55 17.04.2020
4755 Rain 13 1014 82 10000 1 320 20:36 17.04.2020
4756 Rain 13 1014 82 10000 1 320 20:18 17.04.2020
4757 Rain 13 1013 76 7000 1.5 60 19:46 17.04.2020
4758 Rain 13 1013 76 7000 1.5 60 19:24 17.04.2020
4759 Rain 13 1013 76 7000 1.5 60 18:55 17.04.2020
4760 Rain 14 1013 76 7000 2.1 90 18:36 17.04.2020
4761 Rain 14 1013 76 7000 2.1 90 18:18 17.04.2020
4762 Mist 14 1013 87 5000 1.5 90 17:38 17.04.2020
4763 Mist 14 1013 87 5000 1.5 90 17:19 17.04.2020
4764 Thunderstorm 18 1013 82 2500 6.7 30 16:44 17.04.2020
4765 Thunderstorm 18 1013 82 2500 6.7 30 16:24 17.04.2020
4766 Clouds 18 1012 68 4000 9.3 10 15:59 17.04.2020
4767 Thunderstorm 19 1012 55 5000 5.1 320 15:39 17.04.2020
4768 Thunderstorm 19 1012 55 5000 5.1 320 15:20 17.04.2020
4769 Clouds 20 1011 49 6000 4.1 300 14:42 17.04.2020
4770 Clouds 20 1011 49 6000 4.1 300 14:24 17.04.2020
4771 Clouds 19 1012 45 6000 2.6 300 13:59 17.04.2020
4772 Clouds 19 1012 45 6000 2.6 300 13:59 17.04.2020
4773 Clouds 19 1012 45 6000 2.6 300 13:39 17.04.2020
4774 Clouds 19 1012 45 6000 2.6 300 13:20 17.04.2020
4775 Clouds 18 1012 55 7000 4.1 270 12:48 17.04.2020
4776 Clouds 18 1012 55 7000 4.1 270 12:27 17.04.2020
4777 Clouds 18 1012 55 7000 4.1 270 11:59 17.04.2020
4778 Clouds 17 1012 59 7000 2.1 230 11:39 17.04.2020
4779 Clouds 17 1012 59 8000 1.5 350 11:19 17.04.2020
4780 Clouds 16 1012 59 8000 1.5 350 10:40 17.04.2020
4781 Clouds 16 1012 59 8000 1.5 350 10:20 17.04.2020
4782 Clouds 16 1012 59 8000 1.5 350 09:55 17.04.2020
4783 Clouds 16 1012 59 8000 1.5 350 09:36 17.04.2020
4784 Clouds 16 1012 59 8000 1.5 350 09:18 17.04.2020
4785 Clouds 15 1012 62 8000 1.5 340 08:46 17.04.2020
4786 Clouds 15 1012 62 8000 1.5 340 08:26 17.04.2020
4787 Haze 13 1013 82 5000 6.06 322 07:56 17.04.2020
4788 Haze 13 1013 82 5000 6.06 322 07:38 17.04.2020
4789 Mist 10 1012 87 5000 2.1 50 07:18 17.04.2020
4790 Mist 10 1012 87 5000 2.1 50 06:40 17.04.2020
4791 Mist 11 1011 93 5000 2.1 10 05:49 17.04.2020
4792 Clouds 12 1012 87 7000 2.1 280 03:23 17.04.2020
4793 Clouds 12 1012 87 7000 2.1 280 02:50 17.04.2020
4794 Clouds 13 1012 82 6000 1.5 20 01:30 17.04.2020
4795 Clouds 13 1012 82 6000 1.5 20 00:59 17.04.2020
4796 Rain 13 1012 82 6000 1.5 20 00:21 17.04.2020
4797 Rain 14 1012 76 6000 2.1 10 23:55 16.04.2020
4798 Rain 14 1012 76 6000 2.1 10 23:36 16.04.2020
4799 Rain 14 1012 76 6000 2.1 10 23:18 16.04.2020
4800 Clouds 15 1012 67 7000 2.1 260 22:39 16.04.2020
4801 Clouds 15 1012 67 7000 2.1 260 22:21 16.04.2020
4802 Clouds 15 1011 55 7000 4.1 250 21:57 16.04.2020
4803 Clouds 15 1011 55 7000 4.1 250 21:39 16.04.2020
4804 Clouds 15 1011 55 7000 4.1 250 21:19 16.04.2020
4805 Clouds 16 1011 55 7000 2.6 300 20:42 16.04.2020
4806 Clouds 16 1011 55 7000 2.6 300 20:22 16.04.2020
4807 Thunderstorm 18 1010 45 6000 4.1 280 19:59 16.04.2020
4808 Thunderstorm 18 1010 45 6000 4.1 280 19:39 16.04.2020
4809 Thunderstorm 18 1010 45 6000 4.1 280 19:19 16.04.2020
4810 Thunderstorm 20 1010 52 6000 4.1 280 18:56 16.04.2020
4811 Clouds 21 1010 40 6000 3.6 300 18:37 16.04.2020
4812 Clouds 23 1010 40 6000 4.1 270 18:19 16.04.2020
4813 Clouds 23 1010 40 6000 4.1 270 17:43 16.04.2020
4814 Clouds 23 1010 40 6000 4.1 270 17:24 16.04.2020
4815 Clouds 24 1010 31 6000 3.6 280 16:59 16.04.2020
4816 Clouds 24 1010 31 6000 3.6 280 16:40 16.04.2020
4817 Clouds 24 1010 31 6000 3.6 280 16:19 16.04.2020
4818 Clouds 25 1011 31 6000 4.1 260 15:42 16.04.2020
4819 Clouds 25 1011 31 6000 4.1 260 15:19 16.04.2020
4820 Clouds 25 1011 31 6000 4.1 260 15:19 16.04.2020
4821 Clouds 25 1012 29 6000 7.2 270 14:58 16.04.2020
4822 Clouds 25 1012 29 6000 7.2 270 14:39 16.04.2020
4823 Clouds 25 1012 29 6000 7.2 270 14:19 16.04.2020
4824 Clear 25 1012 23 6000 5.1 220 13:56 16.04.2020
4825 Clear 25 1012 23 6000 5.1 220 13:36 16.04.2020
4826 Clear 25 1012 23 6000 5.1 220 13:18 16.04.2020
4827 Haze 24 1013 27 5000 5.1 250 12:56 16.04.2020
4828 Haze 24 1013 27 5000 5.1 250 12:56 16.04.2020
4829 Haze 24 1013 27 5000 5.1 250 12:37 16.04.2020
4830 Haze 24 1013 27 5000 5.1 250 12:18 16.04.2020
4831 Haze 24 1014 33 5000 4.1 220 11:54 16.04.2020
4832 Haze 23 1014 33 5000 4.1 220 11:36 16.04.2020
4833 Haze 23 1014 33 5000 4.1 220 11:18 16.04.2020
4834 Haze 22 1015 37 5000 1.5 240 10:39 16.04.2020
4835 Haze 22 1015 37 5000 1.5 240 10:19 16.04.2020
4836 Haze 21 1015 43 5000 4.1 220 09:58 16.04.2020
4837 Haze 20 1015 43 5000 4.1 220 09:38 16.04.2020
4838 Haze 20 1015 43 5000 4.1 220 09:19 16.04.2020
4839 Haze 18 1015 52 4000 2.1 280 08:42 16.04.2020
4840 Haze 18 1015 52 4000 2.1 280 08:23 16.04.2020
4841 Haze 16 1016 63 4000 1.5 230 07:46 16.04.2020
4842 Haze 16 1016 63 4000 1.5 230 07:28 16.04.2020
4843 Haze 13 1016 58 4000 2.1 230 06:46 16.04.2020
4844 Haze 13 1016 58 4000 2.1 230 06:26 16.04.2020
4845 Haze 15 1016 54 5000 3.1 240 05:59 16.04.2020
4846 Clear 16 1014 42 0 1.35 197 04:44 16.04.2020
4847 Clouds 14 1016 67 7000 1.5 250 03:25 16.04.2020
4848 Clouds 14 1017 67 7000 1 250 02:55 16.04.2020
4849 Clouds 14 1017 67 7000 1 250 02:33 16.04.2020
4850 Clouds 15 1017 62 7000 1 230 01:21 16.04.2020
4851 Clouds 15 1018 62 7000 1.5 180 00:39 16.04.2020
4852 Clouds 15 1018 62 7000 1.5 180 00:18 16.04.2020
4853 Clouds 15 1018 67 7000 1 320 23:43 15.04.2020
4854 Clouds 15 1018 67 7000 1 320 23:24 15.04.2020
4855 Clouds 15 1018 59 6000 2.1 150 22:58 15.04.2020
4856 Clouds 15 1018 59 6000 2.1 150 22:37 15.04.2020
4857 Clouds 15 1018 59 6000 2.1 150 22:19 15.04.2020
4858 Clouds 17 1019 55 6000 1.4 319 21:42 15.04.2020
4859 Clouds 17 1019 55 6000 6.43 344 21:23 15.04.2020
4860 Clouds 18 1019 52 6000 2.6 350 20:59 15.04.2020
4861 Clouds 18 1019 52 6000 2.6 350 20:41 15.04.2020
4862 Clouds 18 1019 52 6000 2.6 350 20:22 15.04.2020
4863 Clouds 18 1019 59 6000 2.6 330 19:59 15.04.2020
4864 Clouds 18 1019 59 6000 2.6 330 19:39 15.04.2020
4865 Haze 20 1018 56 5000 3.1 310 19:18 15.04.2020
4866 Haze 20 1018 56 5000 3.1 310 18:41 15.04.2020
4867 Haze 20 1018 56 5000 3.1 310 18:22 15.04.2020
4868 Haze 21 1019 46 5000 4.6 260 17:58 15.04.2020
4869 Haze 21 1019 46 5000 4.6 260 17:38 15.04.2020
4870 Haze 21 1019 46 5000 4.6 260 17:20 15.04.2020
4871 Clouds 22 1019 30 7000 6.2 280 16:56 15.04.2020
4872 Clouds 23 1019 30 7000 6.2 280 16:37 15.04.2020
4873 Clouds 23 1019 30 7000 6.2 280 16:19 15.04.2020
4874 Clouds 24 1018 36 10000 3.1 260 15:56 15.04.2020
4875 Clouds 24 1018 36 10000 3.1 260 15:38 15.04.2020
4876 Clouds 24 1018 36 10000 3.1 260 15:19 15.04.2020
4877 Clouds 24 1019 36 10000 3.1 240 14:56 15.04.2020
4878 Clouds 24 1019 36 10000 3.1 240 14:38 15.04.2020
4879 Clouds 24 1019 36 10000 3.1 240 14:20 15.04.2020
4880 Clouds 24 1019 33 10000 4.76 278 13:57 15.04.2020
4881 Clouds 24 1019 33 10000 4.76 278 13:38 15.04.2020
4882 Clouds 24 1019 33 10000 4.76 278 13:19 15.04.2020
4883 Clouds 24 1020 33 10000 4.76 278 12:42 15.04.2020
4884 Clouds 24 1020 33 10000 2.96 244 12:23 15.04.2020
4885 Clouds 24 1020 33 10000 2.96 244 12:23 15.04.2020
4886 Clouds 23 1020 35 10000 2.96 244 11:59 15.04.2020
4887 Clouds 23 1020 35 10000 2.96 244 11:40 15.04.2020
4888 Clouds 23 1020 35 10000 2.96 244 11:22 15.04.2020
4889 Haze 22 1021 35 5000 3.6 160 10:40 15.04.2020
4890 Clouds 21 1021 42 10000 3.1 230 10:22 15.04.2020
4891 Clouds 19 1021 42 10000 3.1 230 09:58 15.04.2020
4892 Clouds 19 1021 42 10000 3.1 230 09:40 15.04.2020
4893 Clear 19 1021 42 10000 3.1 230 09:22 15.04.2020
4894 Clear 17 1021 52 10000 3.6 250 08:58 15.04.2020
4895 Clear 17 1021 52 10000 3.6 250 08:40 15.04.2020
4896 Clear 17 1021 52 10000 3.6 250 08:19 15.04.2020
4897 Clear 14 1020 55 10000 3.6 240 07:53 15.04.2020
4898 Clear 14 1020 55 10000 3.6 240 07:31 15.04.2020
4899 Clear 12 1020 58 10000 3.1 220 06:34 15.04.2020
4900 Clear 12 1020 58 10000 4.1 220 05:51 15.04.2020
4901 Clear 12 1020 58 10000 4.1 220 05:19 15.04.2020
4902 Clear 15 1018 44 0 3.7 199 04:44 15.04.2020
4903 Clear 15 1018 44 0 3.7 199 03:39 15.04.2020
4904 Clear 17 1017 38 0 3.82 228 03:18 15.04.2020
4905 Clear 15 1019 67 10000 4.1 220 02:30 15.04.2020
4906 Clear 15 1019 67 10000 4.1 220 01:44 15.04.2020
4907 Clear 15 1019 67 10000 4.1 220 01:19 15.04.2020
4908 Clear 15 1019 59 10000 2.1 210 00:37 15.04.2020
4909 Clear 15 1019 59 10000 2.1 210 00:18 15.04.2020
4910 Clear 15 1019 55 10000 3.65 306 23:54 14.04.2020
4911 Clear 15 1019 55 10000 3.65 306 23:36 14.04.2020
4912 Clear 15 1019 55 10000 3.65 306 23:36 14.04.2020
4913 Clear 15 1019 55 10000 3.65 306 23:18 14.04.2020
4914 Clear 16 1018 55 10000 3.65 306 22:55 14.04.2020
4915 Clear 16 1018 55 10000 3.65 306 22:36 14.04.2020
4916 Clear 16 1018 55 10000 3.65 306 22:18 14.04.2020
4917 Clear 16 1018 55 10000 3.65 306 21:55 14.04.2020
4918 Clear 16 1018 55 10000 3.65 306 21:36 14.04.2020
4919 Clouds 16 1018 55 10000 4.94 323 21:18 14.04.2020
4920 Clouds 16 1018 55 10000 1.5 260 20:40 14.04.2020
4921 Clouds 16 1018 55 10000 1.5 260 20:22 14.04.2020
4922 Haze 17 1018 51 5000 2.1 330 19:58 14.04.2020
4923 Clouds 19 1017 49 8000 2.1 310 19:39 14.04.2020
4924 Clouds 19 1017 49 8000 2.1 310 19:20 14.04.2020
4925 Clouds 20 1017 49 8000 2.1 310 18:55 14.04.2020
4926 Clouds 20 1017 49 8000 2.1 310 18:37 14.04.2020
4927 Clouds 20 1017 49 8000 2.1 310 18:18 14.04.2020
4928 Clouds 23 1017 33 8000 1.5 270 17:55 14.04.2020
4929 Clouds 23 1017 33 8000 1.5 270 17:37 14.04.2020
4930 Clouds 23 1017 33 8000 1.5 270 17:18 14.04.2020
4931 Clouds 23 1017 31 8000 3.6 120 16:41 14.04.2020
4932 Clouds 23 1017 31 8000 3.6 120 16:23 14.04.2020
4933 Clouds 24 1017 22 7000 3.1 120 15:58 14.04.2020
4934 Clouds 24 1017 22 7000 3.1 120 15:38 14.04.2020
4935 Clear 24 1017 22 7000 3.1 120 15:19 14.04.2020
4936 Clear 24 1017 25 6000 2.6 110 14:57 14.04.2020
4937 Clouds 24 1017 25 6000 2.6 110 14:39 14.04.2020
4938 Clouds 24 1017 25 6000 2.6 110 14:21 14.04.2020
4939 Clouds 24 1017 23 6000 2.1 80 13:55 14.04.2020
4940 Clouds 24 1017 23 6000 2.1 80 13:37 14.04.2020
4941 Clouds 24 1017 23 6000 2.1 80 13:19 14.04.2020
4942 Clouds 24 1017 19 6000 2.1 80 12:41 14.04.2020
4943 Clear 24 1017 15 6000 2.1 80 12:20 14.04.2020
4944 Clear 23 1018 26 6000 2.1 60 11:55 14.04.2020
4945 Clear 23 1018 26 6000 2.1 60 11:36 14.04.2020
4946 Clear 23 1018 26 6000 2.1 60 11:18 14.04.2020
4947 Clear 22 1018 28 6000 2.1 20 10:43 14.04.2020
4948 Clear 22 1018 28 6000 2.1 20 10:23 14.04.2020
4949 Clear 21 1017 28 6000 5.45 131 09:43 14.04.2020
4950 Clouds 21 1017 28 6000 6.35 99 09:25 14.04.2020
4951 Haze 18 1017 42 5000 6.35 99 08:59 14.04.2020
4952 Haze 18 1017 42 5000 6.35 99 08:41 14.04.2020
4953 Clouds 20 1016 20 0 6.35 99 08:22 14.04.2020
4954 Haze 15 1017 51 5000 6.35 99 07:53 14.04.2020
4955 Haze 15 1017 51 5000 6.35 99 07:30 14.04.2020
4956 Haze 13 1017 50 5000 6.35 99 06:48 14.04.2020
4957 Haze 13 1016 54 5000 1.5 170 05:55 14.04.2020
4958 Clouds 13 1016 58 6000 1.5 230 03:52 14.04.2020
4959 Clouds 14 1016 58 6000 1.5 230 02:54 14.04.2020
4960 Clouds 13 1017 62 6000 2.6 310 01:46 14.04.2020
4961 Clouds 13 1017 62 6000 2.6 310 01:24 14.04.2020
4962 Clouds 13 1017 66 6000 1.5 230 00:38 14.04.2020
4963 Clouds 13 1017 66 6000 1.5 230 00:18 14.04.2020
4964 Clouds 14 1017 58 6000 1.5 230 23:44 13.04.2020
4965 Clouds 14 1017 58 6000 1.5 230 23:25 13.04.2020
4966 Clouds 14 1017 58 6000 3.46 340 22:58 13.04.2020
4967 Clouds 14 1017 58 6000 3.46 340 22:40 13.04.2020
4968 Clouds 14 1017 58 6000 3.46 340 22:22 13.04.2020
4969 Clouds 15 1017 51 6000 3.46 340 21:56 13.04.2020
4970 Clouds 15 1017 51 6000 3.46 340 21:37 13.04.2020
4971 Clouds 15 1017 51 6000 6.54 357 21:19 13.04.2020
4972 Clouds 15 1017 47 6000 1.5 20 20:54 13.04.2020
4973 Clouds 15 1017 47 6000 1.5 20 20:36 13.04.2020
4974 Clouds 15 1017 47 6000 1.5 20 20:18 13.04.2020
4975 Clouds 15 1017 47 6000 1.5 20 20:18 13.04.2020
4976 Haze 16 1016 41 5000 2.6 20 19:38 13.04.2020
4977 Haze 16 1016 41 5000 2.6 20 19:20 13.04.2020
4978 Haze 18 1016 39 5000 4.1 330 18:59 13.04.2020
4979 Haze 18 1016 39 5000 4.1 330 18:39 13.04.2020
4980 Haze 18 1016 39 5000 4.1 330 18:20 13.04.2020
4981 Haze 20 1016 37 5000 3.6 340 17:58 13.04.2020
4982 Haze 20 1016 37 5000 3.6 340 17:58 13.04.2020
4983 Haze 20 1016 37 5000 3.6 340 17:58 13.04.2020
4984 Haze 20 1016 37 5000 3.6 340 17:38 13.04.2020
4985 Haze 20 1016 37 5000 3.6 340 17:19 13.04.2020
4986 Clear 22 1016 21 6000 4.6 280 16:58 13.04.2020
4987 Clear 22 1016 21 6000 4.6 280 16:40 13.04.2020
4988 Clear 22 1016 21 6000 4.6 280 16:21 13.04.2020
4989 Clear 22 1017 16 6000 5.7 250 15:58 13.04.2020
4990 Clear 22 1017 16 6000 5.7 250 15:40 13.04.2020
4991 Clear 22 1017 16 6000 5.7 250 15:21 13.04.2020
4992 Clear 22 1017 26 6000 4.1 280 14:56 13.04.2020
4993 Clear 22 1017 26 6000 4.1 280 14:38 13.04.2020
4994 Clear 22 1017 26 6000 4.1 280 14:20 13.04.2020
4995 Clear 22 1018 26 6000 2.1 130 13:55 13.04.2020
4996 Clear 22 1018 26 6000 2.1 130 13:37 13.04.2020
4997 Clear 22 1018 26 6000 2.1 130 13:37 13.04.2020
4998 Clear 22 1018 26 6000 2.1 130 13:18 13.04.2020
4999 Clear 20 1019 28 7000 3.1 210 12:56 13.04.2020
5000 Clear 20 1019 28 7000 3.1 210 12:38 13.04.2020
5001 Clear 20 1019 28 7000 3.1 210 12:19 13.04.2020
5002 Clear 20 1019 32 7000 2.1 170 11:43 13.04.2020
5003 Clear 20 1019 32 7000 2.1 170 11:19 13.04.2020
5004 Clear 17 1020 39 7000 3.6 170 10:56 13.04.2020
5005 Clear 17 1020 39 7000 3.6 170 10:38 13.04.2020
5006 Clear 17 1020 39 7000 3.6 170 10:19 13.04.2020
5007 Clear 15 1020 44 6000 2.1 220 09:55 13.04.2020
5008 Clear 15 1020 44 6000 2.1 220 09:36 13.04.2020
5009 Clear 15 1020 44 6000 2.1 220 09:18 13.04.2020
5010 Clear 13 1020 47 6000 1.21 64 08:43 13.04.2020
5011 Clear 13 1020 47 6000 1.21 64 08:25 13.04.2020
5012 Haze 9 1020 66 5000 1.5 250 07:42 13.04.2020
5013 Haze 9 1020 66 5000 1.5 250 07:24 13.04.2020
5014 Clear 7 1019 61 6000 1.21 64 06:47 13.04.2020
5015 Clear 7 1019 61 6000 3.09 322 06:29 13.04.2020
5016 Haze 6 1019 75 5000 1.5 270 05:40 13.04.2020
5017 Haze 6 1019 75 5000 1.5 270 05:18 13.04.2020
5018 Haze 6 1018 87 5000 1.5 270 04:28 13.04.2020
5019 Haze 8 1018 81 5000 1.5 240 03:53 13.04.2020
5020 Haze 8 1018 81 5000 1.5 240 03:33 13.04.2020
5021 Haze 9 1018 87 5000 4.22 324 02:40 13.04.2020
5022 Clear 13 1017 52 0 4.51 329 01:46 13.04.2020
5023 Clear 13 1017 52 0 4.51 329 01:27 13.04.2020
5024 Clear 13 1017 52 0 4.51 329 00:46 13.04.2020
5025 Haze 10 1019 81 5000 4.76 335 00:24 13.04.2020
5026 Haze 10 1019 81 5000 4.76 335 23:56 12.04.2020
5027 Haze 10 1019 81 5000 4.76 335 23:37 12.04.2020
5028 Haze 10 1019 81 5000 4.76 335 23:18 12.04.2020
5029 Haze 10 1020 81 5000 4.76 335 22:54 12.04.2020
5030 Haze 10 1020 81 5000 4.76 335 22:36 12.04.2020
5031 Haze 10 1020 81 5000 4.76 335 22:18 12.04.2020
5032 Clear 11 1020 87 6000 1.5 270 21:37 12.04.2020
5033 Clear 11 1020 87 6000 1.5 270 21:19 12.04.2020
5034 Clouds 12 1019 76 6000 2.1 290 20:43 12.04.2020
5035 Clouds 12 1019 76 6000 2.1 290 20:23 12.04.2020
5036 Clouds 14 1019 76 6000 2.1 300 19:58 12.04.2020
5037 Clouds 14 1019 76 6000 2.1 300 19:40 12.04.2020
5038 Clouds 14 1019 76 6000 2.1 300 19:19 12.04.2020
5039 Clouds 14 1019 76 6000 2.1 300 18:57 12.04.2020
5040 Clouds 14 1019 76 6000 2.1 300 18:57 12.04.2020
5041 Clouds 15 1018 58 6000 2.1 300 18:38 12.04.2020
5042 Clouds 17 1018 45 6000 3.1 330 18:19 12.04.2020
5043 Clouds 17 1018 45 6000 3.1 330 18:19 12.04.2020
5044 Clouds 17 1018 45 6000 3.1 330 17:54 12.04.2020
5045 Clouds 17 1018 45 6000 3.1 330 17:36 12.04.2020
5046 Clouds 17 1018 45 6000 3.1 330 17:18 12.04.2020
5047 Clouds 17 1018 42 6000 4.6 310 16:41 12.04.2020
5048 Clouds 17 1018 42 6000 4.6 310 16:21 12.04.2020
5049 Clouds 18 1018 39 8000 4.6 340 15:52 12.04.2020
5050 Clouds 18 1018 39 8000 4.6 340 15:31 12.04.2020
5051 Clouds 19 1019 39 8000 5.1 320 14:58 12.04.2020
5052 Clouds 19 1019 39 8000 5.1 320 14:39 12.04.2020
5053 Clouds 19 1019 39 8000 5.1 320 14:20 12.04.2020
5054 Clouds 18 1019 42 8000 5.1 320 13:56 12.04.2020
5055 Clouds 17 1020 38 8000 4.1 340 13:36 12.04.2020
5056 Clouds 17 1020 38 8000 4.1 340 13:18 12.04.2020
5057 Clouds 17 1020 38 8000 4.1 340 12:45 12.04.2020
5058 Clouds 17 1020 38 8000 4.1 340 12:21 12.04.2020
5059 Clouds 17 1020 44 8000 4.1 330 11:58 12.04.2020
5060 Clouds 17 1020 44 8000 4.1 330 11:38 12.04.2020
5061 Clouds 17 1020 44 8000 4.1 330 11:18 12.04.2020
5062 Clouds 15 1020 54 8000 2.1 360 10:56 12.04.2020
5063 Clouds 15 1020 54 8000 2.1 360 10:38 12.04.2020
5064 Clouds 15 1020 54 8000 2.1 360 10:19 12.04.2020
5065 Haze 12 1020 62 5000 2.34 298 09:56 12.04.2020
5066 Haze 12 1020 62 5000 2.54 297 09:37 12.04.2020
5067 Haze 12 1020 62 5000 3.15 318 09:19 12.04.2020
5068 Haze 9 1019 87 4000 3.15 318 08:50 12.04.2020
5069 Haze 9 1019 87 4000 3.15 318 08:30 12.04.2020
5070 Mist 8 1019 87 4000 3.15 318 07:47 12.04.2020
5071 Mist 7 1019 100 4000 3.15 318 07:19 12.04.2020
5072 Mist 5 1019 100 4000 3.15 318 06:54 12.04.2020
5073 Mist 5 1019 100 4000 3.29 324 06:28 12.04.2020
5074 Fog 3 1018 100 50 3.29 324 05:48 12.04.2020
5075 Fog 6 1017 100 500 2.6 300 04:32 12.04.2020
5076 Mist 7 1017 100 4000 3.29 324 03:30 12.04.2020
5077 Mist 6 1017 100 4000 4.01 326 02:49 12.04.2020
5078 Mist 6 1017 100 4000 4.01 326 02:29 12.04.2020
5079 Mist 7 1018 93 5000 3.89 331 01:23 12.04.2020
5080 Mist 7 1018 93 5000 3.89 331 00:44 12.04.2020
5081 Mist 7 1018 93 5000 5.41 316 00:21 12.04.2020
5082 Mist 8 1018 87 5000 5.41 316 23:59 11.04.2020
5083 Mist 8 1018 87 5000 5.41 316 23:40 11.04.2020
5084 Mist 8 1018 87 5000 5.41 316 23:22 11.04.2020
5085 Mist 9 1019 93 4000 5.41 316 22:39 11.04.2020
5086 Mist 9 1019 93 4000 5.41 316 22:21 11.04.2020
5087 Mist 10 1018 93 4000 5.41 316 21:56 11.04.2020
5088 Mist 10 1018 93 4000 4.8 319 21:37 11.04.2020
5089 Mist 10 1018 93 4000 6.05 319 21:18 11.04.2020
5090 Mist 11 1018 87 4000 6.05 319 20:56 11.04.2020
5091 Mist 11 1018 87 4000 6.05 319 20:38 11.04.2020
5092 Mist 11 1018 87 4000 6.05 319 20:38 11.04.2020
5093 Mist 11 1018 87 4000 6.05 319 20:19 11.04.2020
5094 Mist 11 1017 81 4000 6.05 319 19:57 11.04.2020
5095 Mist 11 1017 81 4000 6.05 319 19:57 11.04.2020
5096 Mist 11 1017 81 4000 6.05 319 19:38 11.04.2020
5097 Mist 11 1017 81 4000 6.05 319 19:18 11.04.2020
5098 Mist 12 1017 81 3500 1.5 260 18:56 11.04.2020
5099 Mist 12 1017 81 3500 1.5 260 18:37 11.04.2020
5100 Mist 12 1017 81 3500 1.5 260 18:37 11.04.2020
5101 Mist 12 1017 81 3500 1.5 260 18:19 11.04.2020
5102 Mist 13 1017 76 3500 1.5 270 17:58 11.04.2020
5103 Mist 13 1017 76 3500 1.5 270 17:40 11.04.2020
5104 Mist 13 1017 76 3500 1.5 270 17:19 11.04.2020
5105 Haze 13 1016 71 5000 6.2 240 16:43 11.04.2020
5106 Haze 13 1016 71 5000 6.2 240 16:22 11.04.2020
5107 Haze 13 1017 76 5000 6.2 240 15:56 11.04.2020
5108 Haze 13 1017 76 5000 6.2 240 15:36 11.04.2020
5109 Haze 13 1017 76 5000 6.2 240 15:18 11.04.2020
5110 Haze 13 1017 76 5000 2.1 280 14:42 11.04.2020
5111 Haze 13 1017 76 5000 2.1 280 14:23 11.04.2020
5112 Clouds 14 1017 71 5000 2.6 220 13:59 11.04.2020
5113 Clouds 13 1017 87 5000 2.6 220 13:39 11.04.2020
5114 Clouds 13 1017 87 5000 2.6 220 13:19 11.04.2020
5115 Mist 12 1017 93 5000 3.1 260 12:42 11.04.2020
5116 Mist 12 1017 93 5000 3.1 260 12:20 11.04.2020
5117 Mist 12 1017 93 5000 3.1 260 11:57 11.04.2020
5118 Drizzle 12 1017 93 2500 3.1 240 11:39 11.04.2020
5119 Drizzle 12 1017 93 2500 3.1 240 11:19 11.04.2020
5120 Drizzle 12 1016 93 2500 4.1 220 10:43 11.04.2020
5121 Drizzle 12 1016 93 2500 4.1 220 10:23 11.04.2020
5122 Drizzle 12 1016 81 4000 3.1 220 09:59 11.04.2020
5123 Drizzle 12 1016 81 4000 3.1 220 09:59 11.04.2020
5124 Drizzle 12 1016 81 4000 3.1 220 09:40 11.04.2020
5125 Drizzle 12 1016 81 4000 3.1 220 09:21 11.04.2020
5126 Drizzle 12 1016 81 4000 3.1 220 09:21 11.04.2020
5127 Mist 11 1015 87 5000 3.1 220 08:50 11.04.2020
5128 Mist 11 1015 87 5000 3.1 220 08:29 11.04.2020
5129 Mist 9 1014 93 5000 4.1 250 07:55 11.04.2020
5130 Mist 9 1014 93 5000 4.1 250 07:37 11.04.2020
5131 Mist 9 1014 93 5000 4.1 250 07:18 11.04.2020
5132 Mist 9 1014 93 5000 4.1 250 06:35 11.04.2020
5133 Mist 9 1014 93 5000 4.1 250 05:56 11.04.2020
5134 Mist 9 1014 87 5000 4.1 250 03:42 11.04.2020
5135 Clouds 8 1014 87 6000 2.1 210 02:49 11.04.2020
5136 Clouds 8 1014 87 6000 5.28 280 01:25 11.04.2020
5137 Clouds 8 1014 87 6000 5.28 280 00:54 11.04.2020
5138 Clear 7 1014 100 6000 5.28 280 00:36 11.04.2020
5139 Clear 7 1014 100 6000 5.21 292 00:18 11.04.2020
5140 Mist 7 1014 93 5000 3.1 280 23:41 10.04.2020
5141 Clouds 8 1014 93 6000 4.1 230 23:19 10.04.2020
5142 Clouds 9 1014 93 6000 4.1 230 22:57 10.04.2020
5143 Clouds 9 1014 93 6000 4.1 230 22:37 10.04.2020
5144 Clouds 9 1014 93 6000 4.1 230 22:19 10.04.2020
5145 Clouds 9 1014 93 6000 4.1 230 21:41 10.04.2020
5146 Clouds 10 1013 87 6000 3.1 220 21:21 10.04.2020
5147 Clouds 10 1013 87 6000 3.1 220 20:57 10.04.2020
5148 Clouds 10 1013 87 6000 3.1 220 20:39 10.04.2020
5149 Clouds 10 1013 87 6000 3.1 220 20:19 10.04.2020
5150 Drizzle 9 1013 93 4000 2.6 240 19:55 10.04.2020
5151 Drizzle 9 1013 93 4000 2.6 240 19:37 10.04.2020
5152 Drizzle 10 1013 93 4000 2.6 240 19:19 10.04.2020
5153 Drizzle 10 1013 93 4000 2.6 240 18:55 10.04.2020
5154 Drizzle 10 1013 93 4000 2.6 240 18:37 10.04.2020
5155 Drizzle 10 1013 93 4000 2.6 240 18:19 10.04.2020
5156 Drizzle 11 1013 93 4000 3.1 240 17:57 10.04.2020
5157 Drizzle 11 1013 93 4000 3.1 240 17:38 10.04.2020
5158 Drizzle 11 1013 93 4000 3.1 240 17:19 10.04.2020
5159 Rain 10 1013 93 4000 4.1 240 16:44 10.04.2020
5160 Rain 10 1013 93 4000 4.1 240 16:23 10.04.2020
5161 Rain 11 1013 93 2000 7.2 240 15:59 10.04.2020
5162 Rain 11 1013 93 2000 7.2 240 15:39 10.04.2020
5163 Rain 11 1013 93 2000 7.2 240 15:21 10.04.2020
5164 Rain 11 1012 100 3000 7.2 240 14:59 10.04.2020
5165 Rain 11 1012 100 3000 7.2 240 14:40 10.04.2020
5166 Rain 11 1012 100 3000 7.2 240 14:22 10.04.2020
5167 Rain 13 1013 87 5000 6.2 250 13:56 10.04.2020
5168 Rain 13 1013 87 5000 6.2 250 13:38 10.04.2020
5169 Rain 13 1013 87 5000 6.2 250 13:19 10.04.2020
5170 Rain 12 1013 87 1500 6.2 240 12:42 10.04.2020
5171 Rain 12 1013 87 1500 6.2 240 12:21 10.04.2020
5172 Drizzle 13 1013 71 6000 6.2 240 11:54 10.04.2020
5173 Drizzle 13 1013 71 6000 6.2 240 11:36 10.04.2020
5174 Drizzle 13 1013 71 6000 6.2 240 11:18 10.04.2020
5175 Clouds 13 1013 71 7000 4.1 260 10:41 10.04.2020
5176 Clouds 13 1013 71 7000 4.1 260 10:22 10.04.2020
5177 Clouds 12 1013 76 7000 4.1 260 09:44 10.04.2020
5178 Clouds 12 1013 76 7000 4.1 260 09:25 10.04.2020
5179 Rain 11 1013 87 4000 4.1 260 08:56 10.04.2020
5180 Rain 11 1013 87 4000 4.1 260 08:38 10.04.2020
5181 Rain 11 1013 87 4000 4.1 260 08:18 10.04.2020
5182 Rain 10 1013 87 3500 4.1 240 07:44 10.04.2020
5183 Rain 8 1013 87 3500 4.1 240 07:22 10.04.2020
5184 Mist 7 1012 93 4000 7.57 269 06:45 10.04.2020
5185 Mist 7 1012 93 4000 4.04 273 06:25 10.04.2020
5186 Clouds 7 1012 87 6000 2.1 260 05:38 10.04.2020
5187 Clear 10 1013 67 0 4.04 273 04:57 10.04.2020
5188 Clear 10 1013 67 0 4.04 273 03:45 10.04.2020
5189 Clear 8 1013 87 6000 2.6 250 03:24 10.04.2020
5190 Clear 8 1013 87 6000 2.6 250 02:48 10.04.2020
5191 Clear 8 1013 87 6000 2.6 250 02:28 10.04.2020
5192 Clear 8 1013 87 6000 2.6 250 01:30 10.04.2020
5193 Clear 8 1013 87 6000 2.6 250 00:49 10.04.2020
5194 Clear 9 1013 81 7000 3.1 250 00:23 10.04.2020
5195 Clear 9 1013 81 7000 3.1 250 23:44 09.04.2020
5196 Clear 9 1013 81 7000 3.1 250 23:26 09.04.2020
5197 Clear 10 1014 76 7000 3.1 250 23:00 09.04.2020
5198 Clear 10 1014 76 7000 3.1 250 22:41 09.04.2020
5199 Clear 10 1014 76 7000 3.1 250 22:22 09.04.2020
5200 Clouds 11 1014 76 7000 4.1 270 21:45 09.04.2020
5201 Clouds 11 1014 76 7000 4.1 270 21:26 09.04.2020
5202 Clouds 11 1013 71 7000 6.2 270 20:59 09.04.2020
5203 Clouds 11 1013 71 7000 6.2 270 20:40 09.04.2020
5204 Clouds 11 1013 71 7000 6.2 270 20:20 09.04.2020
5205 Clouds 12 1014 66 7000 4.1 260 19:41 09.04.2020
5206 Clouds 12 1014 66 7000 4.1 260 19:23 09.04.2020
5207 Clouds 13 1015 62 7000 6.2 280 18:59 09.04.2020
5208 Clouds 13 1015 62 7000 6.2 280 18:40 09.04.2020
5209 Clouds 13 1015 62 7000 6.2 280 18:18 09.04.2020
5210 Clouds 14 1013 58 7000 5.7 270 17:40 09.04.2020
5211 Clouds 14 1013 58 7000 5.7 270 17:22 09.04.2020
5212 Clouds 15 1013 54 7000 5.7 270 16:56 09.04.2020
5213 Clouds 16 1013 54 7000 5.7 270 16:37 09.04.2020
5214 Clouds 16 1013 54 7000 5.7 270 16:18 09.04.2020
5215 Clouds 16 1013 54 7000 6.7 260 15:54 09.04.2020
5216 Clouds 16 1013 54 7000 6.7 260 15:36 09.04.2020
5217 Clouds 16 1013 54 7000 6.7 260 15:18 09.04.2020
5218 Clouds 16 1013 44 10000 5.1 260 14:39 09.04.2020
5219 Clouds 16 1013 44 10000 5.1 260 14:20 09.04.2020
5220 Clouds 16 1013 44 10000 5.7 300 13:43 09.04.2020
5221 Clouds 16 1013 44 10000 5.7 300 13:25 09.04.2020
5222 Clouds 16 1013 48 10000 6.2 270 12:59 09.04.2020
5223 Clouds 16 1013 48 10000 6.2 270 12:59 09.04.2020
5224 Clouds 16 1013 48 10000 6.2 270 12:40 09.04.2020
5225 Clouds 16 1013 48 10000 6.2 270 12:21 09.04.2020
5226 Clouds 15 1014 51 10000 3.1 270 11:57 09.04.2020
5227 Clouds 15 1014 51 10000 3.1 270 11:38 09.04.2020
5228 Clouds 15 1014 51 10000 3.1 270 11:19 09.04.2020
5229 Clouds 15 1014 58 10000 2.1 230 10:55 09.04.2020
5230 Clouds 15 1014 58 10000 2.1 230 10:37 09.04.2020
5231 Clouds 15 1014 58 10000 2.1 230 10:37 09.04.2020
5232 Clouds 15 1014 58 10000 2.1 230 10:18 09.04.2020
5233 Clouds 13 1014 62 10000 2.1 290 09:40 09.04.2020
5234 Clouds 13 1014 62 10000 2.1 290 09:21 09.04.2020
5235 Clouds 11 1014 71 10000 4.41 307 08:59 09.04.2020
5236 Clouds 11 1014 71 10000 4.41 307 08:40 09.04.2020
5237 Clouds 11 1014 71 10000 4.41 307 08:22 09.04.2020
5238 Clouds 10 1014 71 10000 4.41 307 07:50 09.04.2020
5239 Clouds 10 1014 71 10000 4.41 307 07:22 09.04.2020
5240 Clouds 8 1014 81 8000 4.41 307 06:48 09.04.2020
5241 Clouds 7 1014 75 8000 3.57 317 05:49 09.04.2020
5242 Clouds 7 1014 75 8000 3.57 317 05:49 09.04.2020
5243 Clouds 8 1014 75 8000 3.57 317 05:28 09.04.2020
5244 Clouds 9 1014 71 8000 4.65 312 02:37 09.04.2020
5245 Clouds 9 1014 71 8000 5.1 309 02:18 09.04.2020
5246 Clouds 9 1014 81 8000 2.1 310 01:39 09.04.2020
5247 Clouds 9 1014 81 8000 2.1 310 01:19 09.04.2020
5248 Clouds 9 1015 81 8000 2.1 310 00:38 09.04.2020
5249 Clouds 9 1015 81 8000 2.1 310 00:18 09.04.2020
5250 Clouds 9 1016 76 8000 2.1 300 23:55 08.04.2020
5251 Clouds 9 1016 76 8000 2.1 300 23:37 08.04.2020
5252 Clouds 10 1016 81 8000 2.1 300 23:19 08.04.2020
5253 Clouds 10 1016 81 8000 2.1 300 22:42 08.04.2020
5254 Clouds 10 1016 76 8000 2.6 300 22:23 08.04.2020
5255 Clouds 10 1016 76 8000 2.6 300 21:56 08.04.2020
5256 Clouds 10 1016 76 8000 2.6 300 21:37 08.04.2020
5257 Clouds 10 1016 76 8000 2.6 300 21:19 08.04.2020
5258 Clouds 11 1015 81 8000 4.1 320 20:56 08.04.2020
5259 Clouds 11 1015 81 8000 4.1 320 20:38 08.04.2020
5260 Clouds 12 1015 81 8000 4.1 320 20:19 08.04.2020
5261 Clouds 14 1015 54 8000 4.1 320 19:41 08.04.2020
5262 Clouds 14 1015 54 8000 4.1 320 19:22 08.04.2020
5263 Clouds 14 1015 54 8000 5.1 330 18:56 08.04.2020
5264 Clouds 14 1015 54 8000 5.1 330 18:37 08.04.2020
5265 Clouds 14 1015 54 8000 5.1 330 18:19 08.04.2020
5266 Clouds 15 1014 58 8000 5.1 320 17:42 08.04.2020
5267 Clouds 15 1014 58 8000 5.1 320 17:22 08.04.2020
5268 Clouds 16 1014 54 8000 6.2 310 16:57 08.04.2020
5269 Clouds 16 1014 54 8000 6.2 310 16:39 08.04.2020
5270 Clouds 16 1014 54 8000 6.2 310 16:20 08.04.2020
5271 Clouds 17 1014 45 10000 5.1 290 15:39 08.04.2020
5272 Clouds 17 1014 45 10000 5.1 290 15:21 08.04.2020
5273 Clouds 17 1014 45 10000 5.1 290 14:59 08.04.2020
5274 Clouds 17 1014 45 10000 5.1 290 14:40 08.04.2020
5275 Clouds 17 1014 45 10000 5.1 290 14:22 08.04.2020
5276 Clouds 17 1015 48 10000 5.1 320 13:44 08.04.2020
5277 Clouds 17 1015 48 10000 5.1 320 13:44 08.04.2020
5278 Clouds 17 1015 48 10000 5.1 320 13:21 08.04.2020
5279 Clouds 17 1015 48 10000 5.1 320 13:21 08.04.2020
5280 Clouds 16 1015 51 10000 5.1 320 12:58 08.04.2020
5281 Clouds 16 1015 51 10000 5.1 320 12:40 08.04.2020
5282 Clouds 16 1015 51 10000 5.1 320 12:18 08.04.2020
5283 Clouds 15 1015 51 10000 5.1 310 11:42 08.04.2020
5284 Clouds 15 1015 51 10000 5.1 310 11:23 08.04.2020
5285 Clouds 15 1015 51 10000 5.1 310 10:59 08.04.2020
5286 Clouds 15 1016 44 10000 5.1 310 10:41 08.04.2020
5287 Clouds 15 1016 44 10000 5.1 310 10:21 08.04.2020
5288 Clouds 13 1016 58 10000 5.1 310 09:59 08.04.2020
5289 Clouds 13 1016 58 10000 5.1 310 09:41 08.04.2020
5290 Clouds 13 1016 58 10000 5.1 310 09:19 08.04.2020
5291 Clouds 12 1016 62 10000 4.1 310 08:58 08.04.2020
5292 Clouds 12 1016 62 10000 4.1 310 08:58 08.04.2020
5293 Clouds 12 1016 62 10000 4.1 310 08:40 08.04.2020
5294 Clouds 12 1016 62 10000 4.1 310 08:21 08.04.2020
5295 Clouds 10 1015 76 10000 3.1 310 07:43 08.04.2020
5296 Clouds 9 1015 76 10000 3.1 310 07:22 08.04.2020
5297 Clouds 8 1015 81 10000 3.1 310 06:41 08.04.2020
5298 Clouds 8 1015 81 10000 3.1 310 05:30 08.04.2020
5299 Clouds 11 1014 63 0 5.9 312 03:22 08.04.2020
5300 Clouds 11 1014 63 0 5.95 310 02:38 08.04.2020
5301 Clouds 11 1014 63 0 5.95 310 02:18 08.04.2020
5302 Clouds 11 1014 63 0 5.95 310 01:30 08.04.2020
5303 Clouds 11 1014 63 0 5.95 310 00:52 08.04.2020
5304 Clouds 10 1015 81 10000 4.1 340 00:33 08.04.2020
5305 Clouds 10 1015 81 10000 4.1 340 23:58 07.04.2020
5306 Clouds 10 1015 81 10000 4.1 340 23:38 07.04.2020
5307 Clouds 10 1015 81 10000 4.1 340 23:20 07.04.2020
5308 Clouds 10 1015 76 10000 3.6 310 22:56 07.04.2020
5309 Clouds 10 1015 76 10000 3.6 310 22:38 07.04.2020
5310 Clouds 10 1015 76 10000 3.6 310 22:19 07.04.2020
5311 Clouds 11 1015 76 10000 5.1 310 21:54 07.04.2020
5312 Clouds 11 1015 76 10000 5.1 310 21:36 07.04.2020
5313 Haze 11 1015 81 5000 5.1 280 21:18 07.04.2020
5314 Haze 12 1015 76 5000 4.1 290 20:41 07.04.2020
5315 Clouds 13 1014 67 8000 5.1 320 20:21 07.04.2020
5316 Clouds 14 1014 67 8000 5.1 320 19:59 07.04.2020
5317 Clouds 14 1014 67 8000 5.1 320 19:38 07.04.2020
5318 Clouds 14 1014 67 8000 5.1 320 19:38 07.04.2020
5319 Clouds 15 1014 67 8000 5.1 320 19:20 07.04.2020
5320 Clouds 15 1014 67 8000 5.1 320 18:59 07.04.2020
5321 Haze 15 1014 67 5000 5.1 310 18:41 07.04.2020
5322 Haze 16 1014 67 5000 5.1 310 18:21 07.04.2020
5323 Haze 17 1014 59 5000 6.2 310 17:56 07.04.2020
5324 Haze 17 1014 59 5000 6.2 310 17:37 07.04.2020
5325 Haze 17 1014 59 5000 6.2 310 17:19 07.04.2020
5326 Haze 20 1014 37 5000 3.6 300 16:44 07.04.2020
5327 Haze 20 1014 37 5000 3.6 300 16:26 07.04.2020
5328 Clouds 19 1014 45 6000 2.6 300 15:46 07.04.2020
5329 Clouds 19 1015 48 6000 2.1 290 15:26 07.04.2020
5330 Clouds 19 1015 48 6000 2.1 290 14:56 07.04.2020
5331 Clouds 19 1015 48 6000 2.1 290 14:38 07.04.2020
5332 Clouds 19 1015 48 6000 2.1 290 14:19 07.04.2020
5333 Clouds 19 1015 52 6000 3.1 310 13:43 07.04.2020
5334 Clouds 19 1015 52 6000 3.1 310 13:20 07.04.2020
5335 Haze 18 1016 59 5000 3.1 350 12:58 07.04.2020
5336 Haze 18 1016 59 5000 3.1 350 12:39 07.04.2020
5337 Haze 18 1016 59 5000 3.1 350 12:21 07.04.2020
5338 Haze 16 1016 63 5000 2.1 360 11:58 07.04.2020
5339 Haze 16 1016 63 5000 2.1 360 11:40 07.04.2020
5340 Haze 16 1016 63 5000 2.1 360 11:21 07.04.2020
5341 Haze 16 1017 55 5000 4.74 303 10:55 07.04.2020
5342 Haze 16 1017 55 5000 4.74 303 10:36 07.04.2020
5343 Haze 16 1017 55 5000 4.74 303 10:18 07.04.2020
5344 Haze 14 1016 62 5000 2.1 350 09:43 07.04.2020
5345 Haze 14 1016 62 5000 2.1 350 09:18 07.04.2020
5346 Haze 13 1016 71 5000 1.5 310 08:41 07.04.2020
5347 Haze 13 1016 71 5000 1.5 310 08:23 07.04.2020
5348 Haze 11 1016 76 5000 3.1 280 07:58 07.04.2020
5349 Haze 11 1016 76 5000 3.1 280 07:40 07.04.2020
5350 Haze 11 1016 76 5000 3.1 280 07:21 07.04.2020
5351 Haze 8 1016 81 5000 3.6 280 06:48 07.04.2020
5352 Haze 8 1016 81 5000 3.6 280 06:20 07.04.2020
5353 Mist 8 1016 81 5000 2.6 320 05:32 07.04.2020
5354 Clouds 9 1016 87 6000 2.1 340 04:40 07.04.2020
5355 Clouds 10 1016 87 6000 2.1 340 03:25 07.04.2020
5356 Clouds 10 1016 87 6000 2.6 210 02:48 07.04.2020
5357 Clouds 10 1018 87 6000 1.5 210 01:48 07.04.2020
5358 Clouds 10 1018 87 6000 1.5 210 01:24 07.04.2020
5359 Clouds 11 1018 87 6000 1.5 210 00:28 07.04.2020
5360 Clouds 11 1018 81 6000 1.5 210 23:55 06.04.2020
5361 Clouds 11 1018 81 6000 1.5 210 23:36 06.04.2020
5362 Clouds 11 1018 81 6000 1.5 210 23:18 06.04.2020
5363 Clouds 12 1017 87 6000 2.1 300 22:39 06.04.2020
5364 Clouds 12 1017 87 6000 2.1 300 22:21 06.04.2020
5365 Clouds 13 1017 82 6000 2.1 300 21:57 06.04.2020
5366 Clouds 13 1017 82 6000 2.1 300 21:38 06.04.2020
5367 Clouds 13 1017 82 6000 2.1 300 21:19 06.04.2020
5368 Clouds 13 1017 82 6000 2.1 300 21:19 06.04.2020
5369 Haze 13 1017 82 5000 6.2 150 20:55 06.04.2020
5370 Haze 13 1017 82 5000 6.2 150 20:37 06.04.2020
5371 Haze 13 1017 82 5000 6.2 150 20:18 06.04.2020
5372 Haze 14 1016 76 5000 5.1 150 19:41 06.04.2020
5373 Haze 14 1016 76 5000 5.1 150 19:23 06.04.2020
5374 Haze 16 1016 67 5000 5.1 310 18:59 06.04.2020
5375 Haze 16 1016 67 5000 5.1 310 18:40 06.04.2020
5376 Haze 16 1016 67 5000 5.1 310 18:22 06.04.2020
5377 Clouds 19 1016 59 6000 5.1 310 17:55 06.04.2020
5378 Clouds 19 1016 59 6000 5.1 310 17:36 06.04.2020
5379 Clouds 19 1016 59 6000 5.1 310 17:18 06.04.2020
5380 Clouds 19 1017 42 6000 4.1 280 16:44 06.04.2020
5381 Clouds 19 1017 42 6000 4.1 280 16:26 06.04.2020
5382 Haze 20 1017 39 5000 5.7 250 14:44 06.04.2020
5383 Haze 20 1017 39 5000 5.7 250 14:44 06.04.2020
5384 Haze 20 1017 39 5000 5.7 250 14:44 06.04.2020
5385 Clouds 20 1017 37 6000 5.1 280 13:43 06.04.2020
5386 Clouds 20 1017 37 6000 5.1 280 13:20 06.04.2020
5387 Clouds 20 1017 37 6000 5.1 280 13:20 06.04.2020
5388 Clouds 20 1017 40 6000 4.1 250 12:26 06.04.2020
5389 Clouds 20 1017 40 6000 4.1 250 12:26 06.04.2020
5390 Clouds 20 1017 40 6000 4.1 250 12:26 06.04.2020
5391 Clouds 20 1017 40 6000 4.1 250 12:26 06.04.2020
5392 Haze 18 1018 48 5000 5.1 260 11:56 06.04.2020
5393 Haze 18 1018 48 5000 5.1 260 11:34 06.04.2020
5394 Haze 18 1018 48 5000 5.1 260 11:34 06.04.2020
5395 Haze 17 1018 59 5000 3.1 260 10:52 06.04.2020
5396 Haze 17 1018 59 5000 3.1 260 10:52 06.04.2020
5397 Haze 17 1018 59 5000 3.1 260 10:52 06.04.2020
5398 Haze 17 1018 59 5000 3.1 260 10:52 06.04.2020
5399 Haze 17 1018 59 5000 3.1 260 10:52 06.04.2020
5400 Haze 17 1018 59 5000 3.1 260 10:22 06.04.2020
5401 Haze 17 1018 59 5000 3.1 260 10:22 06.04.2020
5402 Haze 15 1017 67 5000 3.1 310 09:51 06.04.2020
5403 Haze 15 1017 67 5000 3.1 310 09:51 06.04.2020
5404 Haze 15 1017 67 5000 3.1 310 09:24 06.04.2020
5405 Haze 15 1017 67 5000 3.1 310 08:55 06.04.2020
5406 Haze 15 1017 67 5000 3.1 310 08:33 06.04.2020
5407 Haze 15 1017 67 5000 3.1 310 08:33 06.04.2020
5408 Mist 9 1016 93 5000 6.3 312 07:55 06.04.2020
5409 Haze 10 1016 87 5000 1.5 40 07:18 06.04.2020
5410 Haze 10 1016 87 5000 1.5 40 06:25 06.04.2020
5411 Haze 12 1016 62 5000 5.95 314 05:03 06.04.2020
5412 Haze 10 1015 81 5000 1.5 40 05:03 06.04.2020
5413 Haze 12 1016 62 5000 5.95 314 05:00 06.04.2020
5414 Dust 13 1016 54 5000 5.95 314 03:28 06.04.2020
5415 Dust 14 1016 50 5000 2.6 250 02:48 06.04.2020
5416 Dust 16 1016 59 3000 2.6 250 01:52 06.04.2020
5417 Dust 15 1016 59 3000 5.1 250 00:49 06.04.2020
5418 Dust 15 1016 59 3000 5.1 250 00:26 06.04.2020
5419 Dust 17 1016 59 3000 5.1 250 23:49 05.04.2020
5420 Dust 17 1016 59 3000 5.1 250 23:30 05.04.2020
5421 Dust 17 1016 59 3000 5.1 250 23:30 05.04.2020
5422 Dust 16 1015 55 3000 5.85 335 22:56 05.04.2020
5423 Dust 16 1015 55 3000 5.85 335 22:38 05.04.2020
5424 Dust 16 1015 55 3000 5.85 335 22:19 05.04.2020
5425 Dust 18 1015 45 3000 2.6 240 21:58 05.04.2020
5426 Dust 18 1015 45 3000 2.6 240 21:39 05.04.2020
5427 Dust 18 1015 45 3000 2.6 240 21:21 05.04.2020
5428 Dust 18 1015 45 3000 2.6 240 20:21 05.04.2020
5429 Dust 19 1015 55 3000 2.6 260 19:41 05.04.2020
5430 Dust 19 1015 55 3000 2.6 260 19:22 05.04.2020
5431 Dust 21 1014 40 3000 3.6 250 18:47 05.04.2020
5432 Dust 23 1014 33 3000 5.1 250 17:59 05.04.2020
5433 Dust 23 1014 33 3000 5.1 250 17:59 05.04.2020
5434 Dust 23 1014 33 3000 5.1 250 17:59 05.04.2020
5435 Dust 23 1014 33 3000 5.1 250 17:40 05.04.2020
5436 Dust 23 1014 33 3000 5.1 250 17:40 05.04.2020
5437 Dust 23 1014 33 3000 5.1 250 17:40 05.04.2020
5438 Dust 23 1014 33 3000 5.1 250 17:40 05.04.2020
5439 Dust 23 1014 33 3000 5.1 250 17:40 05.04.2020
5440 Dust 23 1014 33 3000 5.1 250 17:20 05.04.2020
5441 Dust 23 1014 33 3000 5.1 250 17:20 05.04.2020
5442 Dust 26 1014 26 2500 6.2 250 16:46 05.04.2020
5443 Dust 26 1014 26 2500 6.2 250 16:46 05.04.2020
5444 Dust 26 1014 26 2500 6.2 250 16:46 05.04.2020
5445 Dust 26 1014 26 2500 6.2 250 16:46 05.04.2020
5446 Dust 26 1014 26 2500 6.2 250 16:46 05.04.2020
5447 Dust 26 1014 26 2500 6.2 250 16:18 05.04.2020
5448 Dust 28 1014 20 3000 2.6 260 15:45 05.04.2020
5449 Dust 28 1014 20 3000 2.6 260 15:25 05.04.2020
5450 Dust 28 1015 22 3000 3.1 240 14:48 05.04.2020
5451 Dust 28 1015 22 3000 3.1 240 14:48 05.04.2020
5452 Dust 28 1015 22 3000 3.1 240 14:48 05.04.2020
5453 Dust 28 1015 22 3000 3.1 240 14:48 05.04.2020
5454 Dust 27 1015 24 4000 2.6 120 13:47 05.04.2020
5455 Dust 27 1015 24 4000 2.6 120 13:47 05.04.2020
5456 Dust 27 1015 24 4000 2.6 120 13:47 05.04.2020
5457 Dust 26 1016 27 4000 2.6 110 13:00 05.04.2020
5458 Dust 26 1017 29 5000 2.6 100 11:58 05.04.2020
5459 Dust 26 1017 29 5000 2.6 100 11:38 05.04.2020
5460 Dust 26 1017 29 5000 2.6 100 11:19 05.04.2020
5461 Clouds 23 1017 37 7000 2.1 50 10:45 05.04.2020
5462 Clouds 23 1017 37 7000 2.1 50 10:21 05.04.2020
5463 Clouds 20 1017 37 7000 2.6 50 09:52 05.04.2020
5464 Clouds 20 1017 37 7000 2.6 50 09:52 05.04.2020
5465 Clouds 20 1017 37 7000 2.6 50 09:25 05.04.2020
5466 Clouds 20 1017 37 7000 2.6 50 09:25 05.04.2020
5467 Clouds 20 1017 37 7000 2.6 50 09:25 05.04.2020
5468 Clouds 20 1017 37 7000 2.6 50 09:25 05.04.2020
5469 Clouds 20 1017 37 7000 2.6 50 09:25 05.04.2020
5470 Clouds 17 1017 39 6000 10.25 133 07:58 05.04.2020
5471 Clouds 15 1016 44 6000 7.51 101 05:12 05.04.2020
5472 Clouds 15 1017 47 8000 7.51 101 03:58 05.04.2020
5473 Clouds 15 1017 47 8000 5.54 92 02:56 05.04.2020
5474 Clouds 17 1017 45 8000 5.12 97 01:57 05.04.2020
5475 Clouds 17 1017 45 8000 5.12 97 01:39 05.04.2020
5476 Clouds 17 1018 42 8000 5.12 97 00:52 05.04.2020
5477 Clouds 17 1018 42 8000 5.12 97 00:23 05.04.2020
5478 Clouds 17 1018 42 8000 7.2 76 23:58 04.04.2020
5479 Clouds 17 1018 42 8000 7.2 76 23:39 04.04.2020
5480 Clouds 17 1018 42 8000 7.2 76 23:21 04.04.2020
5481 Clouds 18 1018 45 8000 7.2 76 22:56 04.04.2020
5482 Clouds 18 1018 45 8000 7.2 76 22:38 04.04.2020
5483 Clouds 18 1018 45 8000 7.2 76 22:19 04.04.2020
5484 Clouds 18 1018 45 8000 7.2 76 21:56 04.04.2020
5485 Clouds 18 1018 45 8000 7.2 76 21:38 04.04.2020
5486 Clouds 18 1018 45 8000 4.47 85 21:18 04.04.2020
5487 Clouds 19 1018 39 10000 4.47 85 20:54 04.04.2020
5488 Clouds 19 1018 39 10000 4.47 85 20:36 04.04.2020
5489 Clouds 19 1018 39 10000 4.47 85 20:18 04.04.2020
5490 Clouds 20 1018 37 10000 4.47 85 19:40 04.04.2020
5491 Clouds 20 1018 37 10000 4.47 85 19:20 04.04.2020
5492 Clouds 22 1017 33 10000 4.96 76 18:59 04.04.2020
5493 Clouds 22 1017 33 10000 4.47 85 18:59 04.04.2020
5494 Clouds 22 1017 33 10000 4.47 85 18:39 04.04.2020
5495 Clouds 22 1017 33 10000 4.47 85 18:21 04.04.2020
5496 Clouds 22 1017 33 10000 4.47 85 18:21 04.04.2020
5497 Clouds 22 1017 33 10000 4.96 76 18:21 04.04.2020
5498 Clouds 24 1017 29 10000 1.71 32 17:58 04.04.2020
5499 Clouds 24 1017 29 10000 1.71 32 17:39 04.04.2020
5500 Clouds 24 1017 29 10000 1.71 32 17:19 04.04.2020
5501 Clouds 25 1017 23 8000 1.71 32 16:45 04.04.2020
5502 Clouds 25 1017 23 8000 1.71 32 16:27 04.04.2020
5503 Clouds 25 1017 23 8000 2.32 27 16:27 04.04.2020
5504 Clouds 25 1017 23 10000 1.71 32 15:59 04.04.2020
5505 Clouds 25 1017 23 10000 1.71 32 15:39 04.04.2020
5506 Clouds 25 1017 23 10000 1.73 236 15:20 04.04.2020
5507 Clouds 25 1017 23 4800 1.73 236 14:56 04.04.2020
5508 Clouds 25 1017 23 4800 1.73 236 14:37 04.04.2020
5509 Clouds 25 1017 23 4800 1.47 230 14:18 04.04.2020
5510 Clouds 24 1019 29 7000 1.47 230 13:54 04.04.2020
5511 Clouds 24 1019 29 7000 1.47 230 13:36 04.04.2020
5512 Clouds 24 1019 29 7000 1.47 230 13:18 04.04.2020
5513 Clouds 23 1020 35 7000 3.1 200 12:42 04.04.2020
5514 Clouds 23 1020 35 7000 3.1 200 12:23 04.04.2020
5515 Clear 21 1021 40 7000 3.1 200 11:54 04.04.2020
5516 Clear 21 1021 40 7000 3.1 200 11:36 04.04.2020
5517 Clear 21 1021 40 7000 3.1 200 11:18 04.04.2020
5518 Clear 20 1020 40 7000 2.1 180 10:55 04.04.2020
5519 Clear 20 1020 40 7000 2.1 180 10:37 04.04.2020
5520 Clear 20 1020 40 7000 2.1 180 10:18 04.04.2020
5521 Clear 17 1020 52 7000 2.1 60 09:42 04.04.2020
5522 Clear 17 1020 52 7000 2.1 60 09:24 04.04.2020
5523 Clear 15 1020 58 6000 1.48 202 08:58 04.04.2020
5524 Clear 15 1020 58 6000 1.48 202 08:38 04.04.2020
5525 Clear 15 1020 58 6000 1.48 202 08:19 04.04.2020
5526 Clear 12 1020 58 6000 1.48 202 07:40 04.04.2020
5527 Clear 11 1019 66 6000 1.48 202 07:22 04.04.2020
5528 Clear 9 1019 66 6000 1.48 202 06:46 04.04.2020
5529 Clear 9 1019 66 6000 2.05 334 06:18 04.04.2020
5530 Clear 9 1019 66 6000 2.05 334 05:41 04.04.2020
5531 Clear 9 1019 66 6000 2.05 334 05:23 04.04.2020
5532 Clear 11 1019 66 7000 2.1 190 04:27 04.04.2020
5533 Clear 12 1019 62 6000 1 170 03:49 04.04.2020
5534 Clear 10 1019 58 7000 1.5 270 02:50 04.04.2020
5535 Clear 10 1019 58 7000 1.5 270 02:32 04.04.2020
5536 Clouds 12 1020 54 7000 2.1 270 01:53 04.04.2020
5537 Clouds 12 1020 54 7000 2.1 270 01:24 04.04.2020
5538 Clouds 13 1020 50 7000 2.6 270 00:48 04.04.2020
5539 Clouds 13 1020 50 7000 2.6 270 00:28 04.04.2020
5540 Clear 13 1020 54 7000 3.6 260 23:39 03.04.2020
5541 Clear 13 1020 54 7000 3.6 260 23:21 03.04.2020
5542 Clear 13 1020 54 6000 3.6 300 22:58 03.04.2020
5543 Clear 13 1020 54 6000 3.6 300 22:39 03.04.2020
5544 Clear 13 1020 54 6000 3.6 300 22:18 03.04.2020
5545 Clear 13 1020 54 6000 4.6 300 21:44 03.04.2020
5546 Clear 13 1020 54 6000 4.6 300 21:24 03.04.2020
5547 Clear 14 1019 51 6000 4.1 310 20:57 03.04.2020
5548 Clear 14 1019 51 6000 4.1 310 20:37 03.04.2020
5549 Clear 14 1019 51 6000 4.1 310 20:19 03.04.2020
5550 Clear 16 1017 51 6000 6.2 250 19:57 03.04.2020
5551 Clear 16 1017 51 6000 6.2 250 19:39 03.04.2020
5552 Clear 16 1017 51 6000 6.2 250 19:21 03.04.2020
5553 Clear 17 1018 48 6000 6.2 250 18:59 03.04.2020
5554 Clear 17 1018 48 6000 6.2 250 18:59 03.04.2020
5555 Clear 17 1018 48 6000 6.2 250 18:41 03.04.2020
5556 Clear 17 1018 48 6000 6.2 250 18:23 03.04.2020
5557 Clear 19 1018 39 6000 6.2 250 17:57 03.04.2020
5558 Clear 19 1018 39 6000 6.2 250 17:39 03.04.2020
5559 Clear 19 1018 39 6000 6.2 250 17:18 03.04.2020
5560 Clear 20 1017 42 7000 5.1 250 16:45 03.04.2020
5561 Clear 20 1017 42 7000 5.1 250 16:22 03.04.2020
5562 Clear 20 1017 40 7000 5.1 250 15:58 03.04.2020
5563 Clear 20 1017 40 7000 5.1 250 15:40 03.04.2020
5564 Clear 20 1017 40 7000 5.1 250 15:21 03.04.2020
5565 Clear 20 1017 40 7000 5.1 250 14:56 03.04.2020
5566 Clear 22 1015 24 0 7.76 292 14:38 03.04.2020
5567 Clear 19 1018 42 6000 5.7 270 14:20 03.04.2020
5568 Clear 19 1018 42 6000 5.7 270 13:45 03.04.2020
5569 Clear 19 1018 42 6000 5.7 270 13:26 03.04.2020
5570 Clear 19 1019 42 7000 5.1 220 12:56 03.04.2020
5571 Clear 19 1019 42 7000 5.1 220 12:37 03.04.2020
5572 Clear 19 1019 42 7000 5.1 220 12:18 03.04.2020
5573 Clear 18 1019 31 8000 6.2 250 11:55 03.04.2020
5574 Clear 18 1019 31 8000 6.2 250 11:37 03.04.2020
5575 Clear 18 1019 31 8000 6.2 250 11:18 03.04.2020
5576 Clear 16 1018 31 7000 3.1 230 10:56 03.04.2020
5577 Clear 16 1018 31 7000 3.1 230 10:37 03.04.2020
5578 Clear 16 1018 31 7000 3.1 230 10:18 03.04.2020
5579 Haze 15 1019 47 5000 2.6 310 09:54 03.04.2020
5580 Haze 15 1019 47 5000 2.6 310 09:36 03.04.2020
5581 Haze 12 1018 50 5000 5.1 220 09:18 03.04.2020
5582 Haze 12 1018 50 5000 5.1 220 08:41 03.04.2020
5583 Haze 12 1018 50 5000 5.1 220 08:22 03.04.2020
5584 Mist 9 1018 87 5000 2.6 310 07:50 03.04.2020
5585 Clouds 15 1017 30 0 3.32 277 07:32 03.04.2020
5586 Haze 7 1018 70 4000 2.1 240 06:55 03.04.2020
5587 Haze 7 1018 70 4000 2.1 240 06:25 03.04.2020
5588 Clouds 8 1017 76 6000 1 230 05:42 03.04.2020
5589 Clouds 11 1016 46 0 3.3 308 03:52 03.04.2020
5590 Clouds 11 1016 46 0 3.3 308 03:31 03.04.2020
5591 Clouds 10 1017 76 7000 2.1 240 02:30 03.04.2020
5592 Clouds 10 1017 81 6000 2.6 250 01:24 03.04.2020
5593 Clouds 11 1017 76 6000 2.6 230 00:46 03.04.2020
5594 Clouds 11 1017 76 6000 2.6 230 00:27 03.04.2020
5595 Clouds 11 1017 76 6000 1.5 260 23:43 02.04.2020
5596 Clouds 11 1017 76 6000 1.5 260 23:24 02.04.2020
5597 Clouds 11 1017 81 6000 1.5 250 23:00 02.04.2020
5598 Clouds 11 1017 81 6000 1.5 250 22:41 02.04.2020
5599 Clouds 11 1017 81 6000 1.5 250 22:22 02.04.2020
5600 Clouds 12 1017 76 6000 2.1 230 21:58 02.04.2020
5601 Clouds 12 1017 76 6000 2.1 230 21:37 02.04.2020
5602 Clear 12 1017 76 6000 2.1 230 21:18 02.04.2020
5603 Clouds 13 1017 76 6000 2.1 340 20:44 02.04.2020
5604 Clouds 13 1017 76 6000 2.1 340 20:24 02.04.2020
5605 Clouds 13 1017 71 6000 2.1 340 19:57 02.04.2020
5606 Clouds 13 1017 71 6000 2.1 340 19:39 02.04.2020
5607 Clouds 13 1017 71 6000 2.1 340 19:20 02.04.2020
5608 Clouds 14 1016 62 6000 3.1 240 18:54 02.04.2020
5609 Clouds 14 1016 62 6000 3.1 240 18:36 02.04.2020
5610 Clouds 14 1016 62 6000 3.1 240 18:18 02.04.2020
5611 Clouds 16 1016 51 6000 2.6 280 17:42 02.04.2020
5612 Clouds 16 1016 51 6000 2.6 280 17:24 02.04.2020
5613 Clouds 17 1016 48 6000 4.1 260 16:58 02.04.2020
5614 Clouds 17 1016 48 6000 4.1 260 16:40 02.04.2020
5615 Clouds 17 1016 48 6000 4.1 260 16:21 02.04.2020
5616 Clouds 17 1016 48 6000 3.6 270 15:56 02.04.2020
5617 Clouds 17 1016 48 6000 3.6 270 15:38 02.04.2020
5618 Clouds 17 1016 48 6000 3.6 270 15:18 02.04.2020
5619 Clouds 17 1016 45 6000 5.7 270 14:57 02.04.2020
5620 Clouds 17 1016 45 6000 5.7 270 14:38 02.04.2020
5621 Clouds 17 1016 45 6000 5.7 270 14:18 02.04.2020
5622 Clouds 16 1016 48 7000 3.6 280 13:54 02.04.2020
5623 Clouds 16 1016 48 7000 3.6 280 13:54 02.04.2020
5624 Clouds 16 1016 48 7000 3.6 280 13:36 02.04.2020
5625 Clouds 16 1016 48 7000 3.6 280 13:18 02.04.2020
5626 Haze 16 1017 55 5000 3.6 240 12:44 02.04.2020
5627 Haze 16 1017 55 5000 3.6 240 12:19 02.04.2020
5628 Haze 15 1017 58 5000 2.6 240 11:57 02.04.2020
5629 Haze 15 1017 58 5000 2.6 240 11:39 02.04.2020
5630 Haze 15 1017 58 5000 2.6 240 11:39 02.04.2020
5631 Haze 15 1017 58 5000 2.6 240 11:20 02.04.2020
5632 Haze 14 1017 58 5000 2.1 220 10:56 02.04.2020
5633 Haze 14 1017 58 5000 2.1 220 10:38 02.04.2020
5634 Haze 14 1017 58 5000 2.1 220 10:38 02.04.2020
5635 Haze 14 1017 58 5000 2.1 220 10:20 02.04.2020
5636 Haze 14 1017 58 5000 2.1 220 10:20 02.04.2020
5637 Clouds 13 1017 82 7000 4.6 280 09:58 02.04.2020
5638 Clouds 13 1017 82 7000 4.6 280 09:58 02.04.2020
5639 Clouds 13 1017 82 7000 4.6 280 09:40 02.04.2020
5640 Clouds 13 1017 82 7000 4.6 280 09:20 02.04.2020
5641 Clouds 11 1016 81 6000 4.6 280 08:47 02.04.2020
5642 Clouds 11 1016 81 6000 4.6 280 08:28 02.04.2020
5643 Clouds 10 1015 81 7000 3.6 250 07:57 02.04.2020
5644 Clouds 10 1015 81 7000 3.6 250 07:38 02.04.2020
5645 Clouds 10 1015 81 7000 3.6 250 07:19 02.04.2020
5646 Clouds 10 1015 76 7000 2.6 250 06:24 02.04.2020
5647 Clouds 9 1015 81 6000 1.5 230 05:46 02.04.2020
5648 Clouds 8 1014 87 6000 2.1 240 04:55 02.04.2020
5649 Clouds 9 1015 87 7000 2.1 240 02:19 02.04.2020
5650 Clouds 8 1015 87 7000 2.1 280 01:27 02.04.2020
5651 Clouds 9 1016 87 7000 1 290 00:41 02.04.2020
5652 Clouds 9 1016 87 7000 1 290 00:19 02.04.2020
5653 Clear 9 1016 87 8000 1 290 23:39 01.04.2020
5654 Clear 9 1016 87 8000 1 290 23:19 01.04.2020
5655 Clouds 11 1016 81 7000 2.1 280 22:57 01.04.2020
5656 Clouds 11 1016 81 7000 2.1 280 22:38 01.04.2020
5657 Clouds 11 1016 81 7000 2.1 280 22:19 01.04.2020
5658 Clouds 11 1016 81 7000 5.1 270 21:41 01.04.2020
5659 Clouds 11 1016 81 7000 5.1 270 21:19 01.04.2020
5660 Clouds 12 1015 76 7000 6.2 280 20:56 01.04.2020
5661 Clouds 12 1015 76 7000 6.2 280 20:38 01.04.2020
5662 Clouds 12 1015 76 7000 6.2 280 20:19 01.04.2020
5663 Clouds 13 1015 76 7000 5.1 280 19:58 01.04.2020
5664 Clouds 13 1015 76 7000 5.1 280 19:38 01.04.2020
5665 Clouds 13 1015 76 7000 5.1 280 19:19 01.04.2020
5666 Clouds 13 1015 76 7000 5.1 280 18:42 01.04.2020
5667 Clouds 13 1015 76 7000 5.1 280 18:42 01.04.2020
5668 Clouds 13 1015 76 7000 5.1 280 18:23 01.04.2020
5669 Clouds 14 1014 76 6000 5.1 270 17:57 01.04.2020
5670 Clouds 14 1014 76 6000 5.1 270 17:38 01.04.2020
5671 Clouds 14 1014 76 6000 5.1 270 17:19 01.04.2020
5672 Clouds 14 1014 76 6000 5.1 270 17:19 01.04.2020
5673 Clouds 14 1014 71 6000 6.2 280 16:58 01.04.2020
5674 Clouds 14 1014 71 6000 6.2 280 16:39 01.04.2020
5675 Clouds 14 1014 71 6000 6.2 280 16:21 01.04.2020
5676 Dust 14 1013 71 5000 12.9 270 15:57 01.04.2020
5677 Dust 14 1013 71 5000 12.9 270 15:37 01.04.2020
5678 Clouds 14 1013 71 6000 7.2 250 15:18 01.04.2020
5679 Clouds 14 1013 71 6000 7.2 250 14:55 01.04.2020
5680 Clouds 14 1013 71 6000 7.2 250 14:55 01.04.2020
5681 Clouds 14 1013 71 6000 7.2 250 14:36 01.04.2020
5682 Clouds 14 1013 71 6000 7.2 250 14:18 01.04.2020
5683 Drizzle 14 1012 76 6000 10.3 260 13:55 01.04.2020
5684 Drizzle 14 1012 76 6000 10.3 260 13:36 01.04.2020
5685 Drizzle 14 1012 76 6000 10.3 260 13:18 01.04.2020
5686 Drizzle 14 1012 76 6000 12.3 260 12:42 01.04.2020
5687 Drizzle 14 1012 76 6000 12.3 260 12:23 01.04.2020
5688 Drizzle 13 1012 76 6000 12.9 260 11:59 01.04.2020
5689 Drizzle 13 1012 76 6000 12.9 260 11:39 01.04.2020
5690 Drizzle 13 1012 76 6000 12.9 260 11:20 01.04.2020
5691 Drizzle 13 1012 81 6000 10.3 260 10:56 01.04.2020
5692 Drizzle 13 1012 81 6000 10.3 260 10:37 01.04.2020
5693 Drizzle 13 1012 81 6000 10.3 260 10:18 01.04.2020
5694 Dust 13 1011 76 5000 10.3 260 09:40 01.04.2020
5695 Dust 13 1011 76 5000 10.3 260 09:22 01.04.2020
5696 Dust 12 1011 76 5000 8.2 250 08:59 01.04.2020
5697 Dust 12 1011 76 5000 8.2 250 08:40 01.04.2020
5698 Dust 12 1011 76 5000 8.2 250 08:18 01.04.2020
5699 Haze 12 1011 71 5000 6.7 250 07:42 01.04.2020
5700 Haze 12 1011 71 5000 6.7 250 07:20 01.04.2020
5701 Dust 12 1009 71 4000 12.9 250 06:47 01.04.2020
5702 Dust 12 1009 71 4000 12.9 250 06:22 01.04.2020
5703 Dust 12 1010 71 4000 7.7 250 05:55 01.04.2020
5704 Dust 12 1011 81 4000 5.7 240 04:30 01.04.2020
5705 Dust 12 1011 81 4000 5.1 250 03:28 01.04.2020
5706 Dust 12 1011 66 4000 4.1 250 02:49 01.04.2020
5707 Dust 12 1012 71 4000 2.6 290 01:56 01.04.2020
5708 Dust 12 1012 71 4000 2.6 290 01:37 01.04.2020
5709 Dust 12 1012 71 4000 2.6 290 01:18 01.04.2020
5710 Dust 13 1012 62 4000 3.1 270 00:43 01.04.2020
5711 Dust 13 1012 62 4000 3.1 270 00:18 01.04.2020
5712 Dust 13 1012 62 4000 4.1 270 23:42 31.03.2020
5713 Dust 13 1012 62 4000 4.1 270 23:23 31.03.2020
5714 Dust 13 1012 62 4000 4.1 270 22:58 31.03.2020
5715 Dust 14 1012 54 3000 5.74 286 22:37 31.03.2020
5716 Dust 14 1012 54 3000 5.74 286 22:19 31.03.2020
5717 Dust 15 1011 45 3000 1.5 200 21:56 31.03.2020
5718 Dust 15 1011 45 3000 1.5 200 21:37 31.03.2020
5719 Dust 15 1011 45 3000 1.5 200 21:19 31.03.2020
5720 Dust 16 1010 45 3000 1.5 120 20:55 31.03.2020
5721 Dust 16 1010 45 3000 1.5 120 20:36 31.03.2020
5722 Dust 16 1010 45 3000 1.5 120 20:18 31.03.2020
5723 Dust 16 1010 45 3000 1.5 120 20:18 31.03.2020
5724 Dust 17 1010 36 3000 3.1 260 19:41 31.03.2020
5725 Dust 17 1010 36 3000 3.1 260 19:22 31.03.2020
5726 Dust 20 1010 30 3000 5.1 270 18:58 31.03.2020
5727 Dust 20 1010 30 3000 5.1 270 18:39 31.03.2020
5728 Dust 20 1010 30 3000 5.1 270 18:18 31.03.2020
5729 Dust 21 1010 26 4000 7.2 280 17:55 31.03.2020
5730 Dust 22 1010 26 4000 7.2 280 17:37 31.03.2020
5731 Dust 22 1010 26 4000 7.2 280 17:18 31.03.2020
5732 Dust 23 1009 20 4000 5.1 250 16:40 31.03.2020
5733 Haze 25 1009 18 5000 6.2 240 16:19 31.03.2020
5734 Haze 25 1009 18 5000 6.2 240 15:57 31.03.2020
5735 Haze 25 1009 18 5000 6.2 240 15:39 31.03.2020
5736 Haze 25 1009 18 5000 6.2 240 15:21 31.03.2020
5737 Haze 25 1010 17 5000 5.1 210 14:57 31.03.2020
5738 Haze 25 1010 17 5000 5.1 210 14:39 31.03.2020
5739 Haze 25 1010 17 5000 5.1 210 14:20 31.03.2020
5740 Clouds 24 1011 22 8000 3.1 200 13:43 31.03.2020
5741 Clouds 24 1011 22 8000 3.1 200 13:20 31.03.2020
5742 Clouds 23 1012 15 8000 3.6 180 12:59 31.03.2020
5743 Clouds 23 1012 15 8000 3.6 180 12:40 31.03.2020
5744 Clouds 23 1012 18 8000 3.6 180 12:19 31.03.2020
5745 Clouds 22 1013 28 8000 5.7 160 11:41 31.03.2020
5746 Clouds 22 1013 28 8000 5.7 160 11:20 31.03.2020
5747 Clouds 22 1013 28 8000 5.7 160 11:20 31.03.2020
5748 Rain 19 1013 34 10000 5.7 170 10:59 31.03.2020
5749 Rain 19 1013 34 10000 5.7 170 10:41 31.03.2020
5750 Rain 19 1013 34 10000 5.7 170 10:22 31.03.2020
5751 Haze 17 1014 39 5000 6.42 160 09:59 31.03.2020
5752 Haze 17 1014 39 5000 6.42 160 09:41 31.03.2020
5753 Haze 17 1014 39 5000 6.42 160 09:22 31.03.2020
5754 Haze 17 1014 39 5000 7.73 126 08:57 31.03.2020
5755 Haze 17 1014 39 5000 7.73 126 08:39 31.03.2020
5756 Haze 17 1014 39 5000 7.73 126 08:19 31.03.2020
5757 Haze 15 1014 44 5000 2.1 260 07:56 31.03.2020
5758 Haze 15 1014 44 5000 2.1 260 07:38 31.03.2020
5759 Haze 15 1014 44 5000 2.1 260 07:19 31.03.2020
5760 Haze 14 1014 41 5000 3.1 260 06:47 31.03.2020
5761 Haze 14 1014 41 5000 3.1 260 06:22 31.03.2020
5762 Haze 15 1013 41 5000 2.6 260 05:39 31.03.2020
5763 Clouds 13 1014 54 6000 2.6 140 03:34 31.03.2020
5764 Clouds 12 1014 58 7000 3.18 125 02:19 31.03.2020
5765 Clouds 13 1015 62 7000 3.18 125 01:45 31.03.2020
5766 Clouds 13 1015 66 7000 3.18 125 00:49 31.03.2020
5767 Clouds 13 1015 66 7000 3.18 125 00:25 31.03.2020
5768 Clouds 14 1015 58 7000 2.66 18 23:58 30.03.2020
5769 Clouds 14 1015 58 7000 2.66 18 23:38 30.03.2020
5770 Clouds 14 1015 58 7000 2.66 18 23:18 30.03.2020
5771 Haze 14 1015 58 5000 2.66 18 22:55 30.03.2020
5772 Haze 14 1015 58 5000 2.66 18 22:36 30.03.2020
5773 Haze 14 1015 58 5000 2.66 18 22:18 30.03.2020
5774 Haze 15 1015 54 5000 2.66 18 21:55 30.03.2020
5775 Haze 15 1015 54 5000 2.66 18 21:36 30.03.2020
5776 Haze 15 1015 54 5000 2.69 342 21:18 30.03.2020
5777 Haze 15 1015 51 5000 2.69 342 20:42 30.03.2020
5778 Haze 15 1015 51 5000 2.69 342 20:24 30.03.2020
5779 Haze 15 1015 51 5000 2.69 342 20:24 30.03.2020
5780 Haze 15 1015 51 5000 2.69 342 20:24 30.03.2020
5781 Haze 16 1014 51 5000 2.69 342 19:59 30.03.2020
5782 Haze 16 1014 51 5000 2.69 342 19:40 30.03.2020
5783 Haze 16 1014 51 5000 2.69 342 19:21 30.03.2020
5784 Haze 18 1014 42 5000 2.69 342 18:57 30.03.2020
5785 Haze 18 1014 42 5000 2.69 342 18:38 30.03.2020
5786 Haze 18 1014 42 5000 5.68 282 18:20 30.03.2020
5787 Haze 20 1013 39 5000 5.1 260 17:57 30.03.2020
5788 Haze 20 1013 39 5000 5.1 260 17:38 30.03.2020
5789 Haze 20 1013 39 5000 5.1 260 17:18 30.03.2020
5790 Clouds 20 1014 29 6000 5.1 260 16:55 30.03.2020
5791 Clouds 20 1014 29 6000 5.1 260 16:36 30.03.2020
5792 Clouds 20 1014 29 6000 5.1 260 16:18 30.03.2020
5793 Clouds 20 1014 28 6000 6.2 260 15:54 30.03.2020
5794 Clouds 20 1014 28 6000 6.2 260 15:36 30.03.2020
5795 Clear 20 1014 28 6000 6.2 260 15:18 30.03.2020
5796 Clear 20 1014 32 8000 6.2 240 14:39 30.03.2020
5797 Clear 20 1014 32 8000 6.2 240 14:19 30.03.2020
5798 Clear 19 1015 31 10000 5.1 270 13:59 30.03.2020
5799 Clear 19 1015 31 10000 5.1 270 13:40 30.03.2020
5800 Clear 19 1015 31 10000 5.1 270 13:21 30.03.2020
5801 Clear 19 1015 36 10000 5.1 270 12:57 30.03.2020
5802 Clear 19 1015 36 10000 5.1 270 12:38 30.03.2020
5803 Clear 19 1015 36 10000 5.1 270 12:38 30.03.2020
5804 Clear 19 1015 36 10000 5.1 270 12:19 30.03.2020
5805 Clear 18 1016 36 10000 2.6 230 11:56 30.03.2020
5806 Clear 18 1016 36 10000 2.6 230 11:38 30.03.2020
5807 Clear 18 1016 36 10000 2.6 230 11:20 30.03.2020
5808 Clear 16 1016 41 0 8.2 260 10:39 30.03.2020
5809 Clear 16 1016 41 0 8.2 260 10:21 30.03.2020
5810 Clear 15 1016 41 10000 5.1 240 09:56 30.03.2020
5811 Clear 15 1016 41 10000 5.1 240 09:37 30.03.2020
5812 Clear 15 1016 41 10000 5.1 240 09:18 30.03.2020
5813 Clear 13 1015 47 10000 5.1 240 08:41 30.03.2020
5814 Clear 13 1015 47 10000 5.1 240 08:22 30.03.2020
5815 Clear 10 1014 46 10000 2.6 240 07:49 30.03.2020
5816 Clear 10 1014 46 10000 2.6 240 07:27 30.03.2020
5817 Clear 9 1014 50 10000 2.6 240 06:54 30.03.2020
5818 Clear 9 1014 50 10000 2.6 240 06:31 30.03.2020
5819 Clear 9 1014 50 10000 2.6 240 06:31 30.03.2020
5820 Clear 9 1014 50 10000 2.6 250 05:52 30.03.2020
5821 Clear 9 1014 50 10000 2.6 250 05:18 30.03.2020
5822 Clear 7 1014 70 6000 3.1 270 04:22 30.03.2020
5823 Clear 8 1014 61 6000 3.1 270 03:38 30.03.2020
5824 Clear 8 1015 61 6000 3.1 270 02:37 30.03.2020
5825 Clear 13 1014 43 10000 9.3 270 01:35 30.03.2020
5826 Clear 13 1014 43 10000 9.3 270 00:49 30.03.2020
5827 Clear 12 1014 43 10000 9.3 270 00:22 30.03.2020
5828 Clear 12 1014 43 10000 9.3 270 23:42 29.03.2020
5829 Clear 12 1014 43 10000 9.3 270 23:23 29.03.2020
5830 Clear 13 1014 33 10000 9.8 270 22:57 29.03.2020
5831 Clear 13 1014 33 10000 9.8 270 22:38 29.03.2020
5832 Clear 13 1014 33 10000 9.8 270 22:19 29.03.2020
5833 Squall 14 1014 33 10000 12.9 270 21:56 29.03.2020
5834 Squall 14 1014 33 10000 12.9 270 21:36 29.03.2020
5835 Squall 14 1014 33 10000 12.9 270 21:18 29.03.2020
5836 Clear 14 1014 33 0 12.9 270 20:55 29.03.2020
5837 Clear 14 1014 33 0 12.9 270 20:36 29.03.2020
5838 Clear 14 1014 33 0 12.9 270 20:18 29.03.2020
5839 Clear 14 1013 33 0 12.9 270 19:42 29.03.2020
5840 Clear 14 1013 33 0 12.9 270 19:42 29.03.2020
5841 Clear 14 1013 33 0 12.9 270 19:24 29.03.2020
5842 Clear 14 1013 33 0 12.9 270 18:58 29.03.2020
5843 Clear 14 1014 35 7000 10.3 250 18:40 29.03.2020
5844 Clear 14 1014 35 7000 10.3 250 18:20 29.03.2020
5845 Dust 16 1014 29 5000 10.3 260 17:59 29.03.2020
5846 Dust 16 1014 29 5000 10.3 260 17:41 29.03.2020
5847 Dust 16 1014 29 5000 10.3 260 17:22 29.03.2020
5848 Dust 16 1014 29 5000 10.3 260 17:22 29.03.2020
5849 Haze 16 1014 31 5000 7.2 250 16:58 29.03.2020
5850 Haze 16 1014 31 5000 7.2 250 16:39 29.03.2020
5851 Haze 16 1014 31 5000 7.2 250 16:21 29.03.2020
5852 Clouds 16 1014 44 7000 8.2 260 15:58 29.03.2020
5853 Clouds 16 1014 44 7000 8.2 260 15:39 29.03.2020
5854 Clouds 16 1014 44 7000 8.2 260 15:19 29.03.2020
5855 Clouds 16 1014 48 8000 8.7 270 14:56 29.03.2020
5856 Clouds 16 1014 48 8000 8.7 270 14:37 29.03.2020
5857 Clouds 16 1014 48 8000 8.7 270 14:18 29.03.2020
5858 Clouds 16 1015 54 8000 8.2 250 13:55 29.03.2020
5859 Clouds 16 1015 54 8000 8.2 250 13:36 29.03.2020
5860 Clouds 16 1015 54 8000 8.2 250 13:18 29.03.2020
5861 Clouds 15 1015 54 7000 5.7 250 12:54 29.03.2020
5862 Clouds 15 1015 54 7000 5.7 250 12:36 29.03.2020
5863 Clouds 15 1015 54 7000 5.7 250 12:18 29.03.2020
5864 Clouds 15 1015 54 7000 5.7 250 12:18 29.03.2020
5865 Clouds 14 1015 66 7000 6.2 260 11:38 29.03.2020
5866 Clouds 14 1015 66 7000 6.2 260 11:20 29.03.2020
5867 Clouds 13 1015 71 7000 5.1 250 10:40 29.03.2020
5868 Clouds 13 1015 71 7000 5.1 250 10:21 29.03.2020
5869 Clouds 12 1016 66 8000 4.1 250 09:59 29.03.2020
5870 Clouds 12 1016 66 8000 4.1 250 09:38 29.03.2020
5871 Clouds 12 1016 66 8000 4.1 250 09:19 29.03.2020
5872 Clouds 10 1016 81 8000 5.1 250 08:48 29.03.2020
5873 Clouds 10 1016 81 8000 5.1 250 08:27 29.03.2020
5874 Clouds 9 1015 87 8000 4.1 250 07:56 29.03.2020
5875 Clouds 9 1015 87 8000 4.1 250 07:38 29.03.2020
5876 Clouds 9 1015 87 8000 4.1 250 07:19 29.03.2020
5877 Clouds 8 1015 75 8000 4.1 250 04:59 29.03.2020
5878 Clouds 8 1015 75 8000 4.1 250 03:42 29.03.2020
5879 Clouds 8 1015 75 8000 4.1 250 03:24 29.03.2020
5880 Clouds 8 1015 70 8000 2.6 230 01:50 29.03.2020
5881 Clouds 9 1015 70 8000 2.6 230 01:23 29.03.2020
5882 Clouds 9 1016 76 8000 4.1 280 00:53 29.03.2020
5883 Clouds 9 1016 76 8000 4.1 280 00:30 29.03.2020
5884 Clouds 9 1016 76 8000 4.1 290 23:42 28.03.2020
5885 Clouds 9 1016 76 8000 4.1 290 23:23 28.03.2020
5886 Clouds 10 1016 71 8000 5.1 300 22:57 28.03.2020
5887 Clouds 10 1016 71 8000 5.1 300 22:37 28.03.2020
5888 Clouds 10 1016 71 8000 5.1 300 22:19 28.03.2020
5889 Clouds 10 1016 76 8000 5.1 300 21:43 28.03.2020
5890 Clouds 10 1016 76 8000 5.1 300 21:24 28.03.2020
5891 Clouds 11 1016 71 8000 4.1 290 20:59 28.03.2020
5892 Clouds 11 1016 71 8000 4.1 290 20:41 28.03.2020
5893 Clouds 11 1016 71 8000 4.1 290 20:23 28.03.2020
5894 Clouds 11 1015 71 8000 5.1 280 19:57 28.03.2020
5895 Clouds 11 1015 71 8000 5.1 280 19:39 28.03.2020
5896 Clouds 11 1015 71 8000 5.1 280 19:20 28.03.2020
5897 Clouds 12 1015 71 6000 5.1 280 18:58 28.03.2020
5898 Clouds 12 1015 71 6000 5.1 280 18:38 28.03.2020
5899 Clouds 12 1015 71 6000 5.1 280 18:19 28.03.2020
5900 Haze 13 1014 66 5000 4.1 300 17:39 28.03.2020
5901 Haze 13 1014 66 5000 4.1 300 17:20 28.03.2020
5902 Dust 15 1014 58 4000 5.7 290 16:43 28.03.2020
5903 Dust 15 1014 58 4000 5.7 290 16:20 28.03.2020
5904 Dust 16 1015 55 4000 7.2 280 15:59 28.03.2020
5905 Dust 16 1015 55 4000 7.2 280 15:39 28.03.2020
5906 Dust 16 1015 55 4000 7.2 280 15:19 28.03.2020
5907 Haze 16 1014 58 4000 8.7 270 14:55 28.03.2020
5908 Haze 16 1014 58 4000 8.7 270 14:37 28.03.2020
5909 Haze 16 1014 58 4000 8.7 270 14:18 28.03.2020
5910 Rain 16 1014 67 4000 7.7 260 13:39 28.03.2020
5911 Haze 16 1014 67 4000 7.7 260 13:21 28.03.2020
5912 Haze 16 1014 55 4000 6.7 280 12:40 28.03.2020
5913 Haze 16 1014 55 4000 6.7 280 12:22 28.03.2020
5914 Haze 15 1014 58 4000 4.1 260 11:43 28.03.2020
5915 Haze 15 1014 58 4000 4.1 260 11:23 28.03.2020
5916 Haze 18 1015 29 4000 4.6 250 10:58 28.03.2020
5917 Haze 18 1015 29 4000 4.6 250 10:38 28.03.2020
5918 Haze 18 1015 29 4000 4.6 250 10:18 28.03.2020
5919 Haze 15 1015 62 4000 6.7 280 09:42 28.03.2020
5920 Haze 15 1015 62 4000 6.7 280 09:23 28.03.2020
5921 Haze 14 1015 67 4000 6.2 300 08:55 28.03.2020
5922 Haze 14 1015 67 4000 6.2 300 08:37 28.03.2020
5923 Haze 14 1015 67 4000 6.2 300 08:18 28.03.2020
5924 Dust 13 1014 76 3500 5.1 290 07:41 28.03.2020
5925 Dust 13 1014 76 4000 6.2 280 06:58 28.03.2020
5926 Dust 13 1014 76 4000 6.2 280 06:34 28.03.2020
5927 Dust 12 1013 81 3500 3.6 270 05:41 28.03.2020
5928 Dust 12 1013 81 3500 3.6 270 05:21 28.03.2020
5929 Dust 12 1012 76 4000 3.6 270 04:40 28.03.2020
5930 Dust 12 1012 76 4000 3.1 280 03:21 28.03.2020
5931 Dust 14 1011 47 3000 3.6 250 01:53 28.03.2020
5932 Dust 14 1011 47 3000 3.6 250 01:25 28.03.2020
5933 Dust 14 1011 55 3000 2.6 250 00:56 28.03.2020
5934 Dust 14 1011 55 3000 2.6 250 00:35 28.03.2020
5935 Dust 16 1011 55 3000 1 320 23:55 27.03.2020
5936 Dust 16 1011 55 3000 1 320 23:37 27.03.2020
5937 Dust 15 1011 55 3000 1 320 23:18 27.03.2020
5938 Dust 15 1011 55 3000 1 320 22:55 27.03.2020
5939 Dust 15 1011 55 3000 1.5 320 22:37 27.03.2020
5940 Dust 15 1011 55 3000 1.5 320 22:18 27.03.2020
5941 Dust 16 1011 55 3000 1.5 320 21:42 27.03.2020
5942 Dust 16 1011 55 3000 1.5 320 21:24 27.03.2020
5943 Dust 16 1010 59 3000 1.5 340 20:58 27.03.2020
5944 Dust 16 1010 59 3000 1.5 340 20:58 27.03.2020
5945 Dust 16 1010 59 3000 1.5 340 20:39 27.03.2020
5946 Dust 17 1010 59 3000 1.5 340 20:20 27.03.2020
5947 Dust 17 1010 59 3000 1.5 340 19:57 27.03.2020
5948 Dust 17 1010 59 3000 1.5 340 19:38 27.03.2020
5949 Dust 17 1010 59 3000 1.5 340 19:20 27.03.2020
5950 Dust 17 1009 52 2500 1.5 320 18:44 27.03.2020
5951 Dust 17 1009 52 2500 1.5 320 18:24 27.03.2020
5952 Dust 19 1009 45 2500 2.1 320 17:58 27.03.2020
5953 Dust 19 1009 45 2500 2.1 320 17:39 27.03.2020
5954 Dust 19 1009 45 2500 2.1 320 17:19 27.03.2020
5955 Clear 23 1009 38 6000 3.89 327 16:44 27.03.2020
5956 Clear 23 1009 38 6000 3.89 327 16:25 27.03.2020
5957 Clouds 23 1009 38 6000 3.89 327 15:56 27.03.2020
5958 Clouds 23 1009 38 6000 3.89 327 15:38 27.03.2020
5959 Clear 24 1006 24 0 3.89 327 15:19 27.03.2020
5960 Clear 24 1006 24 0 3.89 327 14:43 27.03.2020
5961 Clear 24 1006 24 0 3.89 327 14:24 27.03.2020
5962 Clouds 24 1005 22 0 1.45 206 13:55 27.03.2020
5963 Clouds 24 1005 22 0 1.45 206 13:37 27.03.2020
5964 Clouds 24 1006 21 0 0.43 249 13:18 27.03.2020
5965 Clouds 24 1006 21 0 0.43 249 12:43 27.03.2020
5966 Clouds 24 1006 21 0 0.43 249 12:19 27.03.2020
5967 Clouds 24 1006 21 0 0.43 249 11:57 27.03.2020
5968 Clouds 24 1006 21 0 0.43 249 11:39 27.03.2020
5969 Clouds 24 1006 21 0 0.43 249 11:21 27.03.2020
5970 Clear 22 1008 26 0 4.6 106 10:54 27.03.2020
5971 Clear 22 1008 26 0 4.6 106 10:36 27.03.2020
5972 Clear 22 1008 26 0 4.6 106 10:18 27.03.2020
5973 Clear 22 1008 26 0 4.6 106 09:54 27.03.2020
5974 Clear 22 1008 26 0 4.6 106 09:36 27.03.2020
5975 Clear 22 1008 26 0 4.6 106 09:18 27.03.2020
5976 Clear 22 1008 26 0 4.6 106 08:54 27.03.2020
5977 Clear 22 1008 26 0 4.6 106 08:36 27.03.2020
5978 Clouds 18 1008 36 0 5.38 73 08:18 27.03.2020
5979 Clouds 18 1009 35 0 6.63 46 07:41 27.03.2020
5980 Clouds 18 1009 35 0 6.63 46 07:21 27.03.2020
5981 Clouds 18 1009 35 0 6.63 46 06:41 27.03.2020
5982 Clouds 18 1009 35 0 6.63 46 05:57 27.03.2020
5983 Rain 15 1008 46 0 9.16 1 03:42 27.03.2020
5984 Clouds 17 1007 30 0 2.18 8 02:19 27.03.2020
5985 Clouds 17 1007 30 0 2.18 8 01:19 27.03.2020
5986 Clouds 17 1007 29 0 1.54 290 00:43 27.03.2020
5987 Clouds 17 1007 29 0 1.54 290 00:20 27.03.2020
5988 Clouds 17 1007 29 0 1.54 290 23:42 26.03.2020
5989 Clouds 17 1009 28 0 1.73 94 23:19 26.03.2020
5990 Clouds 17 1009 28 0 1.73 94 22:57 26.03.2020
5991 Clouds 17 1009 28 0 1.73 94 22:36 26.03.2020
5992 Clouds 17 1009 28 0 1.73 94 22:18 26.03.2020
5993 Clouds 17 1009 28 0 1.73 94 21:40 26.03.2020
5994 Clouds 17 1009 28 0 1.73 94 21:22 26.03.2020
5995 Clouds 17 1009 28 0 1.73 94 20:59 26.03.2020
5996 Clouds 17 1009 28 0 1.73 94 20:40 26.03.2020
5997 Clouds 17 1009 28 0 1.73 94 20:22 26.03.2020
5998 Clouds 19 1008 24 0 3.78 74 19:58 26.03.2020
5999 Clouds 19 1008 24 0 3.78 74 19:40 26.03.2020
6000 Clouds 19 1008 24 0 3.78 74 19:22 26.03.2020
6001 Clouds 19 1008 24 0 3.78 74 18:59 26.03.2020
6002 Clouds 19 1008 24 0 3.78 74 18:41 26.03.2020
6003 Clouds 19 1008 24 0 3.78 74 18:23 26.03.2020
6004 Clouds 19 1008 24 0 3.78 74 17:45 26.03.2020
6005 Clouds 22 1007 20 0 6.34 102 17:20 26.03.2020
6006 Clouds 22 1007 20 0 6.34 102 17:20 26.03.2020
6007 Clouds 22 1007 20 0 6.34 102 16:59 26.03.2020
6008 Clouds 22 1007 20 0 6.34 102 16:39 26.03.2020
6009 Clouds 22 1007 20 0 6.34 102 16:21 26.03.2020
6010 Clouds 22 1007 20 0 6.34 102 15:56 26.03.2020
6011 Clouds 22 1007 20 0 6.34 102 15:38 26.03.2020
6012 Clouds 22 1007 20 0 6.34 102 15:20 26.03.2020
6013 Clouds 22 1007 20 0 6.34 102 14:43 26.03.2020
6014 Clouds 22 1007 20 0 6.34 102 14:25 26.03.2020
6015 Clouds 22 1008 21 0 5.46 134 13:59 26.03.2020
6016 Clouds 22 1008 21 0 5.46 134 13:40 26.03.2020
6017 Clouds 22 1008 21 0 5.46 134 13:21 26.03.2020
6018 Clouds 22 1008 21 0 5.46 134 13:21 26.03.2020
6019 Clouds 22 1008 22 0 5.61 135 12:54 26.03.2020
6020 Clouds 22 1008 22 0 5.61 135 12:36 26.03.2020
6021 Clouds 22 1008 22 0 5.61 135 12:18 26.03.2020
6022 Clouds 22 1008 22 0 5.61 135 11:43 26.03.2020
6023 Clouds 19 1011 34 0 5.9 129 11:19 26.03.2020
6024 Clouds 19 1011 34 0 5.9 129 10:42 26.03.2020
6025 Clouds 19 1011 34 0 5.9 129 10:42 26.03.2020
6026 Clouds 19 1011 34 0 5.9 129 10:20 26.03.2020
6027 Clouds 19 1011 34 0 5.9 129 09:59 26.03.2020
6028 Clouds 19 1011 34 0 5.9 129 09:41 26.03.2020
6029 Clouds 19 1011 34 0 5.9 129 09:19 26.03.2020
6030 Clouds 19 1011 34 0 5.9 129 08:44 26.03.2020
6031 Clouds 19 1011 34 0 5.9 129 08:26 26.03.2020
6032 Clouds 15 1012 48 0 5.14 109 07:57 26.03.2020
6033 Clouds 15 1012 48 0 5.14 109 07:57 26.03.2020
6034 Clouds 15 1012 48 0 5.14 109 07:38 26.03.2020
6035 Clouds 15 1012 48 0 5.14 109 07:19 26.03.2020
6036 Clouds 15 1012 48 0 5.14 109 06:38 26.03.2020
6037 Clouds 15 1012 48 0 5.14 109 05:51 26.03.2020
6038 Clear 11 1012 57 0 0.74 140 03:52 26.03.2020
6039 Clear 11 1012 57 0 0.74 140 03:33 26.03.2020
6040 Clear 11 1012 57 0 0.74 140 02:53 26.03.2020
6041 Clouds 12 1012 50 0 2.52 332 01:20 26.03.2020
6042 Clouds 12 1012 50 0 2.52 332 00:33 26.03.2020
6043 Clouds 12 1012 50 0 2.52 332 23:44 25.03.2020
6044 Clouds 12 1012 50 0 2.52 332 23:26 25.03.2020
6045 Clear 13 1013 53 0 3.56 331 22:57 25.03.2020
6046 Clear 13 1013 53 0 3.56 331 22:38 25.03.2020
6047 Clear 13 1013 53 0 3.56 331 22:19 25.03.2020
6048 Clear 13 1013 53 0 3.56 331 21:55 25.03.2020
6049 Clear 13 1013 53 0 3.56 331 21:37 25.03.2020
6050 Clear 13 1013 53 0 3.56 331 21:18 25.03.2020
6051 Clear 13 1013 53 0 3.56 331 20:40 25.03.2020
6052 Clear 14 1012 54 0 5.11 324 20:20 25.03.2020
6053 Clear 14 1012 54 0 5.11 324 19:58 25.03.2020
6054 Clear 14 1012 54 0 5.11 324 19:40 25.03.2020
6055 Clear 14 1012 55 0 5.37 324 19:21 25.03.2020
6056 Clear 14 1012 54 0 5.11 324 18:56 25.03.2020
6057 Clear 14 1012 54 0 5.11 324 18:37 25.03.2020
6058 Clear 14 1012 54 0 5.11 324 18:19 25.03.2020
6059 Clear 14 1012 55 0 5.37 324 17:42 25.03.2020
6060 Clear 14 1012 54 0 5.11 324 17:23 25.03.2020
6061 Clear 17 1011 37 0 7.18 315 16:59 25.03.2020
6062 Clear 17 1011 37 0 7.18 315 16:41 25.03.2020
6063 Clear 17 1011 37 0 7.18 315 16:21 25.03.2020
6064 Clear 17 1011 37 0 7.18 315 15:57 25.03.2020
6065 Clear 17 1011 37 0 7.18 315 15:37 25.03.2020
6066 Clear 17 1011 37 0 7.18 315 15:19 25.03.2020
6067 Clear 17 1011 37 0 7.18 315 15:19 25.03.2020
6068 Clear 18 1011 36 0 6.73 321 14:41 25.03.2020
6069 Clear 17 1011 37 0 7.18 315 14:21 25.03.2020
6070 Clear 20 1011 24 0 6.38 297 13:46 25.03.2020
6071 Clear 20 1011 24 0 6.38 297 13:26 25.03.2020
6072 Clear 20 1010 24 0 6.22 295 12:57 25.03.2020
6073 Clear 20 1010 24 0 6.22 295 12:37 25.03.2020
6074 Clear 20 1010 24 0 6.22 295 12:19 25.03.2020
6075 Clear 20 1010 24 0 6.22 295 11:43 25.03.2020
6076 Clear 20 1010 24 0 6.22 295 11:22 25.03.2020
6077 Clear 17 1012 31 0 5.11 298 10:59 25.03.2020
6078 Clear 17 1012 31 0 5.11 298 10:40 25.03.2020
6079 Clear 17 1012 31 0 5.11 298 10:19 25.03.2020
6080 Clear 17 1012 31 0 5.11 298 09:59 25.03.2020
6081 Clear 17 1012 31 0 5.11 298 09:41 25.03.2020
6082 Clear 17 1012 31 0 5.11 298 09:22 25.03.2020
6083 Clear 17 1012 31 0 5.11 298 08:55 25.03.2020
6084 Clear 17 1012 31 0 5.11 298 08:37 25.03.2020
6085 Clear 13 1012 51 0 3.34 315 08:18 25.03.2020
6086 Clear 13 1012 50 0 3.18 308 07:39 25.03.2020
6087 Clear 13 1012 50 0 3.18 308 07:20 25.03.2020
6088 Clear 13 1012 50 0 3.18 308 06:47 25.03.2020
6089 Clear 13 1012 50 0 3.18 308 06:26 25.03.2020
6090 Clear 13 1012 50 0 3.18 308 05:53 25.03.2020
6091 Clear 11 1011 66 0 2.48 305 04:59 25.03.2020
6092 Clear 11 1011 66 0 2.48 305 04:39 25.03.2020
6093 Clear 11 1011 66 0 2.48 305 03:36 25.03.2020
6094 Clear 11 1011 66 0 2.48 305 02:31 25.03.2020
6095 Clouds 12 1011 62 0 2.8 288 01:21 25.03.2020
6096 Clouds 12 1011 62 0 2.8 288 00:48 25.03.2020
6097 Clouds 12 1011 62 0 2.8 288 00:19 25.03.2020
6098 Clouds 12 1011 62 0 2.8 288 23:45 24.03.2020
6099 Clouds 12 1011 62 0 2.8 288 23:26 24.03.2020
6100 Clouds 13 1011 57 0 2.54 286 22:56 24.03.2020
6101 Clouds 13 1011 57 0 2.54 286 22:37 24.03.2020
6102 Clouds 13 1011 57 0 2.54 286 22:19 24.03.2020
6103 Clouds 13 1011 57 0 2.54 286 22:19 24.03.2020
6104 Clouds 13 1011 57 0 2.54 286 21:56 24.03.2020
6105 Clouds 13 1011 57 0 2.54 286 21:37 24.03.2020
6106 Clouds 13 1011 57 0 2.54 286 21:18 24.03.2020
6107 Clouds 13 1011 57 0 2.54 286 20:56 24.03.2020
6108 Clouds 13 1011 57 0 2.54 286 20:38 24.03.2020
6109 Clouds 15 1010 44 0 3.62 286 20:19 24.03.2020
6110 Clouds 15 1010 44 0 3.62 286 19:41 24.03.2020
6111 Clouds 15 1010 44 0 3.62 286 19:19 24.03.2020
6112 Clouds 15 1010 44 0 3.62 286 18:55 24.03.2020
6113 Clouds 15 1010 44 0 3.62 286 18:37 24.03.2020
6114 Clouds 15 1010 44 0 3.62 286 18:18 24.03.2020
6115 Clouds 15 1010 44 0 3.62 286 18:18 24.03.2020
6116 Clouds 15 1010 44 0 3.62 286 17:42 24.03.2020
6117 Clouds 15 1010 44 0 3.62 286 17:23 24.03.2020
6118 Dust 17 1011 45 3000 6.2 280 16:58 24.03.2020
6119 Dust 17 1011 45 3000 6.2 280 16:40 24.03.2020
6120 Dust 17 1011 45 3000 6.2 280 16:22 24.03.2020
6121 Dust 18 1011 45 3000 8.2 260 15:59 24.03.2020
6122 Dust 18 1011 45 3000 8.2 260 15:39 24.03.2020
6123 Dust 18 1011 45 3000 8.2 260 15:21 24.03.2020
6124 Dust 18 1011 45 3000 8.2 260 15:21 24.03.2020
6125 Dust 19 1011 37 4000 8.7 250 14:43 24.03.2020
6126 Clouds 19 1009 29 0 7.01 269 14:21 24.03.2020
6127 Clear 21 1008 23 0 7.78 260 13:55 24.03.2020
6128 Clear 21 1008 23 0 7.78 260 13:36 24.03.2020
6129 Clear 21 1008 23 0 7.78 260 13:18 24.03.2020
6130 Clear 22 1008 23 0 7.82 257 12:41 24.03.2020
6131 Clear 22 1008 23 0 7.82 257 12:23 24.03.2020
6132 Clear 22 1008 23 0 7.82 257 11:41 24.03.2020
6133 Haze 16 1011 34 4000 7.2 250 11:20 24.03.2020
6134 Haze 18 1011 34 4000 5.1 250 10:57 24.03.2020
6135 Haze 18 1011 34 4000 5.1 250 10:38 24.03.2020
6136 Haze 18 1011 34 4000 5.1 250 10:18 24.03.2020
6137 Haze 18 1011 36 4000 5.7 250 09:43 24.03.2020
6138 Haze 18 1011 36 4000 5.7 250 09:25 24.03.2020
6139 Haze 17 1011 36 4000 2.6 230 08:57 24.03.2020
6140 Haze 17 1011 36 4000 2.6 230 08:37 24.03.2020
6141 Haze 17 1011 36 4000 2.6 230 08:18 24.03.2020
6142 Haze 13 1011 58 5000 2.91 232 07:44 24.03.2020
6143 Haze 13 1011 58 5000 2.91 232 07:22 24.03.2020
6144 Haze 11 1011 54 4000 1.5 270 06:38 24.03.2020
6145 Haze 9 1011 53 4000 2.1 270 05:42 24.03.2020
6146 Clouds 10 1011 57 6000 2.1 270 04:51 24.03.2020
6147 Clouds 10 1011 62 6000 2.6 270 03:22 24.03.2020
6148 Clouds 12 1011 47 6000 3.1 250 02:41 24.03.2020
6149 Clouds 10 1012 71 6000 1.5 230 00:54 24.03.2020
6150 Clouds 10 1012 71 6000 1.5 230 00:27 24.03.2020
6151 Clouds 12 1012 66 6000 1.5 230 23:58 23.03.2020
6152 Clouds 12 1012 66 6000 1.5 230 23:38 23.03.2020
6153 Clouds 12 1012 66 6000 1.5 230 23:19 23.03.2020
6154 Clouds 12 1012 62 6000 1.5 230 22:44 23.03.2020
6155 Clouds 12 1012 62 6000 1.5 230 22:23 23.03.2020
6156 Clouds 13 1012 58 6000 3.69 117 21:55 23.03.2020
6157 Clouds 13 1012 58 6000 3.69 117 21:37 23.03.2020
6158 Clouds 13 1012 58 6000 3.69 117 21:37 23.03.2020
6159 Clouds 13 1012 58 6000 3.69 117 21:37 23.03.2020
6160 Clouds 13 1012 58 6000 3.69 117 21:19 23.03.2020
6161 Clouds 14 1013 58 6000 1.5 220 20:56 23.03.2020
6162 Clouds 14 1013 58 6000 1.5 220 20:38 23.03.2020
6163 Clouds 14 1013 58 6000 1.5 220 20:19 23.03.2020
6164 Clouds 15 1013 58 7000 3.24 118 19:42 23.03.2020
6165 Clouds 15 1013 58 7000 3.24 118 19:23 23.03.2020
6166 Clouds 15 1013 58 7000 3.24 118 18:56 23.03.2020
6167 Clouds 17 1013 45 7000 1.5 180 18:38 23.03.2020
6168 Clouds 17 1013 45 7000 1.5 180 18:19 23.03.2020
6169 Clouds 18 1012 42 7000 3.24 118 17:42 23.03.2020
6170 Clouds 18 1012 42 7000 3.24 118 17:21 23.03.2020
6171 Clouds 20 1012 30 7000 1.5 150 16:56 23.03.2020
6172 Clouds 20 1012 30 7000 1.5 150 16:38 23.03.2020
6173 Clouds 20 1012 30 7000 1.5 150 16:19 23.03.2020
6174 Clouds 21 1013 30 7000 2.6 150 15:41 23.03.2020
6175 Clouds 21 1013 30 7000 2.6 150 15:19 23.03.2020
6176 Clouds 20 1013 28 8000 3.1 200 14:38 23.03.2020
6177 Clouds 20 1013 28 8000 3.1 200 14:20 23.03.2020
6178 Clouds 20 1014 34 8000 1.5 160 13:58 23.03.2020
6179 Clouds 20 1014 34 8000 1.5 160 13:40 23.03.2020
6180 Clouds 20 1014 34 8000 1.5 160 13:40 23.03.2020
6181 Clouds 20 1014 34 8000 1.5 160 13:20 23.03.2020
6182 Clouds 19 1014 32 8000 2.6 120 12:44 23.03.2020
6183 Clouds 19 1014 32 8000 2.6 120 12:25 23.03.2020
6184 Clouds 18 1015 31 8000 2.6 240 11:59 23.03.2020
6185 Clouds 18 1015 31 8000 2.6 240 11:40 23.03.2020
6186 Clouds 18 1015 31 8000 2.6 240 11:20 23.03.2020
6187 Clouds 18 1015 31 8000 2.6 240 11:20 23.03.2020
6188 Clouds 15 1016 62 6000 1.5 70 10:58 23.03.2020
6189 Clouds 15 1016 62 6000 1.5 70 10:38 23.03.2020
6190 Clouds 15 1016 62 6000 1.5 70 10:38 23.03.2020
6191 Clouds 15 1016 62 6000 1.5 70 10:20 23.03.2020
6192 Clouds 12 1017 66 6000 1.5 70 09:44 23.03.2020
6193 Clouds 12 1017 66 6000 1.5 70 09:21 23.03.2020
6194 Haze 10 1017 76 5000 2.6 20 08:57 23.03.2020
6195 Haze 10 1017 76 5000 2.6 20 08:36 23.03.2020
6196 Haze 10 1017 76 5000 2.6 20 08:18 23.03.2020
6197 Clouds 9 1017 70 6000 2.1 240 07:47 23.03.2020
6198 Clouds 9 1017 70 6000 2.1 240 07:29 23.03.2020
6199 Mist 6 1017 87 3000 3.21 140 06:52 23.03.2020
6200 Mist 5 1018 93 3000 3.21 140 05:55 23.03.2020
6201 Mist 5 1017 93 3000 3.21 140 05:29 23.03.2020
6202 Mist 4 1017 93 4000 1.13 143 03:41 23.03.2020
6203 Mist 4 1017 100 4000 1.13 143 02:37 23.03.2020
6204 Mist 5 1017 93 4000 0.9 306 01:34 23.03.2020
6205 Mist 5 1018 93 4500 0.73 290 00:40 23.03.2020
6206 Mist 6 1018 87 4500 0.73 290 23:53 22.03.2020
6207 Mist 6 1018 87 4500 0.73 290 23:27 22.03.2020
6208 Mist 6 1018 87 4500 2.47 315 22:56 22.03.2020
6209 Mist 6 1018 87 4500 1.5 140 22:36 22.03.2020
6210 Mist 6 1018 87 4500 1.5 140 22:18 22.03.2020
6211 Haze 7 1018 81 5000 1.5 150 21:39 22.03.2020
6212 Haze 7 1018 81 5000 1.5 150 21:20 22.03.2020
6213 Clouds 9 1018 76 6000 3.1 260 20:58 22.03.2020
6214 Clouds 9 1018 76 6000 3.1 260 20:39 22.03.2020
6215 Clouds 9 1018 76 6000 3.1 260 20:21 22.03.2020
6216 Haze 10 1018 71 5000 4.6 270 19:55 22.03.2020
6217 Haze 10 1018 71 5000 4.6 270 19:37 22.03.2020
6218 Haze 10 1018 71 5000 4.6 270 19:19 22.03.2020
6219 Haze 10 1018 71 5000 4.6 270 18:56 22.03.2020
6220 Haze 10 1018 71 5000 4.6 270 18:38 22.03.2020
6221 Haze 10 1018 71 5000 4.6 270 18:18 22.03.2020
6222 Haze 11 1018 66 5000 4.6 310 17:56 22.03.2020
6223 Haze 11 1018 66 5000 4.6 310 17:37 22.03.2020
6224 Haze 11 1018 66 5000 4.6 310 17:19 22.03.2020
6225 Haze 11 1018 66 5000 4.6 310 16:55 22.03.2020
6226 Haze 11 1018 66 5000 4.6 310 16:36 22.03.2020
6227 Haze 11 1018 66 5000 4.6 310 16:18 22.03.2020
6228 Haze 12 1018 62 5000 5.1 320 15:39 22.03.2020
6229 Haze 12 1018 62 5000 5.1 320 15:19 22.03.2020
6230 Haze 12 1017 62 5000 5.1 290 14:46 22.03.2020
6231 Haze 12 1017 62 5000 5.1 290 14:18 22.03.2020
6232 Haze 13 1018 54 5000 7.2 290 13:41 22.03.2020
6233 Haze 13 1018 54 5000 7.2 290 13:20 22.03.2020
6234 Haze 13 1018 58 5000 6.2 320 12:47 22.03.2020
6235 Haze 13 1018 58 5000 6.2 320 12:23 22.03.2020
6236 Haze 13 1018 58 5000 6.2 320 12:23 22.03.2020
6237 Haze 12 1018 54 5000 6.2 320 11:59 22.03.2020
6238 Haze 12 1018 54 5000 6.2 320 11:41 22.03.2020
6239 Haze 12 1018 54 5000 6.2 320 11:23 22.03.2020
6240 Clouds 10 1018 61 8000 4.6 300 10:58 22.03.2020
6241 Clouds 10 1018 61 8000 4.6 300 10:39 22.03.2020
6242 Clouds 10 1018 61 8000 4.6 300 10:21 22.03.2020
6243 Clouds 10 1018 66 8000 4.6 280 09:43 22.03.2020
6244 Clouds 10 1018 66 8000 4.6 280 09:24 22.03.2020
6245 Clouds 9 1018 76 8000 3.6 250 08:48 22.03.2020
6246 Clouds 9 1018 76 8000 3.6 250 08:29 22.03.2020
6247 Clouds 8 1017 87 6000 3.6 250 07:53 22.03.2020
6248 Clouds 8 1017 87 6000 3.6 250 07:32 22.03.2020
6249 Clouds 7 1017 87 6000 3.1 240 06:41 22.03.2020
6250 Clouds 6 1017 93 6000 3.6 250 05:41 22.03.2020
6251 Clouds 6 1016 93 6000 3.1 240 04:34 22.03.2020
6252 Clouds 4 1016 93 8000 3.1 240 01:45 22.03.2020
6253 Clouds 4 1015 86 8000 4.6 250 00:49 22.03.2020
6254 Clouds 4 1015 86 8000 4.6 250 00:30 22.03.2020
6255 Clear 4 1015 93 8000 2.6 230 23:45 21.03.2020
6256 Clear 4 1015 93 8000 2.6 230 23:22 21.03.2020
6257 Clouds 5 1015 93 8000 3.6 250 22:58 21.03.2020
6258 Clouds 5 1015 93 8000 3.6 250 22:38 21.03.2020
6259 Clouds 5 1015 93 8000 3.6 250 22:19 21.03.2020
6260 Clouds 6 1015 87 8000 3.6 240 21:57 21.03.2020
6261 Clouds 6 1015 87 8000 3.6 240 21:38 21.03.2020
6262 Clouds 6 1015 87 8000 3.6 240 21:19 21.03.2020
6263 Clouds 6 1015 93 8000 4.6 240 20:42 21.03.2020
6264 Clouds 6 1015 93 8000 4.6 240 20:22 21.03.2020
6265 Clouds 6 1015 87 8000 3.6 240 19:55 21.03.2020
6266 Clouds 6 1015 87 8000 3.6 240 19:36 21.03.2020
6267 Clouds 6 1015 87 8000 3.6 240 19:18 21.03.2020
6268 Clouds 6 1014 81 6000 2.6 220 18:41 21.03.2020
6269 Clouds 6 1014 81 6000 2.6 220 18:21 21.03.2020
6270 Mist 6 1014 87 5000 5.1 320 17:59 21.03.2020
6271 Clouds 7 1013 87 6000 3.1 240 17:41 21.03.2020
6272 Clouds 7 1013 87 6000 3.1 240 17:22 21.03.2020
6273 Clouds 8 1012 75 6000 3.1 270 16:42 21.03.2020
6274 Clouds 8 1012 75 6000 3.1 270 16:24 21.03.2020
6275 Clouds 8 1012 75 10000 5.1 260 15:59 21.03.2020
6276 Clouds 8 1012 75 10000 5.1 260 15:40 21.03.2020
6277 Clouds 8 1012 75 10000 5.1 260 15:22 21.03.2020
6278 Clouds 9 1012 76 10000 6.2 260 14:57 21.03.2020
6279 Clouds 9 1012 76 10000 6.2 260 14:38 21.03.2020
6280 Clouds 9 1012 76 10000 6.2 260 14:38 21.03.2020
6281 Clouds 9 1012 76 10000 6.2 260 14:20 21.03.2020
6282 Clouds 9 1012 76 10000 6.2 260 13:58 21.03.2020
6283 Clouds 9 1012 76 10000 6.2 260 13:39 21.03.2020
6284 Clouds 9 1012 76 10000 6.2 260 13:21 21.03.2020
6285 Clouds 8 1012 66 10000 3.1 260 12:57 21.03.2020
6286 Clouds 8 1012 66 10000 3.1 260 12:37 21.03.2020
6287 Clouds 8 1012 66 10000 3.1 260 12:19 21.03.2020
6288 Clouds 8 1012 75 10000 4.1 250 11:55 21.03.2020
6289 Clouds 8 1012 75 10000 4.1 250 11:37 21.03.2020
6290 Clouds 8 1012 75 10000 4.1 250 11:18 21.03.2020
6291 Mist 7 1012 87 5000 3.1 240 10:56 21.03.2020
6292 Mist 7 1012 87 5000 3.1 240 10:38 21.03.2020
6293 Clouds 7 1012 75 10000 4.1 250 10:19 21.03.2020
6294 Clouds 7 1012 75 10000 4.1 250 10:19 21.03.2020
6295 Drizzle 6 1012 81 6000 4.1 230 09:55 21.03.2020
6296 Drizzle 6 1012 81 6000 4.1 230 09:36 21.03.2020
6297 Drizzle 6 1012 81 6000 4.1 230 09:18 21.03.2020
6298 Drizzle 5 1012 86 3500 4.1 240 08:42 21.03.2020
6299 Drizzle 5 1012 86 3500 4.1 240 08:23 21.03.2020
6300 Drizzle 5 1011 86 6000 4.6 270 07:42 21.03.2020
6301 Drizzle 5 1011 86 6000 4.6 270 07:23 21.03.2020
6302 Drizzle 4 1011 86 6000 5.1 290 06:47 21.03.2020
6303 Drizzle 4 1011 86 6000 5.1 290 06:27 21.03.2020
6304 Drizzle 4 1011 86 3500 4.1 290 05:46 21.03.2020
6305 Clouds 4 1010 86 6000 6.7 280 04:46 21.03.2020
6306 Rain 4 1010 93 3500 5.1 270 02:51 21.03.2020
6307 Rain 4 1010 93 3500 5.1 270 02:33 21.03.2020
6308 Rain 4 1010 93 4000 3.6 230 01:32 21.03.2020
6309 Rain 5 1010 86 4000 2.6 240 00:56 21.03.2020
6310 Rain 5 1010 86 4000 2.6 240 00:37 21.03.2020
6311 Drizzle 5 1011 86 5000 2.6 240 23:53 20.03.2020
6312 Drizzle 5 1011 86 5000 2.6 240 23:28 20.03.2020
6313 Rain 5 1011 93 4000 5.1 240 22:59 20.03.2020
6314 Rain 5 1011 93 4000 5.1 240 22:41 20.03.2020
6315 Rain 5 1011 93 4000 5.1 240 22:22 20.03.2020
6316 Rain 7 1012 81 0 3.6 237 21:56 20.03.2020
6317 Rain 7 1012 81 0 3.6 237 21:38 20.03.2020
6318 Rain 6 1012 87 4000 4.1 250 21:18 20.03.2020
6319 Rain 6 1012 87 4000 4.1 250 20:57 20.03.2020
6320 Rain 6 1012 87 4000 4.1 250 20:38 20.03.2020
6321 Rain 6 1012 87 4000 4.1 250 20:18 20.03.2020
6322 Rain 6 1012 93 4000 2.1 240 19:45 20.03.2020
6323 Rain 6 1012 93 4000 2.1 240 19:19 20.03.2020
6324 Rain 6 1012 93 4000 2.1 240 19:19 20.03.2020
6325 Rain 6 1012 87 3000 2.6 240 18:56 20.03.2020
6326 Rain 6 1012 87 3000 2.6 240 18:37 20.03.2020
6327 Rain 6 1012 87 3000 2.6 240 18:19 20.03.2020
6328 Rain 6 1012 93 3000 3.6 240 17:39 20.03.2020
6329 Rain 6 1012 93 3000 3.6 240 17:21 20.03.2020
6330 Rain 7 1013 81 3000 3.1 290 16:59 20.03.2020
6331 Rain 7 1013 81 3000 3.1 290 16:41 20.03.2020
6332 Rain 7 1013 81 3000 3.1 290 16:19 20.03.2020
6333 Rain 7 1012 87 3000 2.1 260 15:43 20.03.2020
6334 Rain 7 1012 87 3000 2.1 260 15:22 20.03.2020
6335 Rain 6 1013 93 3000 4.6 260 14:57 20.03.2020
6336 Rain 6 1013 93 3000 4.6 260 14:38 20.03.2020
6337 Rain 6 1013 93 3000 4.6 260 14:19 20.03.2020
6338 Clouds 6 1013 87 3000 3.6 260 13:46 20.03.2020
6339 Rain 6 1013 87 3000 3.6 260 13:20 20.03.2020
6340 Rain 7 1013 81 4000 7.2 250 12:57 20.03.2020
6341 Rain 7 1013 81 4000 7.2 250 12:36 20.03.2020
6342 Rain 7 1013 81 4000 7.2 250 12:18 20.03.2020
6343 Rain 8 1013 75 8000 6.7 250 11:39 20.03.2020
6344 Rain 8 1013 75 8000 6.7 250 11:20 20.03.2020
6345 Clouds 8 1014 75 10000 5.1 240 10:54 20.03.2020
6346 Clouds 8 1014 75 10000 5.1 240 10:36 20.03.2020
6347 Clouds 8 1014 75 10000 5.1 240 10:18 20.03.2020
6348 Clouds 7 1014 87 10000 5.1 250 09:44 20.03.2020
6349 Clouds 7 1014 87 10000 5.1 250 09:20 20.03.2020
6350 Rain 6 1014 93 6000 5.1 250 08:43 20.03.2020
6351 Rain 6 1014 93 6000 5.1 250 08:23 20.03.2020
6352 Mist 6 1014 87 5000 4.1 260 07:57 20.03.2020
6353 Mist 6 1014 87 5000 4.1 260 07:38 20.03.2020
6354 Mist 6 1014 87 5000 4.1 260 07:19 20.03.2020
6355 Mist 5 1014 93 5000 4.1 260 06:42 20.03.2020
6356 Dust 5 1013 93 4000 7.7 240 05:57 20.03.2020
6357 Drizzle 6 1013 87 5000 5.1 260 04:36 20.03.2020
6358 Drizzle 6 1013 87 5000 4.1 260 02:50 20.03.2020
6359 Haze 6 1013 87 5000 7.2 260 01:50 20.03.2020
6360 Haze 6 1013 87 5000 7.2 260 00:38 20.03.2020
6361 Mist 6 1013 81 5000 5.1 230 23:59 19.03.2020
6362 Mist 6 1014 87 5000 5.1 260 23:40 19.03.2020
6363 Mist 6 1014 87 5000 5.1 260 23:19 19.03.2020
6364 Mist 7 1014 87 5000 4.1 260 22:40 19.03.2020
6365 Mist 7 1014 87 5000 4.1 260 22:22 19.03.2020
6366 Mist 7 1014 87 5000 4.1 260 21:58 19.03.2020
6367 Mist 7 1014 87 5000 4.1 260 21:38 19.03.2020
6368 Mist 7 1014 87 5000 4.1 260 21:19 19.03.2020
6369 Mist 7 1013 87 5000 6.2 280 20:44 19.03.2020
6370 Mist 7 1013 87 5000 6.2 280 20:25 19.03.2020
6371 Drizzle 7 1013 87 5000 5.1 270 19:59 19.03.2020
6372 Drizzle 7 1013 87 5000 5.1 270 19:39 19.03.2020
6373 Drizzle 7 1013 87 5000 5.1 270 19:21 19.03.2020
6374 Drizzle 8 1013 81 5000 6.2 270 18:58 19.03.2020
6375 Drizzle 8 1013 81 5000 6.2 270 18:40 19.03.2020
6376 Drizzle 8 1013 81 5000 6.2 270 18:22 19.03.2020
6377 Haze 8 1013 87 5000 5.1 230 17:54 19.03.2020
6378 Haze 8 1013 87 5000 5.1 230 17:36 19.03.2020
6379 Rain 8 1013 87 4500 7.2 240 17:18 19.03.2020
6380 Rain 8 1013 87 4500 7.2 240 16:41 19.03.2020
6381 Rain 8 1013 87 4500 7.2 240 16:21 19.03.2020
6382 Rain 10 1013 81 3000 8.2 240 15:43 19.03.2020
6383 Rain 10 1013 81 4000 8.7 240 15:24 19.03.2020
6384 Clouds 11 1014 57 6000 9.3 240 14:43 19.03.2020
6385 Clouds 11 1014 57 6000 9.3 240 14:23 19.03.2020
6386 Clouds 12 1013 58 6000 8.2 250 13:59 19.03.2020
6387 Clouds 12 1013 58 6000 8.2 250 13:38 19.03.2020
6388 Clouds 12 1013 58 6000 8.2 250 13:18 19.03.2020
6389 Clouds 11 1014 66 6000 8.2 250 12:42 19.03.2020
6390 Clouds 11 1014 66 6000 8.2 250 12:24 19.03.2020
6391 Clouds 11 1014 66 6000 8.2 250 11:58 19.03.2020
6392 Haze 10 1014 71 4000 7.7 240 11:40 19.03.2020
6393 Haze 10 1014 71 4000 7.7 240 11:22 19.03.2020
6394 Drizzle 10 1015 81 4000 5.1 240 10:43 19.03.2020
6395 Drizzle 10 1015 81 4000 5.1 240 10:22 19.03.2020
6396 Drizzle 9 1015 87 3500 4.6 240 09:58 19.03.2020
6397 Drizzle 9 1015 87 3500 4.6 240 09:40 19.03.2020
6398 Drizzle 9 1015 87 3500 4.6 240 09:20 19.03.2020
6399 Rain 9 1015 93 3000 5.1 240 08:46 19.03.2020
6400 Rain 9 1015 93 3000 5.1 240 08:22 19.03.2020
6401 Rain 8 1014 100 4000 5.1 230 07:48 19.03.2020
6402 Rain 8 1014 100 4000 5.1 230 07:30 19.03.2020
6403 Rain 7 1014 93 4000 7.2 250 06:51 19.03.2020
6404 Haze 8 1015 87 4000 7.7 220 05:53 19.03.2020
6405 Rain 8 1014 87 5000 7.2 240 05:23 19.03.2020
6406 Rain 8 1014 93 5000 5.7 240 04:41 19.03.2020
6407 Mist 8 1014 87 5000 7.2 240 03:39 19.03.2020
6408 Clouds 8 1014 87 6000 5.1 210 01:45 19.03.2020
6409 Clouds 8 1014 87 6000 5.1 250 00:39 19.03.2020
6410 Clouds 8 1014 87 6000 5.1 250 00:18 19.03.2020
6411 Clouds 7 1015 87 7000 5.1 250 23:41 18.03.2020
6412 Clouds 7 1015 87 7000 5.1 250 23:21 18.03.2020
6413 Clouds 7 1015 81 7000 7.2 250 22:42 18.03.2020
6414 Clouds 7 1015 81 7000 7.2 250 22:22 18.03.2020
6415 Clouds 7 1015 87 6000 7.2 250 21:55 18.03.2020
6416 Clouds 7 1015 87 6000 7.2 250 21:37 18.03.2020
6417 Clouds 7 1015 87 6000 7.2 250 21:19 18.03.2020
6418 Clouds 7 1014 93 6000 7.2 240 20:55 18.03.2020
6419 Clouds 7 1014 93 6000 7.2 240 20:37 18.03.2020
6420 Clouds 7 1014 93 6000 7.2 240 20:18 18.03.2020
6421 Clouds 7 1014 87 6000 6.2 240 19:40 18.03.2020
6422 Clouds 7 1014 87 6000 6.2 240 19:21 18.03.2020
6423 Clouds 8 1014 87 6000 5.1 240 18:56 18.03.2020
6424 -273 0 0 0 0 0 18:38 18.03.2020
6425 Clouds 8 1014 87 6000 5.1 240 18:19 18.03.2020
6426 Haze 9 1014 76 3500 8.7 260 17:54 18.03.2020
6427 Clouds 8 1013 87 6000 2.1 240 17:36 18.03.2020
6428 Clouds 8 1013 87 6000 2.1 240 17:18 18.03.2020
6429 Clouds 9 1012 87 6000 4.1 230 16:42 18.03.2020
6430 Clouds 9 1012 87 6000 4.1 230 16:20 18.03.2020
6431 Clouds 9 1012 87 6000 4.1 230 16:20 18.03.2020
6432 Clouds 9 1012 76 6000 5.1 250 15:57 18.03.2020
6433 Clouds 9 1012 76 6000 5.1 250 15:38 18.03.2020
6434 Clouds 9 1012 76 6000 5.1 250 15:19 18.03.2020
6435 Mist 7 1012 93 4000 5.1 250 14:42 18.03.2020
6436 Mist 7 1012 93 4000 5.1 250 14:21 18.03.2020
6437 Mist 7 1012 93 4000 5.1 250 14:21 18.03.2020
6438 Drizzle 7 1012 93 4000 6.7 260 13:41 18.03.2020
6439 Drizzle 7 1012 93 4000 6.7 260 13:19 18.03.2020
6440 Drizzle 7 1012 93 4000 6.7 260 12:55 18.03.2020
6441 Drizzle 7 1011 93 4000 6.2 250 12:37 18.03.2020
6442 Drizzle 7 1011 93 4000 6.2 250 12:18 18.03.2020
6443 Drizzle 9 1012 87 4000 7.7 250 11:38 18.03.2020
6444 Drizzle 9 1012 87 4000 7.7 250 11:19 18.03.2020
6445 Drizzle 8 1012 81 4000 8.2 250 10:57 18.03.2020
6446 Drizzle 8 1012 81 4000 8.2 250 10:37 18.03.2020
6447 Drizzle 8 1012 81 4000 8.2 250 10:19 18.03.2020
6448 Rain 8 1012 81 7000 7.2 250 09:42 18.03.2020
6449 Rain 8 1012 81 7000 7.2 250 09:23 18.03.2020
6450 Rain 8 1012 81 7000 7.2 250 09:23 18.03.2020
6451 Rain 7 1012 93 5000 6.2 240 08:55 18.03.2020
6452 Rain 7 1012 93 5000 6.2 240 08:37 18.03.2020
6453 Rain 7 1012 81 6000 8.7 250 08:19 18.03.2020
6454 Rain 7 1011 87 4000 8.2 260 07:43 18.03.2020
6455 Rain 7 1011 87 4000 8.2 260 07:25 18.03.2020
6456 Rain 7 1010 93 3000 6.2 250 06:44 18.03.2020
6457 Rain 7 1010 93 4000 7.2 250 05:56 18.03.2020
6458 Rain 7 1010 93 4000 7.2 250 05:33 18.03.2020
6459 Rain 7 1009 93 3000 7.7 260 03:56 18.03.2020
6460 Rain 7 1009 87 3000 6.7 260 02:42 18.03.2020
6461 Rain 7 1009 93 2000 9.8 250 01:47 18.03.2020
6462 Rain 7 1009 93 2000 9.8 250 01:21 18.03.2020
6463 Rain 7 1008 87 3500 11.3 250 00:23 18.03.2020
6464 Rain 7 1009 93 2500 9.3 240 23:47 17.03.2020
6465 Rain 7 1009 93 2500 9.3 240 23:47 17.03.2020
6466 Rain 7 1009 93 2500 9.3 240 23:26 17.03.2020
6467 Rain 7 1010 93 4000 9.3 260 22:55 17.03.2020
6468 Drizzle 7 1010 93 4000 7.7 250 22:37 17.03.2020
6469 Drizzle 7 1010 93 4000 7.7 250 22:18 17.03.2020
6470 Rain 7 1010 93 3000 6.2 250 21:39 17.03.2020
6471 Rain 7 1010 93 3000 6.2 250 21:21 17.03.2020
6472 Rain 7 1010 93 3000 6.2 250 21:21 17.03.2020
6473 Rain 7 1010 87 2500 7.7 260 20:40 17.03.2020
6474 Rain 7 1010 87 2500 7.7 260 20:21 17.03.2020
6475 Rain 9 1010 81 4000 7.2 250 19:58 17.03.2020
6476 Rain 9 1010 81 4000 7.2 250 19:39 17.03.2020
6477 Rain 9 1010 81 4000 7.2 250 19:18 17.03.2020
6478 Clouds 9 1009 81 3500 6.7 250 18:55 17.03.2020
6479 Clouds 9 1009 81 3500 6.7 250 18:37 17.03.2020
6480 Clouds 9 1009 81 3500 6.7 250 18:19 17.03.2020
6481 Rain 9 1010 81 2500 6.2 260 17:40 17.03.2020
6482 Rain 9 1010 81 2500 6.2 260 17:21 17.03.2020
6483 Rain 10 1010 87 2000 6.2 260 16:55 17.03.2020
6484 Rain 10 1010 87 2000 6.2 260 16:36 17.03.2020
6485 Drizzle 10 1010 87 3000 7.2 280 16:18 17.03.2020
6486 Drizzle 11 1010 87 3000 7.2 230 15:41 17.03.2020
6487 Drizzle 11 1010 87 3000 7.2 230 15:19 17.03.2020
6488 Rain 15 1010 67 1500 9.3 230 14:42 17.03.2020
6489 Rain 15 1010 58 4000 6.2 190 14:21 17.03.2020
6490 Clouds 15 1010 58 7000 7.2 250 13:44 17.03.2020
6491 Clouds 15 1010 58 7000 7.2 250 13:26 17.03.2020
6492 Clouds 15 1011 58 7000 6.2 260 12:58 17.03.2020
6493 Clouds 15 1011 58 7000 6.2 260 12:40 17.03.2020
6494 Clouds 15 1011 58 7000 6.2 260 12:22 17.03.2020
6495 Clouds 14 1012 71 6000 6.2 250 11:46 17.03.2020
6496 Clouds 14 1012 71 6000 6.2 250 11:28 17.03.2020
6497 Clouds 14 1013 67 6000 5.7 250 10:58 17.03.2020
6498 Clouds 14 1013 67 6000 5.7 250 10:38 17.03.2020
6499 Clouds 14 1013 67 6000 5.7 250 10:20 17.03.2020
6500 Haze 13 1013 71 5000 5.7 260 09:59 17.03.2020
6501 Haze 13 1013 71 5000 5.7 260 09:39 17.03.2020
6502 Haze 13 1013 71 5000 5.7 260 09:19 17.03.2020
6503 Haze 12 1013 76 5000 4.1 250 08:47 17.03.2020
6504 Haze 12 1013 76 5000 4.1 250 08:22 17.03.2020
6505 Haze 11 1013 81 5000 3.6 260 07:50 17.03.2020
6506 Haze 11 1013 81 5000 3.6 260 07:26 17.03.2020
6507 Haze 10 1013 81 5000 3.6 260 06:58 17.03.2020
6508 Mist 9 1013 87 4000 3.6 250 06:33 17.03.2020
6509 Mist 9 1013 87 3000 4.1 250 05:49 17.03.2020
6510 Mist 10 1013 93 5000 3.6 250 03:43 17.03.2020
6511 Clear 10 1014 87 7000 3.1 250 02:46 17.03.2020
6512 Clear 10 1014 87 7000 2.6 260 01:44 17.03.2020
6513 Clear 10 1014 87 7000 2.6 260 01:25 17.03.2020
6514 Clear 12 1015 82 7000 3.1 250 00:46 17.03.2020
6515 Mist 12 1016 100 5000 4.6 290 23:48 16.03.2020
6516 Clear 12 1015 76 7000 2.1 240 23:30 16.03.2020
6517 Clear 13 1015 82 6000 1.5 220 22:42 16.03.2020
6518 Clear 13 1015 82 6000 1.5 220 22:24 16.03.2020
6519 Clear 13 1015 82 6000 2.6 250 21:58 16.03.2020
6520 Clear 13 1015 82 6000 2.6 250 21:40 16.03.2020
6521 Clear 13 1015 82 6000 2.6 250 21:22 16.03.2020
6522 Haze 13 1015 82 5000 2.6 290 20:56 16.03.2020
6523 Haze 13 1015 82 5000 2.6 290 20:37 16.03.2020
6524 Haze 13 1015 82 5000 2.6 290 20:19 16.03.2020
6525 Haze 13 1016 82 5000 2.1 310 19:41 16.03.2020
6526 Haze 13 1016 82 5000 2.1 310 19:21 16.03.2020
6527 Haze 14 1016 77 4000 2.1 320 18:56 16.03.2020
6528 Haze 14 1016 77 4000 2.1 320 18:37 16.03.2020
6529 Haze 14 1016 77 4000 2.1 320 18:18 16.03.2020
6530 Haze 16 1015 67 4000 2.1 240 17:42 16.03.2020
6531 Haze 16 1015 67 4000 2.1 240 17:22 16.03.2020
6532 Haze 18 1015 59 4000 3.1 250 16:46 16.03.2020
6533 Haze 18 1015 59 4000 3.1 250 16:27 16.03.2020
6534 Haze 18 1015 59 4000 4.6 220 15:56 16.03.2020
6535 Haze 18 1015 59 4000 4.6 220 15:37 16.03.2020
6536 Haze 18 1015 59 4000 4.6 220 15:18 16.03.2020
6537 Clouds 19 1015 45 6000 3.1 240 14:42 16.03.2020
6538 Clouds 19 1015 45 6000 3.1 240 14:19 16.03.2020
6539 Clouds 20 1016 52 6000 3.1 240 13:42 16.03.2020
6540 Clouds 20 1016 52 6000 3.1 240 13:23 16.03.2020
6541 Clouds 19 1016 52 6000 2.1 230 12:46 16.03.2020
6542 Clouds 19 1016 52 6000 2.1 230 12:26 16.03.2020
6543 Clouds 18 1017 59 6000 2.1 230 11:59 16.03.2020
6544 Clouds 18 1017 59 6000 2.1 230 11:41 16.03.2020
6545 Clouds 18 1017 59 6000 2.1 230 11:18 16.03.2020
6546 Haze 18 1017 63 5000 2.1 210 10:42 16.03.2020
6547 Haze 18 1017 63 5000 2.1 210 10:24 16.03.2020
6548 Haze 17 1017 67 5000 9.3 280 09:45 16.03.2020
6549 Haze 17 1018 67 4000 1 230 09:27 16.03.2020
6550 Haze 15 1018 72 4000 2.1 240 08:58 16.03.2020
6551 Haze 15 1018 72 4000 2.1 240 08:26 16.03.2020
6552 Haze 13 1017 87 3500 1 240 07:54 16.03.2020
6553 Haze 13 1017 87 3500 1 240 07:28 16.03.2020
6554 Mist 11 1017 87 3000 1.5 230 06:54 16.03.2020
6555 Mist 11 1017 87 3000 1.5 230 06:54 16.03.2020
6556 Mist 11 1017 87 3000 1.5 230 06:27 16.03.2020
6557 Mist 9 1017 100 1700 1.5 210 05:54 16.03.2020
6558 Mist 10 1016 87 3500 1.24 291 03:31 16.03.2020
6559 Mist 10 1017 87 5000 1 180 01:20 16.03.2020
6560 Mist 10 1017 87 5000 1.57 288 00:43 16.03.2020
6561 Mist 11 1018 87 5000 1.57 288 23:49 15.03.2020
6562 Mist 11 1018 87 5000 1.57 288 23:22 15.03.2020
6563 Haze 12 1018 76 5000 1.5 240 22:58 15.03.2020
6564 Haze 12 1018 76 5000 1.5 240 22:38 15.03.2020
6565 Haze 12 1018 76 5000 1.5 240 22:19 15.03.2020
6566 Haze 12 1018 82 5000 1.5 230 21:39 15.03.2020
6567 Haze 12 1018 82 5000 1.5 230 21:20 15.03.2020
6568 Haze 13 1018 76 5000 1.5 240 20:44 15.03.2020
6569 Haze 13 1018 76 5000 1.5 240 20:22 15.03.2020
6570 Haze 14 1018 76 4000 2.1 250 19:59 15.03.2020
6571 Haze 14 1018 76 4000 2.1 250 19:59 15.03.2020
6572 Haze 14 1018 76 4000 2.1 250 19:41 15.03.2020
6573 Haze 14 1018 76 4000 2.1 250 19:23 15.03.2020
6574 Dust 14 1018 76 3000 1.5 240 18:59 15.03.2020
6575 Dust 14 1018 76 3000 1.5 240 18:39 15.03.2020
6576 Dust 14 1018 76 3000 1.5 240 18:21 15.03.2020
6577 Dust 15 1018 77 3000 2.6 250 17:54 15.03.2020
6578 Dust 15 1018 77 3000 2.6 250 17:36 15.03.2020
6579 Dust 15 1018 77 3000 2.6 250 17:18 15.03.2020
6580 Haze 16 1017 82 4000 4.1 260 16:42 15.03.2020
6581 Dust 17 1017 67 3000 4.6 250 16:24 15.03.2020
6582 Dust 17 1017 72 3000 2.1 220 15:58 15.03.2020
6583 Dust 17 1017 72 3000 2.1 220 15:40 15.03.2020
6584 Dust 17 1017 72 3000 2.1 220 15:19 15.03.2020
6585 Dust 18 1017 59 2500 1.5 220 14:46 15.03.2020
6586 Dust 18 1017 59 2500 1.5 220 14:24 15.03.2020
6587 Dust 18 1017 59 3000 3.1 260 13:58 15.03.2020
6588 Dust 18 1017 59 3000 3.1 260 13:38 15.03.2020
6589 Dust 18 1017 59 3000 3.1 260 13:38 15.03.2020
6590 Dust 18 1017 59 3000 3.1 260 13:20 15.03.2020
6591 Haze 17 1017 63 2500 1.5 260 12:44 15.03.2020
6592 Haze 17 1017 63 2500 1.5 260 12:26 15.03.2020
6593 Haze 16 1018 67 2500 1.5 260 11:57 15.03.2020
6594 Haze 16 1018 67 2500 1.5 260 11:39 15.03.2020
6595 Haze 16 1018 67 2500 1.5 260 11:20 15.03.2020
6596 Haze 15 1019 72 2500 1.51 273 10:56 15.03.2020
6597 Haze 15 1019 72 2500 1.51 273 10:36 15.03.2020
6598 Haze 15 1019 72 2500 1.51 273 10:18 15.03.2020
6599 Haze 15 1019 72 3000 1.51 273 09:40 15.03.2020
6600 Haze 15 1019 72 3000 1.51 273 09:21 15.03.2020
6601 Haze 13 1019 82 3000 1.51 273 08:44 15.03.2020
6602 Haze 13 1019 82 3000 0.87 223 08:21 15.03.2020
6603 Mist 12 1019 93 2500 2.6 280 07:51 15.03.2020
6604 Mist 12 1018 93 2000 1.5 240 07:32 15.03.2020
6605 Mist 10 1019 100 1000 2.52 318 06:53 15.03.2020
6606 Mist 11 1018 93 2000 1.5 230 06:18 15.03.2020
6607 Mist 10 1018 93 2000 2.52 318 05:21 15.03.2020
6608 Mist 11 1017 93 3000 4.12 320 04:43 15.03.2020
6609 Mist 11 1017 93 3000 4.12 320 04:25 15.03.2020
6610 Mist 11 1017 87 3500 2.6 250 03:54 15.03.2020
6611 Mist 12 1017 87 4000 2.6 250 02:44 15.03.2020
6612 Mist 12 1017 87 4000 2.1 230 01:35 15.03.2020
6613 Mist 12 1017 87 4000 2.1 230 00:46 15.03.2020
6614 Mist 12 1017 87 4000 2.1 230 00:27 15.03.2020
6615 Mist 12 1017 81 4000 4.1 260 23:56 14.03.2020
6616 Mist 12 1017 81 4000 4.1 260 23:37 14.03.2020
6617 Mist 12 1017 81 4000 4.1 260 23:18 14.03.2020
6618 Mist 11 1017 93 4000 5.1 250 22:44 14.03.2020
6619 Mist 11 1017 93 4000 5.1 250 22:26 14.03.2020
6620 Mist 11 1017 93 4000 4.1 250 21:57 14.03.2020
6621 Mist 11 1017 93 4000 4.1 250 21:36 14.03.2020
6622 Mist 11 1017 93 4000 4.1 250 21:18 14.03.2020
6623 Mist 12 1016 87 4000 5.7 250 20:59 14.03.2020
6624 Mist 12 1016 87 4000 5.7 250 20:40 14.03.2020
6625 Mist 12 1016 87 4000 5.7 250 20:20 14.03.2020
6626 Mist 13 1016 82 3000 4.6 270 19:58 14.03.2020
6627 Mist 13 1016 82 3000 4.6 270 19:39 14.03.2020
6628 Mist 13 1016 82 3000 4.6 270 19:19 14.03.2020
6629 Mist 13 1015 87 3000 3.1 250 18:37 14.03.2020
6630 Mist 13 1015 87 3000 3.1 250 18:19 14.03.2020
6631 Mist 13 1014 87 2000 4.6 260 17:40 14.03.2020
6632 Mist 13 1014 87 2000 4.6 260 17:21 14.03.2020
6633 Mist 13 1013 87 2000 4.6 250 16:57 14.03.2020
6634 Mist 13 1013 87 2000 4.6 250 16:38 14.03.2020
6635 Mist 13 1013 87 2000 4.6 250 16:18 14.03.2020
6636 Mist 13 1012 87 2000 6.2 280 15:28 14.03.2020
6637 Drizzle 13 1012 93 2000 5.1 260 14:59 14.03.2020
6638 Drizzle 13 1012 93 2000 5.1 260 14:38 14.03.2020
6639 Drizzle 13 1012 93 2000 5.1 260 14:20 14.03.2020
6640 Drizzle 13 1012 87 2500 7.7 260 13:56 14.03.2020
6641 Drizzle 13 1012 87 2500 7.7 260 13:38 14.03.2020
6642 Drizzle 13 1012 87 2500 7.7 260 13:19 14.03.2020
6643 Drizzle 13 1012 87 3500 8.7 290 12:44 14.03.2020
6644 Drizzle 13 1012 87 5000 7.7 270 12:25 14.03.2020
6645 Drizzle 14 1011 76 6000 6.7 280 11:45 14.03.2020
6646 Drizzle 14 1011 76 6000 6.7 280 11:26 14.03.2020
6647 Mist 13 1011 87 4000 7.7 280 10:57 14.03.2020
6648 Drizzle 13 1011 82 6000 7.7 280 10:38 14.03.2020
6649 Drizzle 13 1011 82 6000 7.7 280 10:20 14.03.2020
6650 Drizzle 13 1011 87 6000 5.7 300 09:41 14.03.2020
6651 Drizzle 13 1011 87 6000 5.7 300 09:22 14.03.2020
6652 Clouds 11 1010 87 6000 7.2 300 08:47 14.03.2020
6653 Clouds 11 1010 87 6000 7.2 300 08:47 14.03.2020
6654 Clouds 11 1010 87 6000 7.2 300 08:27 14.03.2020
6655 Clouds 11 1009 93 6000 7.2 310 07:49 14.03.2020
6656 Clouds 11 1009 93 6000 7.2 310 07:23 14.03.2020
6657 Mist 11 1008 87 3000 8.7 200 06:59 14.03.2020
6658 Clouds 10 1008 93 8000 4.6 320 06:39 14.03.2020
6659 Drizzle 10 1006 100 2000 7.7 250 05:19 14.03.2020
6660 Rain 10 1004 93 2500 5.1 220 03:42 14.03.2020
6661 Rain 10 1004 93 2500 5.1 220 03:23 14.03.2020
6662 Rain 9 1003 100 1500 4.1 200 02:20 14.03.2020
6663 Mist 10 1004 93 3000 5.1 200 00:42 14.03.2020
6664 Mist 10 1004 93 3000 5.1 200 23:45 13.03.2020
6665 Rain 10 1004 87 3000 4.1 230 23:27 13.03.2020
6666 Rain 11 1004 87 1800 3.6 220 22:49 13.03.2020
6667 Rain 11 1004 87 1800 3.6 220 22:26 13.03.2020
6668 Rain 11 1004 87 1800 2.1 180 21:44 13.03.2020
6669 Rain 11 1004 87 1800 2.1 180 21:21 13.03.2020
6670 Rain 10 1004 100 3000 2.6 90 20:58 13.03.2020
6671 Rain 10 1004 100 3000 2.6 90 20:39 13.03.2020
6672 Rain 11 1004 93 3000 5.1 200 20:20 13.03.2020
6673 Rain 11 1004 93 3000 3.1 170 19:48 13.03.2020
6674 Rain 11 1003 93 5000 2.1 210 19:30 13.03.2020
6675 Rain 11 1004 93 3000 5.1 200 18:49 13.03.2020
6676 Rain 11 1003 93 4000 2.1 160 18:31 13.03.2020
6677 Rain 11 1003 93 4000 2.1 120 17:57 13.03.2020
6678 Rain 11 1003 93 4000 2.1 120 17:38 13.03.2020
6679 Rain 11 1003 93 4000 2.1 120 17:20 13.03.2020
6680 Rain 11 1003 87 4000 6.2 260 16:42 13.03.2020
6681 Rain 11 1003 87 2000 6.2 260 16:24 13.03.2020
6682 Rain 11 1003 93 2000 6.2 250 15:58 13.03.2020
6683 Rain 11 1003 93 2000 6.2 250 15:38 13.03.2020
6684 Rain 11 1003 87 2000 6.2 260 15:20 13.03.2020
6685 Rain 12 1003 87 2000 2.6 250 14:41 13.03.2020
6686 Rain 13 1002 76 3000 5.1 250 14:22 13.03.2020
6687 Rain 15 1001 72 4000 2.6 250 13:57 13.03.2020
6688 Rain 15 1001 72 4000 2.6 250 13:39 13.03.2020
6689 Rain 14 1002 58 6000 4.1 220 13:19 13.03.2020
6690 Rain 15 1002 54 6000 4.1 220 12:55 13.03.2020
6691 Rain 15 1002 54 6000 4.1 220 12:36 13.03.2020
6692 Rain 15 1002 54 6000 4.1 220 12:18 13.03.2020
6693 Haze 14 1002 67 5000 3.1 260 11:42 13.03.2020
6694 Haze 14 1002 67 5000 3.1 260 11:24 13.03.2020
6695 Haze 15 1002 58 5000 6.2 230 10:57 13.03.2020
6696 Haze 15 1002 58 5000 6.2 230 10:39 13.03.2020
6697 Haze 15 1002 58 5000 6.2 230 10:21 13.03.2020
6698 Clouds 14 1003 71 8000 4.1 220 09:44 13.03.2020
6699 Clouds 14 1003 71 8000 4.1 220 09:25 13.03.2020
6700 Clouds 14 1002 76 10000 4.1 260 08:48 13.03.2020
6701 Clouds 14 1002 76 10000 4.1 260 08:23 13.03.2020
6702 Mist 13 1002 87 4000 2.6 250 07:58 13.03.2020
6703 Mist 13 1002 87 4000 2.6 250 07:38 13.03.2020
6704 Mist 13 1002 87 4000 2.6 250 07:19 13.03.2020
6705 Drizzle 12 1002 93 4000 4.1 260 06:44 13.03.2020
6706 Drizzle 12 1002 93 4000 4.1 260 06:44 13.03.2020
6707 Drizzle 12 1002 93 4000 4.1 260 05:56 13.03.2020
6708 Drizzle 12 1001 93 3000 1 200 05:37 13.03.2020
6709 Thunderstorm 12 1000 93 4000 2.6 120 04:38 13.03.2020
6710 Thunderstorm 13 1000 82 3500 4.1 240 03:50 13.03.2020
6711 Thunderstorm 17 1001 55 4000 12.3 300 01:48 13.03.2020
6712 Rain 17 1000 55 4000 7.7 100 01:19 13.03.2020
6713 Rain 17 1000 55 4000 7.7 100 00:56 13.03.2020
6714 Rain 17 1000 55 4000 7.7 100 00:38 13.03.2020
6715 Rain 17 1000 55 4000 7.7 100 00:18 13.03.2020
6716 Thunderstorm 16 1002 63 4000 6.7 110 23:37 12.03.2020